<?xml version="1.0" encoding="UTF-8" standalone="no" ?>
<gpx xmlns="http://www.topografix.com/GPX/1/1" xmlns:xsi="http://www.w3.org/2001/XMLSchema-instance" xsi:schemaLocation="http://www.topografix.com/GPX/1/1 http://www.topografix.com/GPX/1/1/gpx.xsd" version="1.1" creator="VisuGPX - https://www.visugpx.com">
  <metadata>
    <name>Pornichet 29/09/2022</name>
    <desc><![CDATA[Sortie jeudi 29 septembre 2022]]></desc>
  </metadata>
  <trk>
    <name><![CDATA[Pornichet Cyclisme]]></name>
    <trkseg>
      <trkpt lat="47.26183" lon="-2.32245">
        <ele>62.799999237061</ele>
        <time>2022-09-29T06:52:09.000Z</time>
      </trkpt>
      <trkpt lat="47.26197" lon="-2.32242">
        <ele>62.799999237061</ele>
        <time>2022-09-29T06:52:15.000Z</time>
      </trkpt>
      <trkpt lat="47.26204" lon="-2.32259">
        <ele>62.799999237061</ele>
        <time>2022-09-29T06:52:21.000Z</time>
      </trkpt>
      <trkpt lat="47.26202" lon="-2.32261">
        <ele>62.400001525879</ele>
        <time>2022-09-29T06:52:22.000Z</time>
      </trkpt>
      <trkpt lat="47.262" lon="-2.32263">
        <ele>62</ele>
        <time>2022-09-29T06:52:23.000Z</time>
      </trkpt>
      <trkpt lat="47.26198" lon="-2.32264">
        <ele>61.599998474121</ele>
        <time>2022-09-29T06:52:24.000Z</time>
      </trkpt>
      <trkpt lat="47.26195" lon="-2.32264">
        <ele>61.200000762939</ele>
        <time>2022-09-29T06:52:25.000Z</time>
      </trkpt>
      <trkpt lat="47.26192" lon="-2.32264">
        <ele>60.799999237061</ele>
        <time>2022-09-29T06:52:26.000Z</time>
      </trkpt>
      <trkpt lat="47.26176" lon="-2.32267">
        <ele>60.799999237061</ele>
        <time>2022-09-29T06:52:29.000Z</time>
      </trkpt>
      <trkpt lat="47.2618" lon="-2.3225">
        <ele>60.799999237061</ele>
        <time>2022-09-29T06:52:32.000Z</time>
      </trkpt>
      <trkpt lat="47.26176" lon="-2.32243">
        <ele>60.799999237061</ele>
        <time>2022-09-29T06:52:34.000Z</time>
      </trkpt>
      <trkpt lat="47.26166" lon="-2.32234">
        <ele>60.200000762939</ele>
        <time>2022-09-29T06:52:37.000Z</time>
      </trkpt>
      <trkpt lat="47.26164" lon="-2.32231">
        <ele>59.799999237061</ele>
        <time>2022-09-29T06:52:38.000Z</time>
      </trkpt>
      <trkpt lat="47.2616" lon="-2.32228">
        <ele>59.400001525879</ele>
        <time>2022-09-29T06:52:39.000Z</time>
      </trkpt>
      <trkpt lat="47.26157" lon="-2.32224">
        <ele>59</ele>
        <time>2022-09-29T06:52:40.000Z</time>
      </trkpt>
      <trkpt lat="47.26155" lon="-2.3222">
        <ele>58.599998474121</ele>
        <time>2022-09-29T06:52:41.000Z</time>
      </trkpt>
      <trkpt lat="47.2615" lon="-2.32211">
        <ele>58.599998474121</ele>
        <time>2022-09-29T06:52:43.000Z</time>
      </trkpt>
      <trkpt lat="47.26142" lon="-2.32201">
        <ele>58.599998474121</ele>
        <time>2022-09-29T06:52:46.000Z</time>
      </trkpt>
      <trkpt lat="47.26143" lon="-2.32198">
        <ele>58.599998474121</ele>
        <time>2022-09-29T06:52:47.000Z</time>
      </trkpt>
      <trkpt lat="47.26146" lon="-2.32194">
        <ele>58.200000762939</ele>
        <time>2022-09-29T06:52:48.000Z</time>
      </trkpt>
      <trkpt lat="47.2615" lon="-2.3219">
        <ele>57.799999237061</ele>
        <time>2022-09-29T06:52:49.000Z</time>
      </trkpt>
      <trkpt lat="47.26136" lon="-2.32225">
        <ele>57.400001525879</ele>
        <time>2022-09-29T06:52:50.000Z</time>
      </trkpt>
      <trkpt lat="47.26138" lon="-2.32224">
        <ele>57</ele>
        <time>2022-09-29T06:52:51.000Z</time>
      </trkpt>
      <trkpt lat="47.26146" lon="-2.32212">
        <ele>56.599998474121</ele>
        <time>2022-09-29T06:52:52.000Z</time>
      </trkpt>
      <trkpt lat="47.26176" lon="-2.32163">
        <ele>56.599998474121</ele>
        <time>2022-09-29T06:52:54.000Z</time>
      </trkpt>
      <trkpt lat="47.26188" lon="-2.32132">
        <ele>56.599998474121</ele>
        <time>2022-09-29T06:52:55.000Z</time>
      </trkpt>
      <trkpt lat="47.26239" lon="-2.32004">
        <ele>56.599998474121</ele>
        <time>2022-09-29T06:53:00.000Z</time>
      </trkpt>
      <trkpt lat="47.26244" lon="-2.31995">
        <ele>56.599998474121</ele>
        <time>2022-09-29T06:53:01.000Z</time>
      </trkpt>
      <trkpt lat="47.26262" lon="-2.31967">
        <ele>56.599998474121</ele>
        <time>2022-09-29T06:53:06.000Z</time>
      </trkpt>
      <trkpt lat="47.26274" lon="-2.3196">
        <ele>56.599998474121</ele>
        <time>2022-09-29T06:53:12.000Z</time>
      </trkpt>
      <trkpt lat="47.26272" lon="-2.31967">
        <ele>56.599998474121</ele>
        <time>2022-09-29T06:53:15.000Z</time>
      </trkpt>
      <trkpt lat="47.26272" lon="-2.31967">
        <ele>56.599998474121</ele>
        <time>2022-09-29T06:53:16.000Z</time>
      </trkpt>
      <trkpt lat="47.26256" lon="-2.31982">
        <ele>56.599998474121</ele>
        <time>2022-09-29T06:53:22.000Z</time>
      </trkpt>
      <trkpt lat="47.26243" lon="-2.32">
        <ele>56.599998474121</ele>
        <time>2022-09-29T06:53:28.000Z</time>
      </trkpt>
      <trkpt lat="47.26234" lon="-2.32013">
        <ele>56.599998474121</ele>
        <time>2022-09-29T06:53:33.000Z</time>
      </trkpt>
      <trkpt lat="47.26223" lon="-2.3202">
        <ele>56.599998474121</ele>
        <time>2022-09-29T06:53:38.000Z</time>
      </trkpt>
      <trkpt lat="47.26209" lon="-2.3203">
        <ele>56.599998474121</ele>
        <time>2022-09-29T06:53:43.000Z</time>
      </trkpt>
      <trkpt lat="47.26202" lon="-2.32036">
        <ele>56.599998474121</ele>
        <time>2022-09-29T06:53:47.000Z</time>
      </trkpt>
      <trkpt lat="47.26202" lon="-2.32038">
        <ele>56.599998474121</ele>
        <time>2022-09-29T06:53:48.000Z</time>
      </trkpt>
      <trkpt lat="47.262" lon="-2.32043">
        <ele>56.599998474121</ele>
        <time>2022-09-29T06:53:51.000Z</time>
      </trkpt>
      <trkpt lat="47.26199" lon="-2.32044">
        <ele>56.599998474121</ele>
        <time>2022-09-29T06:53:52.000Z</time>
      </trkpt>
      <trkpt lat="47.26188" lon="-2.32044">
        <ele>56.599998474121</ele>
        <time>2022-09-29T06:53:57.000Z</time>
      </trkpt>
      <trkpt lat="47.26176" lon="-2.32049">
        <ele>56.599998474121</ele>
        <time>2022-09-29T06:54:01.000Z</time>
      </trkpt>
      <trkpt lat="47.26172" lon="-2.32051">
        <ele>56.599998474121</ele>
        <time>2022-09-29T06:54:02.000Z</time>
      </trkpt>
      <trkpt lat="47.26161" lon="-2.32065">
        <ele>56.599998474121</ele>
        <time>2022-09-29T06:54:06.000Z</time>
      </trkpt>
      <trkpt lat="47.26153" lon="-2.32088">
        <ele>56.599998474121</ele>
        <time>2022-09-29T06:54:11.000Z</time>
      </trkpt>
      <trkpt lat="47.2615" lon="-2.32093">
        <ele>56.599998474121</ele>
        <time>2022-09-29T06:54:12.000Z</time>
      </trkpt>
      <trkpt lat="47.26145" lon="-2.32108">
        <ele>56.599998474121</ele>
        <time>2022-09-29T06:54:15.000Z</time>
      </trkpt>
      <trkpt lat="47.26139" lon="-2.32131">
        <ele>56.599998474121</ele>
        <time>2022-09-29T06:54:20.000Z</time>
      </trkpt>
      <trkpt lat="47.26133" lon="-2.32154">
        <ele>56.599998474121</ele>
        <time>2022-09-29T06:54:25.000Z</time>
      </trkpt>
      <trkpt lat="47.26122" lon="-2.32185">
        <ele>56.599998474121</ele>
        <time>2022-09-29T06:54:31.000Z</time>
      </trkpt>
      <trkpt lat="47.26106" lon="-2.32215">
        <ele>56.599998474121</ele>
        <time>2022-09-29T06:54:37.000Z</time>
      </trkpt>
      <trkpt lat="47.26084" lon="-2.32246">
        <ele>56.599998474121</ele>
        <time>2022-09-29T06:54:44.000Z</time>
      </trkpt>
      <trkpt lat="47.26058" lon="-2.32274">
        <ele>56.599998474121</ele>
        <time>2022-09-29T06:54:51.000Z</time>
      </trkpt>
      <trkpt lat="47.26032" lon="-2.32302">
        <ele>56.599998474121</ele>
        <time>2022-09-29T06:54:58.000Z</time>
      </trkpt>
      <trkpt lat="47.26007" lon="-2.32334">
        <ele>56.599998474121</ele>
        <time>2022-09-29T06:55:05.000Z</time>
      </trkpt>
      <trkpt lat="47.25992" lon="-2.32353">
        <ele>57</ele>
        <time>2022-09-29T06:55:09.000Z</time>
      </trkpt>
      <trkpt lat="47.25988" lon="-2.32357">
        <ele>57.400001525879</ele>
        <time>2022-09-29T06:55:10.000Z</time>
      </trkpt>
      <trkpt lat="47.25984" lon="-2.32361">
        <ele>57.799999237061</ele>
        <time>2022-09-29T06:55:11.000Z</time>
      </trkpt>
      <trkpt lat="47.25981" lon="-2.32366">
        <ele>58.200000762939</ele>
        <time>2022-09-29T06:55:12.000Z</time>
      </trkpt>
      <trkpt lat="47.25978" lon="-2.3237">
        <ele>58.599998474121</ele>
        <time>2022-09-29T06:55:13.000Z</time>
      </trkpt>
      <trkpt lat="47.25971" lon="-2.32379">
        <ele>58.599998474121</ele>
        <time>2022-09-29T06:55:15.000Z</time>
      </trkpt>
      <trkpt lat="47.25938" lon="-2.3242">
        <ele>58.599998474121</ele>
        <time>2022-09-29T06:55:25.000Z</time>
      </trkpt>
      <trkpt lat="47.25915" lon="-2.32449">
        <ele>58.599998474121</ele>
        <time>2022-09-29T06:55:32.000Z</time>
      </trkpt>
      <trkpt lat="47.2591" lon="-2.32457">
        <ele>58.599998474121</ele>
        <time>2022-09-29T06:55:34.000Z</time>
      </trkpt>
      <trkpt lat="47.25913" lon="-2.32465">
        <ele>58.599998474121</ele>
        <time>2022-09-29T06:55:36.000Z</time>
      </trkpt>
      <trkpt lat="47.25919" lon="-2.32468">
        <ele>58.599998474121</ele>
        <time>2022-09-29T06:55:38.000Z</time>
      </trkpt>
      <trkpt lat="47.25925" lon="-2.32474">
        <ele>58.599998474121</ele>
        <time>2022-09-29T06:55:40.000Z</time>
      </trkpt>
      <trkpt lat="47.25934" lon="-2.32496">
        <ele>58.599998474121</ele>
        <time>2022-09-29T06:55:44.000Z</time>
      </trkpt>
      <trkpt lat="47.25946" lon="-2.32533">
        <ele>58.599998474121</ele>
        <time>2022-09-29T06:55:50.000Z</time>
      </trkpt>
      <trkpt lat="47.25948" lon="-2.32539">
        <ele>58.599998474121</ele>
        <time>2022-09-29T06:55:51.000Z</time>
      </trkpt>
      <trkpt lat="47.25961" lon="-2.32581">
        <ele>58.599998474121</ele>
        <time>2022-09-29T06:55:58.000Z</time>
      </trkpt>
      <trkpt lat="47.25968" lon="-2.3263">
        <ele>58.599998474121</ele>
        <time>2022-09-29T06:56:06.000Z</time>
      </trkpt>
      <trkpt lat="47.25967" lon="-2.32642">
        <ele>59</ele>
        <time>2022-09-29T06:56:08.000Z</time>
      </trkpt>
      <trkpt lat="47.25967" lon="-2.32648">
        <ele>59.400001525879</ele>
        <time>2022-09-29T06:56:09.000Z</time>
      </trkpt>
      <trkpt lat="47.25968" lon="-2.32652">
        <ele>59.799999237061</ele>
        <time>2022-09-29T06:56:10.000Z</time>
      </trkpt>
      <trkpt lat="47.2597" lon="-2.32654">
        <ele>60.599998474121</ele>
        <time>2022-09-29T06:56:11.000Z</time>
      </trkpt>
      <trkpt lat="47.25983" lon="-2.32654">
        <ele>60.599998474121</ele>
        <time>2022-09-29T06:56:15.000Z</time>
      </trkpt>
      <trkpt lat="47.25987" lon="-2.32655">
        <ele>60.599998474121</ele>
        <time>2022-09-29T06:56:16.000Z</time>
      </trkpt>
      <trkpt lat="47.26009" lon="-2.32653">
        <ele>60.599998474121</ele>
        <time>2022-09-29T06:56:22.000Z</time>
      </trkpt>
      <trkpt lat="47.26033" lon="-2.3265">
        <ele>60.599998474121</ele>
        <time>2022-09-29T06:56:28.000Z</time>
      </trkpt>
      <trkpt lat="47.26041" lon="-2.32648">
        <ele>61</ele>
        <time>2022-09-29T06:56:30.000Z</time>
      </trkpt>
      <trkpt lat="47.26045" lon="-2.32647">
        <ele>61.400001525879</ele>
        <time>2022-09-29T06:56:31.000Z</time>
      </trkpt>
      <trkpt lat="47.26048" lon="-2.32647">
        <ele>61.799999237061</ele>
        <time>2022-09-29T06:56:32.000Z</time>
      </trkpt>
      <trkpt lat="47.26052" lon="-2.32646">
        <ele>62.200000762939</ele>
        <time>2022-09-29T06:56:33.000Z</time>
      </trkpt>
      <trkpt lat="47.26056" lon="-2.32646">
        <ele>62.799999237061</ele>
        <time>2022-09-29T06:56:34.000Z</time>
      </trkpt>
      <trkpt lat="47.26063" lon="-2.32644">
        <ele>62.799999237061</ele>
        <time>2022-09-29T06:56:36.000Z</time>
      </trkpt>
      <trkpt lat="47.26093" lon="-2.32639">
        <ele>62.799999237061</ele>
        <time>2022-09-29T06:56:43.000Z</time>
      </trkpt>
      <trkpt lat="47.26118" lon="-2.32637">
        <ele>63.200000762939</ele>
        <time>2022-09-29T06:56:49.000Z</time>
      </trkpt>
      <trkpt lat="47.26122" lon="-2.32637">
        <ele>63.599998474121</ele>
        <time>2022-09-29T06:56:50.000Z</time>
      </trkpt>
      <trkpt lat="47.26127" lon="-2.32637">
        <ele>64</ele>
        <time>2022-09-29T06:56:51.000Z</time>
      </trkpt>
      <trkpt lat="47.2613" lon="-2.32638">
        <ele>64.400001525879</ele>
        <time>2022-09-29T06:56:52.000Z</time>
      </trkpt>
      <trkpt lat="47.26135" lon="-2.32638">
        <ele>64.800003051758</ele>
        <time>2022-09-29T06:56:53.000Z</time>
      </trkpt>
      <trkpt lat="47.26148" lon="-2.32642">
        <ele>64.800003051758</ele>
        <time>2022-09-29T06:56:56.000Z</time>
      </trkpt>
      <trkpt lat="47.26173" lon="-2.32655">
        <ele>64.800003051758</ele>
        <time>2022-09-29T06:57:02.000Z</time>
      </trkpt>
      <trkpt lat="47.26189" lon="-2.32667">
        <ele>64.800003051758</ele>
        <time>2022-09-29T06:57:06.000Z</time>
      </trkpt>
      <trkpt lat="47.262" lon="-2.32678">
        <ele>64.800003051758</ele>
        <time>2022-09-29T06:57:09.000Z</time>
      </trkpt>
      <trkpt lat="47.2623" lon="-2.32715">
        <ele>64.800003051758</ele>
        <time>2022-09-29T06:57:17.000Z</time>
      </trkpt>
      <trkpt lat="47.26265" lon="-2.32768">
        <ele>64.800003051758</ele>
        <time>2022-09-29T06:57:26.000Z</time>
      </trkpt>
      <trkpt lat="47.26279" lon="-2.328">
        <ele>64.800003051758</ele>
        <time>2022-09-29T06:57:31.000Z</time>
      </trkpt>
      <trkpt lat="47.26281" lon="-2.32808">
        <ele>64.800003051758</ele>
        <time>2022-09-29T06:57:32.000Z</time>
      </trkpt>
      <trkpt lat="47.26288" lon="-2.32844">
        <ele>64.800003051758</ele>
        <time>2022-09-29T06:57:37.000Z</time>
      </trkpt>
      <trkpt lat="47.26298" lon="-2.3286">
        <ele>64.800003051758</ele>
        <time>2022-09-29T06:57:40.000Z</time>
      </trkpt>
      <trkpt lat="47.26313" lon="-2.32865">
        <ele>64.800003051758</ele>
        <time>2022-09-29T06:57:43.000Z</time>
      </trkpt>
      <trkpt lat="47.26322" lon="-2.32882">
        <ele>64.800003051758</ele>
        <time>2022-09-29T06:57:46.000Z</time>
      </trkpt>
      <trkpt lat="47.26324" lon="-2.32889">
        <ele>64.800003051758</ele>
        <time>2022-09-29T06:57:47.000Z</time>
      </trkpt>
      <trkpt lat="47.26331" lon="-2.3291">
        <ele>64.800003051758</ele>
        <time>2022-09-29T06:57:50.000Z</time>
      </trkpt>
      <trkpt lat="47.26346" lon="-2.32959">
        <ele>64.800003051758</ele>
        <time>2022-09-29T06:57:57.000Z</time>
      </trkpt>
      <trkpt lat="47.26353" lon="-2.32971">
        <ele>64.800003051758</ele>
        <time>2022-09-29T06:57:59.000Z</time>
      </trkpt>
      <trkpt lat="47.2636" lon="-2.32981">
        <ele>64.800003051758</ele>
        <time>2022-09-29T06:58:01.000Z</time>
      </trkpt>
      <trkpt lat="47.26364" lon="-2.32987">
        <ele>64.800003051758</ele>
        <time>2022-09-29T06:58:02.000Z</time>
      </trkpt>
      <trkpt lat="47.26368" lon="-2.33007">
        <ele>64.800003051758</ele>
        <time>2022-09-29T06:58:05.000Z</time>
      </trkpt>
      <trkpt lat="47.26369" lon="-2.33022">
        <ele>64.800003051758</ele>
        <time>2022-09-29T06:58:07.000Z</time>
      </trkpt>
      <trkpt lat="47.2637" lon="-2.33061">
        <ele>64.800003051758</ele>
        <time>2022-09-29T06:58:12.000Z</time>
      </trkpt>
      <trkpt lat="47.26374" lon="-2.3312">
        <ele>64.800003051758</ele>
        <time>2022-09-29T06:58:20.000Z</time>
      </trkpt>
      <trkpt lat="47.26378" lon="-2.33193">
        <ele>64.800003051758</ele>
        <time>2022-09-29T06:58:30.000Z</time>
      </trkpt>
      <trkpt lat="47.26383" lon="-2.33243">
        <ele>64.800003051758</ele>
        <time>2022-09-29T06:58:37.000Z</time>
      </trkpt>
      <trkpt lat="47.26384" lon="-2.3325">
        <ele>64.800003051758</ele>
        <time>2022-09-29T06:58:38.000Z</time>
      </trkpt>
      <trkpt lat="47.26391" lon="-2.3326">
        <ele>65.599998474121</ele>
        <time>2022-09-29T06:58:40.000Z</time>
      </trkpt>
      <trkpt lat="47.26395" lon="-2.33263">
        <ele>66</ele>
        <time>2022-09-29T06:58:41.000Z</time>
      </trkpt>
      <trkpt lat="47.26399" lon="-2.33265">
        <ele>66.400001525879</ele>
        <time>2022-09-29T06:58:42.000Z</time>
      </trkpt>
      <trkpt lat="47.26404" lon="-2.33266">
        <ele>66.800003051758</ele>
        <time>2022-09-29T06:58:43.000Z</time>
      </trkpt>
      <trkpt lat="47.26409" lon="-2.33266">
        <ele>66.800003051758</ele>
        <time>2022-09-29T06:58:44.000Z</time>
      </trkpt>
      <trkpt lat="47.26414" lon="-2.33267">
        <ele>66.800003051758</ele>
        <time>2022-09-29T06:58:45.000Z</time>
      </trkpt>
      <trkpt lat="47.26457" lon="-2.33272">
        <ele>66.800003051758</ele>
        <time>2022-09-29T06:58:54.000Z</time>
      </trkpt>
      <trkpt lat="47.26461" lon="-2.33274">
        <ele>66.800003051758</ele>
        <time>2022-09-29T06:58:55.000Z</time>
      </trkpt>
      <trkpt lat="47.2647" lon="-2.33277">
        <ele>66.800003051758</ele>
        <time>2022-09-29T06:58:57.000Z</time>
      </trkpt>
      <trkpt lat="47.26487" lon="-2.3328">
        <ele>66.800003051758</ele>
        <time>2022-09-29T06:59:01.000Z</time>
      </trkpt>
      <trkpt lat="47.26504" lon="-2.33283">
        <ele>66.800003051758</ele>
        <time>2022-09-29T06:59:05.000Z</time>
      </trkpt>
      <trkpt lat="47.26513" lon="-2.3329">
        <ele>66.800003051758</ele>
        <time>2022-09-29T06:59:07.000Z</time>
      </trkpt>
      <trkpt lat="47.26516" lon="-2.33294">
        <ele>66.800003051758</ele>
        <time>2022-09-29T06:59:08.000Z</time>
      </trkpt>
      <trkpt lat="47.26523" lon="-2.33306">
        <ele>66.800003051758</ele>
        <time>2022-09-29T06:59:10.000Z</time>
      </trkpt>
      <trkpt lat="47.26525" lon="-2.33313">
        <ele>67.199996948242</ele>
        <time>2022-09-29T06:59:11.000Z</time>
      </trkpt>
      <trkpt lat="47.26527" lon="-2.33321">
        <ele>67.599998474121</ele>
        <time>2022-09-29T06:59:12.000Z</time>
      </trkpt>
      <trkpt lat="47.26527" lon="-2.33328">
        <ele>68</ele>
        <time>2022-09-29T06:59:13.000Z</time>
      </trkpt>
      <trkpt lat="47.26527" lon="-2.33336">
        <ele>68.400001525879</ele>
        <time>2022-09-29T06:59:14.000Z</time>
      </trkpt>
      <trkpt lat="47.26527" lon="-2.33344">
        <ele>68.800003051758</ele>
        <time>2022-09-29T06:59:15.000Z</time>
      </trkpt>
      <trkpt lat="47.26531" lon="-2.33367">
        <ele>68.800003051758</ele>
        <time>2022-09-29T06:59:18.000Z</time>
      </trkpt>
      <trkpt lat="47.26533" lon="-2.33374">
        <ele>68.800003051758</ele>
        <time>2022-09-29T06:59:19.000Z</time>
      </trkpt>
      <trkpt lat="47.26544" lon="-2.33424">
        <ele>68.800003051758</ele>
        <time>2022-09-29T06:59:26.000Z</time>
      </trkpt>
      <trkpt lat="47.26557" lon="-2.33499">
        <ele>68.800003051758</ele>
        <time>2022-09-29T06:59:36.000Z</time>
      </trkpt>
      <trkpt lat="47.26565" lon="-2.33531">
        <ele>68.800003051758</ele>
        <time>2022-09-29T06:59:41.000Z</time>
      </trkpt>
      <trkpt lat="47.26566" lon="-2.33538">
        <ele>68.800003051758</ele>
        <time>2022-09-29T06:59:42.000Z</time>
      </trkpt>
      <trkpt lat="47.2657" lon="-2.33573">
        <ele>68.800003051758</ele>
        <time>2022-09-29T06:59:47.000Z</time>
      </trkpt>
      <trkpt lat="47.26572" lon="-2.33586">
        <ele>69.199996948242</ele>
        <time>2022-09-29T06:59:49.000Z</time>
      </trkpt>
      <trkpt lat="47.26573" lon="-2.33592">
        <ele>69.599998474121</ele>
        <time>2022-09-29T06:59:50.000Z</time>
      </trkpt>
      <trkpt lat="47.26574" lon="-2.33598">
        <ele>70</ele>
        <time>2022-09-29T06:59:51.000Z</time>
      </trkpt>
      <trkpt lat="47.26575" lon="-2.33605">
        <ele>70.400001525879</ele>
        <time>2022-09-29T06:59:52.000Z</time>
      </trkpt>
      <trkpt lat="47.26576" lon="-2.33611">
        <ele>70.800003051758</ele>
        <time>2022-09-29T06:59:53.000Z</time>
      </trkpt>
      <trkpt lat="47.26577" lon="-2.33617">
        <ele>70.800003051758</ele>
        <time>2022-09-29T06:59:54.000Z</time>
      </trkpt>
      <trkpt lat="47.26581" lon="-2.33651">
        <ele>71.199996948242</ele>
        <time>2022-09-29T07:00:00.000Z</time>
      </trkpt>
      <trkpt lat="47.26582" lon="-2.33656">
        <ele>71.599998474121</ele>
        <time>2022-09-29T07:00:01.000Z</time>
      </trkpt>
      <trkpt lat="47.26583" lon="-2.33662">
        <ele>72</ele>
        <time>2022-09-29T07:00:02.000Z</time>
      </trkpt>
      <trkpt lat="47.26586" lon="-2.33666">
        <ele>72.400001525879</ele>
        <time>2022-09-29T07:00:03.000Z</time>
      </trkpt>
      <trkpt lat="47.26588" lon="-2.33671">
        <ele>73</ele>
        <time>2022-09-29T07:00:04.000Z</time>
      </trkpt>
      <trkpt lat="47.2659" lon="-2.33675">
        <ele>73</ele>
        <time>2022-09-29T07:00:05.000Z</time>
      </trkpt>
      <trkpt lat="47.26606" lon="-2.33703">
        <ele>73</ele>
        <time>2022-09-29T07:00:11.000Z</time>
      </trkpt>
      <trkpt lat="47.26614" lon="-2.33716">
        <ele>73.400001525879</ele>
        <time>2022-09-29T07:00:14.000Z</time>
      </trkpt>
      <trkpt lat="47.26617" lon="-2.33721">
        <ele>73.800003051758</ele>
        <time>2022-09-29T07:00:15.000Z</time>
      </trkpt>
      <trkpt lat="47.26621" lon="-2.33725">
        <ele>74.199996948242</ele>
        <time>2022-09-29T07:00:16.000Z</time>
      </trkpt>
      <trkpt lat="47.26624" lon="-2.3373">
        <ele>74.599998474121</ele>
        <time>2022-09-29T07:00:17.000Z</time>
      </trkpt>
      <trkpt lat="47.26627" lon="-2.33734">
        <ele>75</ele>
        <time>2022-09-29T07:00:18.000Z</time>
      </trkpt>
      <trkpt lat="47.26643" lon="-2.33758">
        <ele>75</ele>
        <time>2022-09-29T07:00:23.000Z</time>
      </trkpt>
      <trkpt lat="47.26668" lon="-2.33796">
        <ele>75</ele>
        <time>2022-09-29T07:00:31.000Z</time>
      </trkpt>
      <trkpt lat="47.26689" lon="-2.33832">
        <ele>75</ele>
        <time>2022-09-29T07:00:38.000Z</time>
      </trkpt>
      <trkpt lat="47.26698" lon="-2.33849">
        <ele>75.400001525879</ele>
        <time>2022-09-29T07:00:41.000Z</time>
      </trkpt>
      <trkpt lat="47.26701" lon="-2.33854">
        <ele>75.800003051758</ele>
        <time>2022-09-29T07:00:42.000Z</time>
      </trkpt>
      <trkpt lat="47.26704" lon="-2.33858">
        <ele>76.599998474121</ele>
        <time>2022-09-29T07:00:43.000Z</time>
      </trkpt>
      <trkpt lat="47.26707" lon="-2.33862">
        <ele>77</ele>
        <time>2022-09-29T07:00:44.000Z</time>
      </trkpt>
      <trkpt lat="47.2671" lon="-2.33866">
        <ele>77</ele>
        <time>2022-09-29T07:00:45.000Z</time>
      </trkpt>
      <trkpt lat="47.2673" lon="-2.33895">
        <ele>77</ele>
        <time>2022-09-29T07:00:51.000Z</time>
      </trkpt>
      <trkpt lat="47.26733" lon="-2.33899">
        <ele>77</ele>
        <time>2022-09-29T07:00:52.000Z</time>
      </trkpt>
      <trkpt lat="47.26757" lon="-2.33939">
        <ele>77</ele>
        <time>2022-09-29T07:01:00.000Z</time>
      </trkpt>
      <trkpt lat="47.26763" lon="-2.33949">
        <ele>77</ele>
        <time>2022-09-29T07:01:02.000Z</time>
      </trkpt>
      <trkpt lat="47.26772" lon="-2.33962">
        <ele>77</ele>
        <time>2022-09-29T07:01:05.000Z</time>
      </trkpt>
      <trkpt lat="47.26782" lon="-2.33976">
        <ele>77</ele>
        <time>2022-09-29T07:01:08.000Z</time>
      </trkpt>
      <trkpt lat="47.26791" lon="-2.33991">
        <ele>77</ele>
        <time>2022-09-29T07:01:11.000Z</time>
      </trkpt>
      <trkpt lat="47.268" lon="-2.34006">
        <ele>77.400001525879</ele>
        <time>2022-09-29T07:01:14.000Z</time>
      </trkpt>
      <trkpt lat="47.26803" lon="-2.34011">
        <ele>77.800003051758</ele>
        <time>2022-09-29T07:01:15.000Z</time>
      </trkpt>
      <trkpt lat="47.26807" lon="-2.34017">
        <ele>78.199996948242</ele>
        <time>2022-09-29T07:01:16.000Z</time>
      </trkpt>
      <trkpt lat="47.2681" lon="-2.34022">
        <ele>78.599998474121</ele>
        <time>2022-09-29T07:01:17.000Z</time>
      </trkpt>
      <trkpt lat="47.26813" lon="-2.34027">
        <ele>79</ele>
        <time>2022-09-29T07:01:18.000Z</time>
      </trkpt>
      <trkpt lat="47.26838" lon="-2.34067">
        <ele>79</ele>
        <time>2022-09-29T07:01:26.000Z</time>
      </trkpt>
      <trkpt lat="47.26863" lon="-2.34107">
        <ele>79</ele>
        <time>2022-09-29T07:01:34.000Z</time>
      </trkpt>
      <trkpt lat="47.26881" lon="-2.34139">
        <ele>79</ele>
        <time>2022-09-29T07:01:40.000Z</time>
      </trkpt>
      <trkpt lat="47.26884" lon="-2.34144">
        <ele>79</ele>
        <time>2022-09-29T07:01:41.000Z</time>
      </trkpt>
      <trkpt lat="47.26904" lon="-2.34173">
        <ele>79</ele>
        <time>2022-09-29T07:01:47.000Z</time>
      </trkpt>
      <trkpt lat="47.2692" lon="-2.34197">
        <ele>79.400001525879</ele>
        <time>2022-09-29T07:01:52.000Z</time>
      </trkpt>
      <trkpt lat="47.26924" lon="-2.34202">
        <ele>79.800003051758</ele>
        <time>2022-09-29T07:01:53.000Z</time>
      </trkpt>
      <trkpt lat="47.26927" lon="-2.34207">
        <ele>80.199996948242</ele>
        <time>2022-09-29T07:01:54.000Z</time>
      </trkpt>
      <trkpt lat="47.2693" lon="-2.34212">
        <ele>80.599998474121</ele>
        <time>2022-09-29T07:01:55.000Z</time>
      </trkpt>
      <trkpt lat="47.26933" lon="-2.34217">
        <ele>81</ele>
        <time>2022-09-29T07:01:56.000Z</time>
      </trkpt>
      <trkpt lat="47.26948" lon="-2.34242">
        <ele>81</ele>
        <time>2022-09-29T07:02:01.000Z</time>
      </trkpt>
      <trkpt lat="47.26973" lon="-2.34282">
        <ele>81</ele>
        <time>2022-09-29T07:02:09.000Z</time>
      </trkpt>
      <trkpt lat="47.26993" lon="-2.34317">
        <ele>81</ele>
        <time>2022-09-29T07:02:16.000Z</time>
      </trkpt>
      <trkpt lat="47.26998" lon="-2.34318">
        <ele>81</ele>
        <time>2022-09-29T07:02:17.000Z</time>
      </trkpt>
      <trkpt lat="47.27007" lon="-2.3432">
        <ele>81</ele>
        <time>2022-09-29T07:02:19.000Z</time>
      </trkpt>
      <trkpt lat="47.27032" lon="-2.34325">
        <ele>81</ele>
        <time>2022-09-29T07:02:25.000Z</time>
      </trkpt>
      <trkpt lat="47.27036" lon="-2.34328">
        <ele>81.400001525879</ele>
        <time>2022-09-29T07:02:26.000Z</time>
      </trkpt>
      <trkpt lat="47.27039" lon="-2.34333">
        <ele>82</ele>
        <time>2022-09-29T07:02:27.000Z</time>
      </trkpt>
      <trkpt lat="47.27042" lon="-2.34339">
        <ele>82.400001525879</ele>
        <time>2022-09-29T07:02:28.000Z</time>
      </trkpt>
      <trkpt lat="47.27044" lon="-2.34346">
        <ele>82.800003051758</ele>
        <time>2022-09-29T07:02:29.000Z</time>
      </trkpt>
      <trkpt lat="47.27045" lon="-2.34353">
        <ele>83.199996948242</ele>
        <time>2022-09-29T07:02:30.000Z</time>
      </trkpt>
      <trkpt lat="47.27047" lon="-2.3436">
        <ele>83.199996948242</ele>
        <time>2022-09-29T07:02:31.000Z</time>
      </trkpt>
      <trkpt lat="47.2705" lon="-2.34375">
        <ele>83.199996948242</ele>
        <time>2022-09-29T07:02:33.000Z</time>
      </trkpt>
      <trkpt lat="47.27061" lon="-2.34419">
        <ele>83.199996948242</ele>
        <time>2022-09-29T07:02:39.000Z</time>
      </trkpt>
      <trkpt lat="47.27076" lon="-2.34485">
        <ele>83.199996948242</ele>
        <time>2022-09-29T07:02:48.000Z</time>
      </trkpt>
      <trkpt lat="47.27088" lon="-2.34542">
        <ele>83.199996948242</ele>
        <time>2022-09-29T07:02:56.000Z</time>
      </trkpt>
      <trkpt lat="47.271" lon="-2.34591">
        <ele>83.199996948242</ele>
        <time>2022-09-29T07:03:03.000Z</time>
      </trkpt>
      <trkpt lat="47.27116" lon="-2.34658">
        <ele>83.199996948242</ele>
        <time>2022-09-29T07:03:12.000Z</time>
      </trkpt>
      <trkpt lat="47.27131" lon="-2.34725">
        <ele>83.199996948242</ele>
        <time>2022-09-29T07:03:21.000Z</time>
      </trkpt>
      <trkpt lat="47.27139" lon="-2.34767">
        <ele>83.599998474121</ele>
        <time>2022-09-29T07:03:27.000Z</time>
      </trkpt>
      <trkpt lat="47.27141" lon="-2.34774">
        <ele>84</ele>
        <time>2022-09-29T07:03:28.000Z</time>
      </trkpt>
      <trkpt lat="47.27142" lon="-2.3478">
        <ele>84.400001525879</ele>
        <time>2022-09-29T07:03:29.000Z</time>
      </trkpt>
      <trkpt lat="47.27143" lon="-2.34787">
        <ele>84.800003051758</ele>
        <time>2022-09-29T07:03:30.000Z</time>
      </trkpt>
      <trkpt lat="47.27144" lon="-2.34794">
        <ele>85.199996948242</ele>
        <time>2022-09-29T07:03:31.000Z</time>
      </trkpt>
      <trkpt lat="47.27153" lon="-2.34829">
        <ele>85.199996948242</ele>
        <time>2022-09-29T07:03:36.000Z</time>
      </trkpt>
      <trkpt lat="47.27167" lon="-2.34889">
        <ele>85.199996948242</ele>
        <time>2022-09-29T07:03:45.000Z</time>
      </trkpt>
      <trkpt lat="47.27184" lon="-2.34939">
        <ele>85.199996948242</ele>
        <time>2022-09-29T07:03:53.000Z</time>
      </trkpt>
      <trkpt lat="47.27187" lon="-2.34953">
        <ele>85.599998474121</ele>
        <time>2022-09-29T07:03:55.000Z</time>
      </trkpt>
      <trkpt lat="47.2719" lon="-2.3496">
        <ele>86</ele>
        <time>2022-09-29T07:03:56.000Z</time>
      </trkpt>
      <trkpt lat="47.27192" lon="-2.34966">
        <ele>86.400001525879</ele>
        <time>2022-09-29T07:03:57.000Z</time>
      </trkpt>
      <trkpt lat="47.27194" lon="-2.34972">
        <ele>86.800003051758</ele>
        <time>2022-09-29T07:03:58.000Z</time>
      </trkpt>
      <trkpt lat="47.27196" lon="-2.34979">
        <ele>87.199996948242</ele>
        <time>2022-09-29T07:03:59.000Z</time>
      </trkpt>
      <trkpt lat="47.27198" lon="-2.34985">
        <ele>87.199996948242</ele>
        <time>2022-09-29T07:04:00.000Z</time>
      </trkpt>
      <trkpt lat="47.27214" lon="-2.35026">
        <ele>87.199996948242</ele>
        <time>2022-09-29T07:04:07.000Z</time>
      </trkpt>
      <trkpt lat="47.27236" lon="-2.35085">
        <ele>87.199996948242</ele>
        <time>2022-09-29T07:04:16.000Z</time>
      </trkpt>
      <trkpt lat="47.27258" lon="-2.35122">
        <ele>87.199996948242</ele>
        <time>2022-09-29T07:04:24.000Z</time>
      </trkpt>
      <trkpt lat="47.27272" lon="-2.35116">
        <ele>87.199996948242</ele>
        <time>2022-09-29T07:04:28.000Z</time>
      </trkpt>
      <trkpt lat="47.27275" lon="-2.35114">
        <ele>87.599998474121</ele>
        <time>2022-09-29T07:04:29.000Z</time>
      </trkpt>
      <trkpt lat="47.27279" lon="-2.35112">
        <ele>88</ele>
        <time>2022-09-29T07:04:30.000Z</time>
      </trkpt>
      <trkpt lat="47.27282" lon="-2.3511">
        <ele>88.599998474121</ele>
        <time>2022-09-29T07:04:31.000Z</time>
      </trkpt>
      <trkpt lat="47.27284" lon="-2.35109">
        <ele>89</ele>
        <time>2022-09-29T07:04:32.000Z</time>
      </trkpt>
      <trkpt lat="47.27287" lon="-2.35107">
        <ele>89.400001525879</ele>
        <time>2022-09-29T07:04:33.000Z</time>
      </trkpt>
      <trkpt lat="47.27291" lon="-2.35105">
        <ele>89.400001525879</ele>
        <time>2022-09-29T07:04:35.000Z</time>
      </trkpt>
      <trkpt lat="47.27296" lon="-2.35106">
        <ele>89.400001525879</ele>
        <time>2022-09-29T07:04:38.000Z</time>
      </trkpt>
      <trkpt lat="47.27299" lon="-2.35109">
        <ele>89.400001525879</ele>
        <time>2022-09-29T07:04:40.000Z</time>
      </trkpt>
      <trkpt lat="47.27301" lon="-2.35109">
        <ele>89.400001525879</ele>
        <time>2022-09-29T07:04:41.000Z</time>
      </trkpt>
      <trkpt lat="47.27308" lon="-2.35103">
        <ele>89.400001525879</ele>
        <time>2022-09-29T07:04:44.000Z</time>
      </trkpt>
      <trkpt lat="47.27311" lon="-2.35098">
        <ele>89.400001525879</ele>
        <time>2022-09-29T07:04:46.000Z</time>
      </trkpt>
      <trkpt lat="47.27313" lon="-2.35096">
        <ele>89.800003051758</ele>
        <time>2022-09-29T07:04:47.000Z</time>
      </trkpt>
      <trkpt lat="47.27315" lon="-2.35094">
        <ele>90.199996948242</ele>
        <time>2022-09-29T07:04:48.000Z</time>
      </trkpt>
      <trkpt lat="47.27317" lon="-2.35092">
        <ele>91.199996948242</ele>
        <time>2022-09-29T07:04:49.000Z</time>
      </trkpt>
      <trkpt lat="47.27319" lon="-2.35091">
        <ele>91.599998474121</ele>
        <time>2022-09-29T07:04:50.000Z</time>
      </trkpt>
      <trkpt lat="47.2733" lon="-2.35085">
        <ele>92</ele>
        <time>2022-09-29T07:04:54.000Z</time>
      </trkpt>
      <trkpt lat="47.27333" lon="-2.35084">
        <ele>92.400001525879</ele>
        <time>2022-09-29T07:04:55.000Z</time>
      </trkpt>
      <trkpt lat="47.27336" lon="-2.35082">
        <ele>93</ele>
        <time>2022-09-29T07:04:56.000Z</time>
      </trkpt>
      <trkpt lat="47.27339" lon="-2.3508">
        <ele>93.400001525879</ele>
        <time>2022-09-29T07:04:57.000Z</time>
      </trkpt>
      <trkpt lat="47.27342" lon="-2.35078">
        <ele>93.800003051758</ele>
        <time>2022-09-29T07:04:58.000Z</time>
      </trkpt>
      <trkpt lat="47.2736" lon="-2.35072">
        <ele>94.199996948242</ele>
        <time>2022-09-29T07:05:03.000Z</time>
      </trkpt>
      <trkpt lat="47.27363" lon="-2.3507">
        <ele>94.599998474121</ele>
        <time>2022-09-29T07:05:04.000Z</time>
      </trkpt>
      <trkpt lat="47.27367" lon="-2.35067">
        <ele>95.199996948242</ele>
        <time>2022-09-29T07:05:05.000Z</time>
      </trkpt>
      <trkpt lat="47.27371" lon="-2.35066">
        <ele>95.599998474121</ele>
        <time>2022-09-29T07:05:06.000Z</time>
      </trkpt>
      <trkpt lat="47.27375" lon="-2.35063">
        <ele>96</ele>
        <time>2022-09-29T07:05:07.000Z</time>
      </trkpt>
      <trkpt lat="47.27381" lon="-2.3506">
        <ele>96</ele>
        <time>2022-09-29T07:05:09.000Z</time>
      </trkpt>
      <trkpt lat="47.27396" lon="-2.35063">
        <ele>96</ele>
        <time>2022-09-29T07:05:14.000Z</time>
      </trkpt>
      <trkpt lat="47.27398" lon="-2.35066">
        <ele>96.400001525879</ele>
        <time>2022-09-29T07:05:15.000Z</time>
      </trkpt>
      <trkpt lat="47.274" lon="-2.3507">
        <ele>96.800003051758</ele>
        <time>2022-09-29T07:05:16.000Z</time>
      </trkpt>
      <trkpt lat="47.27402" lon="-2.35075">
        <ele>97.199996948242</ele>
        <time>2022-09-29T07:05:17.000Z</time>
      </trkpt>
      <trkpt lat="47.27404" lon="-2.3508">
        <ele>97.599998474121</ele>
        <time>2022-09-29T07:05:18.000Z</time>
      </trkpt>
      <trkpt lat="47.27406" lon="-2.35085">
        <ele>98</ele>
        <time>2022-09-29T07:05:19.000Z</time>
      </trkpt>
      <trkpt lat="47.27416" lon="-2.35119">
        <ele>98</ele>
        <time>2022-09-29T07:05:26.000Z</time>
      </trkpt>
      <trkpt lat="47.27426" lon="-2.35157">
        <ele>98</ele>
        <time>2022-09-29T07:05:33.000Z</time>
      </trkpt>
      <trkpt lat="47.27429" lon="-2.3517">
        <ele>98</ele>
        <time>2022-09-29T07:05:36.000Z</time>
      </trkpt>
      <trkpt lat="47.2743" lon="-2.35171">
        <ele>98</ele>
        <time>2022-09-29T07:05:37.000Z</time>
      </trkpt>
      <trkpt lat="47.27436" lon="-2.35169">
        <ele>98</ele>
        <time>2022-09-29T07:05:40.000Z</time>
      </trkpt>
      <trkpt lat="47.27442" lon="-2.35165">
        <ele>98</ele>
        <time>2022-09-29T07:05:42.000Z</time>
      </trkpt>
      <trkpt lat="47.27448" lon="-2.35161">
        <ele>98</ele>
        <time>2022-09-29T07:05:44.000Z</time>
      </trkpt>
      <trkpt lat="47.27455" lon="-2.35157">
        <ele>98.400001525879</ele>
        <time>2022-09-29T07:05:46.000Z</time>
      </trkpt>
      <trkpt lat="47.27459" lon="-2.35156">
        <ele>98.800003051758</ele>
        <time>2022-09-29T07:05:47.000Z</time>
      </trkpt>
      <trkpt lat="47.27463" lon="-2.35154">
        <ele>99.400001525879</ele>
        <time>2022-09-29T07:05:48.000Z</time>
      </trkpt>
      <trkpt lat="47.27467" lon="-2.35153">
        <ele>99.800003051758</ele>
        <time>2022-09-29T07:05:49.000Z</time>
      </trkpt>
      <trkpt lat="47.2747" lon="-2.35151">
        <ele>100.19999694824</ele>
        <time>2022-09-29T07:05:50.000Z</time>
      </trkpt>
      <trkpt lat="47.27473" lon="-2.35149">
        <ele>100.19999694824</ele>
        <time>2022-09-29T07:05:51.000Z</time>
      </trkpt>
      <trkpt lat="47.27494" lon="-2.35139">
        <ele>100.19999694824</ele>
        <time>2022-09-29T07:05:57.000Z</time>
      </trkpt>
      <trkpt lat="47.27496" lon="-2.35135">
        <ele>100.19999694824</ele>
        <time>2022-09-29T07:05:58.000Z</time>
      </trkpt>
      <trkpt lat="47.27499" lon="-2.35127">
        <ele>100.59999847412</ele>
        <time>2022-09-29T07:06:00.000Z</time>
      </trkpt>
      <trkpt lat="47.27503" lon="-2.35126">
        <ele>101</ele>
        <time>2022-09-29T07:06:01.000Z</time>
      </trkpt>
      <trkpt lat="47.27507" lon="-2.35128">
        <ele>101.40000152588</ele>
        <time>2022-09-29T07:06:02.000Z</time>
      </trkpt>
      <trkpt lat="47.27511" lon="-2.35129">
        <ele>102.19999694824</ele>
        <time>2022-09-29T07:06:03.000Z</time>
      </trkpt>
      <trkpt lat="47.27519" lon="-2.35132">
        <ele>102.19999694824</ele>
        <time>2022-09-29T07:06:05.000Z</time>
      </trkpt>
      <trkpt lat="47.27529" lon="-2.35138">
        <ele>102.19999694824</ele>
        <time>2022-09-29T07:06:08.000Z</time>
      </trkpt>
      <trkpt lat="47.27548" lon="-2.35138">
        <ele>102.19999694824</ele>
        <time>2022-09-29T07:06:13.000Z</time>
      </trkpt>
      <trkpt lat="47.27565" lon="-2.35135">
        <ele>102.19999694824</ele>
        <time>2022-09-29T07:06:18.000Z</time>
      </trkpt>
      <trkpt lat="47.27586" lon="-2.35133">
        <ele>102.19999694824</ele>
        <time>2022-09-29T07:06:23.000Z</time>
      </trkpt>
      <trkpt lat="47.27599" lon="-2.35134">
        <ele>102.19999694824</ele>
        <time>2022-09-29T07:06:26.000Z</time>
      </trkpt>
      <trkpt lat="47.27603" lon="-2.35139">
        <ele>102.19999694824</ele>
        <time>2022-09-29T07:06:27.000Z</time>
      </trkpt>
      <trkpt lat="47.27607" lon="-2.35158">
        <ele>102.19999694824</ele>
        <time>2022-09-29T07:06:30.000Z</time>
      </trkpt>
      <trkpt lat="47.2762" lon="-2.35175">
        <ele>102.19999694824</ele>
        <time>2022-09-29T07:06:34.000Z</time>
      </trkpt>
      <trkpt lat="47.27634" lon="-2.35176">
        <ele>102.19999694824</ele>
        <time>2022-09-29T07:06:37.000Z</time>
      </trkpt>
      <trkpt lat="47.27644" lon="-2.35175">
        <ele>102.19999694824</ele>
        <time>2022-09-29T07:06:39.000Z</time>
      </trkpt>
      <trkpt lat="47.27649" lon="-2.35174">
        <ele>102.19999694824</ele>
        <time>2022-09-29T07:06:40.000Z</time>
      </trkpt>
      <trkpt lat="47.27661" lon="-2.35171">
        <ele>102.19999694824</ele>
        <time>2022-09-29T07:06:43.000Z</time>
      </trkpt>
      <trkpt lat="47.27672" lon="-2.35184">
        <ele>102.19999694824</ele>
        <time>2022-09-29T07:06:46.000Z</time>
      </trkpt>
      <trkpt lat="47.27675" lon="-2.35207">
        <ele>102.19999694824</ele>
        <time>2022-09-29T07:06:49.000Z</time>
      </trkpt>
      <trkpt lat="47.27675" lon="-2.35214">
        <ele>102.19999694824</ele>
        <time>2022-09-29T07:06:50.000Z</time>
      </trkpt>
      <trkpt lat="47.27676" lon="-2.35218">
        <ele>102.19999694824</ele>
        <time>2022-09-29T07:06:51.000Z</time>
      </trkpt>
      <trkpt lat="47.27678" lon="-2.35221">
        <ele>101.80000305176</ele>
        <time>2022-09-29T07:06:52.000Z</time>
      </trkpt>
      <trkpt lat="47.27681" lon="-2.35223">
        <ele>101.40000152588</ele>
        <time>2022-09-29T07:06:53.000Z</time>
      </trkpt>
      <trkpt lat="47.27684" lon="-2.35222">
        <ele>101</ele>
        <time>2022-09-29T07:06:54.000Z</time>
      </trkpt>
      <trkpt lat="47.27688" lon="-2.35221">
        <ele>100.40000152588</ele>
        <time>2022-09-29T07:06:55.000Z</time>
      </trkpt>
      <trkpt lat="47.27693" lon="-2.35219">
        <ele>100</ele>
        <time>2022-09-29T07:06:56.000Z</time>
      </trkpt>
      <trkpt lat="47.27714" lon="-2.35211">
        <ele>100</ele>
        <time>2022-09-29T07:07:00.000Z</time>
      </trkpt>
      <trkpt lat="47.27752" lon="-2.35201">
        <ele>100</ele>
        <time>2022-09-29T07:07:07.000Z</time>
      </trkpt>
      <trkpt lat="47.27766" lon="-2.352">
        <ele>99.599998474121</ele>
        <time>2022-09-29T07:07:10.000Z</time>
      </trkpt>
      <trkpt lat="47.27769" lon="-2.35204">
        <ele>99.199996948242</ele>
        <time>2022-09-29T07:07:11.000Z</time>
      </trkpt>
      <trkpt lat="47.27771" lon="-2.35209">
        <ele>98.800003051758</ele>
        <time>2022-09-29T07:07:12.000Z</time>
      </trkpt>
      <trkpt lat="47.27773" lon="-2.35215">
        <ele>98.400001525879</ele>
        <time>2022-09-29T07:07:13.000Z</time>
      </trkpt>
      <trkpt lat="47.27776" lon="-2.35221">
        <ele>98</ele>
        <time>2022-09-29T07:07:14.000Z</time>
      </trkpt>
      <trkpt lat="47.27777" lon="-2.35228">
        <ele>98</ele>
        <time>2022-09-29T07:07:15.000Z</time>
      </trkpt>
      <trkpt lat="47.27786" lon="-2.35275">
        <ele>98</ele>
        <time>2022-09-29T07:07:21.000Z</time>
      </trkpt>
      <trkpt lat="47.278" lon="-2.35334">
        <ele>98</ele>
        <time>2022-09-29T07:07:29.000Z</time>
      </trkpt>
      <trkpt lat="47.27804" lon="-2.35348">
        <ele>98</ele>
        <time>2022-09-29T07:07:31.000Z</time>
      </trkpt>
      <trkpt lat="47.27815" lon="-2.35361">
        <ele>98</ele>
        <time>2022-09-29T07:07:34.000Z</time>
      </trkpt>
      <trkpt lat="47.27829" lon="-2.3536">
        <ele>98</ele>
        <time>2022-09-29T07:07:37.000Z</time>
      </trkpt>
      <trkpt lat="47.27834" lon="-2.35359">
        <ele>98</ele>
        <time>2022-09-29T07:07:38.000Z</time>
      </trkpt>
      <trkpt lat="47.27838" lon="-2.35359">
        <ele>98</ele>
        <time>2022-09-29T07:07:39.000Z</time>
      </trkpt>
      <trkpt lat="47.27856" lon="-2.35359">
        <ele>98</ele>
        <time>2022-09-29T07:07:43.000Z</time>
      </trkpt>
      <trkpt lat="47.27869" lon="-2.3536">
        <ele>98.400001525879</ele>
        <time>2022-09-29T07:07:46.000Z</time>
      </trkpt>
      <trkpt lat="47.27872" lon="-2.35362">
        <ele>98.800003051758</ele>
        <time>2022-09-29T07:07:47.000Z</time>
      </trkpt>
      <trkpt lat="47.27876" lon="-2.35365">
        <ele>99.199996948242</ele>
        <time>2022-09-29T07:07:48.000Z</time>
      </trkpt>
      <trkpt lat="47.2788" lon="-2.35369">
        <ele>99.599998474121</ele>
        <time>2022-09-29T07:07:49.000Z</time>
      </trkpt>
      <trkpt lat="47.27884" lon="-2.35373">
        <ele>100</ele>
        <time>2022-09-29T07:07:50.000Z</time>
      </trkpt>
      <trkpt lat="47.27887" lon="-2.35378">
        <ele>100</ele>
        <time>2022-09-29T07:07:51.000Z</time>
      </trkpt>
      <trkpt lat="47.27895" lon="-2.35387">
        <ele>100</ele>
        <time>2022-09-29T07:07:53.000Z</time>
      </trkpt>
      <trkpt lat="47.27923" lon="-2.35425">
        <ele>100</ele>
        <time>2022-09-29T07:08:01.000Z</time>
      </trkpt>
      <trkpt lat="47.2795" lon="-2.35456">
        <ele>100</ele>
        <time>2022-09-29T07:08:08.000Z</time>
      </trkpt>
      <trkpt lat="47.27955" lon="-2.35458">
        <ele>100</ele>
        <time>2022-09-29T07:08:09.000Z</time>
      </trkpt>
      <trkpt lat="47.27971" lon="-2.35468">
        <ele>100</ele>
        <time>2022-09-29T07:08:13.000Z</time>
      </trkpt>
      <trkpt lat="47.27979" lon="-2.35476">
        <ele>100</ele>
        <time>2022-09-29T07:08:15.000Z</time>
      </trkpt>
      <trkpt lat="47.2799" lon="-2.355">
        <ele>100</ele>
        <time>2022-09-29T07:08:19.000Z</time>
      </trkpt>
      <trkpt lat="47.27995" lon="-2.3551">
        <ele>100</ele>
        <time>2022-09-29T07:08:21.000Z</time>
      </trkpt>
      <trkpt lat="47.28001" lon="-2.35524">
        <ele>100</ele>
        <time>2022-09-29T07:08:24.000Z</time>
      </trkpt>
      <trkpt lat="47.28002" lon="-2.35529">
        <ele>100.40000152588</ele>
        <time>2022-09-29T07:08:25.000Z</time>
      </trkpt>
      <trkpt lat="47.28004" lon="-2.35534">
        <ele>100.80000305176</ele>
        <time>2022-09-29T07:08:26.000Z</time>
      </trkpt>
      <trkpt lat="47.28005" lon="-2.35539">
        <ele>101.19999694824</ele>
        <time>2022-09-29T07:08:27.000Z</time>
      </trkpt>
      <trkpt lat="47.28005" lon="-2.35543">
        <ele>101.59999847412</ele>
        <time>2022-09-29T07:08:28.000Z</time>
      </trkpt>
      <trkpt lat="47.28007" lon="-2.35546">
        <ele>102.19999694824</ele>
        <time>2022-09-29T07:08:29.000Z</time>
      </trkpt>
      <trkpt lat="47.28008" lon="-2.35549">
        <ele>102.19999694824</ele>
        <time>2022-09-29T07:08:30.000Z</time>
      </trkpt>
      <trkpt lat="47.28018" lon="-2.35564">
        <ele>102.59999847412</ele>
        <time>2022-09-29T07:08:35.000Z</time>
      </trkpt>
      <trkpt lat="47.2802" lon="-2.35563">
        <ele>103</ele>
        <time>2022-09-29T07:08:36.000Z</time>
      </trkpt>
      <trkpt lat="47.28023" lon="-2.35564">
        <ele>103.40000152588</ele>
        <time>2022-09-29T07:08:37.000Z</time>
      </trkpt>
      <trkpt lat="47.28026" lon="-2.35565">
        <ele>103.80000305176</ele>
        <time>2022-09-29T07:08:38.000Z</time>
      </trkpt>
      <trkpt lat="47.2803" lon="-2.35566">
        <ele>104.19999694824</ele>
        <time>2022-09-29T07:08:39.000Z</time>
      </trkpt>
      <trkpt lat="47.2804" lon="-2.35573">
        <ele>104.19999694824</ele>
        <time>2022-09-29T07:08:42.000Z</time>
      </trkpt>
      <trkpt lat="47.28046" lon="-2.35576">
        <ele>104.19999694824</ele>
        <time>2022-09-29T07:08:44.000Z</time>
      </trkpt>
      <trkpt lat="47.28065" lon="-2.35582">
        <ele>104.59999847412</ele>
        <time>2022-09-29T07:08:51.000Z</time>
      </trkpt>
      <trkpt lat="47.28067" lon="-2.35584">
        <ele>105</ele>
        <time>2022-09-29T07:08:52.000Z</time>
      </trkpt>
      <trkpt lat="47.28069" lon="-2.35586">
        <ele>105.40000152588</ele>
        <time>2022-09-29T07:08:53.000Z</time>
      </trkpt>
      <trkpt lat="47.2807" lon="-2.35589">
        <ele>105.80000305176</ele>
        <time>2022-09-29T07:08:54.000Z</time>
      </trkpt>
      <trkpt lat="47.28071" lon="-2.35592">
        <ele>106.19999694824</ele>
        <time>2022-09-29T07:08:55.000Z</time>
      </trkpt>
      <trkpt lat="47.2808" lon="-2.35609">
        <ele>106.19999694824</ele>
        <time>2022-09-29T07:09:01.000Z</time>
      </trkpt>
      <trkpt lat="47.28086" lon="-2.35616">
        <ele>106.19999694824</ele>
        <time>2022-09-29T07:09:06.000Z</time>
      </trkpt>
      <trkpt lat="47.28087" lon="-2.35616">
        <ele>106.19999694824</ele>
        <time>2022-09-29T07:09:08.000Z</time>
      </trkpt>
      <trkpt lat="47.28084" lon="-2.35618">
        <ele>108.19999694824</ele>
        <time>2022-09-29T07:10:10.000Z</time>
      </trkpt>
      <trkpt lat="47.28082" lon="-2.35613">
        <ele>108.19999694824</ele>
        <time>2022-09-29T07:10:12.000Z</time>
      </trkpt>
      <trkpt lat="47.28075" lon="-2.35607">
        <ele>108.19999694824</ele>
        <time>2022-09-29T07:10:18.000Z</time>
      </trkpt>
      <trkpt lat="47.28072" lon="-2.35606">
        <ele>108.19999694824</ele>
        <time>2022-09-29T07:10:20.000Z</time>
      </trkpt>
      <trkpt lat="47.28071" lon="-2.35599">
        <ele>108.19999694824</ele>
        <time>2022-09-29T07:10:23.000Z</time>
      </trkpt>
      <trkpt lat="47.28074" lon="-2.35598">
        <ele>108.19999694824</ele>
        <time>2022-09-29T07:10:25.000Z</time>
      </trkpt>
      <trkpt lat="47.28076" lon="-2.35602">
        <ele>108.19999694824</ele>
        <time>2022-09-29T07:10:27.000Z</time>
      </trkpt>
      <trkpt lat="47.28075" lon="-2.3561">
        <ele>108.19999694824</ele>
        <time>2022-09-29T07:10:30.000Z</time>
      </trkpt>
      <trkpt lat="47.28074" lon="-2.35613">
        <ele>108.19999694824</ele>
        <time>2022-09-29T07:10:31.000Z</time>
      </trkpt>
      <trkpt lat="47.28075" lon="-2.35616">
        <ele>108.19999694824</ele>
        <time>2022-09-29T07:10:32.000Z</time>
      </trkpt>
      <trkpt lat="47.28076" lon="-2.35622">
        <ele>108.80000305176</ele>
        <time>2022-09-29T07:10:34.000Z</time>
      </trkpt>
      <trkpt lat="47.28076" lon="-2.35625">
        <ele>109.59999847412</ele>
        <time>2022-09-29T07:10:35.000Z</time>
      </trkpt>
      <trkpt lat="47.28076" lon="-2.35629">
        <ele>110</ele>
        <time>2022-09-29T07:10:36.000Z</time>
      </trkpt>
      <trkpt lat="47.28076" lon="-2.35632">
        <ele>110.40000152588</ele>
        <time>2022-09-29T07:10:37.000Z</time>
      </trkpt>
      <trkpt lat="47.28078" lon="-2.35641">
        <ele>110.80000305176</ele>
        <time>2022-09-29T07:10:40.000Z</time>
      </trkpt>
      <trkpt lat="47.28079" lon="-2.35645">
        <ele>111.19999694824</ele>
        <time>2022-09-29T07:10:41.000Z</time>
      </trkpt>
      <trkpt lat="47.28079" lon="-2.35648">
        <ele>111.59999847412</ele>
        <time>2022-09-29T07:10:42.000Z</time>
      </trkpt>
      <trkpt lat="47.28081" lon="-2.3565">
        <ele>112.19999694824</ele>
        <time>2022-09-29T07:10:43.000Z</time>
      </trkpt>
      <trkpt lat="47.28082" lon="-2.35653">
        <ele>112.59999847412</ele>
        <time>2022-09-29T07:10:44.000Z</time>
      </trkpt>
      <trkpt lat="47.28084" lon="-2.35659">
        <ele>113</ele>
        <time>2022-09-29T07:10:46.000Z</time>
      </trkpt>
      <trkpt lat="47.28085" lon="-2.35661">
        <ele>113.40000152588</ele>
        <time>2022-09-29T07:10:47.000Z</time>
      </trkpt>
      <trkpt lat="47.28085" lon="-2.35664">
        <ele>113.80000305176</ele>
        <time>2022-09-29T07:10:48.000Z</time>
      </trkpt>
      <trkpt lat="47.28086" lon="-2.35668">
        <ele>114.19999694824</ele>
        <time>2022-09-29T07:10:49.000Z</time>
      </trkpt>
      <trkpt lat="47.28087" lon="-2.35672">
        <ele>114.59999847412</ele>
        <time>2022-09-29T07:10:50.000Z</time>
      </trkpt>
      <trkpt lat="47.28089" lon="-2.35681">
        <ele>114.59999847412</ele>
        <time>2022-09-29T07:10:53.000Z</time>
      </trkpt>
      <trkpt lat="47.28093" lon="-2.35691">
        <ele>114.59999847412</ele>
        <time>2022-09-29T07:10:57.000Z</time>
      </trkpt>
      <trkpt lat="47.28094" lon="-2.35695">
        <ele>115</ele>
        <time>2022-09-29T07:10:59.000Z</time>
      </trkpt>
      <trkpt lat="47.28095" lon="-2.35698">
        <ele>115.80000305176</ele>
        <time>2022-09-29T07:11:00.000Z</time>
      </trkpt>
      <trkpt lat="47.28095" lon="-2.357">
        <ele>116.19999694824</ele>
        <time>2022-09-29T07:11:01.000Z</time>
      </trkpt>
      <trkpt lat="47.28096" lon="-2.35702">
        <ele>116.59999847412</ele>
        <time>2022-09-29T07:11:02.000Z</time>
      </trkpt>
      <trkpt lat="47.28096" lon="-2.35705">
        <ele>116.59999847412</ele>
        <time>2022-09-29T07:11:03.000Z</time>
      </trkpt>
      <trkpt lat="47.28096" lon="-2.35708">
        <ele>116.59999847412</ele>
        <time>2022-09-29T07:11:04.000Z</time>
      </trkpt>
      <trkpt lat="47.28095" lon="-2.35716">
        <ele>116.59999847412</ele>
        <time>2022-09-29T07:11:08.000Z</time>
      </trkpt>
      <trkpt lat="47.2809" lon="-2.35733">
        <ele>116.59999847412</ele>
        <time>2022-09-29T07:11:13.000Z</time>
      </trkpt>
      <trkpt lat="47.28086" lon="-2.35769">
        <ele>116.59999847412</ele>
        <time>2022-09-29T07:11:18.000Z</time>
      </trkpt>
      <trkpt lat="47.28085" lon="-2.35775">
        <ele>116.59999847412</ele>
        <time>2022-09-29T07:11:19.000Z</time>
      </trkpt>
      <trkpt lat="47.28081" lon="-2.35784">
        <ele>116.59999847412</ele>
        <time>2022-09-29T07:11:21.000Z</time>
      </trkpt>
      <trkpt lat="47.2808" lon="-2.35799">
        <ele>116.19999694824</ele>
        <time>2022-09-29T07:11:24.000Z</time>
      </trkpt>
      <trkpt lat="47.28082" lon="-2.35804">
        <ele>115.19999694824</ele>
        <time>2022-09-29T07:11:25.000Z</time>
      </trkpt>
      <trkpt lat="47.28083" lon="-2.35808">
        <ele>114.80000305176</ele>
        <time>2022-09-29T07:11:26.000Z</time>
      </trkpt>
      <trkpt lat="47.28085" lon="-2.35812">
        <ele>114.40000152588</ele>
        <time>2022-09-29T07:11:27.000Z</time>
      </trkpt>
      <trkpt lat="47.28088" lon="-2.3582">
        <ele>114.40000152588</ele>
        <time>2022-09-29T07:11:30.000Z</time>
      </trkpt>
      <trkpt lat="47.28092" lon="-2.35827">
        <ele>114.40000152588</ele>
        <time>2022-09-29T07:11:34.000Z</time>
      </trkpt>
      <trkpt lat="47.28093" lon="-2.35828">
        <ele>114.40000152588</ele>
        <time>2022-09-29T07:11:35.000Z</time>
      </trkpt>
      <trkpt lat="47.28096" lon="-2.35832">
        <ele>114.40000152588</ele>
        <time>2022-09-29T07:11:40.000Z</time>
      </trkpt>
      <trkpt lat="47.28098" lon="-2.35839">
        <ele>114.40000152588</ele>
        <time>2022-09-29T07:12:02.000Z</time>
      </trkpt>
      <trkpt lat="47.28103" lon="-2.35849">
        <ele>114.40000152588</ele>
        <time>2022-09-29T07:12:06.000Z</time>
      </trkpt>
      <trkpt lat="47.28108" lon="-2.35854">
        <ele>114.40000152588</ele>
        <time>2022-09-29T07:12:09.000Z</time>
      </trkpt>
      <trkpt lat="47.28111" lon="-2.35859">
        <ele>114.40000152588</ele>
        <time>2022-09-29T07:12:11.000Z</time>
      </trkpt>
      <trkpt lat="47.28115" lon="-2.35865">
        <ele>114.40000152588</ele>
        <time>2022-09-29T07:12:13.000Z</time>
      </trkpt>
      <trkpt lat="47.28121" lon="-2.35876">
        <ele>114.40000152588</ele>
        <time>2022-09-29T07:12:16.000Z</time>
      </trkpt>
      <trkpt lat="47.28127" lon="-2.35884">
        <ele>114.40000152588</ele>
        <time>2022-09-29T07:12:20.000Z</time>
      </trkpt>
      <trkpt lat="47.28126" lon="-2.35884">
        <ele>114.40000152588</ele>
        <time>2022-09-29T07:12:21.000Z</time>
      </trkpt>
      <trkpt lat="47.28128" lon="-2.35887">
        <ele>114.40000152588</ele>
        <time>2022-09-29T07:12:47.000Z</time>
      </trkpt>
      <trkpt lat="47.2813" lon="-2.3589">
        <ele>114.80000305176</ele>
        <time>2022-09-29T07:12:48.000Z</time>
      </trkpt>
      <trkpt lat="47.28132" lon="-2.35893">
        <ele>115.19999694824</ele>
        <time>2022-09-29T07:12:49.000Z</time>
      </trkpt>
      <trkpt lat="47.28133" lon="-2.35896">
        <ele>115.59999847412</ele>
        <time>2022-09-29T07:12:50.000Z</time>
      </trkpt>
      <trkpt lat="47.28135" lon="-2.35899">
        <ele>116</ele>
        <time>2022-09-29T07:12:51.000Z</time>
      </trkpt>
      <trkpt lat="47.28137" lon="-2.35901">
        <ele>116.59999847412</ele>
        <time>2022-09-29T07:12:52.000Z</time>
      </trkpt>
      <trkpt lat="47.28144" lon="-2.35912">
        <ele>116.59999847412</ele>
        <time>2022-09-29T07:12:55.000Z</time>
      </trkpt>
      <trkpt lat="47.28158" lon="-2.35932">
        <ele>116.59999847412</ele>
        <time>2022-09-29T07:13:00.000Z</time>
      </trkpt>
      <trkpt lat="47.28167" lon="-2.35944">
        <ele>116.59999847412</ele>
        <time>2022-09-29T07:13:04.000Z</time>
      </trkpt>
      <trkpt lat="47.28169" lon="-2.35945">
        <ele>116.59999847412</ele>
        <time>2022-09-29T07:13:05.000Z</time>
      </trkpt>
      <trkpt lat="47.28175" lon="-2.35946">
        <ele>116.59999847412</ele>
        <time>2022-09-29T07:13:09.000Z</time>
      </trkpt>
      <trkpt lat="47.28181" lon="-2.35959">
        <ele>116.59999847412</ele>
        <time>2022-09-29T07:13:12.000Z</time>
      </trkpt>
      <trkpt lat="47.28182" lon="-2.35964">
        <ele>116</ele>
        <time>2022-09-29T07:13:13.000Z</time>
      </trkpt>
      <trkpt lat="47.28183" lon="-2.35969">
        <ele>115.59999847412</ele>
        <time>2022-09-29T07:13:14.000Z</time>
      </trkpt>
      <trkpt lat="47.28185" lon="-2.35975">
        <ele>115.19999694824</ele>
        <time>2022-09-29T07:13:15.000Z</time>
      </trkpt>
      <trkpt lat="47.28188" lon="-2.3598">
        <ele>114.80000305176</ele>
        <time>2022-09-29T07:13:16.000Z</time>
      </trkpt>
      <trkpt lat="47.28191" lon="-2.35983">
        <ele>114.19999694824</ele>
        <time>2022-09-29T07:13:17.000Z</time>
      </trkpt>
      <trkpt lat="47.28199" lon="-2.35996">
        <ele>114.19999694824</ele>
        <time>2022-09-29T07:13:20.000Z</time>
      </trkpt>
      <trkpt lat="47.28201" lon="-2.36002">
        <ele>114.19999694824</ele>
        <time>2022-09-29T07:13:21.000Z</time>
      </trkpt>
      <trkpt lat="47.28207" lon="-2.36016">
        <ele>114.19999694824</ele>
        <time>2022-09-29T07:13:25.000Z</time>
      </trkpt>
      <trkpt lat="47.28207" lon="-2.36018">
        <ele>114.19999694824</ele>
        <time>2022-09-29T07:13:26.000Z</time>
      </trkpt>
      <trkpt lat="47.28215" lon="-2.36026">
        <ele>114.19999694824</ele>
        <time>2022-09-29T07:13:29.000Z</time>
      </trkpt>
      <trkpt lat="47.28221" lon="-2.36026">
        <ele>114.19999694824</ele>
        <time>2022-09-29T07:13:31.000Z</time>
      </trkpt>
      <trkpt lat="47.28226" lon="-2.36023">
        <ele>114.19999694824</ele>
        <time>2022-09-29T07:13:33.000Z</time>
      </trkpt>
      <trkpt lat="47.28247" lon="-2.36014">
        <ele>114.19999694824</ele>
        <time>2022-09-29T07:13:39.000Z</time>
      </trkpt>
      <trkpt lat="47.28261" lon="-2.36006">
        <ele>114.59999847412</ele>
        <time>2022-09-29T07:13:44.000Z</time>
      </trkpt>
      <trkpt lat="47.28263" lon="-2.36005">
        <ele>115</ele>
        <time>2022-09-29T07:13:45.000Z</time>
      </trkpt>
      <trkpt lat="47.28265" lon="-2.36004">
        <ele>115.40000152588</ele>
        <time>2022-09-29T07:13:46.000Z</time>
      </trkpt>
      <trkpt lat="47.28268" lon="-2.36004">
        <ele>115.80000305176</ele>
        <time>2022-09-29T07:13:47.000Z</time>
      </trkpt>
      <trkpt lat="47.2827" lon="-2.36005">
        <ele>116.19999694824</ele>
        <time>2022-09-29T07:13:48.000Z</time>
      </trkpt>
      <trkpt lat="47.28271" lon="-2.36005">
        <ele>116.19999694824</ele>
        <time>2022-09-29T07:13:49.000Z</time>
      </trkpt>
      <trkpt lat="47.28272" lon="-2.36007">
        <ele>116.19999694824</ele>
        <time>2022-09-29T07:13:50.000Z</time>
      </trkpt>
      <trkpt lat="47.28273" lon="-2.36014">
        <ele>117.19999694824</ele>
        <time>2022-09-29T07:13:53.000Z</time>
      </trkpt>
      <trkpt lat="47.28274" lon="-2.36016">
        <ele>117.59999847412</ele>
        <time>2022-09-29T07:13:54.000Z</time>
      </trkpt>
      <trkpt lat="47.28274" lon="-2.36019">
        <ele>118</ele>
        <time>2022-09-29T07:13:55.000Z</time>
      </trkpt>
      <trkpt lat="47.28275" lon="-2.36021">
        <ele>118.40000152588</ele>
        <time>2022-09-29T07:13:56.000Z</time>
      </trkpt>
      <trkpt lat="47.28278" lon="-2.36026">
        <ele>118.80000305176</ele>
        <time>2022-09-29T07:13:58.000Z</time>
      </trkpt>
      <trkpt lat="47.28279" lon="-2.36028">
        <ele>119.40000152588</ele>
        <time>2022-09-29T07:13:59.000Z</time>
      </trkpt>
      <trkpt lat="47.28281" lon="-2.36029">
        <ele>119.80000305176</ele>
        <time>2022-09-29T07:14:00.000Z</time>
      </trkpt>
      <trkpt lat="47.28282" lon="-2.3603">
        <ele>120.40000152588</ele>
        <time>2022-09-29T07:14:01.000Z</time>
      </trkpt>
      <trkpt lat="47.28283" lon="-2.36032">
        <ele>120.80000305176</ele>
        <time>2022-09-29T07:14:02.000Z</time>
      </trkpt>
      <trkpt lat="47.28286" lon="-2.36035">
        <ele>121.19999694824</ele>
        <time>2022-09-29T07:14:04.000Z</time>
      </trkpt>
      <trkpt lat="47.28287" lon="-2.36037">
        <ele>121.80000305176</ele>
        <time>2022-09-29T07:14:05.000Z</time>
      </trkpt>
      <trkpt lat="47.28289" lon="-2.36038">
        <ele>122.19999694824</ele>
        <time>2022-09-29T07:14:06.000Z</time>
      </trkpt>
      <trkpt lat="47.2829" lon="-2.3604">
        <ele>122.80000305176</ele>
        <time>2022-09-29T07:14:07.000Z</time>
      </trkpt>
      <trkpt lat="47.28292" lon="-2.36041">
        <ele>123.19999694824</ele>
        <time>2022-09-29T07:14:08.000Z</time>
      </trkpt>
      <trkpt lat="47.28293" lon="-2.36042">
        <ele>123.59999847412</ele>
        <time>2022-09-29T07:14:09.000Z</time>
      </trkpt>
      <trkpt lat="47.28295" lon="-2.36042">
        <ele>124</ele>
        <time>2022-09-29T07:14:10.000Z</time>
      </trkpt>
      <trkpt lat="47.28297" lon="-2.36043">
        <ele>124.40000152588</ele>
        <time>2022-09-29T07:14:11.000Z</time>
      </trkpt>
      <trkpt lat="47.28298" lon="-2.36043">
        <ele>124.80000305176</ele>
        <time>2022-09-29T07:14:12.000Z</time>
      </trkpt>
      <trkpt lat="47.283" lon="-2.36044">
        <ele>125.19999694824</ele>
        <time>2022-09-29T07:14:13.000Z</time>
      </trkpt>
      <trkpt lat="47.28306" lon="-2.36046">
        <ele>125.19999694824</ele>
        <time>2022-09-29T07:14:16.000Z</time>
      </trkpt>
      <trkpt lat="47.28311" lon="-2.36049">
        <ele>125.59999847412</ele>
        <time>2022-09-29T07:14:19.000Z</time>
      </trkpt>
      <trkpt lat="47.28313" lon="-2.3605">
        <ele>126</ele>
        <time>2022-09-29T07:14:20.000Z</time>
      </trkpt>
      <trkpt lat="47.28316" lon="-2.3605">
        <ele>126.40000152588</ele>
        <time>2022-09-29T07:14:21.000Z</time>
      </trkpt>
      <trkpt lat="47.28318" lon="-2.36049">
        <ele>126.80000305176</ele>
        <time>2022-09-29T07:14:22.000Z</time>
      </trkpt>
      <trkpt lat="47.2832" lon="-2.36048">
        <ele>127.19999694824</ele>
        <time>2022-09-29T07:14:23.000Z</time>
      </trkpt>
      <trkpt lat="47.28325" lon="-2.36042">
        <ele>127.19999694824</ele>
        <time>2022-09-29T07:14:26.000Z</time>
      </trkpt>
      <trkpt lat="47.28337" lon="-2.36032">
        <ele>127.19999694824</ele>
        <time>2022-09-29T07:14:32.000Z</time>
      </trkpt>
      <trkpt lat="47.28349" lon="-2.36024">
        <ele>127.19999694824</ele>
        <time>2022-09-29T07:14:38.000Z</time>
      </trkpt>
      <trkpt lat="47.28354" lon="-2.36022">
        <ele>127.80000305176</ele>
        <time>2022-09-29T07:14:41.000Z</time>
      </trkpt>
      <trkpt lat="47.28356" lon="-2.36021">
        <ele>128.60000610352</ele>
        <time>2022-09-29T07:14:42.000Z</time>
      </trkpt>
      <trkpt lat="47.28358" lon="-2.36022">
        <ele>129.19999694824</ele>
        <time>2022-09-29T07:14:43.000Z</time>
      </trkpt>
      <trkpt lat="47.2836" lon="-2.36021">
        <ele>129.60000610352</ele>
        <time>2022-09-29T07:14:44.000Z</time>
      </trkpt>
      <trkpt lat="47.28368" lon="-2.3602">
        <ele>130</ele>
        <time>2022-09-29T07:14:48.000Z</time>
      </trkpt>
      <trkpt lat="47.2837" lon="-2.3602">
        <ele>130.39999389648</ele>
        <time>2022-09-29T07:14:49.000Z</time>
      </trkpt>
      <trkpt lat="47.28372" lon="-2.3602">
        <ele>130.80000305176</ele>
        <time>2022-09-29T07:14:50.000Z</time>
      </trkpt>
      <trkpt lat="47.28374" lon="-2.3602">
        <ele>131.39999389648</ele>
        <time>2022-09-29T07:14:51.000Z</time>
      </trkpt>
      <trkpt lat="47.28376" lon="-2.36021">
        <ele>131.80000305176</ele>
        <time>2022-09-29T07:14:52.000Z</time>
      </trkpt>
      <trkpt lat="47.28382" lon="-2.36021">
        <ele>132.19999694824</ele>
        <time>2022-09-29T07:14:55.000Z</time>
      </trkpt>
      <trkpt lat="47.28384" lon="-2.36022">
        <ele>132.60000610352</ele>
        <time>2022-09-29T07:14:56.000Z</time>
      </trkpt>
      <trkpt lat="47.28386" lon="-2.36022">
        <ele>133</ele>
        <time>2022-09-29T07:14:57.000Z</time>
      </trkpt>
      <trkpt lat="47.28388" lon="-2.36022">
        <ele>133.39999389648</ele>
        <time>2022-09-29T07:14:58.000Z</time>
      </trkpt>
      <trkpt lat="47.2839" lon="-2.36022">
        <ele>133.80000305176</ele>
        <time>2022-09-29T07:14:59.000Z</time>
      </trkpt>
      <trkpt lat="47.28403" lon="-2.36021">
        <ele>134.19999694824</ele>
        <time>2022-09-29T07:15:04.000Z</time>
      </trkpt>
      <trkpt lat="47.28404" lon="-2.3602">
        <ele>134.60000610352</ele>
        <time>2022-09-29T07:15:05.000Z</time>
      </trkpt>
      <trkpt lat="47.28406" lon="-2.36019">
        <ele>135</ele>
        <time>2022-09-29T07:15:06.000Z</time>
      </trkpt>
      <trkpt lat="47.28407" lon="-2.36017">
        <ele>136</ele>
        <time>2022-09-29T07:15:07.000Z</time>
      </trkpt>
      <trkpt lat="47.28411" lon="-2.36013">
        <ele>136</ele>
        <time>2022-09-29T07:15:09.000Z</time>
      </trkpt>
      <trkpt lat="47.28423" lon="-2.36001">
        <ele>136</ele>
        <time>2022-09-29T07:15:14.000Z</time>
      </trkpt>
      <trkpt lat="47.28434" lon="-2.35992">
        <ele>136</ele>
        <time>2022-09-29T07:15:20.000Z</time>
      </trkpt>
      <trkpt lat="47.2844" lon="-2.3599">
        <ele>136</ele>
        <time>2022-09-29T07:15:23.000Z</time>
      </trkpt>
      <trkpt lat="47.28447" lon="-2.35994">
        <ele>136</ele>
        <time>2022-09-29T07:15:26.000Z</time>
      </trkpt>
      <trkpt lat="47.28449" lon="-2.35997">
        <ele>136</ele>
        <time>2022-09-29T07:15:27.000Z</time>
      </trkpt>
      <trkpt lat="47.28452" lon="-2.36004">
        <ele>136.39999389648</ele>
        <time>2022-09-29T07:15:30.000Z</time>
      </trkpt>
      <trkpt lat="47.28453" lon="-2.36006">
        <ele>137.19999694824</ele>
        <time>2022-09-29T07:15:31.000Z</time>
      </trkpt>
      <trkpt lat="47.28455" lon="-2.36009">
        <ele>137.60000610352</ele>
        <time>2022-09-29T07:15:32.000Z</time>
      </trkpt>
      <trkpt lat="47.28457" lon="-2.36011">
        <ele>138</ele>
        <time>2022-09-29T07:15:33.000Z</time>
      </trkpt>
      <trkpt lat="47.28463" lon="-2.3602">
        <ele>138</ele>
        <time>2022-09-29T07:15:37.000Z</time>
      </trkpt>
      <trkpt lat="47.2847" lon="-2.36028">
        <ele>138</ele>
        <time>2022-09-29T07:15:41.000Z</time>
      </trkpt>
      <trkpt lat="47.28473" lon="-2.36028">
        <ele>138</ele>
        <time>2022-09-29T07:15:42.000Z</time>
      </trkpt>
      <trkpt lat="47.28486" lon="-2.36032">
        <ele>138</ele>
        <time>2022-09-29T07:15:47.000Z</time>
      </trkpt>
      <trkpt lat="47.28499" lon="-2.36043">
        <ele>138</ele>
        <time>2022-09-29T07:15:53.000Z</time>
      </trkpt>
      <trkpt lat="47.2851" lon="-2.36062">
        <ele>138</ele>
        <time>2022-09-29T07:15:59.000Z</time>
      </trkpt>
      <trkpt lat="47.28519" lon="-2.36072">
        <ele>138</ele>
        <time>2022-09-29T07:16:03.000Z</time>
      </trkpt>
      <trkpt lat="47.28526" lon="-2.36088">
        <ele>138</ele>
        <time>2022-09-29T07:16:08.000Z</time>
      </trkpt>
      <trkpt lat="47.28533" lon="-2.36114">
        <ele>138</ele>
        <time>2022-09-29T07:16:13.000Z</time>
      </trkpt>
      <trkpt lat="47.28541" lon="-2.3614">
        <ele>138</ele>
        <time>2022-09-29T07:16:17.000Z</time>
      </trkpt>
      <trkpt lat="47.28544" lon="-2.36144">
        <ele>138</ele>
        <time>2022-09-29T07:16:18.000Z</time>
      </trkpt>
      <trkpt lat="47.28554" lon="-2.36153">
        <ele>138</ele>
        <time>2022-09-29T07:16:22.000Z</time>
      </trkpt>
      <trkpt lat="47.28555" lon="-2.36153">
        <ele>138</ele>
        <time>2022-09-29T07:16:23.000Z</time>
      </trkpt>
      <trkpt lat="47.28559" lon="-2.3615">
        <ele>138.39999389648</ele>
        <time>2022-09-29T07:16:25.000Z</time>
      </trkpt>
      <trkpt lat="47.28561" lon="-2.3615">
        <ele>139</ele>
        <time>2022-09-29T07:16:26.000Z</time>
      </trkpt>
      <trkpt lat="47.28562" lon="-2.3615">
        <ele>139.39999389648</ele>
        <time>2022-09-29T07:16:27.000Z</time>
      </trkpt>
      <trkpt lat="47.28562" lon="-2.3615">
        <ele>139.80000305176</ele>
        <time>2022-09-29T07:16:28.000Z</time>
      </trkpt>
      <trkpt lat="47.28564" lon="-2.36149">
        <ele>140.19999694824</ele>
        <time>2022-09-29T07:16:29.000Z</time>
      </trkpt>
      <trkpt lat="47.28566" lon="-2.36149">
        <ele>140.60000610352</ele>
        <time>2022-09-29T07:16:33.000Z</time>
      </trkpt>
      <trkpt lat="47.28569" lon="-2.36146">
        <ele>142.19999694824</ele>
        <time>2022-09-29T07:17:01.000Z</time>
      </trkpt>
      <trkpt lat="47.2857" lon="-2.36145">
        <ele>142.19999694824</ele>
        <time>2022-09-29T07:17:02.000Z</time>
      </trkpt>
      <trkpt lat="47.28579" lon="-2.36148">
        <ele>142.19999694824</ele>
        <time>2022-09-29T07:17:07.000Z</time>
      </trkpt>
      <trkpt lat="47.28582" lon="-2.36149">
        <ele>142.60000610352</ele>
        <time>2022-09-29T07:17:08.000Z</time>
      </trkpt>
      <trkpt lat="47.28585" lon="-2.3615">
        <ele>143</ele>
        <time>2022-09-29T07:17:09.000Z</time>
      </trkpt>
      <trkpt lat="47.28588" lon="-2.36151">
        <ele>143.80000305176</ele>
        <time>2022-09-29T07:17:10.000Z</time>
      </trkpt>
      <trkpt lat="47.28591" lon="-2.36151">
        <ele>144.19999694824</ele>
        <time>2022-09-29T07:17:11.000Z</time>
      </trkpt>
      <trkpt lat="47.28593" lon="-2.36151">
        <ele>144.19999694824</ele>
        <time>2022-09-29T07:17:12.000Z</time>
      </trkpt>
      <trkpt lat="47.2861" lon="-2.36144">
        <ele>144.19999694824</ele>
        <time>2022-09-29T07:17:18.000Z</time>
      </trkpt>
      <trkpt lat="47.28624" lon="-2.36141">
        <ele>144.19999694824</ele>
        <time>2022-09-29T07:17:22.000Z</time>
      </trkpt>
      <trkpt lat="47.28627" lon="-2.36143">
        <ele>144.19999694824</ele>
        <time>2022-09-29T07:17:23.000Z</time>
      </trkpt>
      <trkpt lat="47.28638" lon="-2.36159">
        <ele>144.19999694824</ele>
        <time>2022-09-29T07:17:28.000Z</time>
      </trkpt>
      <trkpt lat="47.2864" lon="-2.36163">
        <ele>144.19999694824</ele>
        <time>2022-09-29T07:17:29.000Z</time>
      </trkpt>
      <trkpt lat="47.28645" lon="-2.36169">
        <ele>143.80000305176</ele>
        <time>2022-09-29T07:17:30.000Z</time>
      </trkpt>
      <trkpt lat="47.28649" lon="-2.36176">
        <ele>143.39999389648</ele>
        <time>2022-09-29T07:17:31.000Z</time>
      </trkpt>
      <trkpt lat="47.28652" lon="-2.36182">
        <ele>143</ele>
        <time>2022-09-29T07:17:32.000Z</time>
      </trkpt>
      <trkpt lat="47.28654" lon="-2.36189">
        <ele>142.60000610352</ele>
        <time>2022-09-29T07:17:33.000Z</time>
      </trkpt>
      <trkpt lat="47.28656" lon="-2.36196">
        <ele>142.19999694824</ele>
        <time>2022-09-29T07:17:34.000Z</time>
      </trkpt>
      <trkpt lat="47.28659" lon="-2.36206">
        <ele>142.19999694824</ele>
        <time>2022-09-29T07:17:36.000Z</time>
      </trkpt>
      <trkpt lat="47.2866" lon="-2.36213">
        <ele>142.19999694824</ele>
        <time>2022-09-29T07:17:37.000Z</time>
      </trkpt>
      <trkpt lat="47.2866" lon="-2.36238">
        <ele>141.80000305176</ele>
        <time>2022-09-29T07:17:41.000Z</time>
      </trkpt>
      <trkpt lat="47.2866" lon="-2.36245">
        <ele>141.39999389648</ele>
        <time>2022-09-29T07:17:42.000Z</time>
      </trkpt>
      <trkpt lat="47.28661" lon="-2.36252">
        <ele>141</ele>
        <time>2022-09-29T07:17:43.000Z</time>
      </trkpt>
      <trkpt lat="47.28663" lon="-2.36259">
        <ele>140.60000610352</ele>
        <time>2022-09-29T07:17:44.000Z</time>
      </trkpt>
      <trkpt lat="47.28665" lon="-2.36266">
        <ele>140.19999694824</ele>
        <time>2022-09-29T07:17:45.000Z</time>
      </trkpt>
      <trkpt lat="47.28668" lon="-2.3627">
        <ele>140.19999694824</ele>
        <time>2022-09-29T07:17:46.000Z</time>
      </trkpt>
      <trkpt lat="47.28671" lon="-2.36271">
        <ele>140.19999694824</ele>
        <time>2022-09-29T07:17:47.000Z</time>
      </trkpt>
      <trkpt lat="47.28675" lon="-2.36271">
        <ele>140.19999694824</ele>
        <time>2022-09-29T07:17:49.000Z</time>
      </trkpt>
      <trkpt lat="47.28688" lon="-2.36271">
        <ele>139.80000305176</ele>
        <time>2022-09-29T07:17:53.000Z</time>
      </trkpt>
      <trkpt lat="47.2869" lon="-2.36273">
        <ele>139.19999694824</ele>
        <time>2022-09-29T07:17:54.000Z</time>
      </trkpt>
      <trkpt lat="47.28693" lon="-2.36276">
        <ele>138.80000305176</ele>
        <time>2022-09-29T07:17:55.000Z</time>
      </trkpt>
      <trkpt lat="47.28695" lon="-2.36279">
        <ele>138.39999389648</ele>
        <time>2022-09-29T07:17:56.000Z</time>
      </trkpt>
      <trkpt lat="47.28697" lon="-2.36282">
        <ele>138</ele>
        <time>2022-09-29T07:17:57.000Z</time>
      </trkpt>
      <trkpt lat="47.28699" lon="-2.36286">
        <ele>138</ele>
        <time>2022-09-29T07:17:58.000Z</time>
      </trkpt>
      <trkpt lat="47.28703" lon="-2.36309">
        <ele>138.39999389648</ele>
        <time>2022-09-29T07:18:03.000Z</time>
      </trkpt>
      <trkpt lat="47.28703" lon="-2.36312">
        <ele>138.80000305176</ele>
        <time>2022-09-29T07:18:04.000Z</time>
      </trkpt>
      <trkpt lat="47.28703" lon="-2.36316">
        <ele>139.19999694824</ele>
        <time>2022-09-29T07:18:05.000Z</time>
      </trkpt>
      <trkpt lat="47.28703" lon="-2.36321">
        <ele>139.60000610352</ele>
        <time>2022-09-29T07:18:06.000Z</time>
      </trkpt>
      <trkpt lat="47.28704" lon="-2.36325">
        <ele>140</ele>
        <time>2022-09-29T07:18:07.000Z</time>
      </trkpt>
      <trkpt lat="47.28704" lon="-2.36329">
        <ele>140</ele>
        <time>2022-09-29T07:18:08.000Z</time>
      </trkpt>
      <trkpt lat="47.28704" lon="-2.36337">
        <ele>140.60000610352</ele>
        <time>2022-09-29T07:18:10.000Z</time>
      </trkpt>
      <trkpt lat="47.28704" lon="-2.36341">
        <ele>141</ele>
        <time>2022-09-29T07:18:11.000Z</time>
      </trkpt>
      <trkpt lat="47.28704" lon="-2.36344">
        <ele>141.39999389648</ele>
        <time>2022-09-29T07:18:12.000Z</time>
      </trkpt>
      <trkpt lat="47.28704" lon="-2.36347">
        <ele>141.80000305176</ele>
        <time>2022-09-29T07:18:13.000Z</time>
      </trkpt>
      <trkpt lat="47.28704" lon="-2.36351">
        <ele>142.19999694824</ele>
        <time>2022-09-29T07:18:14.000Z</time>
      </trkpt>
      <trkpt lat="47.28706" lon="-2.36355">
        <ele>142.19999694824</ele>
        <time>2022-09-29T07:18:15.000Z</time>
      </trkpt>
      <trkpt lat="47.28712" lon="-2.36372">
        <ele>142.19999694824</ele>
        <time>2022-09-29T07:18:19.000Z</time>
      </trkpt>
      <trkpt lat="47.28715" lon="-2.36372">
        <ele>142.19999694824</ele>
        <time>2022-09-29T07:18:20.000Z</time>
      </trkpt>
      <trkpt lat="47.28724" lon="-2.36372">
        <ele>142.19999694824</ele>
        <time>2022-09-29T07:18:25.000Z</time>
      </trkpt>
      <trkpt lat="47.28731" lon="-2.36383">
        <ele>142.19999694824</ele>
        <time>2022-09-29T07:18:29.000Z</time>
      </trkpt>
      <trkpt lat="47.28734" lon="-2.36391">
        <ele>142.19999694824</ele>
        <time>2022-09-29T07:18:31.000Z</time>
      </trkpt>
      <trkpt lat="47.28735" lon="-2.36394">
        <ele>141.80000305176</ele>
        <time>2022-09-29T07:18:32.000Z</time>
      </trkpt>
      <trkpt lat="47.28737" lon="-2.36396">
        <ele>141.19999694824</ele>
        <time>2022-09-29T07:18:33.000Z</time>
      </trkpt>
      <trkpt lat="47.28739" lon="-2.36399">
        <ele>140.80000305176</ele>
        <time>2022-09-29T07:18:34.000Z</time>
      </trkpt>
      <trkpt lat="47.28741" lon="-2.36403">
        <ele>140.39999389648</ele>
        <time>2022-09-29T07:18:35.000Z</time>
      </trkpt>
      <trkpt lat="47.28743" lon="-2.36405">
        <ele>140</ele>
        <time>2022-09-29T07:18:36.000Z</time>
      </trkpt>
      <trkpt lat="47.28747" lon="-2.36409">
        <ele>140</ele>
        <time>2022-09-29T07:18:38.000Z</time>
      </trkpt>
      <trkpt lat="47.28749" lon="-2.36411">
        <ele>140</ele>
        <time>2022-09-29T07:18:40.000Z</time>
      </trkpt>
      <trkpt lat="47.2875" lon="-2.36414">
        <ele>140</ele>
        <time>2022-09-29T07:18:42.000Z</time>
      </trkpt>
      <trkpt lat="47.28755" lon="-2.36435">
        <ele>138</ele>
        <time>2022-09-29T07:19:09.000Z</time>
      </trkpt>
      <trkpt lat="47.28756" lon="-2.3644">
        <ele>138</ele>
        <time>2022-09-29T07:19:11.000Z</time>
      </trkpt>
      <trkpt lat="47.28766" lon="-2.3645">
        <ele>138</ele>
        <time>2022-09-29T07:19:15.000Z</time>
      </trkpt>
      <trkpt lat="47.28768" lon="-2.36452">
        <ele>138</ele>
        <time>2022-09-29T07:19:17.000Z</time>
      </trkpt>
      <trkpt lat="47.28769" lon="-2.36451">
        <ele>138</ele>
        <time>2022-09-29T07:19:18.000Z</time>
      </trkpt>
      <trkpt lat="47.28771" lon="-2.36451">
        <ele>138</ele>
        <time>2022-09-29T07:19:19.000Z</time>
      </trkpt>
      <trkpt lat="47.28774" lon="-2.36443">
        <ele>138</ele>
        <time>2022-09-29T07:19:22.000Z</time>
      </trkpt>
      <trkpt lat="47.28779" lon="-2.36439">
        <ele>138</ele>
        <time>2022-09-29T07:19:25.000Z</time>
      </trkpt>
      <trkpt lat="47.28781" lon="-2.36438">
        <ele>138</ele>
        <time>2022-09-29T07:19:26.000Z</time>
      </trkpt>
      <trkpt lat="47.28794" lon="-2.36427">
        <ele>138</ele>
        <time>2022-09-29T07:19:30.000Z</time>
      </trkpt>
      <trkpt lat="47.28797" lon="-2.36423">
        <ele>138</ele>
        <time>2022-09-29T07:19:31.000Z</time>
      </trkpt>
      <trkpt lat="47.28808" lon="-2.36417">
        <ele>138</ele>
        <time>2022-09-29T07:19:36.000Z</time>
      </trkpt>
      <trkpt lat="47.28813" lon="-2.36414">
        <ele>138</ele>
        <time>2022-09-29T07:19:39.000Z</time>
      </trkpt>
      <trkpt lat="47.2882" lon="-2.36406">
        <ele>138</ele>
        <time>2022-09-29T07:19:43.000Z</time>
      </trkpt>
      <trkpt lat="47.28826" lon="-2.36406">
        <ele>138</ele>
        <time>2022-09-29T07:19:47.000Z</time>
      </trkpt>
      <trkpt lat="47.28827" lon="-2.36408">
        <ele>138.39999389648</ele>
        <time>2022-09-29T07:19:48.000Z</time>
      </trkpt>
      <trkpt lat="47.28828" lon="-2.36409">
        <ele>138.80000305176</ele>
        <time>2022-09-29T07:19:49.000Z</time>
      </trkpt>
      <trkpt lat="47.2883" lon="-2.3641">
        <ele>139.19999694824</ele>
        <time>2022-09-29T07:19:50.000Z</time>
      </trkpt>
      <trkpt lat="47.28831" lon="-2.36412">
        <ele>139.60000610352</ele>
        <time>2022-09-29T07:19:51.000Z</time>
      </trkpt>
      <trkpt lat="47.28834" lon="-2.36413">
        <ele>140</ele>
        <time>2022-09-29T07:19:52.000Z</time>
      </trkpt>
      <trkpt lat="47.28838" lon="-2.36416">
        <ele>140</ele>
        <time>2022-09-29T07:19:54.000Z</time>
      </trkpt>
      <trkpt lat="47.28842" lon="-2.36416">
        <ele>140</ele>
        <time>2022-09-29T07:19:56.000Z</time>
      </trkpt>
      <trkpt lat="47.28845" lon="-2.36413">
        <ele>140</ele>
        <time>2022-09-29T07:19:58.000Z</time>
      </trkpt>
      <trkpt lat="47.28848" lon="-2.36409">
        <ele>139.39999389648</ele>
        <time>2022-09-29T07:19:59.000Z</time>
      </trkpt>
      <trkpt lat="47.2885" lon="-2.36406">
        <ele>139</ele>
        <time>2022-09-29T07:20:00.000Z</time>
      </trkpt>
      <trkpt lat="47.28853" lon="-2.36401">
        <ele>138.39999389648</ele>
        <time>2022-09-29T07:20:01.000Z</time>
      </trkpt>
      <trkpt lat="47.28855" lon="-2.36397">
        <ele>137.80000305176</ele>
        <time>2022-09-29T07:20:02.000Z</time>
      </trkpt>
      <trkpt lat="47.28856" lon="-2.36392">
        <ele>136.19999694824</ele>
        <time>2022-09-29T07:20:03.000Z</time>
      </trkpt>
      <trkpt lat="47.28856" lon="-2.36388">
        <ele>135.60000610352</ele>
        <time>2022-09-29T07:20:04.000Z</time>
      </trkpt>
      <trkpt lat="47.28857" lon="-2.36383">
        <ele>134.80000305176</ele>
        <time>2022-09-29T07:20:05.000Z</time>
      </trkpt>
      <trkpt lat="47.28858" lon="-2.36371">
        <ele>134.39999389648</ele>
        <time>2022-09-29T07:20:08.000Z</time>
      </trkpt>
      <trkpt lat="47.28858" lon="-2.36368">
        <ele>134</ele>
        <time>2022-09-29T07:20:09.000Z</time>
      </trkpt>
      <trkpt lat="47.28859" lon="-2.36365">
        <ele>133.60000610352</ele>
        <time>2022-09-29T07:20:10.000Z</time>
      </trkpt>
      <trkpt lat="47.2886" lon="-2.36361">
        <ele>133.19999694824</ele>
        <time>2022-09-29T07:20:11.000Z</time>
      </trkpt>
      <trkpt lat="47.28861" lon="-2.36357">
        <ele>132.80000305176</ele>
        <time>2022-09-29T07:20:12.000Z</time>
      </trkpt>
      <trkpt lat="47.28864" lon="-2.36348">
        <ele>132.19999694824</ele>
        <time>2022-09-29T07:20:14.000Z</time>
      </trkpt>
      <trkpt lat="47.28866" lon="-2.36344">
        <ele>131.80000305176</ele>
        <time>2022-09-29T07:20:15.000Z</time>
      </trkpt>
      <trkpt lat="47.2887" lon="-2.36342">
        <ele>131.39999389648</ele>
        <time>2022-09-29T07:20:16.000Z</time>
      </trkpt>
      <trkpt lat="47.28872" lon="-2.36341">
        <ele>131</ele>
        <time>2022-09-29T07:20:17.000Z</time>
      </trkpt>
      <trkpt lat="47.28876" lon="-2.36341">
        <ele>130.60000610352</ele>
        <time>2022-09-29T07:20:18.000Z</time>
      </trkpt>
      <trkpt lat="47.28885" lon="-2.36345">
        <ele>130.19999694824</ele>
        <time>2022-09-29T07:20:20.000Z</time>
      </trkpt>
      <trkpt lat="47.28892" lon="-2.36349">
        <ele>129.60000610352</ele>
        <time>2022-09-29T07:20:21.000Z</time>
      </trkpt>
      <trkpt lat="47.28899" lon="-2.36352">
        <ele>129</ele>
        <time>2022-09-29T07:20:22.000Z</time>
      </trkpt>
      <trkpt lat="47.28908" lon="-2.36356">
        <ele>128.60000610352</ele>
        <time>2022-09-29T07:20:23.000Z</time>
      </trkpt>
      <trkpt lat="47.28915" lon="-2.36361">
        <ele>128</ele>
        <time>2022-09-29T07:20:24.000Z</time>
      </trkpt>
      <trkpt lat="47.28923" lon="-2.36366">
        <ele>127.59999847412</ele>
        <time>2022-09-29T07:20:25.000Z</time>
      </trkpt>
      <trkpt lat="47.28929" lon="-2.36371">
        <ele>127.19999694824</ele>
        <time>2022-09-29T07:20:26.000Z</time>
      </trkpt>
      <trkpt lat="47.28936" lon="-2.36376">
        <ele>126.59999847412</ele>
        <time>2022-09-29T07:20:27.000Z</time>
      </trkpt>
      <trkpt lat="47.28942" lon="-2.36382">
        <ele>125.59999847412</ele>
        <time>2022-09-29T07:20:28.000Z</time>
      </trkpt>
      <trkpt lat="47.28965" lon="-2.3641">
        <ele>125.19999694824</ele>
        <time>2022-09-29T07:20:32.000Z</time>
      </trkpt>
      <trkpt lat="47.2897" lon="-2.36419">
        <ele>124.80000305176</ele>
        <time>2022-09-29T07:20:33.000Z</time>
      </trkpt>
      <trkpt lat="47.28975" lon="-2.36427">
        <ele>124.40000152588</ele>
        <time>2022-09-29T07:20:34.000Z</time>
      </trkpt>
      <trkpt lat="47.2898" lon="-2.36436">
        <ele>124</ele>
        <time>2022-09-29T07:20:35.000Z</time>
      </trkpt>
      <trkpt lat="47.28985" lon="-2.36444">
        <ele>123.59999847412</ele>
        <time>2022-09-29T07:20:36.000Z</time>
      </trkpt>
      <trkpt lat="47.29" lon="-2.36465">
        <ele>123.59999847412</ele>
        <time>2022-09-29T07:20:39.000Z</time>
      </trkpt>
      <trkpt lat="47.29015" lon="-2.36487">
        <ele>123.59999847412</ele>
        <time>2022-09-29T07:20:43.000Z</time>
      </trkpt>
      <trkpt lat="47.29021" lon="-2.365">
        <ele>123.59999847412</ele>
        <time>2022-09-29T07:20:48.000Z</time>
      </trkpt>
      <trkpt lat="47.29022" lon="-2.36504">
        <ele>123.59999847412</ele>
        <time>2022-09-29T07:20:51.000Z</time>
      </trkpt>
      <trkpt lat="47.29023" lon="-2.36508">
        <ele>125.80000305176</ele>
        <time>2022-09-29T07:21:03.000Z</time>
      </trkpt>
      <trkpt lat="47.29023" lon="-2.3651">
        <ele>125.80000305176</ele>
        <time>2022-09-29T07:21:04.000Z</time>
      </trkpt>
      <trkpt lat="47.29016" lon="-2.36521">
        <ele>125.80000305176</ele>
        <time>2022-09-29T07:21:08.000Z</time>
      </trkpt>
      <trkpt lat="47.29013" lon="-2.36523">
        <ele>125.80000305176</ele>
        <time>2022-09-29T07:21:09.000Z</time>
      </trkpt>
      <trkpt lat="47.28993" lon="-2.3654">
        <ele>125.80000305176</ele>
        <time>2022-09-29T07:21:15.000Z</time>
      </trkpt>
      <trkpt lat="47.2897" lon="-2.36565">
        <ele>125.80000305176</ele>
        <time>2022-09-29T07:21:21.000Z</time>
      </trkpt>
      <trkpt lat="47.28966" lon="-2.36571">
        <ele>125.80000305176</ele>
        <time>2022-09-29T07:21:22.000Z</time>
      </trkpt>
      <trkpt lat="47.28957" lon="-2.36588">
        <ele>125.80000305176</ele>
        <time>2022-09-29T07:21:25.000Z</time>
      </trkpt>
      <trkpt lat="47.28943" lon="-2.36619">
        <ele>125.80000305176</ele>
        <time>2022-09-29T07:21:31.000Z</time>
      </trkpt>
      <trkpt lat="47.28941" lon="-2.36625">
        <ele>125.80000305176</ele>
        <time>2022-09-29T07:21:32.000Z</time>
      </trkpt>
      <trkpt lat="47.28929" lon="-2.36652">
        <ele>125.80000305176</ele>
        <time>2022-09-29T07:21:37.000Z</time>
      </trkpt>
      <trkpt lat="47.28911" lon="-2.36694">
        <ele>125.80000305176</ele>
        <time>2022-09-29T07:21:44.000Z</time>
      </trkpt>
      <trkpt lat="47.28907" lon="-2.36705">
        <ele>125.80000305176</ele>
        <time>2022-09-29T07:21:46.000Z</time>
      </trkpt>
      <trkpt lat="47.289" lon="-2.36721">
        <ele>125.80000305176</ele>
        <time>2022-09-29T07:21:49.000Z</time>
      </trkpt>
      <trkpt lat="47.2889" lon="-2.36746">
        <ele>125.80000305176</ele>
        <time>2022-09-29T07:21:54.000Z</time>
      </trkpt>
      <trkpt lat="47.28876" lon="-2.36785">
        <ele>125.80000305176</ele>
        <time>2022-09-29T07:22:00.000Z</time>
      </trkpt>
      <trkpt lat="47.28874" lon="-2.36792">
        <ele>125.80000305176</ele>
        <time>2022-09-29T07:22:01.000Z</time>
      </trkpt>
      <trkpt lat="47.28867" lon="-2.36819">
        <ele>125.80000305176</ele>
        <time>2022-09-29T07:22:05.000Z</time>
      </trkpt>
      <trkpt lat="47.28865" lon="-2.36825">
        <ele>125.80000305176</ele>
        <time>2022-09-29T07:22:06.000Z</time>
      </trkpt>
      <trkpt lat="47.28857" lon="-2.36859">
        <ele>125.80000305176</ele>
        <time>2022-09-29T07:22:11.000Z</time>
      </trkpt>
      <trkpt lat="47.28855" lon="-2.36872">
        <ele>125.80000305176</ele>
        <time>2022-09-29T07:22:13.000Z</time>
      </trkpt>
      <trkpt lat="47.28856" lon="-2.36893">
        <ele>125.80000305176</ele>
        <time>2022-09-29T07:22:17.000Z</time>
      </trkpt>
      <trkpt lat="47.28866" lon="-2.36901">
        <ele>125.80000305176</ele>
        <time>2022-09-29T07:22:20.000Z</time>
      </trkpt>
      <trkpt lat="47.2887" lon="-2.36904">
        <ele>125.80000305176</ele>
        <time>2022-09-29T07:22:21.000Z</time>
      </trkpt>
      <trkpt lat="47.28894" lon="-2.36929">
        <ele>125.80000305176</ele>
        <time>2022-09-29T07:22:27.000Z</time>
      </trkpt>
      <trkpt lat="47.28916" lon="-2.36957">
        <ele>125.80000305176</ele>
        <time>2022-09-29T07:22:33.000Z</time>
      </trkpt>
      <trkpt lat="47.28935" lon="-2.36988">
        <ele>125.80000305176</ele>
        <time>2022-09-29T07:22:39.000Z</time>
      </trkpt>
      <trkpt lat="47.28948" lon="-2.36992">
        <ele>125.80000305176</ele>
        <time>2022-09-29T07:22:42.000Z</time>
      </trkpt>
      <trkpt lat="47.28958" lon="-2.36979">
        <ele>126.19999694824</ele>
        <time>2022-09-29T07:22:45.000Z</time>
      </trkpt>
      <trkpt lat="47.2896" lon="-2.36974">
        <ele>126.59999847412</ele>
        <time>2022-09-29T07:22:46.000Z</time>
      </trkpt>
      <trkpt lat="47.28963" lon="-2.36969">
        <ele>127</ele>
        <time>2022-09-29T07:22:47.000Z</time>
      </trkpt>
      <trkpt lat="47.28966" lon="-2.36964">
        <ele>127.40000152588</ele>
        <time>2022-09-29T07:22:48.000Z</time>
      </trkpt>
      <trkpt lat="47.28968" lon="-2.36959">
        <ele>127.80000305176</ele>
        <time>2022-09-29T07:22:49.000Z</time>
      </trkpt>
      <trkpt lat="47.28974" lon="-2.3695">
        <ele>127.80000305176</ele>
        <time>2022-09-29T07:22:51.000Z</time>
      </trkpt>
      <trkpt lat="47.28983" lon="-2.36937">
        <ele>128.39999389648</ele>
        <time>2022-09-29T07:22:54.000Z</time>
      </trkpt>
      <trkpt lat="47.28986" lon="-2.36933">
        <ele>128.80000305176</ele>
        <time>2022-09-29T07:22:55.000Z</time>
      </trkpt>
      <trkpt lat="47.28989" lon="-2.36929">
        <ele>129.60000610352</ele>
        <time>2022-09-29T07:22:56.000Z</time>
      </trkpt>
      <trkpt lat="47.28991" lon="-2.36925">
        <ele>130</ele>
        <time>2022-09-29T07:22:57.000Z</time>
      </trkpt>
      <trkpt lat="47.28994" lon="-2.36921">
        <ele>130</ele>
        <time>2022-09-29T07:22:58.000Z</time>
      </trkpt>
      <trkpt lat="47.29007" lon="-2.36901">
        <ele>130.39999389648</ele>
        <time>2022-09-29T07:23:03.000Z</time>
      </trkpt>
      <trkpt lat="47.2901" lon="-2.36897">
        <ele>131</ele>
        <time>2022-09-29T07:23:04.000Z</time>
      </trkpt>
      <trkpt lat="47.29012" lon="-2.36893">
        <ele>131.39999389648</ele>
        <time>2022-09-29T07:23:05.000Z</time>
      </trkpt>
      <trkpt lat="47.29015" lon="-2.3689">
        <ele>131.80000305176</ele>
        <time>2022-09-29T07:23:06.000Z</time>
      </trkpt>
      <trkpt lat="47.29017" lon="-2.36888">
        <ele>132.19999694824</ele>
        <time>2022-09-29T07:23:07.000Z</time>
      </trkpt>
      <trkpt lat="47.29025" lon="-2.36889">
        <ele>132.19999694824</ele>
        <time>2022-09-29T07:23:09.000Z</time>
      </trkpt>
      <trkpt lat="47.29033" lon="-2.36898">
        <ele>132.60000610352</ele>
        <time>2022-09-29T07:23:12.000Z</time>
      </trkpt>
      <trkpt lat="47.29036" lon="-2.369">
        <ele>133</ele>
        <time>2022-09-29T07:23:13.000Z</time>
      </trkpt>
      <trkpt lat="47.29038" lon="-2.36903">
        <ele>133.39999389648</ele>
        <time>2022-09-29T07:23:14.000Z</time>
      </trkpt>
      <trkpt lat="47.2904" lon="-2.36906">
        <ele>134</ele>
        <time>2022-09-29T07:23:15.000Z</time>
      </trkpt>
      <trkpt lat="47.29042" lon="-2.36908">
        <ele>134.39999389648</ele>
        <time>2022-09-29T07:23:16.000Z</time>
      </trkpt>
      <trkpt lat="47.29046" lon="-2.36911">
        <ele>134.39999389648</ele>
        <time>2022-09-29T07:23:18.000Z</time>
      </trkpt>
      <trkpt lat="47.29054" lon="-2.36922">
        <ele>134.39999389648</ele>
        <time>2022-09-29T07:23:23.000Z</time>
      </trkpt>
      <trkpt lat="47.29061" lon="-2.3693">
        <ele>134.39999389648</ele>
        <time>2022-09-29T07:23:27.000Z</time>
      </trkpt>
      <trkpt lat="47.29072" lon="-2.36942">
        <ele>134.80000305176</ele>
        <time>2022-09-29T07:23:32.000Z</time>
      </trkpt>
      <trkpt lat="47.29076" lon="-2.36944">
        <ele>135.19999694824</ele>
        <time>2022-09-29T07:23:33.000Z</time>
      </trkpt>
      <trkpt lat="47.2908" lon="-2.36946">
        <ele>135.60000610352</ele>
        <time>2022-09-29T07:23:34.000Z</time>
      </trkpt>
      <trkpt lat="47.29084" lon="-2.36948">
        <ele>136</ele>
        <time>2022-09-29T07:23:35.000Z</time>
      </trkpt>
      <trkpt lat="47.29088" lon="-2.3695">
        <ele>136.39999389648</ele>
        <time>2022-09-29T07:23:36.000Z</time>
      </trkpt>
      <trkpt lat="47.29104" lon="-2.36953">
        <ele>136.39999389648</ele>
        <time>2022-09-29T07:23:41.000Z</time>
      </trkpt>
      <trkpt lat="47.2911" lon="-2.36954">
        <ele>136.39999389648</ele>
        <time>2022-09-29T07:23:43.000Z</time>
      </trkpt>
      <trkpt lat="47.29116" lon="-2.36957">
        <ele>136.39999389648</ele>
        <time>2022-09-29T07:23:45.000Z</time>
      </trkpt>
      <trkpt lat="47.29134" lon="-2.36964">
        <ele>136.39999389648</ele>
        <time>2022-09-29T07:23:50.000Z</time>
      </trkpt>
      <trkpt lat="47.29151" lon="-2.36983">
        <ele>136.39999389648</ele>
        <time>2022-09-29T07:23:55.000Z</time>
      </trkpt>
      <trkpt lat="47.29154" lon="-2.36988">
        <ele>136.39999389648</ele>
        <time>2022-09-29T07:23:56.000Z</time>
      </trkpt>
      <trkpt lat="47.29164" lon="-2.37001">
        <ele>136.80000305176</ele>
        <time>2022-09-29T07:23:59.000Z</time>
      </trkpt>
      <trkpt lat="47.29167" lon="-2.37005">
        <ele>137.19999694824</ele>
        <time>2022-09-29T07:24:00.000Z</time>
      </trkpt>
      <trkpt lat="47.2917" lon="-2.37009">
        <ele>137.60000610352</ele>
        <time>2022-09-29T07:24:01.000Z</time>
      </trkpt>
      <trkpt lat="47.29174" lon="-2.37013">
        <ele>138</ele>
        <time>2022-09-29T07:24:02.000Z</time>
      </trkpt>
      <trkpt lat="47.29177" lon="-2.37017">
        <ele>138.60000610352</ele>
        <time>2022-09-29T07:24:03.000Z</time>
      </trkpt>
      <trkpt lat="47.29197" lon="-2.37041">
        <ele>138.60000610352</ele>
        <time>2022-09-29T07:24:09.000Z</time>
      </trkpt>
      <trkpt lat="47.29222" lon="-2.37073">
        <ele>138.60000610352</ele>
        <time>2022-09-29T07:24:16.000Z</time>
      </trkpt>
      <trkpt lat="47.29246" lon="-2.37098">
        <ele>138.60000610352</ele>
        <time>2022-09-29T07:24:23.000Z</time>
      </trkpt>
      <trkpt lat="47.29274" lon="-2.37129">
        <ele>138.60000610352</ele>
        <time>2022-09-29T07:24:32.000Z</time>
      </trkpt>
      <trkpt lat="47.29291" lon="-2.37147">
        <ele>138.60000610352</ele>
        <time>2022-09-29T07:24:37.000Z</time>
      </trkpt>
      <trkpt lat="47.29298" lon="-2.37155">
        <ele>138.60000610352</ele>
        <time>2022-09-29T07:24:39.000Z</time>
      </trkpt>
      <trkpt lat="47.29322" lon="-2.3718">
        <ele>138.60000610352</ele>
        <time>2022-09-29T07:24:45.000Z</time>
      </trkpt>
      <trkpt lat="47.29358" lon="-2.37204">
        <ele>138.60000610352</ele>
        <time>2022-09-29T07:24:53.000Z</time>
      </trkpt>
      <trkpt lat="47.29396" lon="-2.37224">
        <ele>138.60000610352</ele>
        <time>2022-09-29T07:25:01.000Z</time>
      </trkpt>
      <trkpt lat="47.29416" lon="-2.37232">
        <ele>138.60000610352</ele>
        <time>2022-09-29T07:25:05.000Z</time>
      </trkpt>
      <trkpt lat="47.2942" lon="-2.37237">
        <ele>138.60000610352</ele>
        <time>2022-09-29T07:25:06.000Z</time>
      </trkpt>
      <trkpt lat="47.29434" lon="-2.37253">
        <ele>138.60000610352</ele>
        <time>2022-09-29T07:25:09.000Z</time>
      </trkpt>
      <trkpt lat="47.29443" lon="-2.37262">
        <ele>138.60000610352</ele>
        <time>2022-09-29T07:25:11.000Z</time>
      </trkpt>
      <trkpt lat="47.29451" lon="-2.37271">
        <ele>138.60000610352</ele>
        <time>2022-09-29T07:25:13.000Z</time>
      </trkpt>
      <trkpt lat="47.29467" lon="-2.37287">
        <ele>138.60000610352</ele>
        <time>2022-09-29T07:25:17.000Z</time>
      </trkpt>
      <trkpt lat="47.29479" lon="-2.373">
        <ele>139</ele>
        <time>2022-09-29T07:25:20.000Z</time>
      </trkpt>
      <trkpt lat="47.29483" lon="-2.37305">
        <ele>139.39999389648</ele>
        <time>2022-09-29T07:25:21.000Z</time>
      </trkpt>
      <trkpt lat="47.29487" lon="-2.37309">
        <ele>139.80000305176</ele>
        <time>2022-09-29T07:25:22.000Z</time>
      </trkpt>
      <trkpt lat="47.29491" lon="-2.37314">
        <ele>140.19999694824</ele>
        <time>2022-09-29T07:25:23.000Z</time>
      </trkpt>
      <trkpt lat="47.29495" lon="-2.37318">
        <ele>140.60000610352</ele>
        <time>2022-09-29T07:25:24.000Z</time>
      </trkpt>
      <trkpt lat="47.29517" lon="-2.37344">
        <ele>140.60000610352</ele>
        <time>2022-09-29T07:25:30.000Z</time>
      </trkpt>
      <trkpt lat="47.29534" lon="-2.37365">
        <ele>141</ele>
        <time>2022-09-29T07:25:35.000Z</time>
      </trkpt>
      <trkpt lat="47.29537" lon="-2.37369">
        <ele>141.39999389648</ele>
        <time>2022-09-29T07:25:36.000Z</time>
      </trkpt>
      <trkpt lat="47.29541" lon="-2.37374">
        <ele>141.80000305176</ele>
        <time>2022-09-29T07:25:37.000Z</time>
      </trkpt>
      <trkpt lat="47.29544" lon="-2.37378">
        <ele>142.19999694824</ele>
        <time>2022-09-29T07:25:38.000Z</time>
      </trkpt>
      <trkpt lat="47.29548" lon="-2.37382">
        <ele>142.60000610352</ele>
        <time>2022-09-29T07:25:39.000Z</time>
      </trkpt>
      <trkpt lat="47.29567" lon="-2.37409">
        <ele>142.60000610352</ele>
        <time>2022-09-29T07:25:45.000Z</time>
      </trkpt>
      <trkpt lat="47.29591" lon="-2.37452">
        <ele>142.60000610352</ele>
        <time>2022-09-29T07:25:54.000Z</time>
      </trkpt>
      <trkpt lat="47.2961" lon="-2.37482">
        <ele>142.60000610352</ele>
        <time>2022-09-29T07:26:00.000Z</time>
      </trkpt>
      <trkpt lat="47.29619" lon="-2.37491">
        <ele>142.60000610352</ele>
        <time>2022-09-29T07:26:02.000Z</time>
      </trkpt>
      <trkpt lat="47.29652" lon="-2.37515">
        <ele>142.60000610352</ele>
        <time>2022-09-29T07:26:08.000Z</time>
      </trkpt>
      <trkpt lat="47.29664" lon="-2.37523">
        <ele>142.19999694824</ele>
        <time>2022-09-29T07:26:10.000Z</time>
      </trkpt>
      <trkpt lat="47.29671" lon="-2.37528">
        <ele>141.80000305176</ele>
        <time>2022-09-29T07:26:11.000Z</time>
      </trkpt>
      <trkpt lat="47.29676" lon="-2.37532">
        <ele>141.19999694824</ele>
        <time>2022-09-29T07:26:12.000Z</time>
      </trkpt>
      <trkpt lat="47.29681" lon="-2.37536">
        <ele>140.39999389648</ele>
        <time>2022-09-29T07:26:13.000Z</time>
      </trkpt>
      <trkpt lat="47.29686" lon="-2.37541">
        <ele>140.39999389648</ele>
        <time>2022-09-29T07:26:14.000Z</time>
      </trkpt>
      <trkpt lat="47.29719" lon="-2.37576">
        <ele>140.39999389648</ele>
        <time>2022-09-29T07:26:21.000Z</time>
      </trkpt>
      <trkpt lat="47.29724" lon="-2.37582">
        <ele>140.80000305176</ele>
        <time>2022-09-29T07:26:22.000Z</time>
      </trkpt>
      <trkpt lat="47.29728" lon="-2.37587">
        <ele>141.19999694824</ele>
        <time>2022-09-29T07:26:23.000Z</time>
      </trkpt>
      <trkpt lat="47.29733" lon="-2.37592">
        <ele>141.60000610352</ele>
        <time>2022-09-29T07:26:24.000Z</time>
      </trkpt>
      <trkpt lat="47.29737" lon="-2.37597">
        <ele>142.19999694824</ele>
        <time>2022-09-29T07:26:25.000Z</time>
      </trkpt>
      <trkpt lat="47.29741" lon="-2.37602">
        <ele>142.60000610352</ele>
        <time>2022-09-29T07:26:26.000Z</time>
      </trkpt>
      <trkpt lat="47.29744" lon="-2.37608">
        <ele>142.60000610352</ele>
        <time>2022-09-29T07:26:27.000Z</time>
      </trkpt>
      <trkpt lat="47.29755" lon="-2.37624">
        <ele>143</ele>
        <time>2022-09-29T07:26:30.000Z</time>
      </trkpt>
      <trkpt lat="47.29759" lon="-2.37629">
        <ele>143.39999389648</ele>
        <time>2022-09-29T07:26:31.000Z</time>
      </trkpt>
      <trkpt lat="47.29763" lon="-2.37634">
        <ele>143.80000305176</ele>
        <time>2022-09-29T07:26:32.000Z</time>
      </trkpt>
      <trkpt lat="47.29767" lon="-2.37639">
        <ele>144.19999694824</ele>
        <time>2022-09-29T07:26:33.000Z</time>
      </trkpt>
      <trkpt lat="47.2977" lon="-2.37643">
        <ele>144.60000610352</ele>
        <time>2022-09-29T07:26:34.000Z</time>
      </trkpt>
      <trkpt lat="47.29773" lon="-2.37648">
        <ele>144.60000610352</ele>
        <time>2022-09-29T07:26:35.000Z</time>
      </trkpt>
      <trkpt lat="47.29803" lon="-2.37694">
        <ele>144.60000610352</ele>
        <time>2022-09-29T07:26:44.000Z</time>
      </trkpt>
      <trkpt lat="47.29832" lon="-2.37741">
        <ele>144.60000610352</ele>
        <time>2022-09-29T07:26:53.000Z</time>
      </trkpt>
      <trkpt lat="47.29865" lon="-2.37791">
        <ele>144.60000610352</ele>
        <time>2022-09-29T07:27:02.000Z</time>
      </trkpt>
      <trkpt lat="47.29868" lon="-2.37798">
        <ele>144.60000610352</ele>
        <time>2022-09-29T07:27:03.000Z</time>
      </trkpt>
      <trkpt lat="47.29869" lon="-2.37813">
        <ele>144.60000610352</ele>
        <time>2022-09-29T07:27:05.000Z</time>
      </trkpt>
      <trkpt lat="47.29863" lon="-2.37831">
        <ele>144.60000610352</ele>
        <time>2022-09-29T07:27:08.000Z</time>
      </trkpt>
      <trkpt lat="47.29854" lon="-2.37851">
        <ele>144.60000610352</ele>
        <time>2022-09-29T07:27:11.000Z</time>
      </trkpt>
      <trkpt lat="47.29847" lon="-2.37864">
        <ele>144.60000610352</ele>
        <time>2022-09-29T07:27:13.000Z</time>
      </trkpt>
      <trkpt lat="47.29843" lon="-2.3787">
        <ele>144.60000610352</ele>
        <time>2022-09-29T07:27:14.000Z</time>
      </trkpt>
      <trkpt lat="47.2983" lon="-2.37883">
        <ele>144.60000610352</ele>
        <time>2022-09-29T07:27:17.000Z</time>
      </trkpt>
      <trkpt lat="47.29826" lon="-2.37886">
        <ele>144.60000610352</ele>
        <time>2022-09-29T07:27:18.000Z</time>
      </trkpt>
      <trkpt lat="47.29807" lon="-2.37897">
        <ele>144.60000610352</ele>
        <time>2022-09-29T07:27:22.000Z</time>
      </trkpt>
      <trkpt lat="47.29799" lon="-2.37903">
        <ele>144.60000610352</ele>
        <time>2022-09-29T07:27:24.000Z</time>
      </trkpt>
      <trkpt lat="47.2979" lon="-2.37908">
        <ele>144.60000610352</ele>
        <time>2022-09-29T07:27:26.000Z</time>
      </trkpt>
      <trkpt lat="47.29785" lon="-2.37911">
        <ele>144.60000610352</ele>
        <time>2022-09-29T07:27:27.000Z</time>
      </trkpt>
      <trkpt lat="47.29767" lon="-2.37925">
        <ele>144.60000610352</ele>
        <time>2022-09-29T07:27:31.000Z</time>
      </trkpt>
      <trkpt lat="47.29758" lon="-2.37934">
        <ele>144.60000610352</ele>
        <time>2022-09-29T07:27:33.000Z</time>
      </trkpt>
      <trkpt lat="47.29754" lon="-2.3794">
        <ele>144.60000610352</ele>
        <time>2022-09-29T07:27:34.000Z</time>
      </trkpt>
      <trkpt lat="47.29743" lon="-2.37954">
        <ele>144.19999694824</ele>
        <time>2022-09-29T07:27:37.000Z</time>
      </trkpt>
      <trkpt lat="47.29741" lon="-2.37958">
        <ele>143.80000305176</ele>
        <time>2022-09-29T07:27:38.000Z</time>
      </trkpt>
      <trkpt lat="47.29739" lon="-2.37963">
        <ele>143.39999389648</ele>
        <time>2022-09-29T07:27:39.000Z</time>
      </trkpt>
      <trkpt lat="47.29737" lon="-2.37968">
        <ele>142.80000305176</ele>
        <time>2022-09-29T07:27:40.000Z</time>
      </trkpt>
      <trkpt lat="47.29735" lon="-2.37975">
        <ele>142.39999389648</ele>
        <time>2022-09-29T07:27:41.000Z</time>
      </trkpt>
      <trkpt lat="47.29733" lon="-2.37981">
        <ele>142</ele>
        <time>2022-09-29T07:27:42.000Z</time>
      </trkpt>
      <trkpt lat="47.29731" lon="-2.37987">
        <ele>141.60000610352</ele>
        <time>2022-09-29T07:27:43.000Z</time>
      </trkpt>
      <trkpt lat="47.29729" lon="-2.37994">
        <ele>141.19999694824</ele>
        <time>2022-09-29T07:27:44.000Z</time>
      </trkpt>
      <trkpt lat="47.29729" lon="-2.38002">
        <ele>140.80000305176</ele>
        <time>2022-09-29T07:27:45.000Z</time>
      </trkpt>
      <trkpt lat="47.29729" lon="-2.38008">
        <ele>140.19999694824</ele>
        <time>2022-09-29T07:27:46.000Z</time>
      </trkpt>
      <trkpt lat="47.29731" lon="-2.38015">
        <ele>139.60000610352</ele>
        <time>2022-09-29T07:27:47.000Z</time>
      </trkpt>
      <trkpt lat="47.29733" lon="-2.38021">
        <ele>139</ele>
        <time>2022-09-29T07:27:48.000Z</time>
      </trkpt>
      <trkpt lat="47.29733" lon="-2.38027">
        <ele>138.19999694824</ele>
        <time>2022-09-29T07:27:49.000Z</time>
      </trkpt>
      <trkpt lat="47.29732" lon="-2.38033">
        <ele>137.60000610352</ele>
        <time>2022-09-29T07:27:50.000Z</time>
      </trkpt>
      <trkpt lat="47.29728" lon="-2.38038">
        <ele>136.80000305176</ele>
        <time>2022-09-29T07:27:51.000Z</time>
      </trkpt>
      <trkpt lat="47.29724" lon="-2.38043">
        <ele>135.39999389648</ele>
        <time>2022-09-29T07:27:52.000Z</time>
      </trkpt>
      <trkpt lat="47.29718" lon="-2.38048">
        <ele>134.60000610352</ele>
        <time>2022-09-29T07:27:53.000Z</time>
      </trkpt>
      <trkpt lat="47.29712" lon="-2.38053">
        <ele>133.80000305176</ele>
        <time>2022-09-29T07:27:54.000Z</time>
      </trkpt>
      <trkpt lat="47.29705" lon="-2.38059">
        <ele>133.19999694824</ele>
        <time>2022-09-29T07:27:55.000Z</time>
      </trkpt>
      <trkpt lat="47.29698" lon="-2.38065">
        <ele>132.39999389648</ele>
        <time>2022-09-29T07:27:56.000Z</time>
      </trkpt>
      <trkpt lat="47.29691" lon="-2.3807">
        <ele>131.39999389648</ele>
        <time>2022-09-29T07:27:57.000Z</time>
      </trkpt>
      <trkpt lat="47.29684" lon="-2.38075">
        <ele>130.60000610352</ele>
        <time>2022-09-29T07:27:58.000Z</time>
      </trkpt>
      <trkpt lat="47.29677" lon="-2.3808">
        <ele>129.60000610352</ele>
        <time>2022-09-29T07:27:59.000Z</time>
      </trkpt>
      <trkpt lat="47.29669" lon="-2.38084">
        <ele>128.80000305176</ele>
        <time>2022-09-29T07:28:00.000Z</time>
      </trkpt>
      <trkpt lat="47.29662" lon="-2.38089">
        <ele>127.80000305176</ele>
        <time>2022-09-29T07:28:01.000Z</time>
      </trkpt>
      <trkpt lat="47.29654" lon="-2.38093">
        <ele>127</ele>
        <time>2022-09-29T07:28:02.000Z</time>
      </trkpt>
      <trkpt lat="47.29646" lon="-2.38098">
        <ele>126</ele>
        <time>2022-09-29T07:28:03.000Z</time>
      </trkpt>
      <trkpt lat="47.29637" lon="-2.38103">
        <ele>125.40000152588</ele>
        <time>2022-09-29T07:28:04.000Z</time>
      </trkpt>
      <trkpt lat="47.29629" lon="-2.38107">
        <ele>124.80000305176</ele>
        <time>2022-09-29T07:28:05.000Z</time>
      </trkpt>
      <trkpt lat="47.29621" lon="-2.3811">
        <ele>124.19999694824</ele>
        <time>2022-09-29T07:28:06.000Z</time>
      </trkpt>
      <trkpt lat="47.29612" lon="-2.38113">
        <ele>123.59999847412</ele>
        <time>2022-09-29T07:28:07.000Z</time>
      </trkpt>
      <trkpt lat="47.29604" lon="-2.38115">
        <ele>123</ele>
        <time>2022-09-29T07:28:08.000Z</time>
      </trkpt>
      <trkpt lat="47.29578" lon="-2.3812">
        <ele>122.40000152588</ele>
        <time>2022-09-29T07:28:11.000Z</time>
      </trkpt>
      <trkpt lat="47.2957" lon="-2.38122">
        <ele>122</ele>
        <time>2022-09-29T07:28:12.000Z</time>
      </trkpt>
      <trkpt lat="47.29562" lon="-2.38124">
        <ele>121.40000152588</ele>
        <time>2022-09-29T07:28:13.000Z</time>
      </trkpt>
      <trkpt lat="47.29554" lon="-2.38125">
        <ele>121</ele>
        <time>2022-09-29T07:28:14.000Z</time>
      </trkpt>
      <trkpt lat="47.29546" lon="-2.38125">
        <ele>120.40000152588</ele>
        <time>2022-09-29T07:28:15.000Z</time>
      </trkpt>
      <trkpt lat="47.29529" lon="-2.38125">
        <ele>120</ele>
        <time>2022-09-29T07:28:17.000Z</time>
      </trkpt>
      <trkpt lat="47.29521" lon="-2.38125">
        <ele>119.59999847412</ele>
        <time>2022-09-29T07:28:18.000Z</time>
      </trkpt>
      <trkpt lat="47.29512" lon="-2.38124">
        <ele>119.19999694824</ele>
        <time>2022-09-29T07:28:19.000Z</time>
      </trkpt>
      <trkpt lat="47.29504" lon="-2.38123">
        <ele>118.80000305176</ele>
        <time>2022-09-29T07:28:20.000Z</time>
      </trkpt>
      <trkpt lat="47.29497" lon="-2.38123">
        <ele>118.19999694824</ele>
        <time>2022-09-29T07:28:21.000Z</time>
      </trkpt>
      <trkpt lat="47.29483" lon="-2.3813">
        <ele>118.19999694824</ele>
        <time>2022-09-29T07:28:23.000Z</time>
      </trkpt>
      <trkpt lat="47.29477" lon="-2.38134">
        <ele>117.80000305176</ele>
        <time>2022-09-29T07:28:24.000Z</time>
      </trkpt>
      <trkpt lat="47.29472" lon="-2.38139">
        <ele>117.40000152588</ele>
        <time>2022-09-29T07:28:25.000Z</time>
      </trkpt>
      <trkpt lat="47.29466" lon="-2.38144">
        <ele>117</ele>
        <time>2022-09-29T07:28:26.000Z</time>
      </trkpt>
      <trkpt lat="47.29461" lon="-2.38147">
        <ele>116.59999847412</ele>
        <time>2022-09-29T07:28:27.000Z</time>
      </trkpt>
      <trkpt lat="47.29458" lon="-2.38149">
        <ele>116</ele>
        <time>2022-09-29T07:28:28.000Z</time>
      </trkpt>
      <trkpt lat="47.29453" lon="-2.38154">
        <ele>116</ele>
        <time>2022-09-29T07:28:30.000Z</time>
      </trkpt>
      <trkpt lat="47.29452" lon="-2.3817">
        <ele>116</ele>
        <time>2022-09-29T07:28:33.000Z</time>
      </trkpt>
      <trkpt lat="47.29453" lon="-2.38176">
        <ele>116</ele>
        <time>2022-09-29T07:28:34.000Z</time>
      </trkpt>
      <trkpt lat="47.29457" lon="-2.38214">
        <ele>116</ele>
        <time>2022-09-29T07:28:39.000Z</time>
      </trkpt>
      <trkpt lat="47.29461" lon="-2.38275">
        <ele>116</ele>
        <time>2022-09-29T07:28:46.000Z</time>
      </trkpt>
      <trkpt lat="47.29459" lon="-2.38334">
        <ele>116</ele>
        <time>2022-09-29T07:28:52.000Z</time>
      </trkpt>
      <trkpt lat="47.2946" lon="-2.3842">
        <ele>116</ele>
        <time>2022-09-29T07:29:00.000Z</time>
      </trkpt>
      <trkpt lat="47.29463" lon="-2.385">
        <ele>116</ele>
        <time>2022-09-29T07:29:08.000Z</time>
      </trkpt>
      <trkpt lat="47.29464" lon="-2.3851">
        <ele>116</ele>
        <time>2022-09-29T07:29:09.000Z</time>
      </trkpt>
      <trkpt lat="47.29466" lon="-2.38585">
        <ele>116</ele>
        <time>2022-09-29T07:29:17.000Z</time>
      </trkpt>
      <trkpt lat="47.29467" lon="-2.38655">
        <ele>116</ele>
        <time>2022-09-29T07:29:25.000Z</time>
      </trkpt>
      <trkpt lat="47.29474" lon="-2.38717">
        <ele>116</ele>
        <time>2022-09-29T07:29:32.000Z</time>
      </trkpt>
      <trkpt lat="47.29475" lon="-2.38777">
        <ele>116</ele>
        <time>2022-09-29T07:29:39.000Z</time>
      </trkpt>
      <trkpt lat="47.29475" lon="-2.38811">
        <ele>116.40000152588</ele>
        <time>2022-09-29T07:29:43.000Z</time>
      </trkpt>
      <trkpt lat="47.29476" lon="-2.38819">
        <ele>116.80000305176</ele>
        <time>2022-09-29T07:29:44.000Z</time>
      </trkpt>
      <trkpt lat="47.29476" lon="-2.38827">
        <ele>117.19999694824</ele>
        <time>2022-09-29T07:29:45.000Z</time>
      </trkpt>
      <trkpt lat="47.29478" lon="-2.38834">
        <ele>117.59999847412</ele>
        <time>2022-09-29T07:29:46.000Z</time>
      </trkpt>
      <trkpt lat="47.29479" lon="-2.38842">
        <ele>118</ele>
        <time>2022-09-29T07:29:47.000Z</time>
      </trkpt>
      <trkpt lat="47.2949" lon="-2.38889">
        <ele>118</ele>
        <time>2022-09-29T07:29:53.000Z</time>
      </trkpt>
      <trkpt lat="47.29506" lon="-2.38933">
        <ele>118</ele>
        <time>2022-09-29T07:29:59.000Z</time>
      </trkpt>
      <trkpt lat="47.2951" lon="-2.38939">
        <ele>118</ele>
        <time>2022-09-29T07:30:00.000Z</time>
      </trkpt>
      <trkpt lat="47.29527" lon="-2.38959">
        <ele>118</ele>
        <time>2022-09-29T07:30:04.000Z</time>
      </trkpt>
      <trkpt lat="47.29557" lon="-2.38982">
        <ele>118</ele>
        <time>2022-09-29T07:30:10.000Z</time>
      </trkpt>
      <trkpt lat="47.29585" lon="-2.38996">
        <ele>118</ele>
        <time>2022-09-29T07:30:16.000Z</time>
      </trkpt>
      <trkpt lat="47.29618" lon="-2.39011">
        <ele>118</ele>
        <time>2022-09-29T07:30:23.000Z</time>
      </trkpt>
      <trkpt lat="47.29626" lon="-2.39026">
        <ele>118</ele>
        <time>2022-09-29T07:30:26.000Z</time>
      </trkpt>
      <trkpt lat="47.29629" lon="-2.39066">
        <ele>118</ele>
        <time>2022-09-29T07:30:31.000Z</time>
      </trkpt>
      <trkpt lat="47.2963" lon="-2.39106">
        <ele>118</ele>
        <time>2022-09-29T07:30:36.000Z</time>
      </trkpt>
      <trkpt lat="47.2963" lon="-2.39122">
        <ele>118</ele>
        <time>2022-09-29T07:30:38.000Z</time>
      </trkpt>
      <trkpt lat="47.29632" lon="-2.39137">
        <ele>118</ele>
        <time>2022-09-29T07:30:40.000Z</time>
      </trkpt>
      <trkpt lat="47.29638" lon="-2.39161">
        <ele>118</ele>
        <time>2022-09-29T07:30:43.000Z</time>
      </trkpt>
      <trkpt lat="47.29654" lon="-2.39182">
        <ele>118</ele>
        <time>2022-09-29T07:30:47.000Z</time>
      </trkpt>
      <trkpt lat="47.29662" lon="-2.39189">
        <ele>118</ele>
        <time>2022-09-29T07:30:49.000Z</time>
      </trkpt>
      <trkpt lat="47.29665" lon="-2.392">
        <ele>118</ele>
        <time>2022-09-29T07:30:51.000Z</time>
      </trkpt>
      <trkpt lat="47.29661" lon="-2.39219">
        <ele>118</ele>
        <time>2022-09-29T07:30:54.000Z</time>
      </trkpt>
      <trkpt lat="47.29656" lon="-2.39234">
        <ele>118</ele>
        <time>2022-09-29T07:30:56.000Z</time>
      </trkpt>
      <trkpt lat="47.29655" lon="-2.39242">
        <ele>118</ele>
        <time>2022-09-29T07:30:57.000Z</time>
      </trkpt>
      <trkpt lat="47.29652" lon="-2.3926">
        <ele>118</ele>
        <time>2022-09-29T07:30:59.000Z</time>
      </trkpt>
      <trkpt lat="47.29646" lon="-2.39326">
        <ele>118</ele>
        <time>2022-09-29T07:31:07.000Z</time>
      </trkpt>
      <trkpt lat="47.29642" lon="-2.39382">
        <ele>118</ele>
        <time>2022-09-29T07:31:14.000Z</time>
      </trkpt>
      <trkpt lat="47.29637" lon="-2.39396">
        <ele>118</ele>
        <time>2022-09-29T07:31:16.000Z</time>
      </trkpt>
      <trkpt lat="47.29632" lon="-2.39426">
        <ele>118</ele>
        <time>2022-09-29T07:31:20.000Z</time>
      </trkpt>
      <trkpt lat="47.29621" lon="-2.39451">
        <ele>118</ele>
        <time>2022-09-29T07:31:24.000Z</time>
      </trkpt>
      <trkpt lat="47.29617" lon="-2.39457">
        <ele>118</ele>
        <time>2022-09-29T07:31:25.000Z</time>
      </trkpt>
      <trkpt lat="47.29596" lon="-2.39491">
        <ele>118</ele>
        <time>2022-09-29T07:31:31.000Z</time>
      </trkpt>
      <trkpt lat="47.29593" lon="-2.39495">
        <ele>118</ele>
        <time>2022-09-29T07:31:32.000Z</time>
      </trkpt>
      <trkpt lat="47.29581" lon="-2.39498">
        <ele>118</ele>
        <time>2022-09-29T07:31:35.000Z</time>
      </trkpt>
      <trkpt lat="47.29568" lon="-2.39493">
        <ele>118</ele>
        <time>2022-09-29T07:31:38.000Z</time>
      </trkpt>
      <trkpt lat="47.29561" lon="-2.39494">
        <ele>118</ele>
        <time>2022-09-29T07:31:40.000Z</time>
      </trkpt>
      <trkpt lat="47.29555" lon="-2.39506">
        <ele>118</ele>
        <time>2022-09-29T07:31:43.000Z</time>
      </trkpt>
      <trkpt lat="47.29555" lon="-2.39515">
        <ele>118</ele>
        <time>2022-09-29T07:31:45.000Z</time>
      </trkpt>
      <trkpt lat="47.29558" lon="-2.39531">
        <ele>118</ele>
        <time>2022-09-29T07:31:48.000Z</time>
      </trkpt>
      <trkpt lat="47.29558" lon="-2.39535">
        <ele>118.59999847412</ele>
        <time>2022-09-29T07:31:51.000Z</time>
      </trkpt>
      <trkpt lat="47.29559" lon="-2.39539">
        <ele>119</ele>
        <time>2022-09-29T07:31:52.000Z</time>
      </trkpt>
      <trkpt lat="47.29561" lon="-2.39542">
        <ele>119.40000152588</ele>
        <time>2022-09-29T07:31:53.000Z</time>
      </trkpt>
      <trkpt lat="47.29564" lon="-2.39543">
        <ele>119.80000305176</ele>
        <time>2022-09-29T07:31:54.000Z</time>
      </trkpt>
      <trkpt lat="47.29567" lon="-2.39543">
        <ele>120.19999694824</ele>
        <time>2022-09-29T07:31:55.000Z</time>
      </trkpt>
      <trkpt lat="47.29577" lon="-2.39544">
        <ele>120.19999694824</ele>
        <time>2022-09-29T07:31:58.000Z</time>
      </trkpt>
      <trkpt lat="47.2958" lon="-2.39544">
        <ele>120.19999694824</ele>
        <time>2022-09-29T07:31:59.000Z</time>
      </trkpt>
      <trkpt lat="47.29584" lon="-2.39545">
        <ele>121.19999694824</ele>
        <time>2022-09-29T07:32:00.000Z</time>
      </trkpt>
      <trkpt lat="47.29587" lon="-2.39545">
        <ele>121.59999847412</ele>
        <time>2022-09-29T07:32:01.000Z</time>
      </trkpt>
      <trkpt lat="47.29589" lon="-2.39546">
        <ele>122</ele>
        <time>2022-09-29T07:32:02.000Z</time>
      </trkpt>
      <trkpt lat="47.29592" lon="-2.39547">
        <ele>122.40000152588</ele>
        <time>2022-09-29T07:32:03.000Z</time>
      </trkpt>
      <trkpt lat="47.29594" lon="-2.39547">
        <ele>122.40000152588</ele>
        <time>2022-09-29T07:32:04.000Z</time>
      </trkpt>
      <trkpt lat="47.29615" lon="-2.39552">
        <ele>122.40000152588</ele>
        <time>2022-09-29T07:32:09.000Z</time>
      </trkpt>
      <trkpt lat="47.29655" lon="-2.39561">
        <ele>122.40000152588</ele>
        <time>2022-09-29T07:32:16.000Z</time>
      </trkpt>
      <trkpt lat="47.29696" lon="-2.39569">
        <ele>122.40000152588</ele>
        <time>2022-09-29T07:32:23.000Z</time>
      </trkpt>
      <trkpt lat="47.29741" lon="-2.39579">
        <ele>122.40000152588</ele>
        <time>2022-09-29T07:32:31.000Z</time>
      </trkpt>
      <trkpt lat="47.2978" lon="-2.39585">
        <ele>122.40000152588</ele>
        <time>2022-09-29T07:32:38.000Z</time>
      </trkpt>
      <trkpt lat="47.29829" lon="-2.39595">
        <ele>122.40000152588</ele>
        <time>2022-09-29T07:32:47.000Z</time>
      </trkpt>
      <trkpt lat="47.29839" lon="-2.39597">
        <ele>123.19999694824</ele>
        <time>2022-09-29T07:32:49.000Z</time>
      </trkpt>
      <trkpt lat="47.29843" lon="-2.39598">
        <ele>123.59999847412</ele>
        <time>2022-09-29T07:32:50.000Z</time>
      </trkpt>
      <trkpt lat="47.29848" lon="-2.396">
        <ele>124</ele>
        <time>2022-09-29T07:32:51.000Z</time>
      </trkpt>
      <trkpt lat="47.29852" lon="-2.396">
        <ele>124.40000152588</ele>
        <time>2022-09-29T07:32:52.000Z</time>
      </trkpt>
      <trkpt lat="47.29861" lon="-2.39602">
        <ele>124.40000152588</ele>
        <time>2022-09-29T07:32:54.000Z</time>
      </trkpt>
      <trkpt lat="47.29898" lon="-2.39609">
        <ele>124.40000152588</ele>
        <time>2022-09-29T07:33:02.000Z</time>
      </trkpt>
      <trkpt lat="47.29911" lon="-2.39612">
        <ele>124.40000152588</ele>
        <time>2022-09-29T07:33:05.000Z</time>
      </trkpt>
      <trkpt lat="47.29918" lon="-2.39614">
        <ele>124.40000152588</ele>
        <time>2022-09-29T07:33:07.000Z</time>
      </trkpt>
      <trkpt lat="47.2993" lon="-2.39617">
        <ele>124.80000305176</ele>
        <time>2022-09-29T07:33:11.000Z</time>
      </trkpt>
      <trkpt lat="47.29933" lon="-2.39618">
        <ele>125.40000152588</ele>
        <time>2022-09-29T07:33:12.000Z</time>
      </trkpt>
      <trkpt lat="47.29936" lon="-2.39618">
        <ele>125.80000305176</ele>
        <time>2022-09-29T07:33:13.000Z</time>
      </trkpt>
      <trkpt lat="47.29939" lon="-2.39619">
        <ele>126.59999847412</ele>
        <time>2022-09-29T07:33:14.000Z</time>
      </trkpt>
      <trkpt lat="47.29944" lon="-2.39618">
        <ele>126.59999847412</ele>
        <time>2022-09-29T07:33:16.000Z</time>
      </trkpt>
      <trkpt lat="47.29949" lon="-2.3962">
        <ele>126.59999847412</ele>
        <time>2022-09-29T07:33:18.000Z</time>
      </trkpt>
      <trkpt lat="47.29953" lon="-2.39632">
        <ele>126.59999847412</ele>
        <time>2022-09-29T07:33:21.000Z</time>
      </trkpt>
      <trkpt lat="47.29946" lon="-2.39651">
        <ele>126.59999847412</ele>
        <time>2022-09-29T07:33:25.000Z</time>
      </trkpt>
      <trkpt lat="47.29927" lon="-2.39685">
        <ele>126.59999847412</ele>
        <time>2022-09-29T07:33:31.000Z</time>
      </trkpt>
      <trkpt lat="47.29908" lon="-2.39714">
        <ele>126.59999847412</ele>
        <time>2022-09-29T07:33:36.000Z</time>
      </trkpt>
      <trkpt lat="47.29894" lon="-2.39739">
        <ele>127</ele>
        <time>2022-09-29T07:33:40.000Z</time>
      </trkpt>
      <trkpt lat="47.29891" lon="-2.39745">
        <ele>127.40000152588</ele>
        <time>2022-09-29T07:33:41.000Z</time>
      </trkpt>
      <trkpt lat="47.29888" lon="-2.39752">
        <ele>127.80000305176</ele>
        <time>2022-09-29T07:33:42.000Z</time>
      </trkpt>
      <trkpt lat="47.29885" lon="-2.39759">
        <ele>128.19999694824</ele>
        <time>2022-09-29T07:33:43.000Z</time>
      </trkpt>
      <trkpt lat="47.29882" lon="-2.39765">
        <ele>128.60000610352</ele>
        <time>2022-09-29T07:33:44.000Z</time>
      </trkpt>
      <trkpt lat="47.29876" lon="-2.39777">
        <ele>128.60000610352</ele>
        <time>2022-09-29T07:33:46.000Z</time>
      </trkpt>
      <trkpt lat="47.29848" lon="-2.39828">
        <ele>128.60000610352</ele>
        <time>2022-09-29T07:33:54.000Z</time>
      </trkpt>
      <trkpt lat="47.29822" lon="-2.39878">
        <ele>128.60000610352</ele>
        <time>2022-09-29T07:34:02.000Z</time>
      </trkpt>
      <trkpt lat="47.29816" lon="-2.39889">
        <ele>129</ele>
        <time>2022-09-29T07:34:04.000Z</time>
      </trkpt>
      <trkpt lat="47.29813" lon="-2.39894">
        <ele>129.39999389648</ele>
        <time>2022-09-29T07:34:05.000Z</time>
      </trkpt>
      <trkpt lat="47.29811" lon="-2.399">
        <ele>129.80000305176</ele>
        <time>2022-09-29T07:34:06.000Z</time>
      </trkpt>
      <trkpt lat="47.29808" lon="-2.39905">
        <ele>130.19999694824</ele>
        <time>2022-09-29T07:34:07.000Z</time>
      </trkpt>
      <trkpt lat="47.29806" lon="-2.3991">
        <ele>130.60000610352</ele>
        <time>2022-09-29T07:34:08.000Z</time>
      </trkpt>
      <trkpt lat="47.29795" lon="-2.39941">
        <ele>130.60000610352</ele>
        <time>2022-09-29T07:34:13.000Z</time>
      </trkpt>
      <trkpt lat="47.29793" lon="-2.39948">
        <ele>130.60000610352</ele>
        <time>2022-09-29T07:34:14.000Z</time>
      </trkpt>
      <trkpt lat="47.29793" lon="-2.39989">
        <ele>130.60000610352</ele>
        <time>2022-09-29T07:34:20.000Z</time>
      </trkpt>
      <trkpt lat="47.29798" lon="-2.40042">
        <ele>130.60000610352</ele>
        <time>2022-09-29T07:34:28.000Z</time>
      </trkpt>
      <trkpt lat="47.29801" lon="-2.4009">
        <ele>130.60000610352</ele>
        <time>2022-09-29T07:34:35.000Z</time>
      </trkpt>
      <trkpt lat="47.29796" lon="-2.40145">
        <ele>130.60000610352</ele>
        <time>2022-09-29T07:34:42.000Z</time>
      </trkpt>
      <trkpt lat="47.29784" lon="-2.40213">
        <ele>130.60000610352</ele>
        <time>2022-09-29T07:34:51.000Z</time>
      </trkpt>
      <trkpt lat="47.29778" lon="-2.40247">
        <ele>130.60000610352</ele>
        <time>2022-09-29T07:34:56.000Z</time>
      </trkpt>
      <trkpt lat="47.29777" lon="-2.40255">
        <ele>130.60000610352</ele>
        <time>2022-09-29T07:34:57.000Z</time>
      </trkpt>
      <trkpt lat="47.29776" lon="-2.40299">
        <ele>130.60000610352</ele>
        <time>2022-09-29T07:35:03.000Z</time>
      </trkpt>
      <trkpt lat="47.29777" lon="-2.40308">
        <ele>130.60000610352</ele>
        <time>2022-09-29T07:35:04.000Z</time>
      </trkpt>
      <trkpt lat="47.29777" lon="-2.40333">
        <ele>130.60000610352</ele>
        <time>2022-09-29T07:35:07.000Z</time>
      </trkpt>
      <trkpt lat="47.29771" lon="-2.40348">
        <ele>130.60000610352</ele>
        <time>2022-09-29T07:35:09.000Z</time>
      </trkpt>
      <trkpt lat="47.29757" lon="-2.40357">
        <ele>130.60000610352</ele>
        <time>2022-09-29T07:35:12.000Z</time>
      </trkpt>
      <trkpt lat="47.29721" lon="-2.40382">
        <ele>130.60000610352</ele>
        <time>2022-09-29T07:35:20.000Z</time>
      </trkpt>
      <trkpt lat="47.29713" lon="-2.40388">
        <ele>130.60000610352</ele>
        <time>2022-09-29T07:35:22.000Z</time>
      </trkpt>
      <trkpt lat="47.297" lon="-2.40387">
        <ele>130.60000610352</ele>
        <time>2022-09-29T07:35:25.000Z</time>
      </trkpt>
      <trkpt lat="47.29684" lon="-2.40372">
        <ele>130.60000610352</ele>
        <time>2022-09-29T07:35:29.000Z</time>
      </trkpt>
      <trkpt lat="47.29678" lon="-2.40347">
        <ele>130.60000610352</ele>
        <time>2022-09-29T07:35:33.000Z</time>
      </trkpt>
      <trkpt lat="47.29673" lon="-2.40332">
        <ele>130.60000610352</ele>
        <time>2022-09-29T07:35:36.000Z</time>
      </trkpt>
      <trkpt lat="47.2967" lon="-2.40327">
        <ele>130.60000610352</ele>
        <time>2022-09-29T07:35:37.000Z</time>
      </trkpt>
      <trkpt lat="47.29666" lon="-2.40316">
        <ele>130.60000610352</ele>
        <time>2022-09-29T07:35:39.000Z</time>
      </trkpt>
      <trkpt lat="47.29662" lon="-2.40304">
        <ele>130.60000610352</ele>
        <time>2022-09-29T07:35:41.000Z</time>
      </trkpt>
      <trkpt lat="47.29662" lon="-2.40298">
        <ele>130.60000610352</ele>
        <time>2022-09-29T07:35:42.000Z</time>
      </trkpt>
      <trkpt lat="47.29671" lon="-2.40287">
        <ele>130.60000610352</ele>
        <time>2022-09-29T07:35:45.000Z</time>
      </trkpt>
      <trkpt lat="47.29674" lon="-2.40283">
        <ele>130.60000610352</ele>
        <time>2022-09-29T07:35:46.000Z</time>
      </trkpt>
      <trkpt lat="47.29677" lon="-2.40279">
        <ele>130.60000610352</ele>
        <time>2022-09-29T07:35:47.000Z</time>
      </trkpt>
      <trkpt lat="47.29678" lon="-2.40266">
        <ele>130.60000610352</ele>
        <time>2022-09-29T07:35:49.000Z</time>
      </trkpt>
      <trkpt lat="47.29677" lon="-2.40252">
        <ele>130.60000610352</ele>
        <time>2022-09-29T07:35:51.000Z</time>
      </trkpt>
      <trkpt lat="47.29675" lon="-2.40236">
        <ele>130.60000610352</ele>
        <time>2022-09-29T07:35:53.000Z</time>
      </trkpt>
      <trkpt lat="47.29674" lon="-2.40227">
        <ele>130.19999694824</ele>
        <time>2022-09-29T07:35:54.000Z</time>
      </trkpt>
      <trkpt lat="47.29674" lon="-2.40219">
        <ele>129.80000305176</ele>
        <time>2022-09-29T07:35:55.000Z</time>
      </trkpt>
      <trkpt lat="47.29673" lon="-2.4021">
        <ele>129.39999389648</ele>
        <time>2022-09-29T07:35:56.000Z</time>
      </trkpt>
      <trkpt lat="47.29672" lon="-2.40201">
        <ele>129</ele>
        <time>2022-09-29T07:35:57.000Z</time>
      </trkpt>
      <trkpt lat="47.29672" lon="-2.40192">
        <ele>128.60000610352</ele>
        <time>2022-09-29T07:35:58.000Z</time>
      </trkpt>
      <trkpt lat="47.29669" lon="-2.40174">
        <ele>128.60000610352</ele>
        <time>2022-09-29T07:36:00.000Z</time>
      </trkpt>
      <trkpt lat="47.29666" lon="-2.40142">
        <ele>128.60000610352</ele>
        <time>2022-09-29T07:36:04.000Z</time>
      </trkpt>
      <trkpt lat="47.29664" lon="-2.40137">
        <ele>128.60000610352</ele>
        <time>2022-09-29T07:36:05.000Z</time>
      </trkpt>
      <trkpt lat="47.29659" lon="-2.40128">
        <ele>127.80000305176</ele>
        <time>2022-09-29T07:36:07.000Z</time>
      </trkpt>
      <trkpt lat="47.29658" lon="-2.40123">
        <ele>127.40000152588</ele>
        <time>2022-09-29T07:36:08.000Z</time>
      </trkpt>
      <trkpt lat="47.29656" lon="-2.40118">
        <ele>127</ele>
        <time>2022-09-29T07:36:09.000Z</time>
      </trkpt>
      <trkpt lat="47.29655" lon="-2.40112">
        <ele>126.59999847412</ele>
        <time>2022-09-29T07:36:10.000Z</time>
      </trkpt>
      <trkpt lat="47.29651" lon="-2.40094">
        <ele>126.59999847412</ele>
        <time>2022-09-29T07:36:13.000Z</time>
      </trkpt>
      <trkpt lat="47.29647" lon="-2.40077">
        <ele>126.59999847412</ele>
        <time>2022-09-29T07:36:16.000Z</time>
      </trkpt>
      <trkpt lat="47.29646" lon="-2.40074">
        <ele>126.19999694824</ele>
        <time>2022-09-29T07:36:17.000Z</time>
      </trkpt>
      <trkpt lat="47.29645" lon="-2.40071">
        <ele>125.80000305176</ele>
        <time>2022-09-29T07:36:18.000Z</time>
      </trkpt>
      <trkpt lat="47.29645" lon="-2.40068">
        <ele>125.40000152588</ele>
        <time>2022-09-29T07:36:19.000Z</time>
      </trkpt>
      <trkpt lat="47.29644" lon="-2.40067">
        <ele>124.80000305176</ele>
        <time>2022-09-29T07:36:20.000Z</time>
      </trkpt>
      <trkpt lat="47.29643" lon="-2.40067">
        <ele>124.40000152588</ele>
        <time>2022-09-29T07:36:21.000Z</time>
      </trkpt>
      <trkpt lat="47.29637" lon="-2.40068">
        <ele>124.40000152588</ele>
        <time>2022-09-29T07:36:24.000Z</time>
      </trkpt>
      <trkpt lat="47.29631" lon="-2.40059">
        <ele>124.40000152588</ele>
        <time>2022-09-29T07:36:27.000Z</time>
      </trkpt>
      <trkpt lat="47.29622" lon="-2.40031">
        <ele>124.40000152588</ele>
        <time>2022-09-29T07:36:33.000Z</time>
      </trkpt>
      <trkpt lat="47.29621" lon="-2.40014">
        <ele>124.40000152588</ele>
        <time>2022-09-29T07:36:36.000Z</time>
      </trkpt>
      <trkpt lat="47.29624" lon="-2.4001">
        <ele>124.40000152588</ele>
        <time>2022-09-29T07:36:37.000Z</time>
      </trkpt>
      <trkpt lat="47.29634" lon="-2.40001">
        <ele>124.40000152588</ele>
        <time>2022-09-29T07:36:41.000Z</time>
      </trkpt>
      <trkpt lat="47.29639" lon="-2.39996">
        <ele>124.40000152588</ele>
        <time>2022-09-29T07:36:43.000Z</time>
      </trkpt>
      <trkpt lat="47.29648" lon="-2.39988">
        <ele>124.40000152588</ele>
        <time>2022-09-29T07:36:48.000Z</time>
      </trkpt>
      <trkpt lat="47.29648" lon="-2.39986">
        <ele>124.40000152588</ele>
        <time>2022-09-29T07:36:49.000Z</time>
      </trkpt>
      <trkpt lat="47.29649" lon="-2.39984">
        <ele>124.40000152588</ele>
        <time>2022-09-29T07:36:52.000Z</time>
      </trkpt>
      <trkpt lat="47.29649" lon="-2.3998">
        <ele>124.40000152588</ele>
        <time>2022-09-29T07:37:05.000Z</time>
      </trkpt>
      <trkpt lat="47.29648" lon="-2.39978">
        <ele>124.40000152588</ele>
        <time>2022-09-29T07:37:06.000Z</time>
      </trkpt>
      <trkpt lat="47.29643" lon="-2.39967">
        <ele>124.40000152588</ele>
        <time>2022-09-29T07:37:10.000Z</time>
      </trkpt>
      <trkpt lat="47.29636" lon="-2.39953">
        <ele>124.40000152588</ele>
        <time>2022-09-29T07:37:14.000Z</time>
      </trkpt>
      <trkpt lat="47.29622" lon="-2.39923">
        <ele>124.40000152588</ele>
        <time>2022-09-29T07:37:19.000Z</time>
      </trkpt>
      <trkpt lat="47.29611" lon="-2.39901">
        <ele>124</ele>
        <time>2022-09-29T07:37:23.000Z</time>
      </trkpt>
      <trkpt lat="47.29608" lon="-2.39895">
        <ele>123.59999847412</ele>
        <time>2022-09-29T07:37:24.000Z</time>
      </trkpt>
      <trkpt lat="47.29605" lon="-2.3989">
        <ele>123.19999694824</ele>
        <time>2022-09-29T07:37:25.000Z</time>
      </trkpt>
      <trkpt lat="47.29604" lon="-2.39883">
        <ele>122.80000305176</ele>
        <time>2022-09-29T07:37:26.000Z</time>
      </trkpt>
      <trkpt lat="47.29605" lon="-2.39876">
        <ele>122.40000152588</ele>
        <time>2022-09-29T07:37:27.000Z</time>
      </trkpt>
      <trkpt lat="47.29611" lon="-2.39858">
        <ele>122.40000152588</ele>
        <time>2022-09-29T07:37:30.000Z</time>
      </trkpt>
      <trkpt lat="47.29609" lon="-2.39837">
        <ele>122.40000152588</ele>
        <time>2022-09-29T07:37:33.000Z</time>
      </trkpt>
      <trkpt lat="47.29604" lon="-2.39825">
        <ele>122.40000152588</ele>
        <time>2022-09-29T07:37:35.000Z</time>
      </trkpt>
      <trkpt lat="47.29601" lon="-2.39811">
        <ele>122.40000152588</ele>
        <time>2022-09-29T07:37:37.000Z</time>
      </trkpt>
      <trkpt lat="47.29602" lon="-2.39804">
        <ele>122.40000152588</ele>
        <time>2022-09-29T07:37:38.000Z</time>
      </trkpt>
      <trkpt lat="47.29612" lon="-2.39787">
        <ele>122.40000152588</ele>
        <time>2022-09-29T07:37:41.000Z</time>
      </trkpt>
      <trkpt lat="47.29615" lon="-2.39765">
        <ele>122.40000152588</ele>
        <time>2022-09-29T07:37:44.000Z</time>
      </trkpt>
      <trkpt lat="47.29609" lon="-2.39743">
        <ele>122.40000152588</ele>
        <time>2022-09-29T07:37:47.000Z</time>
      </trkpt>
      <trkpt lat="47.29598" lon="-2.3972">
        <ele>122.40000152588</ele>
        <time>2022-09-29T07:37:51.000Z</time>
      </trkpt>
      <trkpt lat="47.29596" lon="-2.39716">
        <ele>122.40000152588</ele>
        <time>2022-09-29T07:37:52.000Z</time>
      </trkpt>
      <trkpt lat="47.29593" lon="-2.39715">
        <ele>122.40000152588</ele>
        <time>2022-09-29T07:37:53.000Z</time>
      </trkpt>
      <trkpt lat="47.29589" lon="-2.3972">
        <ele>122.40000152588</ele>
        <time>2022-09-29T07:37:55.000Z</time>
      </trkpt>
      <trkpt lat="47.29587" lon="-2.39723">
        <ele>122</ele>
        <time>2022-09-29T07:37:56.000Z</time>
      </trkpt>
      <trkpt lat="47.29584" lon="-2.39728">
        <ele>121.59999847412</ele>
        <time>2022-09-29T07:37:57.000Z</time>
      </trkpt>
      <trkpt lat="47.29582" lon="-2.39732">
        <ele>121.19999694824</ele>
        <time>2022-09-29T07:37:58.000Z</time>
      </trkpt>
      <trkpt lat="47.29579" lon="-2.39737">
        <ele>120.80000305176</ele>
        <time>2022-09-29T07:37:59.000Z</time>
      </trkpt>
      <trkpt lat="47.29576" lon="-2.39742">
        <ele>120.40000152588</ele>
        <time>2022-09-29T07:38:00.000Z</time>
      </trkpt>
      <trkpt lat="47.2956" lon="-2.39778">
        <ele>120.40000152588</ele>
        <time>2022-09-29T07:38:06.000Z</time>
      </trkpt>
      <trkpt lat="47.29552" lon="-2.39798">
        <ele>120.40000152588</ele>
        <time>2022-09-29T07:38:09.000Z</time>
      </trkpt>
      <trkpt lat="47.29542" lon="-2.39817">
        <ele>120.40000152588</ele>
        <time>2022-09-29T07:38:12.000Z</time>
      </trkpt>
      <trkpt lat="47.29519" lon="-2.39865">
        <ele>120.40000152588</ele>
        <time>2022-09-29T07:38:20.000Z</time>
      </trkpt>
      <trkpt lat="47.29501" lon="-2.39896">
        <ele>120.40000152588</ele>
        <time>2022-09-29T07:38:27.000Z</time>
      </trkpt>
      <trkpt lat="47.29494" lon="-2.39902">
        <ele>120.40000152588</ele>
        <time>2022-09-29T07:38:30.000Z</time>
      </trkpt>
      <trkpt lat="47.29492" lon="-2.39901">
        <ele>120.40000152588</ele>
        <time>2022-09-29T07:38:31.000Z</time>
      </trkpt>
      <trkpt lat="47.29479" lon="-2.39896">
        <ele>120.40000152588</ele>
        <time>2022-09-29T07:38:35.000Z</time>
      </trkpt>
      <trkpt lat="47.29465" lon="-2.39875">
        <ele>120.40000152588</ele>
        <time>2022-09-29T07:38:40.000Z</time>
      </trkpt>
      <trkpt lat="47.29451" lon="-2.39857">
        <ele>120.40000152588</ele>
        <time>2022-09-29T07:38:44.000Z</time>
      </trkpt>
      <trkpt lat="47.29447" lon="-2.39853">
        <ele>120.40000152588</ele>
        <time>2022-09-29T07:38:45.000Z</time>
      </trkpt>
      <trkpt lat="47.29428" lon="-2.39847">
        <ele>120.40000152588</ele>
        <time>2022-09-29T07:38:49.000Z</time>
      </trkpt>
      <trkpt lat="47.29412" lon="-2.39846">
        <ele>120.40000152588</ele>
        <time>2022-09-29T07:38:52.000Z</time>
      </trkpt>
      <trkpt lat="47.29406" lon="-2.39847">
        <ele>120.40000152588</ele>
        <time>2022-09-29T07:38:53.000Z</time>
      </trkpt>
      <trkpt lat="47.29401" lon="-2.39849">
        <ele>120.40000152588</ele>
        <time>2022-09-29T07:38:54.000Z</time>
      </trkpt>
      <trkpt lat="47.29385" lon="-2.3986">
        <ele>120.40000152588</ele>
        <time>2022-09-29T07:38:57.000Z</time>
      </trkpt>
      <trkpt lat="47.29375" lon="-2.39868">
        <ele>120.40000152588</ele>
        <time>2022-09-29T07:38:59.000Z</time>
      </trkpt>
      <trkpt lat="47.29336" lon="-2.39905">
        <ele>120.40000152588</ele>
        <time>2022-09-29T07:39:07.000Z</time>
      </trkpt>
      <trkpt lat="47.29311" lon="-2.39939">
        <ele>120.40000152588</ele>
        <time>2022-09-29T07:39:13.000Z</time>
      </trkpt>
      <trkpt lat="47.29288" lon="-2.3998">
        <ele>120.40000152588</ele>
        <time>2022-09-29T07:39:19.000Z</time>
      </trkpt>
      <trkpt lat="47.29258" lon="-2.40042">
        <ele>120.40000152588</ele>
        <time>2022-09-29T07:39:27.000Z</time>
      </trkpt>
      <trkpt lat="47.29228" lon="-2.40106">
        <ele>120.40000152588</ele>
        <time>2022-09-29T07:39:35.000Z</time>
      </trkpt>
      <trkpt lat="47.29202" lon="-2.4016">
        <ele>120.40000152588</ele>
        <time>2022-09-29T07:39:42.000Z</time>
      </trkpt>
      <trkpt lat="47.29174" lon="-2.40219">
        <ele>120.40000152588</ele>
        <time>2022-09-29T07:39:50.000Z</time>
      </trkpt>
      <trkpt lat="47.2915" lon="-2.40268">
        <ele>120.80000305176</ele>
        <time>2022-09-29T07:39:57.000Z</time>
      </trkpt>
      <trkpt lat="47.29146" lon="-2.40276">
        <ele>121.19999694824</ele>
        <time>2022-09-29T07:39:58.000Z</time>
      </trkpt>
      <trkpt lat="47.29143" lon="-2.40283">
        <ele>121.59999847412</ele>
        <time>2022-09-29T07:39:59.000Z</time>
      </trkpt>
      <trkpt lat="47.2914" lon="-2.4029">
        <ele>122</ele>
        <time>2022-09-29T07:40:00.000Z</time>
      </trkpt>
      <trkpt lat="47.29136" lon="-2.40298">
        <ele>122.40000152588</ele>
        <time>2022-09-29T07:40:01.000Z</time>
      </trkpt>
      <trkpt lat="47.29109" lon="-2.40355">
        <ele>122.40000152588</ele>
        <time>2022-09-29T07:40:09.000Z</time>
      </trkpt>
      <trkpt lat="47.29082" lon="-2.4041">
        <ele>122.40000152588</ele>
        <time>2022-09-29T07:40:16.000Z</time>
      </trkpt>
      <trkpt lat="47.29053" lon="-2.4047">
        <ele>122.40000152588</ele>
        <time>2022-09-29T07:40:24.000Z</time>
      </trkpt>
      <trkpt lat="47.29027" lon="-2.4051">
        <ele>122.40000152588</ele>
        <time>2022-09-29T07:40:30.000Z</time>
      </trkpt>
      <trkpt lat="47.28992" lon="-2.40551">
        <ele>122.40000152588</ele>
        <time>2022-09-29T07:40:37.000Z</time>
      </trkpt>
      <trkpt lat="47.28947" lon="-2.40586">
        <ele>122.40000152588</ele>
        <time>2022-09-29T07:40:45.000Z</time>
      </trkpt>
      <trkpt lat="47.28895" lon="-2.4062">
        <ele>122.40000152588</ele>
        <time>2022-09-29T07:40:54.000Z</time>
      </trkpt>
      <trkpt lat="47.28889" lon="-2.40624">
        <ele>122.40000152588</ele>
        <time>2022-09-29T07:40:55.000Z</time>
      </trkpt>
      <trkpt lat="47.28844" lon="-2.40654">
        <ele>122.40000152588</ele>
        <time>2022-09-29T07:41:03.000Z</time>
      </trkpt>
      <trkpt lat="47.28808" lon="-2.40681">
        <ele>122.40000152588</ele>
        <time>2022-09-29T07:41:10.000Z</time>
      </trkpt>
      <trkpt lat="47.28772" lon="-2.40717">
        <ele>122.40000152588</ele>
        <time>2022-09-29T07:41:17.000Z</time>
      </trkpt>
      <trkpt lat="47.28739" lon="-2.40763">
        <ele>122.40000152588</ele>
        <time>2022-09-29T07:41:24.000Z</time>
      </trkpt>
      <trkpt lat="47.28716" lon="-2.40818">
        <ele>122.40000152588</ele>
        <time>2022-09-29T07:41:31.000Z</time>
      </trkpt>
      <trkpt lat="47.28706" lon="-2.40873">
        <ele>122.40000152588</ele>
        <time>2022-09-29T07:41:37.000Z</time>
      </trkpt>
      <trkpt lat="47.28707" lon="-2.40938">
        <ele>122.40000152588</ele>
        <time>2022-09-29T07:41:44.000Z</time>
      </trkpt>
      <trkpt lat="47.28716" lon="-2.4099">
        <ele>122.40000152588</ele>
        <time>2022-09-29T07:41:50.000Z</time>
      </trkpt>
      <trkpt lat="47.28732" lon="-2.41049">
        <ele>122.40000152588</ele>
        <time>2022-09-29T07:41:57.000Z</time>
      </trkpt>
      <trkpt lat="47.28751" lon="-2.41118">
        <ele>122.40000152588</ele>
        <time>2022-09-29T07:42:05.000Z</time>
      </trkpt>
      <trkpt lat="47.28766" lon="-2.41174">
        <ele>122.40000152588</ele>
        <time>2022-09-29T07:42:12.000Z</time>
      </trkpt>
      <trkpt lat="47.28771" lon="-2.41196">
        <ele>122.40000152588</ele>
        <time>2022-09-29T07:42:15.000Z</time>
      </trkpt>
      <trkpt lat="47.28773" lon="-2.41217">
        <ele>122.40000152588</ele>
        <time>2022-09-29T07:42:18.000Z</time>
      </trkpt>
      <trkpt lat="47.28774" lon="-2.41223">
        <ele>122.40000152588</ele>
        <time>2022-09-29T07:42:19.000Z</time>
      </trkpt>
      <trkpt lat="47.2878" lon="-2.41243">
        <ele>122.40000152588</ele>
        <time>2022-09-29T07:42:22.000Z</time>
      </trkpt>
      <trkpt lat="47.28775" lon="-2.41263">
        <ele>122.40000152588</ele>
        <time>2022-09-29T07:42:25.000Z</time>
      </trkpt>
      <trkpt lat="47.28772" lon="-2.41268">
        <ele>122.80000305176</ele>
        <time>2022-09-29T07:42:26.000Z</time>
      </trkpt>
      <trkpt lat="47.28768" lon="-2.41273">
        <ele>123.19999694824</ele>
        <time>2022-09-29T07:42:27.000Z</time>
      </trkpt>
      <trkpt lat="47.28764" lon="-2.41275">
        <ele>123.59999847412</ele>
        <time>2022-09-29T07:42:28.000Z</time>
      </trkpt>
      <trkpt lat="47.2876" lon="-2.41276">
        <ele>124</ele>
        <time>2022-09-29T07:42:29.000Z</time>
      </trkpt>
      <trkpt lat="47.28756" lon="-2.41275">
        <ele>124.40000152588</ele>
        <time>2022-09-29T07:42:30.000Z</time>
      </trkpt>
      <trkpt lat="47.28748" lon="-2.41268">
        <ele>124.40000152588</ele>
        <time>2022-09-29T07:42:32.000Z</time>
      </trkpt>
      <trkpt lat="47.28746" lon="-2.41263">
        <ele>124.40000152588</ele>
        <time>2022-09-29T07:42:33.000Z</time>
      </trkpt>
      <trkpt lat="47.28742" lon="-2.41257">
        <ele>124.40000152588</ele>
        <time>2022-09-29T07:42:34.000Z</time>
      </trkpt>
      <trkpt lat="47.28739" lon="-2.41252">
        <ele>124.40000152588</ele>
        <time>2022-09-29T07:42:35.000Z</time>
      </trkpt>
      <trkpt lat="47.28734" lon="-2.41249">
        <ele>124.40000152588</ele>
        <time>2022-09-29T07:42:36.000Z</time>
      </trkpt>
      <trkpt lat="47.28706" lon="-2.41236">
        <ele>124.40000152588</ele>
        <time>2022-09-29T07:42:41.000Z</time>
      </trkpt>
      <trkpt lat="47.287" lon="-2.41235">
        <ele>124.40000152588</ele>
        <time>2022-09-29T07:42:42.000Z</time>
      </trkpt>
      <trkpt lat="47.28666" lon="-2.41228">
        <ele>124</ele>
        <time>2022-09-29T07:42:47.000Z</time>
      </trkpt>
      <trkpt lat="47.2866" lon="-2.41227">
        <ele>123.59999847412</ele>
        <time>2022-09-29T07:42:48.000Z</time>
      </trkpt>
      <trkpt lat="47.28652" lon="-2.41225">
        <ele>123.19999694824</ele>
        <time>2022-09-29T07:42:49.000Z</time>
      </trkpt>
      <trkpt lat="47.28646" lon="-2.41224">
        <ele>122.59999847412</ele>
        <time>2022-09-29T07:42:50.000Z</time>
      </trkpt>
      <trkpt lat="47.28638" lon="-2.41222">
        <ele>122.19999694824</ele>
        <time>2022-09-29T07:42:51.000Z</time>
      </trkpt>
      <trkpt lat="47.28609" lon="-2.41216">
        <ele>121.80000305176</ele>
        <time>2022-09-29T07:42:55.000Z</time>
      </trkpt>
      <trkpt lat="47.28601" lon="-2.41214">
        <ele>121.40000152588</ele>
        <time>2022-09-29T07:42:56.000Z</time>
      </trkpt>
      <trkpt lat="47.28594" lon="-2.41215">
        <ele>121</ele>
        <time>2022-09-29T07:42:57.000Z</time>
      </trkpt>
      <trkpt lat="47.28587" lon="-2.41213">
        <ele>120.59999847412</ele>
        <time>2022-09-29T07:42:58.000Z</time>
      </trkpt>
      <trkpt lat="47.28579" lon="-2.41212">
        <ele>120</ele>
        <time>2022-09-29T07:42:59.000Z</time>
      </trkpt>
      <trkpt lat="47.28572" lon="-2.41211">
        <ele>120</ele>
        <time>2022-09-29T07:43:00.000Z</time>
      </trkpt>
      <trkpt lat="47.28537" lon="-2.41205">
        <ele>120</ele>
        <time>2022-09-29T07:43:06.000Z</time>
      </trkpt>
      <trkpt lat="47.28531" lon="-2.41204">
        <ele>120.59999847412</ele>
        <time>2022-09-29T07:43:07.000Z</time>
      </trkpt>
      <trkpt lat="47.28525" lon="-2.41204">
        <ele>121</ele>
        <time>2022-09-29T07:43:08.000Z</time>
      </trkpt>
      <trkpt lat="47.28519" lon="-2.41203">
        <ele>121.59999847412</ele>
        <time>2022-09-29T07:43:09.000Z</time>
      </trkpt>
      <trkpt lat="47.28514" lon="-2.41203">
        <ele>122</ele>
        <time>2022-09-29T07:43:10.000Z</time>
      </trkpt>
      <trkpt lat="47.28509" lon="-2.41204">
        <ele>122.59999847412</ele>
        <time>2022-09-29T07:43:11.000Z</time>
      </trkpt>
      <trkpt lat="47.28498" lon="-2.41215">
        <ele>122.59999847412</ele>
        <time>2022-09-29T07:43:14.000Z</time>
      </trkpt>
      <trkpt lat="47.28495" lon="-2.41219">
        <ele>122.59999847412</ele>
        <time>2022-09-29T07:43:15.000Z</time>
      </trkpt>
      <trkpt lat="47.28492" lon="-2.41225">
        <ele>122.59999847412</ele>
        <time>2022-09-29T07:43:16.000Z</time>
      </trkpt>
      <trkpt lat="47.28491" lon="-2.4124">
        <ele>122.59999847412</ele>
        <time>2022-09-29T07:43:18.000Z</time>
      </trkpt>
      <trkpt lat="47.28483" lon="-2.41255">
        <ele>122.59999847412</ele>
        <time>2022-09-29T07:43:21.000Z</time>
      </trkpt>
      <trkpt lat="47.28471" lon="-2.41257">
        <ele>122.59999847412</ele>
        <time>2022-09-29T07:43:24.000Z</time>
      </trkpt>
      <trkpt lat="47.28468" lon="-2.41258">
        <ele>122.59999847412</ele>
        <time>2022-09-29T07:43:25.000Z</time>
      </trkpt>
      <trkpt lat="47.28458" lon="-2.41261">
        <ele>122.59999847412</ele>
        <time>2022-09-29T07:43:28.000Z</time>
      </trkpt>
      <trkpt lat="47.28455" lon="-2.41266">
        <ele>122.59999847412</ele>
        <time>2022-09-29T07:43:29.000Z</time>
      </trkpt>
      <trkpt lat="47.28456" lon="-2.41285">
        <ele>122.59999847412</ele>
        <time>2022-09-29T07:43:32.000Z</time>
      </trkpt>
      <trkpt lat="47.28455" lon="-2.41292">
        <ele>122.59999847412</ele>
        <time>2022-09-29T07:43:33.000Z</time>
      </trkpt>
      <trkpt lat="47.28452" lon="-2.41313">
        <ele>122.59999847412</ele>
        <time>2022-09-29T07:43:36.000Z</time>
      </trkpt>
      <trkpt lat="47.28449" lon="-2.41328">
        <ele>122.59999847412</ele>
        <time>2022-09-29T07:43:38.000Z</time>
      </trkpt>
      <trkpt lat="47.28444" lon="-2.4135">
        <ele>122.59999847412</ele>
        <time>2022-09-29T07:43:41.000Z</time>
      </trkpt>
      <trkpt lat="47.28429" lon="-2.41404">
        <ele>122.59999847412</ele>
        <time>2022-09-29T07:43:48.000Z</time>
      </trkpt>
      <trkpt lat="47.2842" lon="-2.41453">
        <ele>122.59999847412</ele>
        <time>2022-09-29T07:43:54.000Z</time>
      </trkpt>
      <trkpt lat="47.28414" lon="-2.41514">
        <ele>122.59999847412</ele>
        <time>2022-09-29T07:44:01.000Z</time>
      </trkpt>
      <trkpt lat="47.28412" lon="-2.4154">
        <ele>122.59999847412</ele>
        <time>2022-09-29T07:44:04.000Z</time>
      </trkpt>
      <trkpt lat="47.28411" lon="-2.41557">
        <ele>122.59999847412</ele>
        <time>2022-09-29T07:44:06.000Z</time>
      </trkpt>
      <trkpt lat="47.28409" lon="-2.41565">
        <ele>122.59999847412</ele>
        <time>2022-09-29T07:44:07.000Z</time>
      </trkpt>
      <trkpt lat="47.28402" lon="-2.41634">
        <ele>122.59999847412</ele>
        <time>2022-09-29T07:44:15.000Z</time>
      </trkpt>
      <trkpt lat="47.28398" lon="-2.41678">
        <ele>122.59999847412</ele>
        <time>2022-09-29T07:44:20.000Z</time>
      </trkpt>
      <trkpt lat="47.28396" lon="-2.41686">
        <ele>122.59999847412</ele>
        <time>2022-09-29T07:44:21.000Z</time>
      </trkpt>
      <trkpt lat="47.28383" lon="-2.41734">
        <ele>122.59999847412</ele>
        <time>2022-09-29T07:44:27.000Z</time>
      </trkpt>
      <trkpt lat="47.28367" lon="-2.41798">
        <ele>122.59999847412</ele>
        <time>2022-09-29T07:44:34.000Z</time>
      </trkpt>
      <trkpt lat="47.2835" lon="-2.41871">
        <ele>122.59999847412</ele>
        <time>2022-09-29T07:44:42.000Z</time>
      </trkpt>
      <trkpt lat="47.28332" lon="-2.41944">
        <ele>122.59999847412</ele>
        <time>2022-09-29T07:44:50.000Z</time>
      </trkpt>
      <trkpt lat="47.28314" lon="-2.42021">
        <ele>122.59999847412</ele>
        <time>2022-09-29T07:44:59.000Z</time>
      </trkpt>
      <trkpt lat="47.28302" lon="-2.42097">
        <ele>122.59999847412</ele>
        <time>2022-09-29T07:45:08.000Z</time>
      </trkpt>
      <trkpt lat="47.28291" lon="-2.42174">
        <ele>122.59999847412</ele>
        <time>2022-09-29T07:45:17.000Z</time>
      </trkpt>
      <trkpt lat="47.28279" lon="-2.42251">
        <ele>122.59999847412</ele>
        <time>2022-09-29T07:45:26.000Z</time>
      </trkpt>
      <trkpt lat="47.28268" lon="-2.42323">
        <ele>122.59999847412</ele>
        <time>2022-09-29T07:45:34.000Z</time>
      </trkpt>
      <trkpt lat="47.28262" lon="-2.42358">
        <ele>123</ele>
        <time>2022-09-29T07:45:38.000Z</time>
      </trkpt>
      <trkpt lat="47.2826" lon="-2.42367">
        <ele>123.40000152588</ele>
        <time>2022-09-29T07:45:39.000Z</time>
      </trkpt>
      <trkpt lat="47.28258" lon="-2.42375">
        <ele>123.80000305176</ele>
        <time>2022-09-29T07:45:40.000Z</time>
      </trkpt>
      <trkpt lat="47.28256" lon="-2.42384">
        <ele>124.19999694824</ele>
        <time>2022-09-29T07:45:41.000Z</time>
      </trkpt>
      <trkpt lat="47.28254" lon="-2.42392">
        <ele>124.59999847412</ele>
        <time>2022-09-29T07:45:42.000Z</time>
      </trkpt>
      <trkpt lat="47.28245" lon="-2.42425">
        <ele>124.59999847412</ele>
        <time>2022-09-29T07:45:46.000Z</time>
      </trkpt>
      <trkpt lat="47.28243" lon="-2.42433">
        <ele>124.59999847412</ele>
        <time>2022-09-29T07:45:47.000Z</time>
      </trkpt>
      <trkpt lat="47.28223" lon="-2.4248">
        <ele>124.59999847412</ele>
        <time>2022-09-29T07:45:53.000Z</time>
      </trkpt>
      <trkpt lat="47.28206" lon="-2.42506">
        <ele>124.59999847412</ele>
        <time>2022-09-29T07:45:58.000Z</time>
      </trkpt>
      <trkpt lat="47.28196" lon="-2.42514">
        <ele>124.59999847412</ele>
        <time>2022-09-29T07:46:03.000Z</time>
      </trkpt>
      <trkpt lat="47.28184" lon="-2.42523">
        <ele>124.59999847412</ele>
        <time>2022-09-29T07:46:07.000Z</time>
      </trkpt>
      <trkpt lat="47.28161" lon="-2.42532">
        <ele>124.59999847412</ele>
        <time>2022-09-29T07:46:12.000Z</time>
      </trkpt>
      <trkpt lat="47.28129" lon="-2.42543">
        <ele>124.59999847412</ele>
        <time>2022-09-29T07:46:19.000Z</time>
      </trkpt>
      <trkpt lat="47.28107" lon="-2.42548">
        <ele>124.59999847412</ele>
        <time>2022-09-29T07:46:24.000Z</time>
      </trkpt>
      <trkpt lat="47.28104" lon="-2.42548">
        <ele>124.59999847412</ele>
        <time>2022-09-29T07:46:25.000Z</time>
      </trkpt>
      <trkpt lat="47.28102" lon="-2.42551">
        <ele>124.59999847412</ele>
        <time>2022-09-29T07:46:26.000Z</time>
      </trkpt>
      <trkpt lat="47.28102" lon="-2.42558">
        <ele>124.59999847412</ele>
        <time>2022-09-29T07:46:28.000Z</time>
      </trkpt>
      <trkpt lat="47.28111" lon="-2.42574">
        <ele>124.59999847412</ele>
        <time>2022-09-29T07:46:32.000Z</time>
      </trkpt>
      <trkpt lat="47.28127" lon="-2.42601">
        <ele>124.59999847412</ele>
        <time>2022-09-29T07:46:37.000Z</time>
      </trkpt>
      <trkpt lat="47.28133" lon="-2.42612">
        <ele>124.59999847412</ele>
        <time>2022-09-29T07:46:39.000Z</time>
      </trkpt>
      <trkpt lat="47.28144" lon="-2.42633">
        <ele>125</ele>
        <time>2022-09-29T07:46:43.000Z</time>
      </trkpt>
      <trkpt lat="47.28147" lon="-2.42639">
        <ele>125.40000152588</ele>
        <time>2022-09-29T07:46:44.000Z</time>
      </trkpt>
      <trkpt lat="47.28151" lon="-2.42645">
        <ele>125.80000305176</ele>
        <time>2022-09-29T07:46:45.000Z</time>
      </trkpt>
      <trkpt lat="47.28154" lon="-2.4265">
        <ele>126.19999694824</ele>
        <time>2022-09-29T07:46:46.000Z</time>
      </trkpt>
      <trkpt lat="47.28157" lon="-2.42656">
        <ele>126.59999847412</ele>
        <time>2022-09-29T07:46:47.000Z</time>
      </trkpt>
      <trkpt lat="47.28165" lon="-2.42668">
        <ele>126.59999847412</ele>
        <time>2022-09-29T07:46:49.000Z</time>
      </trkpt>
      <trkpt lat="47.28178" lon="-2.42686">
        <ele>126.59999847412</ele>
        <time>2022-09-29T07:46:52.000Z</time>
      </trkpt>
      <trkpt lat="47.28188" lon="-2.42706">
        <ele>126.59999847412</ele>
        <time>2022-09-29T07:46:55.000Z</time>
      </trkpt>
      <trkpt lat="47.282" lon="-2.42721">
        <ele>126.59999847412</ele>
        <time>2022-09-29T07:46:58.000Z</time>
      </trkpt>
      <trkpt lat="47.28207" lon="-2.42726">
        <ele>126.59999847412</ele>
        <time>2022-09-29T07:47:00.000Z</time>
      </trkpt>
      <trkpt lat="47.28213" lon="-2.42723">
        <ele>126.59999847412</ele>
        <time>2022-09-29T07:47:02.000Z</time>
      </trkpt>
      <trkpt lat="47.28217" lon="-2.42719">
        <ele>126.59999847412</ele>
        <time>2022-09-29T07:47:03.000Z</time>
      </trkpt>
      <trkpt lat="47.28226" lon="-2.42711">
        <ele>126.59999847412</ele>
        <time>2022-09-29T07:47:05.000Z</time>
      </trkpt>
      <trkpt lat="47.28243" lon="-2.427">
        <ele>126.59999847412</ele>
        <time>2022-09-29T07:47:08.000Z</time>
      </trkpt>
      <trkpt lat="47.28286" lon="-2.42674">
        <ele>126.59999847412</ele>
        <time>2022-09-29T07:47:16.000Z</time>
      </trkpt>
      <trkpt lat="47.2831" lon="-2.42651">
        <ele>126.59999847412</ele>
        <time>2022-09-29T07:47:21.000Z</time>
      </trkpt>
      <trkpt lat="47.28314" lon="-2.42645">
        <ele>126.59999847412</ele>
        <time>2022-09-29T07:47:22.000Z</time>
      </trkpt>
      <trkpt lat="47.28317" lon="-2.42638">
        <ele>126.59999847412</ele>
        <time>2022-09-29T07:47:23.000Z</time>
      </trkpt>
      <trkpt lat="47.28323" lon="-2.42614">
        <ele>126.59999847412</ele>
        <time>2022-09-29T07:47:26.000Z</time>
      </trkpt>
      <trkpt lat="47.28327" lon="-2.426">
        <ele>126.59999847412</ele>
        <time>2022-09-29T07:47:28.000Z</time>
      </trkpt>
      <trkpt lat="47.28329" lon="-2.42595">
        <ele>126.59999847412</ele>
        <time>2022-09-29T07:47:29.000Z</time>
      </trkpt>
      <trkpt lat="47.28332" lon="-2.42587">
        <ele>126.59999847412</ele>
        <time>2022-09-29T07:47:31.000Z</time>
      </trkpt>
      <trkpt lat="47.28335" lon="-2.4258">
        <ele>126.59999847412</ele>
        <time>2022-09-29T07:47:35.000Z</time>
      </trkpt>
      <trkpt lat="47.2834" lon="-2.42573">
        <ele>126.59999847412</ele>
        <time>2022-09-29T07:47:41.000Z</time>
      </trkpt>
      <trkpt lat="47.2834" lon="-2.4257">
        <ele>126.59999847412</ele>
        <time>2022-09-29T07:47:43.000Z</time>
      </trkpt>
      <trkpt lat="47.2834" lon="-2.4257">
        <ele>126.59999847412</ele>
        <time>2022-09-29T07:47:45.000Z</time>
      </trkpt>
      <trkpt lat="47.28338" lon="-2.42567">
        <ele>126.59999847412</ele>
        <time>2022-09-29T07:48:00.000Z</time>
      </trkpt>
      <trkpt lat="47.28336" lon="-2.42568">
        <ele>126.59999847412</ele>
        <time>2022-09-29T07:48:01.000Z</time>
      </trkpt>
      <trkpt lat="47.2833" lon="-2.42558">
        <ele>126.59999847412</ele>
        <time>2022-09-29T07:48:04.000Z</time>
      </trkpt>
      <trkpt lat="47.2833" lon="-2.42542">
        <ele>126.59999847412</ele>
        <time>2022-09-29T07:48:08.000Z</time>
      </trkpt>
      <trkpt lat="47.28331" lon="-2.42525">
        <ele>126.59999847412</ele>
        <time>2022-09-29T07:48:11.000Z</time>
      </trkpt>
      <trkpt lat="47.28334" lon="-2.42513">
        <ele>126.59999847412</ele>
        <time>2022-09-29T07:48:13.000Z</time>
      </trkpt>
      <trkpt lat="47.28338" lon="-2.42501">
        <ele>126.59999847412</ele>
        <time>2022-09-29T07:48:15.000Z</time>
      </trkpt>
      <trkpt lat="47.28341" lon="-2.42494">
        <ele>126.59999847412</ele>
        <time>2022-09-29T07:48:16.000Z</time>
      </trkpt>
      <trkpt lat="47.28347" lon="-2.4248">
        <ele>126.59999847412</ele>
        <time>2022-09-29T07:48:18.000Z</time>
      </trkpt>
      <trkpt lat="47.28366" lon="-2.42433">
        <ele>126.59999847412</ele>
        <time>2022-09-29T07:48:25.000Z</time>
      </trkpt>
      <trkpt lat="47.28382" lon="-2.42395">
        <ele>126.59999847412</ele>
        <time>2022-09-29T07:48:31.000Z</time>
      </trkpt>
      <trkpt lat="47.28385" lon="-2.42389">
        <ele>126.59999847412</ele>
        <time>2022-09-29T07:48:32.000Z</time>
      </trkpt>
      <trkpt lat="47.28391" lon="-2.42367">
        <ele>126.59999847412</ele>
        <time>2022-09-29T07:48:35.000Z</time>
      </trkpt>
      <trkpt lat="47.2839" lon="-2.42353">
        <ele>126.59999847412</ele>
        <time>2022-09-29T07:48:37.000Z</time>
      </trkpt>
      <trkpt lat="47.28388" lon="-2.42338">
        <ele>126.59999847412</ele>
        <time>2022-09-29T07:48:39.000Z</time>
      </trkpt>
      <trkpt lat="47.28385" lon="-2.42316">
        <ele>126.59999847412</ele>
        <time>2022-09-29T07:48:42.000Z</time>
      </trkpt>
      <trkpt lat="47.28383" lon="-2.42293">
        <ele>126.59999847412</ele>
        <time>2022-09-29T07:48:45.000Z</time>
      </trkpt>
      <trkpt lat="47.28387" lon="-2.42271">
        <ele>126.59999847412</ele>
        <time>2022-09-29T07:48:48.000Z</time>
      </trkpt>
      <trkpt lat="47.28388" lon="-2.42263">
        <ele>126.59999847412</ele>
        <time>2022-09-29T07:48:49.000Z</time>
      </trkpt>
      <trkpt lat="47.28399" lon="-2.4221">
        <ele>126.59999847412</ele>
        <time>2022-09-29T07:48:56.000Z</time>
      </trkpt>
      <trkpt lat="47.28412" lon="-2.42156">
        <ele>126.59999847412</ele>
        <time>2022-09-29T07:49:03.000Z</time>
      </trkpt>
      <trkpt lat="47.28424" lon="-2.42095">
        <ele>126.59999847412</ele>
        <time>2022-09-29T07:49:11.000Z</time>
      </trkpt>
      <trkpt lat="47.28438" lon="-2.42028">
        <ele>126.59999847412</ele>
        <time>2022-09-29T07:49:20.000Z</time>
      </trkpt>
      <trkpt lat="47.28449" lon="-2.41963">
        <ele>126.59999847412</ele>
        <time>2022-09-29T07:49:29.000Z</time>
      </trkpt>
      <trkpt lat="47.28457" lon="-2.41938">
        <ele>126.59999847412</ele>
        <time>2022-09-29T07:49:34.000Z</time>
      </trkpt>
      <trkpt lat="47.28464" lon="-2.41942">
        <ele>126.59999847412</ele>
        <time>2022-09-29T07:49:37.000Z</time>
      </trkpt>
      <trkpt lat="47.28469" lon="-2.41946">
        <ele>126.59999847412</ele>
        <time>2022-09-29T07:49:38.000Z</time>
      </trkpt>
      <trkpt lat="47.28474" lon="-2.41946">
        <ele>126.59999847412</ele>
        <time>2022-09-29T07:49:39.000Z</time>
      </trkpt>
      <trkpt lat="47.2848" lon="-2.41943">
        <ele>126.19999694824</ele>
        <time>2022-09-29T07:49:40.000Z</time>
      </trkpt>
      <trkpt lat="47.28484" lon="-2.41939">
        <ele>125.40000152588</ele>
        <time>2022-09-29T07:49:41.000Z</time>
      </trkpt>
      <trkpt lat="47.28489" lon="-2.4194">
        <ele>125</ele>
        <time>2022-09-29T07:49:42.000Z</time>
      </trkpt>
      <trkpt lat="47.28492" lon="-2.41939">
        <ele>124.59999847412</ele>
        <time>2022-09-29T07:49:43.000Z</time>
      </trkpt>
      <trkpt lat="47.28496" lon="-2.4194">
        <ele>124.59999847412</ele>
        <time>2022-09-29T07:49:45.000Z</time>
      </trkpt>
      <trkpt lat="47.28498" lon="-2.41939">
        <ele>124.59999847412</ele>
        <time>2022-09-29T07:49:46.000Z</time>
      </trkpt>
      <trkpt lat="47.28508" lon="-2.41937">
        <ele>124.59999847412</ele>
        <time>2022-09-29T07:49:52.000Z</time>
      </trkpt>
      <trkpt lat="47.28508" lon="-2.41936">
        <ele>124.59999847412</ele>
        <time>2022-09-29T07:49:53.000Z</time>
      </trkpt>
      <trkpt lat="47.28509" lon="-2.41935">
        <ele>125</ele>
        <time>2022-09-29T07:49:54.000Z</time>
      </trkpt>
      <trkpt lat="47.28508" lon="-2.41935">
        <ele>125.40000152588</ele>
        <time>2022-09-29T07:49:55.000Z</time>
      </trkpt>
      <trkpt lat="47.28506" lon="-2.41935">
        <ele>126.80000305176</ele>
        <time>2022-09-29T07:50:06.000Z</time>
      </trkpt>
      <trkpt lat="47.285" lon="-2.41921">
        <ele>126.80000305176</ele>
        <time>2022-09-29T07:50:11.000Z</time>
      </trkpt>
      <trkpt lat="47.28501" lon="-2.41902">
        <ele>126.80000305176</ele>
        <time>2022-09-29T07:50:14.000Z</time>
      </trkpt>
      <trkpt lat="47.28502" lon="-2.41897">
        <ele>126.80000305176</ele>
        <time>2022-09-29T07:50:15.000Z</time>
      </trkpt>
      <trkpt lat="47.28505" lon="-2.41871">
        <ele>126.80000305176</ele>
        <time>2022-09-29T07:50:19.000Z</time>
      </trkpt>
      <trkpt lat="47.28507" lon="-2.41857">
        <ele>126.80000305176</ele>
        <time>2022-09-29T07:50:21.000Z</time>
      </trkpt>
      <trkpt lat="47.28511" lon="-2.41831">
        <ele>126.80000305176</ele>
        <time>2022-09-29T07:50:25.000Z</time>
      </trkpt>
      <trkpt lat="47.28514" lon="-2.41818">
        <ele>126.80000305176</ele>
        <time>2022-09-29T07:50:27.000Z</time>
      </trkpt>
      <trkpt lat="47.28521" lon="-2.41769">
        <ele>126.80000305176</ele>
        <time>2022-09-29T07:50:34.000Z</time>
      </trkpt>
      <trkpt lat="47.28525" lon="-2.4175">
        <ele>126.80000305176</ele>
        <time>2022-09-29T07:50:37.000Z</time>
      </trkpt>
      <trkpt lat="47.2853" lon="-2.4174">
        <ele>126.80000305176</ele>
        <time>2022-09-29T07:50:39.000Z</time>
      </trkpt>
      <trkpt lat="47.28548" lon="-2.4173">
        <ele>126.80000305176</ele>
        <time>2022-09-29T07:50:43.000Z</time>
      </trkpt>
      <trkpt lat="47.28552" lon="-2.41729">
        <ele>126.80000305176</ele>
        <time>2022-09-29T07:50:44.000Z</time>
      </trkpt>
      <trkpt lat="47.28558" lon="-2.41729">
        <ele>126.80000305176</ele>
        <time>2022-09-29T07:50:45.000Z</time>
      </trkpt>
      <trkpt lat="47.28569" lon="-2.41731">
        <ele>126.80000305176</ele>
        <time>2022-09-29T07:50:47.000Z</time>
      </trkpt>
      <trkpt lat="47.28584" lon="-2.41737">
        <ele>126.80000305176</ele>
        <time>2022-09-29T07:50:50.000Z</time>
      </trkpt>
      <trkpt lat="47.28594" lon="-2.41744">
        <ele>126.80000305176</ele>
        <time>2022-09-29T07:50:52.000Z</time>
      </trkpt>
      <trkpt lat="47.28609" lon="-2.41758">
        <ele>126.80000305176</ele>
        <time>2022-09-29T07:50:56.000Z</time>
      </trkpt>
      <trkpt lat="47.28617" lon="-2.41763">
        <ele>126.80000305176</ele>
        <time>2022-09-29T07:50:58.000Z</time>
      </trkpt>
      <trkpt lat="47.28624" lon="-2.41772">
        <ele>126.80000305176</ele>
        <time>2022-09-29T07:51:02.000Z</time>
      </trkpt>
      <trkpt lat="47.28632" lon="-2.41781">
        <ele>126.80000305176</ele>
        <time>2022-09-29T07:51:07.000Z</time>
      </trkpt>
      <trkpt lat="47.28634" lon="-2.41785">
        <ele>126.80000305176</ele>
        <time>2022-09-29T07:51:08.000Z</time>
      </trkpt>
      <trkpt lat="47.28639" lon="-2.41796">
        <ele>126.80000305176</ele>
        <time>2022-09-29T07:51:12.000Z</time>
      </trkpt>
      <trkpt lat="47.28648" lon="-2.41803">
        <ele>126.80000305176</ele>
        <time>2022-09-29T07:51:16.000Z</time>
      </trkpt>
      <trkpt lat="47.28651" lon="-2.41805">
        <ele>126.80000305176</ele>
        <time>2022-09-29T07:51:17.000Z</time>
      </trkpt>
      <trkpt lat="47.28666" lon="-2.4182">
        <ele>126.80000305176</ele>
        <time>2022-09-29T07:51:23.000Z</time>
      </trkpt>
      <trkpt lat="47.2868" lon="-2.41831">
        <ele>126.80000305176</ele>
        <time>2022-09-29T07:51:28.000Z</time>
      </trkpt>
      <trkpt lat="47.28692" lon="-2.41843">
        <ele>126.80000305176</ele>
        <time>2022-09-29T07:51:35.000Z</time>
      </trkpt>
      <trkpt lat="47.28701" lon="-2.41852">
        <ele>126.80000305176</ele>
        <time>2022-09-29T07:51:42.000Z</time>
      </trkpt>
      <trkpt lat="47.28701" lon="-2.41852">
        <ele>126.80000305176</ele>
        <time>2022-09-29T07:51:43.000Z</time>
      </trkpt>
      <trkpt lat="47.28703" lon="-2.41853">
        <ele>126.80000305176</ele>
        <time>2022-09-29T07:53:23.000Z</time>
      </trkpt>
      <trkpt lat="47.28705" lon="-2.41854">
        <ele>126.80000305176</ele>
        <time>2022-09-29T07:53:24.000Z</time>
      </trkpt>
      <trkpt lat="47.28715" lon="-2.41864">
        <ele>126.80000305176</ele>
        <time>2022-09-29T07:53:30.000Z</time>
      </trkpt>
      <trkpt lat="47.28718" lon="-2.41866">
        <ele>127.19999694824</ele>
        <time>2022-09-29T07:53:31.000Z</time>
      </trkpt>
      <trkpt lat="47.2872" lon="-2.41868">
        <ele>127.59999847412</ele>
        <time>2022-09-29T07:53:32.000Z</time>
      </trkpt>
      <trkpt lat="47.28722" lon="-2.41869">
        <ele>128</ele>
        <time>2022-09-29T07:53:33.000Z</time>
      </trkpt>
      <trkpt lat="47.28724" lon="-2.41871">
        <ele>128.39999389648</ele>
        <time>2022-09-29T07:53:34.000Z</time>
      </trkpt>
      <trkpt lat="47.28726" lon="-2.41872">
        <ele>128.80000305176</ele>
        <time>2022-09-29T07:53:35.000Z</time>
      </trkpt>
      <trkpt lat="47.28729" lon="-2.41873">
        <ele>128.80000305176</ele>
        <time>2022-09-29T07:53:36.000Z</time>
      </trkpt>
      <trkpt lat="47.28747" lon="-2.41884">
        <ele>128.80000305176</ele>
        <time>2022-09-29T07:53:43.000Z</time>
      </trkpt>
      <trkpt lat="47.28749" lon="-2.41885">
        <ele>128.80000305176</ele>
        <time>2022-09-29T07:53:45.000Z</time>
      </trkpt>
      <trkpt lat="47.2875" lon="-2.41886">
        <ele>128.80000305176</ele>
        <time>2022-09-29T07:53:59.000Z</time>
      </trkpt>
      <trkpt lat="47.2876" lon="-2.41893">
        <ele>128.80000305176</ele>
        <time>2022-09-29T07:54:04.000Z</time>
      </trkpt>
      <trkpt lat="47.28781" lon="-2.41914">
        <ele>128.80000305176</ele>
        <time>2022-09-29T07:54:11.000Z</time>
      </trkpt>
      <trkpt lat="47.28786" lon="-2.41933">
        <ele>128.80000305176</ele>
        <time>2022-09-29T07:54:15.000Z</time>
      </trkpt>
      <trkpt lat="47.2879" lon="-2.41956">
        <ele>128.80000305176</ele>
        <time>2022-09-29T07:54:19.000Z</time>
      </trkpt>
      <trkpt lat="47.28792" lon="-2.41975">
        <ele>128.80000305176</ele>
        <time>2022-09-29T07:54:22.000Z</time>
      </trkpt>
      <trkpt lat="47.28793" lon="-2.41988">
        <ele>128.80000305176</ele>
        <time>2022-09-29T07:54:24.000Z</time>
      </trkpt>
      <trkpt lat="47.28796" lon="-2.42008">
        <ele>128.80000305176</ele>
        <time>2022-09-29T07:54:27.000Z</time>
      </trkpt>
      <trkpt lat="47.28798" lon="-2.42014">
        <ele>128.80000305176</ele>
        <time>2022-09-29T07:54:28.000Z</time>
      </trkpt>
      <trkpt lat="47.28805" lon="-2.42045">
        <ele>128.80000305176</ele>
        <time>2022-09-29T07:54:33.000Z</time>
      </trkpt>
      <trkpt lat="47.28806" lon="-2.42058">
        <ele>128.80000305176</ele>
        <time>2022-09-29T07:54:35.000Z</time>
      </trkpt>
      <trkpt lat="47.28806" lon="-2.42079">
        <ele>128.80000305176</ele>
        <time>2022-09-29T07:54:38.000Z</time>
      </trkpt>
      <trkpt lat="47.28804" lon="-2.42091">
        <ele>128.80000305176</ele>
        <time>2022-09-29T07:54:40.000Z</time>
      </trkpt>
      <trkpt lat="47.28803" lon="-2.42098">
        <ele>128.80000305176</ele>
        <time>2022-09-29T07:54:41.000Z</time>
      </trkpt>
      <trkpt lat="47.288" lon="-2.42118">
        <ele>128.80000305176</ele>
        <time>2022-09-29T07:54:44.000Z</time>
      </trkpt>
      <trkpt lat="47.28798" lon="-2.42124">
        <ele>128.80000305176</ele>
        <time>2022-09-29T07:54:45.000Z</time>
      </trkpt>
      <trkpt lat="47.2878" lon="-2.4214">
        <ele>128.80000305176</ele>
        <time>2022-09-29T07:54:49.000Z</time>
      </trkpt>
      <trkpt lat="47.28775" lon="-2.42143">
        <ele>128.80000305176</ele>
        <time>2022-09-29T07:54:50.000Z</time>
      </trkpt>
      <trkpt lat="47.28745" lon="-2.42164">
        <ele>128.80000305176</ele>
        <time>2022-09-29T07:54:56.000Z</time>
      </trkpt>
      <trkpt lat="47.28735" lon="-2.42172">
        <ele>128.80000305176</ele>
        <time>2022-09-29T07:54:58.000Z</time>
      </trkpt>
      <trkpt lat="47.28718" lon="-2.4219">
        <ele>128.80000305176</ele>
        <time>2022-09-29T07:55:02.000Z</time>
      </trkpt>
      <trkpt lat="47.2871" lon="-2.42199">
        <ele>128.80000305176</ele>
        <time>2022-09-29T07:55:04.000Z</time>
      </trkpt>
      <trkpt lat="47.28704" lon="-2.4221">
        <ele>128.80000305176</ele>
        <time>2022-09-29T07:55:06.000Z</time>
      </trkpt>
      <trkpt lat="47.28699" lon="-2.42222">
        <ele>128.80000305176</ele>
        <time>2022-09-29T07:55:08.000Z</time>
      </trkpt>
      <trkpt lat="47.28693" lon="-2.42242">
        <ele>128.80000305176</ele>
        <time>2022-09-29T07:55:11.000Z</time>
      </trkpt>
      <trkpt lat="47.28682" lon="-2.42293">
        <ele>128.80000305176</ele>
        <time>2022-09-29T07:55:18.000Z</time>
      </trkpt>
      <trkpt lat="47.28674" lon="-2.42338">
        <ele>128.80000305176</ele>
        <time>2022-09-29T07:55:24.000Z</time>
      </trkpt>
      <trkpt lat="47.28671" lon="-2.42375">
        <ele>128.80000305176</ele>
        <time>2022-09-29T07:55:29.000Z</time>
      </trkpt>
      <trkpt lat="47.2867" lon="-2.42382">
        <ele>128.80000305176</ele>
        <time>2022-09-29T07:55:30.000Z</time>
      </trkpt>
      <trkpt lat="47.28661" lon="-2.42399">
        <ele>128.80000305176</ele>
        <time>2022-09-29T07:55:33.000Z</time>
      </trkpt>
      <trkpt lat="47.28657" lon="-2.42404">
        <ele>128.80000305176</ele>
        <time>2022-09-29T07:55:34.000Z</time>
      </trkpt>
      <trkpt lat="47.28649" lon="-2.42413">
        <ele>128.80000305176</ele>
        <time>2022-09-29T07:55:36.000Z</time>
      </trkpt>
      <trkpt lat="47.28637" lon="-2.42426">
        <ele>128.80000305176</ele>
        <time>2022-09-29T07:55:39.000Z</time>
      </trkpt>
      <trkpt lat="47.28632" lon="-2.4243">
        <ele>128.80000305176</ele>
        <time>2022-09-29T07:55:40.000Z</time>
      </trkpt>
      <trkpt lat="47.28614" lon="-2.42447">
        <ele>128.80000305176</ele>
        <time>2022-09-29T07:55:44.000Z</time>
      </trkpt>
      <trkpt lat="47.28587" lon="-2.42475">
        <ele>128.80000305176</ele>
        <time>2022-09-29T07:55:50.000Z</time>
      </trkpt>
      <trkpt lat="47.28584" lon="-2.42481">
        <ele>128.80000305176</ele>
        <time>2022-09-29T07:55:51.000Z</time>
      </trkpt>
      <trkpt lat="47.28575" lon="-2.425">
        <ele>128.80000305176</ele>
        <time>2022-09-29T07:55:54.000Z</time>
      </trkpt>
      <trkpt lat="47.2857" lon="-2.42514">
        <ele>128.80000305176</ele>
        <time>2022-09-29T07:55:56.000Z</time>
      </trkpt>
      <trkpt lat="47.28567" lon="-2.42538">
        <ele>128.80000305176</ele>
        <time>2022-09-29T07:55:59.000Z</time>
      </trkpt>
      <trkpt lat="47.28568" lon="-2.42553">
        <ele>128.80000305176</ele>
        <time>2022-09-29T07:56:01.000Z</time>
      </trkpt>
      <trkpt lat="47.28574" lon="-2.42575">
        <ele>128.80000305176</ele>
        <time>2022-09-29T07:56:04.000Z</time>
      </trkpt>
      <trkpt lat="47.28577" lon="-2.42581">
        <ele>128.80000305176</ele>
        <time>2022-09-29T07:56:05.000Z</time>
      </trkpt>
      <trkpt lat="47.28583" lon="-2.42593">
        <ele>128.80000305176</ele>
        <time>2022-09-29T07:56:07.000Z</time>
      </trkpt>
      <trkpt lat="47.28596" lon="-2.42609">
        <ele>128.80000305176</ele>
        <time>2022-09-29T07:56:10.000Z</time>
      </trkpt>
      <trkpt lat="47.28604" lon="-2.42617">
        <ele>128.80000305176</ele>
        <time>2022-09-29T07:56:12.000Z</time>
      </trkpt>
      <trkpt lat="47.28618" lon="-2.42629">
        <ele>128.80000305176</ele>
        <time>2022-09-29T07:56:15.000Z</time>
      </trkpt>
      <trkpt lat="47.28641" lon="-2.42647">
        <ele>128.80000305176</ele>
        <time>2022-09-29T07:56:20.000Z</time>
      </trkpt>
      <trkpt lat="47.28646" lon="-2.42649">
        <ele>128.80000305176</ele>
        <time>2022-09-29T07:56:21.000Z</time>
      </trkpt>
      <trkpt lat="47.2866" lon="-2.42652">
        <ele>128.80000305176</ele>
        <time>2022-09-29T07:56:24.000Z</time>
      </trkpt>
      <trkpt lat="47.28669" lon="-2.42654">
        <ele>128.80000305176</ele>
        <time>2022-09-29T07:56:26.000Z</time>
      </trkpt>
      <trkpt lat="47.28673" lon="-2.42655">
        <ele>128.80000305176</ele>
        <time>2022-09-29T07:56:27.000Z</time>
      </trkpt>
      <trkpt lat="47.28694" lon="-2.42659">
        <ele>129.19999694824</ele>
        <time>2022-09-29T07:56:32.000Z</time>
      </trkpt>
      <trkpt lat="47.28698" lon="-2.42661">
        <ele>129.60000610352</ele>
        <time>2022-09-29T07:56:33.000Z</time>
      </trkpt>
      <trkpt lat="47.28702" lon="-2.42662">
        <ele>130</ele>
        <time>2022-09-29T07:56:34.000Z</time>
      </trkpt>
      <trkpt lat="47.28706" lon="-2.42664">
        <ele>130.39999389648</ele>
        <time>2022-09-29T07:56:35.000Z</time>
      </trkpt>
      <trkpt lat="47.2871" lon="-2.42666">
        <ele>130.80000305176</ele>
        <time>2022-09-29T07:56:36.000Z</time>
      </trkpt>
      <trkpt lat="47.28715" lon="-2.42668">
        <ele>130.80000305176</ele>
        <time>2022-09-29T07:56:37.000Z</time>
      </trkpt>
      <trkpt lat="47.28721" lon="-2.42678">
        <ele>130.80000305176</ele>
        <time>2022-09-29T07:56:39.000Z</time>
      </trkpt>
      <trkpt lat="47.28722" lon="-2.42704">
        <ele>130.80000305176</ele>
        <time>2022-09-29T07:56:43.000Z</time>
      </trkpt>
      <trkpt lat="47.28717" lon="-2.42751">
        <ele>130.80000305176</ele>
        <time>2022-09-29T07:56:50.000Z</time>
      </trkpt>
      <trkpt lat="47.28711" lon="-2.4277">
        <ele>130.80000305176</ele>
        <time>2022-09-29T07:56:53.000Z</time>
      </trkpt>
      <trkpt lat="47.28705" lon="-2.42782">
        <ele>130.80000305176</ele>
        <time>2022-09-29T07:56:55.000Z</time>
      </trkpt>
      <trkpt lat="47.28688" lon="-2.42815">
        <ele>130.80000305176</ele>
        <time>2022-09-29T07:57:01.000Z</time>
      </trkpt>
      <trkpt lat="47.28681" lon="-2.42833">
        <ele>130.80000305176</ele>
        <time>2022-09-29T07:57:04.000Z</time>
      </trkpt>
      <trkpt lat="47.28677" lon="-2.42845">
        <ele>130.80000305176</ele>
        <time>2022-09-29T07:57:06.000Z</time>
      </trkpt>
      <trkpt lat="47.28675" lon="-2.42853">
        <ele>130.80000305176</ele>
        <time>2022-09-29T07:57:07.000Z</time>
      </trkpt>
      <trkpt lat="47.28669" lon="-2.429">
        <ele>130.80000305176</ele>
        <time>2022-09-29T07:57:14.000Z</time>
      </trkpt>
      <trkpt lat="47.28666" lon="-2.42928">
        <ele>130.80000305176</ele>
        <time>2022-09-29T07:57:18.000Z</time>
      </trkpt>
      <trkpt lat="47.28664" lon="-2.42941">
        <ele>130.80000305176</ele>
        <time>2022-09-29T07:57:20.000Z</time>
      </trkpt>
      <trkpt lat="47.28662" lon="-2.42955">
        <ele>130.80000305176</ele>
        <time>2022-09-29T07:57:22.000Z</time>
      </trkpt>
      <trkpt lat="47.28658" lon="-2.42988">
        <ele>130.80000305176</ele>
        <time>2022-09-29T07:57:27.000Z</time>
      </trkpt>
      <trkpt lat="47.2865" lon="-2.43028">
        <ele>130.80000305176</ele>
        <time>2022-09-29T07:57:33.000Z</time>
      </trkpt>
      <trkpt lat="47.28647" lon="-2.43041">
        <ele>130.80000305176</ele>
        <time>2022-09-29T07:57:35.000Z</time>
      </trkpt>
      <trkpt lat="47.28643" lon="-2.43067">
        <ele>130.80000305176</ele>
        <time>2022-09-29T07:57:39.000Z</time>
      </trkpt>
      <trkpt lat="47.28641" lon="-2.43073">
        <ele>130.80000305176</ele>
        <time>2022-09-29T07:57:40.000Z</time>
      </trkpt>
      <trkpt lat="47.28635" lon="-2.43092">
        <ele>130.80000305176</ele>
        <time>2022-09-29T07:57:43.000Z</time>
      </trkpt>
      <trkpt lat="47.28633" lon="-2.431">
        <ele>130.80000305176</ele>
        <time>2022-09-29T07:57:44.000Z</time>
      </trkpt>
      <trkpt lat="47.28631" lon="-2.43107">
        <ele>130.80000305176</ele>
        <time>2022-09-29T07:57:45.000Z</time>
      </trkpt>
      <trkpt lat="47.28628" lon="-2.43121">
        <ele>130.80000305176</ele>
        <time>2022-09-29T07:57:47.000Z</time>
      </trkpt>
      <trkpt lat="47.28627" lon="-2.43135">
        <ele>130.80000305176</ele>
        <time>2022-09-29T07:57:49.000Z</time>
      </trkpt>
      <trkpt lat="47.28627" lon="-2.43142">
        <ele>130.80000305176</ele>
        <time>2022-09-29T07:57:50.000Z</time>
      </trkpt>
      <trkpt lat="47.28628" lon="-2.43162">
        <ele>130.80000305176</ele>
        <time>2022-09-29T07:57:53.000Z</time>
      </trkpt>
      <trkpt lat="47.2863" lon="-2.43174">
        <ele>130.80000305176</ele>
        <time>2022-09-29T07:57:55.000Z</time>
      </trkpt>
      <trkpt lat="47.28634" lon="-2.43192">
        <ele>130.80000305176</ele>
        <time>2022-09-29T07:57:58.000Z</time>
      </trkpt>
      <trkpt lat="47.28635" lon="-2.43197">
        <ele>130.80000305176</ele>
        <time>2022-09-29T07:57:59.000Z</time>
      </trkpt>
      <trkpt lat="47.28637" lon="-2.43203">
        <ele>130.80000305176</ele>
        <time>2022-09-29T07:58:00.000Z</time>
      </trkpt>
      <trkpt lat="47.28642" lon="-2.43214">
        <ele>130.80000305176</ele>
        <time>2022-09-29T07:58:02.000Z</time>
      </trkpt>
      <trkpt lat="47.28652" lon="-2.43227">
        <ele>130.80000305176</ele>
        <time>2022-09-29T07:58:05.000Z</time>
      </trkpt>
      <trkpt lat="47.28651" lon="-2.43242">
        <ele>130.80000305176</ele>
        <time>2022-09-29T07:58:08.000Z</time>
      </trkpt>
      <trkpt lat="47.2864" lon="-2.43249">
        <ele>130.80000305176</ele>
        <time>2022-09-29T07:58:11.000Z</time>
      </trkpt>
      <trkpt lat="47.28636" lon="-2.43251">
        <ele>130.80000305176</ele>
        <time>2022-09-29T07:58:12.000Z</time>
      </trkpt>
      <trkpt lat="47.28627" lon="-2.43253">
        <ele>130.80000305176</ele>
        <time>2022-09-29T07:58:14.000Z</time>
      </trkpt>
      <trkpt lat="47.28614" lon="-2.43256">
        <ele>130.80000305176</ele>
        <time>2022-09-29T07:58:17.000Z</time>
      </trkpt>
      <trkpt lat="47.28605" lon="-2.43257">
        <ele>130.80000305176</ele>
        <time>2022-09-29T07:58:19.000Z</time>
      </trkpt>
      <trkpt lat="47.28599" lon="-2.4325">
        <ele>130.80000305176</ele>
        <time>2022-09-29T07:58:21.000Z</time>
      </trkpt>
      <trkpt lat="47.28596" lon="-2.43216">
        <ele>130.80000305176</ele>
        <time>2022-09-29T07:58:27.000Z</time>
      </trkpt>
      <trkpt lat="47.28595" lon="-2.43178">
        <ele>130.80000305176</ele>
        <time>2022-09-29T07:58:33.000Z</time>
      </trkpt>
      <trkpt lat="47.28593" lon="-2.43166">
        <ele>130.80000305176</ele>
        <time>2022-09-29T07:58:35.000Z</time>
      </trkpt>
      <trkpt lat="47.28588" lon="-2.43146">
        <ele>130.80000305176</ele>
        <time>2022-09-29T07:58:38.000Z</time>
      </trkpt>
      <trkpt lat="47.28585" lon="-2.43126">
        <ele>130.80000305176</ele>
        <time>2022-09-29T07:58:41.000Z</time>
      </trkpt>
      <trkpt lat="47.2858" lon="-2.43114">
        <ele>130.80000305176</ele>
        <time>2022-09-29T07:58:43.000Z</time>
      </trkpt>
      <trkpt lat="47.28571" lon="-2.43094">
        <ele>130.80000305176</ele>
        <time>2022-09-29T07:58:47.000Z</time>
      </trkpt>
      <trkpt lat="47.2857" lon="-2.43091">
        <ele>130.80000305176</ele>
        <time>2022-09-29T07:58:48.000Z</time>
      </trkpt>
      <trkpt lat="47.2856" lon="-2.43074">
        <ele>130.80000305176</ele>
        <time>2022-09-29T07:58:53.000Z</time>
      </trkpt>
      <trkpt lat="47.28557" lon="-2.43065">
        <ele>130.80000305176</ele>
        <time>2022-09-29T07:58:55.000Z</time>
      </trkpt>
      <trkpt lat="47.28557" lon="-2.43057">
        <ele>130.80000305176</ele>
        <time>2022-09-29T07:58:57.000Z</time>
      </trkpt>
      <trkpt lat="47.2856" lon="-2.43049">
        <ele>130.80000305176</ele>
        <time>2022-09-29T07:58:59.000Z</time>
      </trkpt>
      <trkpt lat="47.28566" lon="-2.43033">
        <ele>130.80000305176</ele>
        <time>2022-09-29T07:59:03.000Z</time>
      </trkpt>
      <trkpt lat="47.28571" lon="-2.43011">
        <ele>130.80000305176</ele>
        <time>2022-09-29T07:59:09.000Z</time>
      </trkpt>
      <trkpt lat="47.28571" lon="-2.43005">
        <ele>130.80000305176</ele>
        <time>2022-09-29T07:59:12.000Z</time>
      </trkpt>
      <trkpt lat="47.2857" lon="-2.42998">
        <ele>130.80000305176</ele>
        <time>2022-09-29T07:59:20.000Z</time>
      </trkpt>
      <trkpt lat="47.28559" lon="-2.42989">
        <ele>130.80000305176</ele>
        <time>2022-09-29T07:59:24.000Z</time>
      </trkpt>
      <trkpt lat="47.28556" lon="-2.42987">
        <ele>130.80000305176</ele>
        <time>2022-09-29T07:59:25.000Z</time>
      </trkpt>
      <trkpt lat="47.28535" lon="-2.42981">
        <ele>130.80000305176</ele>
        <time>2022-09-29T07:59:30.000Z</time>
      </trkpt>
      <trkpt lat="47.28514" lon="-2.42979">
        <ele>130.80000305176</ele>
        <time>2022-09-29T07:59:35.000Z</time>
      </trkpt>
      <trkpt lat="47.28505" lon="-2.4298">
        <ele>130.80000305176</ele>
        <time>2022-09-29T07:59:37.000Z</time>
      </trkpt>
      <trkpt lat="47.285" lon="-2.42981">
        <ele>130.80000305176</ele>
        <time>2022-09-29T07:59:38.000Z</time>
      </trkpt>
      <trkpt lat="47.28478" lon="-2.42986">
        <ele>130.80000305176</ele>
        <time>2022-09-29T07:59:43.000Z</time>
      </trkpt>
      <trkpt lat="47.28452" lon="-2.42995">
        <ele>130.80000305176</ele>
        <time>2022-09-29T07:59:49.000Z</time>
      </trkpt>
      <trkpt lat="47.28447" lon="-2.42996">
        <ele>130.80000305176</ele>
        <time>2022-09-29T07:59:50.000Z</time>
      </trkpt>
      <trkpt lat="47.28434" lon="-2.43">
        <ele>130.80000305176</ele>
        <time>2022-09-29T07:59:53.000Z</time>
      </trkpt>
      <trkpt lat="47.28416" lon="-2.43003">
        <ele>130.80000305176</ele>
        <time>2022-09-29T07:59:57.000Z</time>
      </trkpt>
      <trkpt lat="47.28406" lon="-2.43015">
        <ele>130.80000305176</ele>
        <time>2022-09-29T08:00:00.000Z</time>
      </trkpt>
      <trkpt lat="47.284" lon="-2.43023">
        <ele>130.80000305176</ele>
        <time>2022-09-29T08:00:02.000Z</time>
      </trkpt>
      <trkpt lat="47.28387" lon="-2.43042">
        <ele>130.80000305176</ele>
        <time>2022-09-29T08:00:06.000Z</time>
      </trkpt>
      <trkpt lat="47.28362" lon="-2.4308">
        <ele>130.80000305176</ele>
        <time>2022-09-29T08:00:14.000Z</time>
      </trkpt>
      <trkpt lat="47.28343" lon="-2.43102">
        <ele>130.80000305176</ele>
        <time>2022-09-29T08:00:20.000Z</time>
      </trkpt>
      <trkpt lat="47.28326" lon="-2.43107">
        <ele>130.80000305176</ele>
        <time>2022-09-29T08:00:25.000Z</time>
      </trkpt>
      <trkpt lat="47.28316" lon="-2.43113">
        <ele>130.80000305176</ele>
        <time>2022-09-29T08:00:29.000Z</time>
      </trkpt>
      <trkpt lat="47.28312" lon="-2.43122">
        <ele>130.80000305176</ele>
        <time>2022-09-29T08:00:31.000Z</time>
      </trkpt>
      <trkpt lat="47.28311" lon="-2.43126">
        <ele>130.80000305176</ele>
        <time>2022-09-29T08:00:32.000Z</time>
      </trkpt>
      <trkpt lat="47.28307" lon="-2.43156">
        <ele>130.80000305176</ele>
        <time>2022-09-29T08:00:37.000Z</time>
      </trkpt>
      <trkpt lat="47.28298" lon="-2.43209">
        <ele>130.80000305176</ele>
        <time>2022-09-29T08:00:45.000Z</time>
      </trkpt>
      <trkpt lat="47.28294" lon="-2.43233">
        <ele>130.80000305176</ele>
        <time>2022-09-29T08:00:49.000Z</time>
      </trkpt>
      <trkpt lat="47.28293" lon="-2.43246">
        <ele>130.80000305176</ele>
        <time>2022-09-29T08:00:51.000Z</time>
      </trkpt>
      <trkpt lat="47.28293" lon="-2.43275">
        <ele>130.80000305176</ele>
        <time>2022-09-29T08:00:57.000Z</time>
      </trkpt>
      <trkpt lat="47.28293" lon="-2.43277">
        <ele>130.80000305176</ele>
        <time>2022-09-29T08:00:59.000Z</time>
      </trkpt>
      <trkpt lat="47.28287" lon="-2.43287">
        <ele>130.80000305176</ele>
        <time>2022-09-29T08:01:45.000Z</time>
      </trkpt>
      <trkpt lat="47.28286" lon="-2.43289">
        <ele>130.80000305176</ele>
        <time>2022-09-29T08:01:46.000Z</time>
      </trkpt>
      <trkpt lat="47.28282" lon="-2.43304">
        <ele>130.80000305176</ele>
        <time>2022-09-29T08:01:50.000Z</time>
      </trkpt>
      <trkpt lat="47.28274" lon="-2.43348">
        <ele>130.80000305176</ele>
        <time>2022-09-29T08:01:58.000Z</time>
      </trkpt>
      <trkpt lat="47.2827" lon="-2.43367">
        <ele>130.80000305176</ele>
        <time>2022-09-29T08:02:03.000Z</time>
      </trkpt>
      <trkpt lat="47.2827" lon="-2.43367">
        <ele>130.80000305176</ele>
        <time>2022-09-29T08:02:04.000Z</time>
      </trkpt>
      <trkpt lat="47.28269" lon="-2.4337">
        <ele>130.80000305176</ele>
        <time>2022-09-29T08:02:43.000Z</time>
      </trkpt>
      <trkpt lat="47.28267" lon="-2.43373">
        <ele>130.80000305176</ele>
        <time>2022-09-29T08:02:44.000Z</time>
      </trkpt>
      <trkpt lat="47.2826" lon="-2.43383">
        <ele>130.80000305176</ele>
        <time>2022-09-29T08:02:47.000Z</time>
      </trkpt>
      <trkpt lat="47.28257" lon="-2.43383">
        <ele>130.80000305176</ele>
        <time>2022-09-29T08:02:48.000Z</time>
      </trkpt>
      <trkpt lat="47.2824" lon="-2.43375">
        <ele>130.80000305176</ele>
        <time>2022-09-29T08:02:52.000Z</time>
      </trkpt>
      <trkpt lat="47.28232" lon="-2.43368">
        <ele>130.80000305176</ele>
        <time>2022-09-29T08:02:54.000Z</time>
      </trkpt>
      <trkpt lat="47.28229" lon="-2.43364">
        <ele>130.80000305176</ele>
        <time>2022-09-29T08:02:55.000Z</time>
      </trkpt>
      <trkpt lat="47.28221" lon="-2.43349">
        <ele>130.80000305176</ele>
        <time>2022-09-29T08:02:58.000Z</time>
      </trkpt>
      <trkpt lat="47.28219" lon="-2.43343">
        <ele>130.80000305176</ele>
        <time>2022-09-29T08:02:59.000Z</time>
      </trkpt>
      <trkpt lat="47.2821" lon="-2.43329">
        <ele>130.80000305176</ele>
        <time>2022-09-29T08:03:03.000Z</time>
      </trkpt>
      <trkpt lat="47.28206" lon="-2.43329">
        <ele>130.80000305176</ele>
        <time>2022-09-29T08:03:04.000Z</time>
      </trkpt>
      <trkpt lat="47.28198" lon="-2.43331">
        <ele>130.80000305176</ele>
        <time>2022-09-29T08:03:06.000Z</time>
      </trkpt>
      <trkpt lat="47.2819" lon="-2.43336">
        <ele>130.80000305176</ele>
        <time>2022-09-29T08:03:08.000Z</time>
      </trkpt>
      <trkpt lat="47.28186" lon="-2.43336">
        <ele>130.80000305176</ele>
        <time>2022-09-29T08:03:09.000Z</time>
      </trkpt>
      <trkpt lat="47.28182" lon="-2.43335">
        <ele>130.80000305176</ele>
        <time>2022-09-29T08:03:10.000Z</time>
      </trkpt>
      <trkpt lat="47.28172" lon="-2.43341">
        <ele>130.80000305176</ele>
        <time>2022-09-29T08:03:13.000Z</time>
      </trkpt>
      <trkpt lat="47.28162" lon="-2.43357">
        <ele>130.80000305176</ele>
        <time>2022-09-29T08:03:16.000Z</time>
      </trkpt>
      <trkpt lat="47.28155" lon="-2.43367">
        <ele>130.80000305176</ele>
        <time>2022-09-29T08:03:18.000Z</time>
      </trkpt>
      <trkpt lat="47.28129" lon="-2.43407">
        <ele>130.80000305176</ele>
        <time>2022-09-29T08:03:25.000Z</time>
      </trkpt>
      <trkpt lat="47.28104" lon="-2.43443">
        <ele>130.80000305176</ele>
        <time>2022-09-29T08:03:31.000Z</time>
      </trkpt>
      <trkpt lat="47.28079" lon="-2.43481">
        <ele>130.80000305176</ele>
        <time>2022-09-29T08:03:37.000Z</time>
      </trkpt>
      <trkpt lat="47.2804" lon="-2.43538">
        <ele>130.80000305176</ele>
        <time>2022-09-29T08:03:46.000Z</time>
      </trkpt>
      <trkpt lat="47.28006" lon="-2.43588">
        <ele>130.80000305176</ele>
        <time>2022-09-29T08:03:54.000Z</time>
      </trkpt>
      <trkpt lat="47.27965" lon="-2.43647">
        <ele>130.80000305176</ele>
        <time>2022-09-29T08:04:04.000Z</time>
      </trkpt>
      <trkpt lat="47.27961" lon="-2.43653">
        <ele>130.80000305176</ele>
        <time>2022-09-29T08:04:05.000Z</time>
      </trkpt>
      <trkpt lat="47.27926" lon="-2.43705">
        <ele>130.80000305176</ele>
        <time>2022-09-29T08:04:13.000Z</time>
      </trkpt>
      <trkpt lat="47.27893" lon="-2.43743">
        <ele>130.80000305176</ele>
        <time>2022-09-29T08:04:20.000Z</time>
      </trkpt>
      <trkpt lat="47.27865" lon="-2.4377">
        <ele>130.80000305176</ele>
        <time>2022-09-29T08:04:26.000Z</time>
      </trkpt>
      <trkpt lat="47.27836" lon="-2.43792">
        <ele>130.80000305176</ele>
        <time>2022-09-29T08:04:32.000Z</time>
      </trkpt>
      <trkpt lat="47.27831" lon="-2.43794">
        <ele>130.80000305176</ele>
        <time>2022-09-29T08:04:33.000Z</time>
      </trkpt>
      <trkpt lat="47.27812" lon="-2.438">
        <ele>130.80000305176</ele>
        <time>2022-09-29T08:04:37.000Z</time>
      </trkpt>
      <trkpt lat="47.27803" lon="-2.43797">
        <ele>130.80000305176</ele>
        <time>2022-09-29T08:04:40.000Z</time>
      </trkpt>
      <trkpt lat="47.27798" lon="-2.43795">
        <ele>130.80000305176</ele>
        <time>2022-09-29T08:04:43.000Z</time>
      </trkpt>
      <trkpt lat="47.27796" lon="-2.43795">
        <ele>130.80000305176</ele>
        <time>2022-09-29T08:04:44.000Z</time>
      </trkpt>
      <trkpt lat="47.27794" lon="-2.43798">
        <ele>130.80000305176</ele>
        <time>2022-09-29T08:04:45.000Z</time>
      </trkpt>
      <trkpt lat="47.27796" lon="-2.43812">
        <ele>130.80000305176</ele>
        <time>2022-09-29T08:04:48.000Z</time>
      </trkpt>
      <trkpt lat="47.27798" lon="-2.43818">
        <ele>130.80000305176</ele>
        <time>2022-09-29T08:04:49.000Z</time>
      </trkpt>
      <trkpt lat="47.278" lon="-2.43824">
        <ele>130.80000305176</ele>
        <time>2022-09-29T08:04:50.000Z</time>
      </trkpt>
      <trkpt lat="47.27799" lon="-2.43838">
        <ele>130.80000305176</ele>
        <time>2022-09-29T08:04:52.000Z</time>
      </trkpt>
      <trkpt lat="47.2779" lon="-2.43857">
        <ele>130.80000305176</ele>
        <time>2022-09-29T08:04:55.000Z</time>
      </trkpt>
      <trkpt lat="47.27781" lon="-2.43865">
        <ele>130.80000305176</ele>
        <time>2022-09-29T08:04:57.000Z</time>
      </trkpt>
      <trkpt lat="47.27777" lon="-2.43871">
        <ele>130.80000305176</ele>
        <time>2022-09-29T08:04:58.000Z</time>
      </trkpt>
      <trkpt lat="47.27773" lon="-2.43877">
        <ele>130.80000305176</ele>
        <time>2022-09-29T08:04:59.000Z</time>
      </trkpt>
      <trkpt lat="47.27768" lon="-2.43893">
        <ele>130.80000305176</ele>
        <time>2022-09-29T08:05:01.000Z</time>
      </trkpt>
      <trkpt lat="47.27756" lon="-2.43925">
        <ele>130.80000305176</ele>
        <time>2022-09-29T08:05:05.000Z</time>
      </trkpt>
      <trkpt lat="47.2774" lon="-2.43985">
        <ele>130.80000305176</ele>
        <time>2022-09-29T08:05:12.000Z</time>
      </trkpt>
      <trkpt lat="47.27723" lon="-2.44042">
        <ele>130.80000305176</ele>
        <time>2022-09-29T08:05:19.000Z</time>
      </trkpt>
      <trkpt lat="47.27721" lon="-2.4405">
        <ele>130.80000305176</ele>
        <time>2022-09-29T08:05:20.000Z</time>
      </trkpt>
      <trkpt lat="47.27718" lon="-2.44074">
        <ele>130.80000305176</ele>
        <time>2022-09-29T08:05:23.000Z</time>
      </trkpt>
      <trkpt lat="47.27706" lon="-2.44086">
        <ele>130.80000305176</ele>
        <time>2022-09-29T08:05:26.000Z</time>
      </trkpt>
      <trkpt lat="47.27691" lon="-2.44077">
        <ele>130.80000305176</ele>
        <time>2022-09-29T08:05:29.000Z</time>
      </trkpt>
      <trkpt lat="47.2768" lon="-2.44069">
        <ele>130.80000305176</ele>
        <time>2022-09-29T08:05:31.000Z</time>
      </trkpt>
      <trkpt lat="47.27675" lon="-2.44067">
        <ele>130.80000305176</ele>
        <time>2022-09-29T08:05:32.000Z</time>
      </trkpt>
      <trkpt lat="47.27669" lon="-2.44068">
        <ele>130.80000305176</ele>
        <time>2022-09-29T08:05:33.000Z</time>
      </trkpt>
      <trkpt lat="47.2765" lon="-2.44085">
        <ele>130.80000305176</ele>
        <time>2022-09-29T08:05:37.000Z</time>
      </trkpt>
      <trkpt lat="47.27646" lon="-2.4409">
        <ele>130.80000305176</ele>
        <time>2022-09-29T08:05:38.000Z</time>
      </trkpt>
      <trkpt lat="47.27634" lon="-2.44107">
        <ele>131.19999694824</ele>
        <time>2022-09-29T08:05:41.000Z</time>
      </trkpt>
      <trkpt lat="47.27631" lon="-2.44114">
        <ele>131.60000610352</ele>
        <time>2022-09-29T08:05:42.000Z</time>
      </trkpt>
      <trkpt lat="47.27627" lon="-2.4412">
        <ele>132.39999389648</ele>
        <time>2022-09-29T08:05:43.000Z</time>
      </trkpt>
      <trkpt lat="47.27623" lon="-2.44127">
        <ele>132.80000305176</ele>
        <time>2022-09-29T08:05:44.000Z</time>
      </trkpt>
      <trkpt lat="47.27594" lon="-2.44178">
        <ele>132.80000305176</ele>
        <time>2022-09-29T08:05:52.000Z</time>
      </trkpt>
      <trkpt lat="47.27563" lon="-2.4423">
        <ele>132.80000305176</ele>
        <time>2022-09-29T08:06:00.000Z</time>
      </trkpt>
      <trkpt lat="47.2755" lon="-2.44256">
        <ele>132.80000305176</ele>
        <time>2022-09-29T08:06:04.000Z</time>
      </trkpt>
      <trkpt lat="47.27545" lon="-2.44272">
        <ele>132.80000305176</ele>
        <time>2022-09-29T08:06:06.000Z</time>
      </trkpt>
      <trkpt lat="47.27542" lon="-2.44288">
        <ele>132.80000305176</ele>
        <time>2022-09-29T08:06:08.000Z</time>
      </trkpt>
      <trkpt lat="47.2754" lon="-2.44312">
        <ele>132.80000305176</ele>
        <time>2022-09-29T08:06:11.000Z</time>
      </trkpt>
      <trkpt lat="47.27538" lon="-2.44327">
        <ele>132.80000305176</ele>
        <time>2022-09-29T08:06:13.000Z</time>
      </trkpt>
      <trkpt lat="47.27534" lon="-2.44357">
        <ele>132.80000305176</ele>
        <time>2022-09-29T08:06:17.000Z</time>
      </trkpt>
      <trkpt lat="47.27535" lon="-2.44373">
        <ele>132.80000305176</ele>
        <time>2022-09-29T08:06:19.000Z</time>
      </trkpt>
      <trkpt lat="47.27539" lon="-2.44387">
        <ele>132.80000305176</ele>
        <time>2022-09-29T08:06:21.000Z</time>
      </trkpt>
      <trkpt lat="47.27536" lon="-2.444">
        <ele>132.80000305176</ele>
        <time>2022-09-29T08:06:23.000Z</time>
      </trkpt>
      <trkpt lat="47.27527" lon="-2.44403">
        <ele>132.80000305176</ele>
        <time>2022-09-29T08:06:25.000Z</time>
      </trkpt>
      <trkpt lat="47.27516" lon="-2.444">
        <ele>132.80000305176</ele>
        <time>2022-09-29T08:06:27.000Z</time>
      </trkpt>
      <trkpt lat="47.2751" lon="-2.444">
        <ele>132.80000305176</ele>
        <time>2022-09-29T08:06:28.000Z</time>
      </trkpt>
      <trkpt lat="47.27504" lon="-2.444">
        <ele>132.80000305176</ele>
        <time>2022-09-29T08:06:29.000Z</time>
      </trkpt>
      <trkpt lat="47.27487" lon="-2.44404">
        <ele>132.80000305176</ele>
        <time>2022-09-29T08:06:32.000Z</time>
      </trkpt>
      <trkpt lat="47.27472" lon="-2.44408">
        <ele>132.80000305176</ele>
        <time>2022-09-29T08:06:35.000Z</time>
      </trkpt>
      <trkpt lat="47.27462" lon="-2.44409">
        <ele>132.80000305176</ele>
        <time>2022-09-29T08:06:37.000Z</time>
      </trkpt>
      <trkpt lat="47.27448" lon="-2.44406">
        <ele>132.80000305176</ele>
        <time>2022-09-29T08:06:40.000Z</time>
      </trkpt>
      <trkpt lat="47.27438" lon="-2.44418">
        <ele>132.80000305176</ele>
        <time>2022-09-29T08:06:43.000Z</time>
      </trkpt>
      <trkpt lat="47.27436" lon="-2.44451">
        <ele>132.80000305176</ele>
        <time>2022-09-29T08:06:47.000Z</time>
      </trkpt>
      <trkpt lat="47.27436" lon="-2.44459">
        <ele>132.80000305176</ele>
        <time>2022-09-29T08:06:48.000Z</time>
      </trkpt>
      <trkpt lat="47.27442" lon="-2.44509">
        <ele>132.80000305176</ele>
        <time>2022-09-29T08:06:54.000Z</time>
      </trkpt>
      <trkpt lat="47.27449" lon="-2.44531">
        <ele>132.80000305176</ele>
        <time>2022-09-29T08:06:57.000Z</time>
      </trkpt>
      <trkpt lat="47.2745" lon="-2.44539">
        <ele>132.80000305176</ele>
        <time>2022-09-29T08:06:58.000Z</time>
      </trkpt>
      <trkpt lat="47.27452" lon="-2.44581">
        <ele>132.80000305176</ele>
        <time>2022-09-29T08:07:03.000Z</time>
      </trkpt>
      <trkpt lat="47.27455" lon="-2.44598">
        <ele>132.80000305176</ele>
        <time>2022-09-29T08:07:05.000Z</time>
      </trkpt>
      <trkpt lat="47.27461" lon="-2.44613">
        <ele>132.80000305176</ele>
        <time>2022-09-29T08:07:07.000Z</time>
      </trkpt>
      <trkpt lat="47.27469" lon="-2.44627">
        <ele>132.80000305176</ele>
        <time>2022-09-29T08:07:09.000Z</time>
      </trkpt>
      <trkpt lat="47.27473" lon="-2.44634">
        <ele>132.80000305176</ele>
        <time>2022-09-29T08:07:10.000Z</time>
      </trkpt>
      <trkpt lat="47.2748" lon="-2.44649">
        <ele>132.80000305176</ele>
        <time>2022-09-29T08:07:12.000Z</time>
      </trkpt>
      <trkpt lat="47.27483" lon="-2.44656">
        <ele>132.80000305176</ele>
        <time>2022-09-29T08:07:13.000Z</time>
      </trkpt>
      <trkpt lat="47.275" lon="-2.44681">
        <ele>132.80000305176</ele>
        <time>2022-09-29T08:07:17.000Z</time>
      </trkpt>
      <trkpt lat="47.27515" lon="-2.44709">
        <ele>132.80000305176</ele>
        <time>2022-09-29T08:07:21.000Z</time>
      </trkpt>
      <trkpt lat="47.2752" lon="-2.44725">
        <ele>132.80000305176</ele>
        <time>2022-09-29T08:07:23.000Z</time>
      </trkpt>
      <trkpt lat="47.2753" lon="-2.44774">
        <ele>132.80000305176</ele>
        <time>2022-09-29T08:07:29.000Z</time>
      </trkpt>
      <trkpt lat="47.27536" lon="-2.44812">
        <ele>132.80000305176</ele>
        <time>2022-09-29T08:07:34.000Z</time>
      </trkpt>
      <trkpt lat="47.27534" lon="-2.44819">
        <ele>132.80000305176</ele>
        <time>2022-09-29T08:07:35.000Z</time>
      </trkpt>
      <trkpt lat="47.27522" lon="-2.44834">
        <ele>132.80000305176</ele>
        <time>2022-09-29T08:07:38.000Z</time>
      </trkpt>
      <trkpt lat="47.27507" lon="-2.44849">
        <ele>132.80000305176</ele>
        <time>2022-09-29T08:07:42.000Z</time>
      </trkpt>
      <trkpt lat="47.27504" lon="-2.44855">
        <ele>132.80000305176</ele>
        <time>2022-09-29T08:07:43.000Z</time>
      </trkpt>
      <trkpt lat="47.27505" lon="-2.44873">
        <ele>132.80000305176</ele>
        <time>2022-09-29T08:07:46.000Z</time>
      </trkpt>
      <trkpt lat="47.27513" lon="-2.44911">
        <ele>132.80000305176</ele>
        <time>2022-09-29T08:07:51.000Z</time>
      </trkpt>
      <trkpt lat="47.27529" lon="-2.44967">
        <ele>132.80000305176</ele>
        <time>2022-09-29T08:07:58.000Z</time>
      </trkpt>
      <trkpt lat="47.27544" lon="-2.45012">
        <ele>132.80000305176</ele>
        <time>2022-09-29T08:08:04.000Z</time>
      </trkpt>
      <trkpt lat="47.2755" lon="-2.45028">
        <ele>132.80000305176</ele>
        <time>2022-09-29T08:08:06.000Z</time>
      </trkpt>
      <trkpt lat="47.27565" lon="-2.45059">
        <ele>132.80000305176</ele>
        <time>2022-09-29T08:08:10.000Z</time>
      </trkpt>
      <trkpt lat="47.27587" lon="-2.45103">
        <ele>132.80000305176</ele>
        <time>2022-09-29T08:08:17.000Z</time>
      </trkpt>
      <trkpt lat="47.2759" lon="-2.45111">
        <ele>132.80000305176</ele>
        <time>2022-09-29T08:08:18.000Z</time>
      </trkpt>
      <trkpt lat="47.27595" lon="-2.45138">
        <ele>132.80000305176</ele>
        <time>2022-09-29T08:08:21.000Z</time>
      </trkpt>
      <trkpt lat="47.27596" lon="-2.45148">
        <ele>132.80000305176</ele>
        <time>2022-09-29T08:08:22.000Z</time>
      </trkpt>
      <trkpt lat="47.27601" lon="-2.45182">
        <ele>132.80000305176</ele>
        <time>2022-09-29T08:08:26.000Z</time>
      </trkpt>
      <trkpt lat="47.27609" lon="-2.45242">
        <ele>132.80000305176</ele>
        <time>2022-09-29T08:08:33.000Z</time>
      </trkpt>
      <trkpt lat="47.27615" lon="-2.4531">
        <ele>133.19999694824</ele>
        <time>2022-09-29T08:08:41.000Z</time>
      </trkpt>
      <trkpt lat="47.27616" lon="-2.45318">
        <ele>133.80000305176</ele>
        <time>2022-09-29T08:08:42.000Z</time>
      </trkpt>
      <trkpt lat="47.27616" lon="-2.45326">
        <ele>134.19999694824</ele>
        <time>2022-09-29T08:08:43.000Z</time>
      </trkpt>
      <trkpt lat="47.27617" lon="-2.45334">
        <ele>134.60000610352</ele>
        <time>2022-09-29T08:08:44.000Z</time>
      </trkpt>
      <trkpt lat="47.27617" lon="-2.45342">
        <ele>135</ele>
        <time>2022-09-29T08:08:45.000Z</time>
      </trkpt>
      <trkpt lat="47.27617" lon="-2.45355">
        <ele>135</ele>
        <time>2022-09-29T08:08:47.000Z</time>
      </trkpt>
      <trkpt lat="47.27611" lon="-2.45362">
        <ele>135</ele>
        <time>2022-09-29T08:08:49.000Z</time>
      </trkpt>
      <trkpt lat="47.27591" lon="-2.45365">
        <ele>135</ele>
        <time>2022-09-29T08:08:53.000Z</time>
      </trkpt>
      <trkpt lat="47.27581" lon="-2.45369">
        <ele>135</ele>
        <time>2022-09-29T08:08:55.000Z</time>
      </trkpt>
      <trkpt lat="47.27554" lon="-2.45379">
        <ele>135</ele>
        <time>2022-09-29T08:09:00.000Z</time>
      </trkpt>
      <trkpt lat="47.27521" lon="-2.45395">
        <ele>135</ele>
        <time>2022-09-29T08:09:06.000Z</time>
      </trkpt>
      <trkpt lat="47.2751" lon="-2.45399">
        <ele>135</ele>
        <time>2022-09-29T08:09:08.000Z</time>
      </trkpt>
      <trkpt lat="47.27494" lon="-2.45403">
        <ele>135</ele>
        <time>2022-09-29T08:09:11.000Z</time>
      </trkpt>
      <trkpt lat="47.2749" lon="-2.45407">
        <ele>135</ele>
        <time>2022-09-29T08:09:12.000Z</time>
      </trkpt>
      <trkpt lat="47.27489" lon="-2.45424">
        <ele>135</ele>
        <time>2022-09-29T08:09:15.000Z</time>
      </trkpt>
      <trkpt lat="47.27492" lon="-2.4545">
        <ele>135.39999389648</ele>
        <time>2022-09-29T08:09:19.000Z</time>
      </trkpt>
      <trkpt lat="47.27494" lon="-2.45456">
        <ele>135.80000305176</ele>
        <time>2022-09-29T08:09:20.000Z</time>
      </trkpt>
      <trkpt lat="47.27495" lon="-2.45462">
        <ele>136.19999694824</ele>
        <time>2022-09-29T08:09:21.000Z</time>
      </trkpt>
      <trkpt lat="47.27496" lon="-2.45469">
        <ele>136.80000305176</ele>
        <time>2022-09-29T08:09:22.000Z</time>
      </trkpt>
      <trkpt lat="47.27494" lon="-2.45475">
        <ele>137.19999694824</ele>
        <time>2022-09-29T08:09:23.000Z</time>
      </trkpt>
      <trkpt lat="47.27491" lon="-2.4548">
        <ele>137.19999694824</ele>
        <time>2022-09-29T08:09:24.000Z</time>
      </trkpt>
      <trkpt lat="47.27481" lon="-2.45488">
        <ele>137.19999694824</ele>
        <time>2022-09-29T08:09:26.000Z</time>
      </trkpt>
      <trkpt lat="47.27476" lon="-2.45492">
        <ele>137.19999694824</ele>
        <time>2022-09-29T08:09:27.000Z</time>
      </trkpt>
      <trkpt lat="47.27471" lon="-2.45495">
        <ele>137.19999694824</ele>
        <time>2022-09-29T08:09:28.000Z</time>
      </trkpt>
      <trkpt lat="47.27439" lon="-2.45517">
        <ele>137.19999694824</ele>
        <time>2022-09-29T08:09:35.000Z</time>
      </trkpt>
      <trkpt lat="47.27435" lon="-2.45537">
        <ele>137.19999694824</ele>
        <time>2022-09-29T08:09:38.000Z</time>
      </trkpt>
      <trkpt lat="47.27432" lon="-2.4555">
        <ele>137.19999694824</ele>
        <time>2022-09-29T08:09:40.000Z</time>
      </trkpt>
      <trkpt lat="47.27425" lon="-2.45559">
        <ele>137.19999694824</ele>
        <time>2022-09-29T08:09:42.000Z</time>
      </trkpt>
      <trkpt lat="47.27411" lon="-2.45566">
        <ele>137.19999694824</ele>
        <time>2022-09-29T08:09:45.000Z</time>
      </trkpt>
      <trkpt lat="47.27406" lon="-2.45568">
        <ele>137.19999694824</ele>
        <time>2022-09-29T08:09:46.000Z</time>
      </trkpt>
      <trkpt lat="47.27376" lon="-2.45577">
        <ele>137.19999694824</ele>
        <time>2022-09-29T08:09:52.000Z</time>
      </trkpt>
      <trkpt lat="47.27343" lon="-2.45594">
        <ele>137.19999694824</ele>
        <time>2022-09-29T08:09:58.000Z</time>
      </trkpt>
      <trkpt lat="47.27333" lon="-2.45601">
        <ele>137.19999694824</ele>
        <time>2022-09-29T08:10:00.000Z</time>
      </trkpt>
      <trkpt lat="47.27325" lon="-2.45611">
        <ele>137.19999694824</ele>
        <time>2022-09-29T08:10:02.000Z</time>
      </trkpt>
      <trkpt lat="47.27323" lon="-2.45617">
        <ele>137.19999694824</ele>
        <time>2022-09-29T08:10:03.000Z</time>
      </trkpt>
      <trkpt lat="47.27325" lon="-2.45638">
        <ele>137.19999694824</ele>
        <time>2022-09-29T08:10:06.000Z</time>
      </trkpt>
      <trkpt lat="47.27327" lon="-2.45645">
        <ele>137.19999694824</ele>
        <time>2022-09-29T08:10:07.000Z</time>
      </trkpt>
      <trkpt lat="47.27333" lon="-2.45666">
        <ele>137.19999694824</ele>
        <time>2022-09-29T08:10:10.000Z</time>
      </trkpt>
      <trkpt lat="47.2734" lon="-2.45686">
        <ele>137.19999694824</ele>
        <time>2022-09-29T08:10:13.000Z</time>
      </trkpt>
      <trkpt lat="47.27346" lon="-2.457">
        <ele>137.19999694824</ele>
        <time>2022-09-29T08:10:15.000Z</time>
      </trkpt>
      <trkpt lat="47.27367" lon="-2.45757">
        <ele>137.19999694824</ele>
        <time>2022-09-29T08:10:23.000Z</time>
      </trkpt>
      <trkpt lat="47.27374" lon="-2.45775">
        <ele>137.19999694824</ele>
        <time>2022-09-29T08:10:26.000Z</time>
      </trkpt>
      <trkpt lat="47.27382" lon="-2.45776">
        <ele>137.19999694824</ele>
        <time>2022-09-29T08:10:28.000Z</time>
      </trkpt>
      <trkpt lat="47.27391" lon="-2.45773">
        <ele>137.19999694824</ele>
        <time>2022-09-29T08:10:30.000Z</time>
      </trkpt>
      <trkpt lat="47.27406" lon="-2.45769">
        <ele>137.19999694824</ele>
        <time>2022-09-29T08:10:33.000Z</time>
      </trkpt>
      <trkpt lat="47.27438" lon="-2.45765">
        <ele>137.19999694824</ele>
        <time>2022-09-29T08:10:39.000Z</time>
      </trkpt>
      <trkpt lat="47.27443" lon="-2.45764">
        <ele>137.19999694824</ele>
        <time>2022-09-29T08:10:40.000Z</time>
      </trkpt>
      <trkpt lat="47.27458" lon="-2.4576">
        <ele>137.19999694824</ele>
        <time>2022-09-29T08:10:43.000Z</time>
      </trkpt>
      <trkpt lat="47.27464" lon="-2.45758">
        <ele>137.19999694824</ele>
        <time>2022-09-29T08:10:44.000Z</time>
      </trkpt>
      <trkpt lat="47.27496" lon="-2.45747">
        <ele>137.19999694824</ele>
        <time>2022-09-29T08:10:50.000Z</time>
      </trkpt>
      <trkpt lat="47.27536" lon="-2.45734">
        <ele>137.19999694824</ele>
        <time>2022-09-29T08:10:57.000Z</time>
      </trkpt>
      <trkpt lat="47.27574" lon="-2.45721">
        <ele>137.19999694824</ele>
        <time>2022-09-29T08:11:04.000Z</time>
      </trkpt>
      <trkpt lat="47.27615" lon="-2.45709">
        <ele>137.19999694824</ele>
        <time>2022-09-29T08:11:12.000Z</time>
      </trkpt>
      <trkpt lat="47.27624" lon="-2.45706">
        <ele>137.19999694824</ele>
        <time>2022-09-29T08:11:14.000Z</time>
      </trkpt>
      <trkpt lat="47.27628" lon="-2.45708">
        <ele>137.60000610352</ele>
        <time>2022-09-29T08:11:15.000Z</time>
      </trkpt>
      <trkpt lat="47.27631" lon="-2.45712">
        <ele>138</ele>
        <time>2022-09-29T08:11:16.000Z</time>
      </trkpt>
      <trkpt lat="47.27634" lon="-2.45718">
        <ele>138.39999389648</ele>
        <time>2022-09-29T08:11:17.000Z</time>
      </trkpt>
      <trkpt lat="47.27636" lon="-2.45724">
        <ele>138.80000305176</ele>
        <time>2022-09-29T08:11:18.000Z</time>
      </trkpt>
      <trkpt lat="47.27638" lon="-2.45731">
        <ele>139.19999694824</ele>
        <time>2022-09-29T08:11:19.000Z</time>
      </trkpt>
      <trkpt lat="47.2764" lon="-2.4574">
        <ele>139.19999694824</ele>
        <time>2022-09-29T08:11:20.000Z</time>
      </trkpt>
      <trkpt lat="47.27642" lon="-2.4576">
        <ele>139.19999694824</ele>
        <time>2022-09-29T08:11:22.000Z</time>
      </trkpt>
      <trkpt lat="47.27643" lon="-2.45781">
        <ele>138.80000305176</ele>
        <time>2022-09-29T08:11:24.000Z</time>
      </trkpt>
      <trkpt lat="47.27644" lon="-2.4579">
        <ele>138.39999389648</ele>
        <time>2022-09-29T08:11:25.000Z</time>
      </trkpt>
      <trkpt lat="47.27645" lon="-2.458">
        <ele>137.80000305176</ele>
        <time>2022-09-29T08:11:26.000Z</time>
      </trkpt>
      <trkpt lat="47.27645" lon="-2.4581">
        <ele>137.39999389648</ele>
        <time>2022-09-29T08:11:27.000Z</time>
      </trkpt>
      <trkpt lat="47.27645" lon="-2.4582">
        <ele>137</ele>
        <time>2022-09-29T08:11:28.000Z</time>
      </trkpt>
      <trkpt lat="47.27645" lon="-2.4583">
        <ele>137</ele>
        <time>2022-09-29T08:11:29.000Z</time>
      </trkpt>
      <trkpt lat="47.27644" lon="-2.4584">
        <ele>137</ele>
        <time>2022-09-29T08:11:30.000Z</time>
      </trkpt>
      <trkpt lat="47.27644" lon="-2.4587">
        <ele>137</ele>
        <time>2022-09-29T08:11:33.000Z</time>
      </trkpt>
      <trkpt lat="47.27643" lon="-2.4589">
        <ele>137</ele>
        <time>2022-09-29T08:11:35.000Z</time>
      </trkpt>
      <trkpt lat="47.27641" lon="-2.45937">
        <ele>137</ele>
        <time>2022-09-29T08:11:40.000Z</time>
      </trkpt>
      <trkpt lat="47.27641" lon="-2.45945">
        <ele>137</ele>
        <time>2022-09-29T08:11:41.000Z</time>
      </trkpt>
      <trkpt lat="47.2764" lon="-2.4599">
        <ele>137</ele>
        <time>2022-09-29T08:11:46.000Z</time>
      </trkpt>
      <trkpt lat="47.27641" lon="-2.45998">
        <ele>137</ele>
        <time>2022-09-29T08:11:47.000Z</time>
      </trkpt>
      <trkpt lat="47.27643" lon="-2.46014">
        <ele>137</ele>
        <time>2022-09-29T08:11:49.000Z</time>
      </trkpt>
      <trkpt lat="47.27647" lon="-2.4603">
        <ele>137</ele>
        <time>2022-09-29T08:11:51.000Z</time>
      </trkpt>
      <trkpt lat="47.27655" lon="-2.46072">
        <ele>137</ele>
        <time>2022-09-29T08:11:56.000Z</time>
      </trkpt>
      <trkpt lat="47.27658" lon="-2.46089">
        <ele>137</ele>
        <time>2022-09-29T08:11:58.000Z</time>
      </trkpt>
      <trkpt lat="47.27665" lon="-2.46136">
        <ele>137</ele>
        <time>2022-09-29T08:12:04.000Z</time>
      </trkpt>
      <trkpt lat="47.27669" lon="-2.4617">
        <ele>137</ele>
        <time>2022-09-29T08:12:09.000Z</time>
      </trkpt>
      <trkpt lat="47.27668" lon="-2.46192">
        <ele>137</ele>
        <time>2022-09-29T08:12:12.000Z</time>
      </trkpt>
      <trkpt lat="47.27669" lon="-2.46208">
        <ele>137</ele>
        <time>2022-09-29T08:12:14.000Z</time>
      </trkpt>
      <trkpt lat="47.27671" lon="-2.46223">
        <ele>137</ele>
        <time>2022-09-29T08:12:16.000Z</time>
      </trkpt>
      <trkpt lat="47.27674" lon="-2.46254">
        <ele>137</ele>
        <time>2022-09-29T08:12:20.000Z</time>
      </trkpt>
      <trkpt lat="47.27666" lon="-2.46273">
        <ele>137</ele>
        <time>2022-09-29T08:12:23.000Z</time>
      </trkpt>
      <trkpt lat="47.27663" lon="-2.46278">
        <ele>137</ele>
        <time>2022-09-29T08:12:24.000Z</time>
      </trkpt>
      <trkpt lat="47.2766" lon="-2.46284">
        <ele>137</ele>
        <time>2022-09-29T08:12:25.000Z</time>
      </trkpt>
      <trkpt lat="47.27661" lon="-2.46296">
        <ele>137</ele>
        <time>2022-09-29T08:12:27.000Z</time>
      </trkpt>
      <trkpt lat="47.27669" lon="-2.46305">
        <ele>137</ele>
        <time>2022-09-29T08:12:29.000Z</time>
      </trkpt>
      <trkpt lat="47.27671" lon="-2.46311">
        <ele>137</ele>
        <time>2022-09-29T08:12:30.000Z</time>
      </trkpt>
      <trkpt lat="47.27676" lon="-2.4634">
        <ele>137</ele>
        <time>2022-09-29T08:12:34.000Z</time>
      </trkpt>
      <trkpt lat="47.27681" lon="-2.46363">
        <ele>137</ele>
        <time>2022-09-29T08:12:37.000Z</time>
      </trkpt>
      <trkpt lat="47.27687" lon="-2.46378">
        <ele>137</ele>
        <time>2022-09-29T08:12:39.000Z</time>
      </trkpt>
      <trkpt lat="47.27707" lon="-2.46427">
        <ele>137</ele>
        <time>2022-09-29T08:12:45.000Z</time>
      </trkpt>
      <trkpt lat="47.27711" lon="-2.46434">
        <ele>137</ele>
        <time>2022-09-29T08:12:46.000Z</time>
      </trkpt>
      <trkpt lat="47.27725" lon="-2.46466">
        <ele>137</ele>
        <time>2022-09-29T08:12:50.000Z</time>
      </trkpt>
      <trkpt lat="47.27729" lon="-2.46482">
        <ele>137</ele>
        <time>2022-09-29T08:12:52.000Z</time>
      </trkpt>
      <trkpt lat="47.27743" lon="-2.46539">
        <ele>137</ele>
        <time>2022-09-29T08:12:59.000Z</time>
      </trkpt>
      <trkpt lat="47.27755" lon="-2.46582">
        <ele>137</ele>
        <time>2022-09-29T08:13:05.000Z</time>
      </trkpt>
      <trkpt lat="47.27759" lon="-2.46587">
        <ele>137</ele>
        <time>2022-09-29T08:13:06.000Z</time>
      </trkpt>
      <trkpt lat="47.27765" lon="-2.46596">
        <ele>137</ele>
        <time>2022-09-29T08:13:08.000Z</time>
      </trkpt>
      <trkpt lat="47.27765" lon="-2.46616">
        <ele>137</ele>
        <time>2022-09-29T08:13:11.000Z</time>
      </trkpt>
      <trkpt lat="47.27761" lon="-2.46633">
        <ele>137</ele>
        <time>2022-09-29T08:13:14.000Z</time>
      </trkpt>
      <trkpt lat="47.27765" lon="-2.46645">
        <ele>137</ele>
        <time>2022-09-29T08:13:16.000Z</time>
      </trkpt>
      <trkpt lat="47.27765" lon="-2.46652">
        <ele>137</ele>
        <time>2022-09-29T08:13:17.000Z</time>
      </trkpt>
      <trkpt lat="47.27764" lon="-2.46659">
        <ele>137</ele>
        <time>2022-09-29T08:13:18.000Z</time>
      </trkpt>
      <trkpt lat="47.27763" lon="-2.46675">
        <ele>137</ele>
        <time>2022-09-29T08:13:20.000Z</time>
      </trkpt>
      <trkpt lat="47.27763" lon="-2.46692">
        <ele>137</ele>
        <time>2022-09-29T08:13:22.000Z</time>
      </trkpt>
      <trkpt lat="47.2776" lon="-2.46724">
        <ele>137</ele>
        <time>2022-09-29T08:13:26.000Z</time>
      </trkpt>
      <trkpt lat="47.27766" lon="-2.46761">
        <ele>137</ele>
        <time>2022-09-29T08:13:31.000Z</time>
      </trkpt>
      <trkpt lat="47.27774" lon="-2.4679">
        <ele>137</ele>
        <time>2022-09-29T08:13:35.000Z</time>
      </trkpt>
      <trkpt lat="47.27775" lon="-2.46797">
        <ele>137</ele>
        <time>2022-09-29T08:13:36.000Z</time>
      </trkpt>
      <trkpt lat="47.27781" lon="-2.46816">
        <ele>136.60000610352</ele>
        <time>2022-09-29T08:13:39.000Z</time>
      </trkpt>
      <trkpt lat="47.27782" lon="-2.46824">
        <ele>136.19999694824</ele>
        <time>2022-09-29T08:13:40.000Z</time>
      </trkpt>
      <trkpt lat="47.27784" lon="-2.46831">
        <ele>135.60000610352</ele>
        <time>2022-09-29T08:13:41.000Z</time>
      </trkpt>
      <trkpt lat="47.27785" lon="-2.46838">
        <ele>135.19999694824</ele>
        <time>2022-09-29T08:13:42.000Z</time>
      </trkpt>
      <trkpt lat="47.27785" lon="-2.46845">
        <ele>134.80000305176</ele>
        <time>2022-09-29T08:13:43.000Z</time>
      </trkpt>
      <trkpt lat="47.27785" lon="-2.46866">
        <ele>134.80000305176</ele>
        <time>2022-09-29T08:13:46.000Z</time>
      </trkpt>
      <trkpt lat="47.27783" lon="-2.4688">
        <ele>134.80000305176</ele>
        <time>2022-09-29T08:13:48.000Z</time>
      </trkpt>
      <trkpt lat="47.27777" lon="-2.46898">
        <ele>134.80000305176</ele>
        <time>2022-09-29T08:13:51.000Z</time>
      </trkpt>
      <trkpt lat="47.27771" lon="-2.46928">
        <ele>134.80000305176</ele>
        <time>2022-09-29T08:13:56.000Z</time>
      </trkpt>
      <trkpt lat="47.27765" lon="-2.46934">
        <ele>134.80000305176</ele>
        <time>2022-09-29T08:13:59.000Z</time>
      </trkpt>
      <trkpt lat="47.27752" lon="-2.46934">
        <ele>134.80000305176</ele>
        <time>2022-09-29T08:14:02.000Z</time>
      </trkpt>
      <trkpt lat="47.27748" lon="-2.46934">
        <ele>134.80000305176</ele>
        <time>2022-09-29T08:14:03.000Z</time>
      </trkpt>
      <trkpt lat="47.27728" lon="-2.46937">
        <ele>135.19999694824</ele>
        <time>2022-09-29T08:14:08.000Z</time>
      </trkpt>
      <trkpt lat="47.27724" lon="-2.46937">
        <ele>135.60000610352</ele>
        <time>2022-09-29T08:14:09.000Z</time>
      </trkpt>
      <trkpt lat="47.27719" lon="-2.46936">
        <ele>136.19999694824</ele>
        <time>2022-09-29T08:14:10.000Z</time>
      </trkpt>
      <trkpt lat="47.27716" lon="-2.46937">
        <ele>136.60000610352</ele>
        <time>2022-09-29T08:14:11.000Z</time>
      </trkpt>
      <trkpt lat="47.27712" lon="-2.46937">
        <ele>137</ele>
        <time>2022-09-29T08:14:12.000Z</time>
      </trkpt>
      <trkpt lat="47.27708" lon="-2.46936">
        <ele>137</ele>
        <time>2022-09-29T08:14:13.000Z</time>
      </trkpt>
      <trkpt lat="47.27699" lon="-2.46935">
        <ele>137</ele>
        <time>2022-09-29T08:14:15.000Z</time>
      </trkpt>
      <trkpt lat="47.27686" lon="-2.4693">
        <ele>137</ele>
        <time>2022-09-29T08:14:18.000Z</time>
      </trkpt>
      <trkpt lat="47.27671" lon="-2.46936">
        <ele>137</ele>
        <time>2022-09-29T08:14:22.000Z</time>
      </trkpt>
      <trkpt lat="47.2767" lon="-2.46954">
        <ele>137</ele>
        <time>2022-09-29T08:14:25.000Z</time>
      </trkpt>
      <trkpt lat="47.27669" lon="-2.46975">
        <ele>137</ele>
        <time>2022-09-29T08:14:28.000Z</time>
      </trkpt>
      <trkpt lat="47.27667" lon="-2.46987">
        <ele>137</ele>
        <time>2022-09-29T08:14:30.000Z</time>
      </trkpt>
      <trkpt lat="47.27664" lon="-2.46992">
        <ele>137</ele>
        <time>2022-09-29T08:14:31.000Z</time>
      </trkpt>
      <trkpt lat="47.27654" lon="-2.46993">
        <ele>137</ele>
        <time>2022-09-29T08:14:34.000Z</time>
      </trkpt>
      <trkpt lat="47.27649" lon="-2.46992">
        <ele>137</ele>
        <time>2022-09-29T08:14:35.000Z</time>
      </trkpt>
      <trkpt lat="47.2763" lon="-2.46992">
        <ele>137</ele>
        <time>2022-09-29T08:14:39.000Z</time>
      </trkpt>
      <trkpt lat="47.27624" lon="-2.46994">
        <ele>137.39999389648</ele>
        <time>2022-09-29T08:14:41.000Z</time>
      </trkpt>
      <trkpt lat="47.27623" lon="-2.46993">
        <ele>137.80000305176</ele>
        <time>2022-09-29T08:14:42.000Z</time>
      </trkpt>
      <trkpt lat="47.27621" lon="-2.46993">
        <ele>138.19999694824</ele>
        <time>2022-09-29T08:14:43.000Z</time>
      </trkpt>
      <trkpt lat="47.27619" lon="-2.46995">
        <ele>138.60000610352</ele>
        <time>2022-09-29T08:14:44.000Z</time>
      </trkpt>
      <trkpt lat="47.27616" lon="-2.46996">
        <ele>139.19999694824</ele>
        <time>2022-09-29T08:14:45.000Z</time>
      </trkpt>
      <trkpt lat="47.27612" lon="-2.46996">
        <ele>139.60000610352</ele>
        <time>2022-09-29T08:14:46.000Z</time>
      </trkpt>
      <trkpt lat="47.27609" lon="-2.46995">
        <ele>140.39999389648</ele>
        <time>2022-09-29T08:14:47.000Z</time>
      </trkpt>
      <trkpt lat="47.27605" lon="-2.46995">
        <ele>140.80000305176</ele>
        <time>2022-09-29T08:14:48.000Z</time>
      </trkpt>
      <trkpt lat="47.27601" lon="-2.46995">
        <ele>141.19999694824</ele>
        <time>2022-09-29T08:14:49.000Z</time>
      </trkpt>
      <trkpt lat="47.27585" lon="-2.4699">
        <ele>141.19999694824</ele>
        <time>2022-09-29T08:14:53.000Z</time>
      </trkpt>
      <trkpt lat="47.27563" lon="-2.46981">
        <ele>141.19999694824</ele>
        <time>2022-09-29T08:14:58.000Z</time>
      </trkpt>
      <trkpt lat="47.27547" lon="-2.46994">
        <ele>141.19999694824</ele>
        <time>2022-09-29T08:15:02.000Z</time>
      </trkpt>
      <trkpt lat="47.27533" lon="-2.47019">
        <ele>141.19999694824</ele>
        <time>2022-09-29T08:15:07.000Z</time>
      </trkpt>
      <trkpt lat="47.27526" lon="-2.47029">
        <ele>141.19999694824</ele>
        <time>2022-09-29T08:15:09.000Z</time>
      </trkpt>
      <trkpt lat="47.27516" lon="-2.47043">
        <ele>141.19999694824</ele>
        <time>2022-09-29T08:15:12.000Z</time>
      </trkpt>
      <trkpt lat="47.27509" lon="-2.4705">
        <ele>141.19999694824</ele>
        <time>2022-09-29T08:15:14.000Z</time>
      </trkpt>
      <trkpt lat="47.27494" lon="-2.4707">
        <ele>141.19999694824</ele>
        <time>2022-09-29T08:15:19.000Z</time>
      </trkpt>
      <trkpt lat="47.2748" lon="-2.47091">
        <ele>141.19999694824</ele>
        <time>2022-09-29T08:15:25.000Z</time>
      </trkpt>
      <trkpt lat="47.27485" lon="-2.4711">
        <ele>141.19999694824</ele>
        <time>2022-09-29T08:15:29.000Z</time>
      </trkpt>
      <trkpt lat="47.27487" lon="-2.47119">
        <ele>141.19999694824</ele>
        <time>2022-09-29T08:15:31.000Z</time>
      </trkpt>
      <trkpt lat="47.27493" lon="-2.47137">
        <ele>141.19999694824</ele>
        <time>2022-09-29T08:15:35.000Z</time>
      </trkpt>
      <trkpt lat="47.275" lon="-2.47161">
        <ele>140.80000305176</ele>
        <time>2022-09-29T08:15:40.000Z</time>
      </trkpt>
      <trkpt lat="47.27502" lon="-2.47166">
        <ele>140.39999389648</ele>
        <time>2022-09-29T08:15:41.000Z</time>
      </trkpt>
      <trkpt lat="47.27504" lon="-2.47172">
        <ele>140</ele>
        <time>2022-09-29T08:15:42.000Z</time>
      </trkpt>
      <trkpt lat="47.27506" lon="-2.47177">
        <ele>139.60000610352</ele>
        <time>2022-09-29T08:15:43.000Z</time>
      </trkpt>
      <trkpt lat="47.27507" lon="-2.47183">
        <ele>139.19999694824</ele>
        <time>2022-09-29T08:15:44.000Z</time>
      </trkpt>
      <trkpt lat="47.2752" lon="-2.47217">
        <ele>139.19999694824</ele>
        <time>2022-09-29T08:15:50.000Z</time>
      </trkpt>
      <trkpt lat="47.27538" lon="-2.47268">
        <ele>139.19999694824</ele>
        <time>2022-09-29T08:15:58.000Z</time>
      </trkpt>
      <trkpt lat="47.27543" lon="-2.4728">
        <ele>139.19999694824</ele>
        <time>2022-09-29T08:16:00.000Z</time>
      </trkpt>
      <trkpt lat="47.27551" lon="-2.47297">
        <ele>139.19999694824</ele>
        <time>2022-09-29T08:16:03.000Z</time>
      </trkpt>
      <trkpt lat="47.27572" lon="-2.47342">
        <ele>139.19999694824</ele>
        <time>2022-09-29T08:16:10.000Z</time>
      </trkpt>
      <trkpt lat="47.2759" lon="-2.4739">
        <ele>139.19999694824</ele>
        <time>2022-09-29T08:16:17.000Z</time>
      </trkpt>
      <trkpt lat="47.276" lon="-2.47416">
        <ele>139.19999694824</ele>
        <time>2022-09-29T08:16:21.000Z</time>
      </trkpt>
      <trkpt lat="47.27606" lon="-2.47436">
        <ele>139.19999694824</ele>
        <time>2022-09-29T08:16:24.000Z</time>
      </trkpt>
      <trkpt lat="47.27623" lon="-2.47492">
        <ele>139.19999694824</ele>
        <time>2022-09-29T08:16:32.000Z</time>
      </trkpt>
      <trkpt lat="47.27641" lon="-2.47546">
        <ele>139.19999694824</ele>
        <time>2022-09-29T08:16:40.000Z</time>
      </trkpt>
      <trkpt lat="47.27643" lon="-2.47553">
        <ele>139.19999694824</ele>
        <time>2022-09-29T08:16:41.000Z</time>
      </trkpt>
      <trkpt lat="47.27655" lon="-2.47585">
        <ele>139.19999694824</ele>
        <time>2022-09-29T08:16:46.000Z</time>
      </trkpt>
      <trkpt lat="47.2767" lon="-2.47625">
        <ele>139.19999694824</ele>
        <time>2022-09-29T08:16:52.000Z</time>
      </trkpt>
      <trkpt lat="47.27673" lon="-2.4763">
        <ele>139.19999694824</ele>
        <time>2022-09-29T08:16:53.000Z</time>
      </trkpt>
      <trkpt lat="47.27677" lon="-2.47644">
        <ele>139.60000610352</ele>
        <time>2022-09-29T08:16:55.000Z</time>
      </trkpt>
      <trkpt lat="47.27679" lon="-2.47651">
        <ele>140</ele>
        <time>2022-09-29T08:16:56.000Z</time>
      </trkpt>
      <trkpt lat="47.2768" lon="-2.47658">
        <ele>140.39999389648</ele>
        <time>2022-09-29T08:16:57.000Z</time>
      </trkpt>
      <trkpt lat="47.27681" lon="-2.47665">
        <ele>140.80000305176</ele>
        <time>2022-09-29T08:16:58.000Z</time>
      </trkpt>
      <trkpt lat="47.27682" lon="-2.47672">
        <ele>141.19999694824</ele>
        <time>2022-09-29T08:16:59.000Z</time>
      </trkpt>
      <trkpt lat="47.27685" lon="-2.47691">
        <ele>141.19999694824</ele>
        <time>2022-09-29T08:17:02.000Z</time>
      </trkpt>
      <trkpt lat="47.27686" lon="-2.47705">
        <ele>141.19999694824</ele>
        <time>2022-09-29T08:17:04.000Z</time>
      </trkpt>
      <trkpt lat="47.27679" lon="-2.47713">
        <ele>141.19999694824</ele>
        <time>2022-09-29T08:17:06.000Z</time>
      </trkpt>
      <trkpt lat="47.27666" lon="-2.47717">
        <ele>141.80000305176</ele>
        <time>2022-09-29T08:17:09.000Z</time>
      </trkpt>
      <trkpt lat="47.27664" lon="-2.47722">
        <ele>142.19999694824</ele>
        <time>2022-09-29T08:17:10.000Z</time>
      </trkpt>
      <trkpt lat="47.27662" lon="-2.47727">
        <ele>142.60000610352</ele>
        <time>2022-09-29T08:17:11.000Z</time>
      </trkpt>
      <trkpt lat="47.2766" lon="-2.47733">
        <ele>143</ele>
        <time>2022-09-29T08:17:12.000Z</time>
      </trkpt>
      <trkpt lat="47.27658" lon="-2.47739">
        <ele>143.39999389648</ele>
        <time>2022-09-29T08:17:13.000Z</time>
      </trkpt>
      <trkpt lat="47.27647" lon="-2.47772">
        <ele>143.39999389648</ele>
        <time>2022-09-29T08:17:19.000Z</time>
      </trkpt>
      <trkpt lat="47.27643" lon="-2.47784">
        <ele>143.39999389648</ele>
        <time>2022-09-29T08:17:21.000Z</time>
      </trkpt>
      <trkpt lat="47.27644" lon="-2.47796">
        <ele>143.39999389648</ele>
        <time>2022-09-29T08:17:23.000Z</time>
      </trkpt>
      <trkpt lat="47.27646" lon="-2.47809">
        <ele>143.39999389648</ele>
        <time>2022-09-29T08:17:25.000Z</time>
      </trkpt>
      <trkpt lat="47.27651" lon="-2.47835">
        <ele>143.39999389648</ele>
        <time>2022-09-29T08:17:29.000Z</time>
      </trkpt>
      <trkpt lat="47.2766" lon="-2.4788">
        <ele>143.39999389648</ele>
        <time>2022-09-29T08:17:36.000Z</time>
      </trkpt>
      <trkpt lat="47.27663" lon="-2.47893">
        <ele>143.39999389648</ele>
        <time>2022-09-29T08:17:38.000Z</time>
      </trkpt>
      <trkpt lat="47.27671" lon="-2.47934">
        <ele>144</ele>
        <time>2022-09-29T08:17:44.000Z</time>
      </trkpt>
      <trkpt lat="47.27672" lon="-2.4794">
        <ele>144.39999389648</ele>
        <time>2022-09-29T08:17:45.000Z</time>
      </trkpt>
      <trkpt lat="47.27674" lon="-2.47946">
        <ele>144.80000305176</ele>
        <time>2022-09-29T08:17:46.000Z</time>
      </trkpt>
      <trkpt lat="47.27675" lon="-2.47952">
        <ele>145.19999694824</ele>
        <time>2022-09-29T08:17:47.000Z</time>
      </trkpt>
      <trkpt lat="47.27675" lon="-2.47958">
        <ele>145.60000610352</ele>
        <time>2022-09-29T08:17:48.000Z</time>
      </trkpt>
      <trkpt lat="47.27677" lon="-2.47976">
        <ele>145.60000610352</ele>
        <time>2022-09-29T08:17:51.000Z</time>
      </trkpt>
      <trkpt lat="47.27678" lon="-2.47981">
        <ele>146</ele>
        <time>2022-09-29T08:17:52.000Z</time>
      </trkpt>
      <trkpt lat="47.27679" lon="-2.47987">
        <ele>146.39999389648</ele>
        <time>2022-09-29T08:17:53.000Z</time>
      </trkpt>
      <trkpt lat="47.27681" lon="-2.47993">
        <ele>146.80000305176</ele>
        <time>2022-09-29T08:17:54.000Z</time>
      </trkpt>
      <trkpt lat="47.27682" lon="-2.47999">
        <ele>147.19999694824</ele>
        <time>2022-09-29T08:17:55.000Z</time>
      </trkpt>
      <trkpt lat="47.27684" lon="-2.48005">
        <ele>147.60000610352</ele>
        <time>2022-09-29T08:17:56.000Z</time>
      </trkpt>
      <trkpt lat="47.27686" lon="-2.48011">
        <ele>147.60000610352</ele>
        <time>2022-09-29T08:17:57.000Z</time>
      </trkpt>
      <trkpt lat="47.2769" lon="-2.48034">
        <ele>147.60000610352</ele>
        <time>2022-09-29T08:18:01.000Z</time>
      </trkpt>
      <trkpt lat="47.27691" lon="-2.4804">
        <ele>147.60000610352</ele>
        <time>2022-09-29T08:18:02.000Z</time>
      </trkpt>
      <trkpt lat="47.27696" lon="-2.48057">
        <ele>147.60000610352</ele>
        <time>2022-09-29T08:18:05.000Z</time>
      </trkpt>
      <trkpt lat="47.27701" lon="-2.48074">
        <ele>147.60000610352</ele>
        <time>2022-09-29T08:18:08.000Z</time>
      </trkpt>
      <trkpt lat="47.27711" lon="-2.48094">
        <ele>147.60000610352</ele>
        <time>2022-09-29T08:18:13.000Z</time>
      </trkpt>
      <trkpt lat="47.27713" lon="-2.48099">
        <ele>148.19999694824</ele>
        <time>2022-09-29T08:18:15.000Z</time>
      </trkpt>
      <trkpt lat="47.27714" lon="-2.48102">
        <ele>148.60000610352</ele>
        <time>2022-09-29T08:18:16.000Z</time>
      </trkpt>
      <trkpt lat="47.27716" lon="-2.48105">
        <ele>149</ele>
        <time>2022-09-29T08:18:17.000Z</time>
      </trkpt>
      <trkpt lat="47.27717" lon="-2.48108">
        <ele>149.60000610352</ele>
        <time>2022-09-29T08:18:18.000Z</time>
      </trkpt>
      <trkpt lat="47.27718" lon="-2.48112">
        <ele>150</ele>
        <time>2022-09-29T08:18:19.000Z</time>
      </trkpt>
      <trkpt lat="47.27721" lon="-2.48127">
        <ele>150.39999389648</ele>
        <time>2022-09-29T08:18:24.000Z</time>
      </trkpt>
      <trkpt lat="47.27721" lon="-2.48131">
        <ele>150.80000305176</ele>
        <time>2022-09-29T08:18:25.000Z</time>
      </trkpt>
      <trkpt lat="47.27721" lon="-2.48133">
        <ele>151.19999694824</ele>
        <time>2022-09-29T08:18:26.000Z</time>
      </trkpt>
      <trkpt lat="47.27721" lon="-2.48136">
        <ele>151.60000610352</ele>
        <time>2022-09-29T08:18:27.000Z</time>
      </trkpt>
      <trkpt lat="47.27721" lon="-2.48139">
        <ele>152</ele>
        <time>2022-09-29T08:18:28.000Z</time>
      </trkpt>
      <trkpt lat="47.27721" lon="-2.48148">
        <ele>152</ele>
        <time>2022-09-29T08:18:31.000Z</time>
      </trkpt>
      <trkpt lat="47.27718" lon="-2.48166">
        <ele>151.60000610352</ele>
        <time>2022-09-29T08:18:37.000Z</time>
      </trkpt>
      <trkpt lat="47.27718" lon="-2.48172">
        <ele>151.19999694824</ele>
        <time>2022-09-29T08:18:38.000Z</time>
      </trkpt>
      <trkpt lat="47.27718" lon="-2.48179">
        <ele>150.80000305176</ele>
        <time>2022-09-29T08:18:39.000Z</time>
      </trkpt>
      <trkpt lat="47.27719" lon="-2.48188">
        <ele>150</ele>
        <time>2022-09-29T08:18:40.000Z</time>
      </trkpt>
      <trkpt lat="47.27722" lon="-2.48195">
        <ele>149.39999389648</ele>
        <time>2022-09-29T08:18:41.000Z</time>
      </trkpt>
      <trkpt lat="47.27726" lon="-2.48203">
        <ele>148.60000610352</ele>
        <time>2022-09-29T08:18:42.000Z</time>
      </trkpt>
      <trkpt lat="47.27731" lon="-2.48211">
        <ele>147.80000305176</ele>
        <time>2022-09-29T08:18:43.000Z</time>
      </trkpt>
      <trkpt lat="47.27735" lon="-2.48218">
        <ele>147.19999694824</ele>
        <time>2022-09-29T08:18:44.000Z</time>
      </trkpt>
      <trkpt lat="47.2774" lon="-2.48225">
        <ele>146.39999389648</ele>
        <time>2022-09-29T08:18:45.000Z</time>
      </trkpt>
      <trkpt lat="47.27744" lon="-2.48233">
        <ele>145.60000610352</ele>
        <time>2022-09-29T08:18:46.000Z</time>
      </trkpt>
      <trkpt lat="47.27749" lon="-2.48241">
        <ele>145</ele>
        <time>2022-09-29T08:18:47.000Z</time>
      </trkpt>
      <trkpt lat="47.27752" lon="-2.48247">
        <ele>144.39999389648</ele>
        <time>2022-09-29T08:18:48.000Z</time>
      </trkpt>
      <trkpt lat="47.27755" lon="-2.48252">
        <ele>144</ele>
        <time>2022-09-29T08:18:49.000Z</time>
      </trkpt>
      <trkpt lat="47.27757" lon="-2.48257">
        <ele>143.60000610352</ele>
        <time>2022-09-29T08:18:50.000Z</time>
      </trkpt>
      <trkpt lat="47.27757" lon="-2.48262">
        <ele>143.19999694824</ele>
        <time>2022-09-29T08:18:51.000Z</time>
      </trkpt>
      <trkpt lat="47.27756" lon="-2.48266">
        <ele>142.80000305176</ele>
        <time>2022-09-29T08:18:52.000Z</time>
      </trkpt>
      <trkpt lat="47.27754" lon="-2.48267">
        <ele>142.80000305176</ele>
        <time>2022-09-29T08:18:53.000Z</time>
      </trkpt>
      <trkpt lat="47.27749" lon="-2.48266">
        <ele>142.80000305176</ele>
        <time>2022-09-29T08:18:55.000Z</time>
      </trkpt>
      <trkpt lat="47.27745" lon="-2.48267">
        <ele>142.80000305176</ele>
        <time>2022-09-29T08:18:56.000Z</time>
      </trkpt>
      <trkpt lat="47.27742" lon="-2.48271">
        <ele>142.80000305176</ele>
        <time>2022-09-29T08:18:57.000Z</time>
      </trkpt>
      <trkpt lat="47.27739" lon="-2.48281">
        <ele>142.80000305176</ele>
        <time>2022-09-29T08:18:59.000Z</time>
      </trkpt>
      <trkpt lat="47.27726" lon="-2.48296">
        <ele>142.80000305176</ele>
        <time>2022-09-29T08:19:04.000Z</time>
      </trkpt>
      <trkpt lat="47.2771" lon="-2.48296">
        <ele>142.80000305176</ele>
        <time>2022-09-29T08:19:08.000Z</time>
      </trkpt>
      <trkpt lat="47.277" lon="-2.4829">
        <ele>142.80000305176</ele>
        <time>2022-09-29T08:19:12.000Z</time>
      </trkpt>
      <trkpt lat="47.27699" lon="-2.48288">
        <ele>142.80000305176</ele>
        <time>2022-09-29T08:19:13.000Z</time>
      </trkpt>
      <trkpt lat="47.27693" lon="-2.4828">
        <ele>142.80000305176</ele>
        <time>2022-09-29T08:19:15.000Z</time>
      </trkpt>
      <trkpt lat="47.27678" lon="-2.48272">
        <ele>142.80000305176</ele>
        <time>2022-09-29T08:19:20.000Z</time>
      </trkpt>
      <trkpt lat="47.27669" lon="-2.48271">
        <ele>142.80000305176</ele>
        <time>2022-09-29T08:19:23.000Z</time>
      </trkpt>
      <trkpt lat="47.27659" lon="-2.48272">
        <ele>142.80000305176</ele>
        <time>2022-09-29T08:19:26.000Z</time>
      </trkpt>
      <trkpt lat="47.27656" lon="-2.48283">
        <ele>142.80000305176</ele>
        <time>2022-09-29T08:19:29.000Z</time>
      </trkpt>
      <trkpt lat="47.27653" lon="-2.48297">
        <ele>142.80000305176</ele>
        <time>2022-09-29T08:19:33.000Z</time>
      </trkpt>
      <trkpt lat="47.27653" lon="-2.48301">
        <ele>142.80000305176</ele>
        <time>2022-09-29T08:19:34.000Z</time>
      </trkpt>
      <trkpt lat="47.27649" lon="-2.48326">
        <ele>142.80000305176</ele>
        <time>2022-09-29T08:19:39.000Z</time>
      </trkpt>
      <trkpt lat="47.27647" lon="-2.4834">
        <ele>142.80000305176</ele>
        <time>2022-09-29T08:19:41.000Z</time>
      </trkpt>
      <trkpt lat="47.27649" lon="-2.48363">
        <ele>142.80000305176</ele>
        <time>2022-09-29T08:19:44.000Z</time>
      </trkpt>
      <trkpt lat="47.27653" lon="-2.48421">
        <ele>142.80000305176</ele>
        <time>2022-09-29T08:19:51.000Z</time>
      </trkpt>
      <trkpt lat="47.27656" lon="-2.48458">
        <ele>142.39999389648</ele>
        <time>2022-09-29T08:19:56.000Z</time>
      </trkpt>
      <trkpt lat="47.27657" lon="-2.48465">
        <ele>142</ele>
        <time>2022-09-29T08:19:57.000Z</time>
      </trkpt>
      <trkpt lat="47.27659" lon="-2.48471">
        <ele>141.60000610352</ele>
        <time>2022-09-29T08:19:58.000Z</time>
      </trkpt>
      <trkpt lat="47.2766" lon="-2.48477">
        <ele>141.19999694824</ele>
        <time>2022-09-29T08:19:59.000Z</time>
      </trkpt>
      <trkpt lat="47.27662" lon="-2.48483">
        <ele>140.60000610352</ele>
        <time>2022-09-29T08:20:00.000Z</time>
      </trkpt>
      <trkpt lat="47.27668" lon="-2.48503">
        <ele>140.60000610352</ele>
        <time>2022-09-29T08:20:03.000Z</time>
      </trkpt>
      <trkpt lat="47.27669" lon="-2.4851">
        <ele>140.60000610352</ele>
        <time>2022-09-29T08:20:04.000Z</time>
      </trkpt>
      <trkpt lat="47.27677" lon="-2.48562">
        <ele>140.60000610352</ele>
        <time>2022-09-29T08:20:11.000Z</time>
      </trkpt>
      <trkpt lat="47.27686" lon="-2.48617">
        <ele>140.60000610352</ele>
        <time>2022-09-29T08:20:18.000Z</time>
      </trkpt>
      <trkpt lat="47.27693" lon="-2.48666">
        <ele>140.60000610352</ele>
        <time>2022-09-29T08:20:24.000Z</time>
      </trkpt>
      <trkpt lat="47.27693" lon="-2.48674">
        <ele>140.60000610352</ele>
        <time>2022-09-29T08:20:25.000Z</time>
      </trkpt>
      <trkpt lat="47.27694" lon="-2.48729">
        <ele>140.60000610352</ele>
        <time>2022-09-29T08:20:32.000Z</time>
      </trkpt>
      <trkpt lat="47.27694" lon="-2.48755">
        <ele>140.60000610352</ele>
        <time>2022-09-29T08:20:36.000Z</time>
      </trkpt>
      <trkpt lat="47.27693" lon="-2.48766">
        <ele>140.60000610352</ele>
        <time>2022-09-29T08:20:38.000Z</time>
      </trkpt>
      <trkpt lat="47.27688" lon="-2.48776">
        <ele>140.60000610352</ele>
        <time>2022-09-29T08:20:40.000Z</time>
      </trkpt>
      <trkpt lat="47.2768" lon="-2.48782">
        <ele>140.60000610352</ele>
        <time>2022-09-29T08:20:42.000Z</time>
      </trkpt>
      <trkpt lat="47.27666" lon="-2.48784">
        <ele>140.60000610352</ele>
        <time>2022-09-29T08:20:45.000Z</time>
      </trkpt>
      <trkpt lat="47.27657" lon="-2.48787">
        <ele>140.60000610352</ele>
        <time>2022-09-29T08:20:47.000Z</time>
      </trkpt>
      <trkpt lat="47.27652" lon="-2.48809">
        <ele>140.60000610352</ele>
        <time>2022-09-29T08:20:50.000Z</time>
      </trkpt>
      <trkpt lat="47.27653" lon="-2.48847">
        <ele>140.60000610352</ele>
        <time>2022-09-29T08:20:55.000Z</time>
      </trkpt>
      <trkpt lat="47.27654" lon="-2.48861">
        <ele>140.60000610352</ele>
        <time>2022-09-29T08:20:57.000Z</time>
      </trkpt>
      <trkpt lat="47.27648" lon="-2.48872">
        <ele>140.60000610352</ele>
        <time>2022-09-29T08:20:59.000Z</time>
      </trkpt>
      <trkpt lat="47.27634" lon="-2.48877">
        <ele>140.60000610352</ele>
        <time>2022-09-29T08:21:02.000Z</time>
      </trkpt>
      <trkpt lat="47.27629" lon="-2.48879">
        <ele>140.60000610352</ele>
        <time>2022-09-29T08:21:03.000Z</time>
      </trkpt>
      <trkpt lat="47.27623" lon="-2.48879">
        <ele>140.60000610352</ele>
        <time>2022-09-29T08:21:04.000Z</time>
      </trkpt>
      <trkpt lat="47.27613" lon="-2.4888">
        <ele>140.60000610352</ele>
        <time>2022-09-29T08:21:06.000Z</time>
      </trkpt>
      <trkpt lat="47.27606" lon="-2.48889">
        <ele>140.60000610352</ele>
        <time>2022-09-29T08:21:08.000Z</time>
      </trkpt>
      <trkpt lat="47.27604" lon="-2.48909">
        <ele>140.60000610352</ele>
        <time>2022-09-29T08:21:11.000Z</time>
      </trkpt>
      <trkpt lat="47.27603" lon="-2.48917">
        <ele>140.60000610352</ele>
        <time>2022-09-29T08:21:12.000Z</time>
      </trkpt>
      <trkpt lat="47.27602" lon="-2.48926">
        <ele>140.60000610352</ele>
        <time>2022-09-29T08:21:13.000Z</time>
      </trkpt>
      <trkpt lat="47.27601" lon="-2.48952">
        <ele>140.60000610352</ele>
        <time>2022-09-29T08:21:16.000Z</time>
      </trkpt>
      <trkpt lat="47.27598" lon="-2.49015">
        <ele>140.60000610352</ele>
        <time>2022-09-29T08:21:23.000Z</time>
      </trkpt>
      <trkpt lat="47.27595" lon="-2.49065">
        <ele>140.60000610352</ele>
        <time>2022-09-29T08:21:28.000Z</time>
      </trkpt>
      <trkpt lat="47.27595" lon="-2.49124">
        <ele>140.60000610352</ele>
        <time>2022-09-29T08:21:34.000Z</time>
      </trkpt>
      <trkpt lat="47.27603" lon="-2.4916">
        <ele>140.19999694824</ele>
        <time>2022-09-29T08:21:38.000Z</time>
      </trkpt>
      <trkpt lat="47.27606" lon="-2.49169">
        <ele>139.80000305176</ele>
        <time>2022-09-29T08:21:39.000Z</time>
      </trkpt>
      <trkpt lat="47.27609" lon="-2.49177">
        <ele>139.39999389648</ele>
        <time>2022-09-29T08:21:40.000Z</time>
      </trkpt>
      <trkpt lat="47.27613" lon="-2.49185">
        <ele>139</ele>
        <time>2022-09-29T08:21:41.000Z</time>
      </trkpt>
      <trkpt lat="47.27617" lon="-2.49192">
        <ele>138.60000610352</ele>
        <time>2022-09-29T08:21:42.000Z</time>
      </trkpt>
      <trkpt lat="47.27626" lon="-2.49206">
        <ele>138.60000610352</ele>
        <time>2022-09-29T08:21:44.000Z</time>
      </trkpt>
      <trkpt lat="47.2764" lon="-2.49222">
        <ele>138.60000610352</ele>
        <time>2022-09-29T08:21:47.000Z</time>
      </trkpt>
      <trkpt lat="47.27651" lon="-2.49229">
        <ele>138.60000610352</ele>
        <time>2022-09-29T08:21:49.000Z</time>
      </trkpt>
      <trkpt lat="47.27678" lon="-2.49245">
        <ele>138.60000610352</ele>
        <time>2022-09-29T08:21:54.000Z</time>
      </trkpt>
      <trkpt lat="47.27701" lon="-2.4925">
        <ele>138.60000610352</ele>
        <time>2022-09-29T08:21:58.000Z</time>
      </trkpt>
      <trkpt lat="47.27713" lon="-2.4925">
        <ele>138.60000610352</ele>
        <time>2022-09-29T08:22:00.000Z</time>
      </trkpt>
      <trkpt lat="47.27751" lon="-2.4925">
        <ele>138.60000610352</ele>
        <time>2022-09-29T08:22:06.000Z</time>
      </trkpt>
      <trkpt lat="47.27794" lon="-2.49254">
        <ele>138.60000610352</ele>
        <time>2022-09-29T08:22:13.000Z</time>
      </trkpt>
      <trkpt lat="47.27824" lon="-2.49264">
        <ele>138.60000610352</ele>
        <time>2022-09-29T08:22:18.000Z</time>
      </trkpt>
      <trkpt lat="47.27858" lon="-2.49287">
        <ele>138.60000610352</ele>
        <time>2022-09-29T08:22:24.000Z</time>
      </trkpt>
      <trkpt lat="47.27888" lon="-2.49318">
        <ele>138.60000610352</ele>
        <time>2022-09-29T08:22:30.000Z</time>
      </trkpt>
      <trkpt lat="47.27916" lon="-2.49358">
        <ele>138.60000610352</ele>
        <time>2022-09-29T08:22:37.000Z</time>
      </trkpt>
      <trkpt lat="47.27925" lon="-2.49369">
        <ele>138.60000610352</ele>
        <time>2022-09-29T08:22:39.000Z</time>
      </trkpt>
      <trkpt lat="47.2794" lon="-2.49391">
        <ele>138.60000610352</ele>
        <time>2022-09-29T08:22:43.000Z</time>
      </trkpt>
      <trkpt lat="47.27972" lon="-2.49435">
        <ele>138.60000610352</ele>
        <time>2022-09-29T08:22:51.000Z</time>
      </trkpt>
      <trkpt lat="47.27985" lon="-2.49451">
        <ele>138.60000610352</ele>
        <time>2022-09-29T08:22:54.000Z</time>
      </trkpt>
      <trkpt lat="47.27998" lon="-2.49468">
        <ele>138.60000610352</ele>
        <time>2022-09-29T08:22:57.000Z</time>
      </trkpt>
      <trkpt lat="47.28029" lon="-2.49512">
        <ele>138.60000610352</ele>
        <time>2022-09-29T08:23:04.000Z</time>
      </trkpt>
      <trkpt lat="47.28045" lon="-2.49539">
        <ele>138.60000610352</ele>
        <time>2022-09-29T08:23:08.000Z</time>
      </trkpt>
      <trkpt lat="47.28052" lon="-2.49552">
        <ele>138.60000610352</ele>
        <time>2022-09-29T08:23:10.000Z</time>
      </trkpt>
      <trkpt lat="47.28065" lon="-2.49569">
        <ele>138.60000610352</ele>
        <time>2022-09-29T08:23:13.000Z</time>
      </trkpt>
      <trkpt lat="47.28073" lon="-2.4958">
        <ele>138.60000610352</ele>
        <time>2022-09-29T08:23:15.000Z</time>
      </trkpt>
      <trkpt lat="47.28089" lon="-2.49601">
        <ele>138.60000610352</ele>
        <time>2022-09-29T08:23:19.000Z</time>
      </trkpt>
      <trkpt lat="47.28094" lon="-2.49614">
        <ele>138.60000610352</ele>
        <time>2022-09-29T08:23:21.000Z</time>
      </trkpt>
      <trkpt lat="47.2811" lon="-2.49633">
        <ele>138.60000610352</ele>
        <time>2022-09-29T08:23:25.000Z</time>
      </trkpt>
      <trkpt lat="47.28114" lon="-2.49638">
        <ele>138.60000610352</ele>
        <time>2022-09-29T08:23:26.000Z</time>
      </trkpt>
      <trkpt lat="47.28117" lon="-2.49643">
        <ele>138.60000610352</ele>
        <time>2022-09-29T08:23:27.000Z</time>
      </trkpt>
      <trkpt lat="47.28126" lon="-2.49665">
        <ele>138.60000610352</ele>
        <time>2022-09-29T08:23:30.000Z</time>
      </trkpt>
      <trkpt lat="47.28128" lon="-2.49674">
        <ele>138.60000610352</ele>
        <time>2022-09-29T08:23:31.000Z</time>
      </trkpt>
      <trkpt lat="47.28132" lon="-2.497">
        <ele>138.60000610352</ele>
        <time>2022-09-29T08:23:34.000Z</time>
      </trkpt>
      <trkpt lat="47.28143" lon="-2.49773">
        <ele>138.60000610352</ele>
        <time>2022-09-29T08:23:42.000Z</time>
      </trkpt>
      <trkpt lat="47.28153" lon="-2.49844">
        <ele>138.60000610352</ele>
        <time>2022-09-29T08:23:49.000Z</time>
      </trkpt>
      <trkpt lat="47.28153" lon="-2.49854">
        <ele>137.80000305176</ele>
        <time>2022-09-29T08:23:50.000Z</time>
      </trkpt>
      <trkpt lat="47.28155" lon="-2.49864">
        <ele>137.39999389648</ele>
        <time>2022-09-29T08:23:51.000Z</time>
      </trkpt>
      <trkpt lat="47.28156" lon="-2.49874">
        <ele>137</ele>
        <time>2022-09-29T08:23:52.000Z</time>
      </trkpt>
      <trkpt lat="47.28157" lon="-2.49884">
        <ele>136.60000610352</ele>
        <time>2022-09-29T08:23:53.000Z</time>
      </trkpt>
      <trkpt lat="47.28158" lon="-2.49893">
        <ele>136.60000610352</ele>
        <time>2022-09-29T08:23:54.000Z</time>
      </trkpt>
      <trkpt lat="47.28162" lon="-2.49941">
        <ele>136.60000610352</ele>
        <time>2022-09-29T08:23:59.000Z</time>
      </trkpt>
      <trkpt lat="47.28173" lon="-2.49994">
        <ele>136.60000610352</ele>
        <time>2022-09-29T08:24:05.000Z</time>
      </trkpt>
      <trkpt lat="47.28179" lon="-2.50028">
        <ele>136.60000610352</ele>
        <time>2022-09-29T08:24:09.000Z</time>
      </trkpt>
      <trkpt lat="47.28182" lon="-2.50045">
        <ele>136.60000610352</ele>
        <time>2022-09-29T08:24:11.000Z</time>
      </trkpt>
      <trkpt lat="47.28196" lon="-2.50114">
        <ele>136.60000610352</ele>
        <time>2022-09-29T08:24:19.000Z</time>
      </trkpt>
      <trkpt lat="47.28209" lon="-2.50172">
        <ele>136.60000610352</ele>
        <time>2022-09-29T08:24:26.000Z</time>
      </trkpt>
      <trkpt lat="47.28228" lon="-2.50225">
        <ele>136.60000610352</ele>
        <time>2022-09-29T08:24:33.000Z</time>
      </trkpt>
      <trkpt lat="47.28231" lon="-2.50232">
        <ele>136.60000610352</ele>
        <time>2022-09-29T08:24:34.000Z</time>
      </trkpt>
      <trkpt lat="47.28244" lon="-2.50248">
        <ele>136.60000610352</ele>
        <time>2022-09-29T08:24:37.000Z</time>
      </trkpt>
      <trkpt lat="47.28266" lon="-2.50282">
        <ele>136.60000610352</ele>
        <time>2022-09-29T08:24:43.000Z</time>
      </trkpt>
      <trkpt lat="47.28268" lon="-2.50289">
        <ele>136.60000610352</ele>
        <time>2022-09-29T08:24:44.000Z</time>
      </trkpt>
      <trkpt lat="47.2828" lon="-2.50341">
        <ele>136.60000610352</ele>
        <time>2022-09-29T08:24:51.000Z</time>
      </trkpt>
      <trkpt lat="47.28282" lon="-2.50388">
        <ele>136.60000610352</ele>
        <time>2022-09-29T08:24:57.000Z</time>
      </trkpt>
      <trkpt lat="47.28279" lon="-2.50443">
        <ele>136.60000610352</ele>
        <time>2022-09-29T08:25:04.000Z</time>
      </trkpt>
      <trkpt lat="47.28268" lon="-2.50482">
        <ele>136.60000610352</ele>
        <time>2022-09-29T08:25:09.000Z</time>
      </trkpt>
      <trkpt lat="47.28252" lon="-2.50547">
        <ele>136.60000610352</ele>
        <time>2022-09-29T08:25:17.000Z</time>
      </trkpt>
      <trkpt lat="47.28238" lon="-2.50606">
        <ele>136.60000610352</ele>
        <time>2022-09-29T08:25:24.000Z</time>
      </trkpt>
      <trkpt lat="47.28221" lon="-2.50673">
        <ele>136.60000610352</ele>
        <time>2022-09-29T08:25:32.000Z</time>
      </trkpt>
      <trkpt lat="47.28213" lon="-2.50734">
        <ele>136.60000610352</ele>
        <time>2022-09-29T08:25:39.000Z</time>
      </trkpt>
      <trkpt lat="47.28214" lon="-2.50789">
        <ele>136.60000610352</ele>
        <time>2022-09-29T08:25:45.000Z</time>
      </trkpt>
      <trkpt lat="47.28222" lon="-2.50843">
        <ele>136.60000610352</ele>
        <time>2022-09-29T08:25:51.000Z</time>
      </trkpt>
      <trkpt lat="47.28231" lon="-2.50896">
        <ele>136.60000610352</ele>
        <time>2022-09-29T08:25:57.000Z</time>
      </trkpt>
      <trkpt lat="47.2824" lon="-2.50955">
        <ele>136.60000610352</ele>
        <time>2022-09-29T08:26:04.000Z</time>
      </trkpt>
      <trkpt lat="47.28249" lon="-2.50996">
        <ele>136.60000610352</ele>
        <time>2022-09-29T08:26:09.000Z</time>
      </trkpt>
      <trkpt lat="47.28259" lon="-2.51046">
        <ele>136.60000610352</ele>
        <time>2022-09-29T08:26:15.000Z</time>
      </trkpt>
      <trkpt lat="47.28263" lon="-2.51062">
        <ele>137.39999389648</ele>
        <time>2022-09-29T08:26:17.000Z</time>
      </trkpt>
      <trkpt lat="47.28265" lon="-2.51069">
        <ele>137.80000305176</ele>
        <time>2022-09-29T08:26:18.000Z</time>
      </trkpt>
      <trkpt lat="47.28267" lon="-2.51075">
        <ele>138.19999694824</ele>
        <time>2022-09-29T08:26:19.000Z</time>
      </trkpt>
      <trkpt lat="47.2827" lon="-2.51082">
        <ele>138.80000305176</ele>
        <time>2022-09-29T08:26:20.000Z</time>
      </trkpt>
      <trkpt lat="47.28272" lon="-2.51089">
        <ele>138.80000305176</ele>
        <time>2022-09-29T08:26:21.000Z</time>
      </trkpt>
      <trkpt lat="47.28289" lon="-2.51141">
        <ele>138.80000305176</ele>
        <time>2022-09-29T08:26:28.000Z</time>
      </trkpt>
      <trkpt lat="47.28311" lon="-2.51196">
        <ele>138.80000305176</ele>
        <time>2022-09-29T08:26:35.000Z</time>
      </trkpt>
      <trkpt lat="47.28332" lon="-2.51217">
        <ele>138.80000305176</ele>
        <time>2022-09-29T08:26:39.000Z</time>
      </trkpt>
      <trkpt lat="47.28365" lon="-2.51239">
        <ele>138.80000305176</ele>
        <time>2022-09-29T08:26:45.000Z</time>
      </trkpt>
      <trkpt lat="47.2837" lon="-2.51242">
        <ele>138.80000305176</ele>
        <time>2022-09-29T08:26:46.000Z</time>
      </trkpt>
      <trkpt lat="47.2838" lon="-2.5125">
        <ele>138.80000305176</ele>
        <time>2022-09-29T08:26:48.000Z</time>
      </trkpt>
      <trkpt lat="47.28385" lon="-2.51253">
        <ele>138.80000305176</ele>
        <time>2022-09-29T08:26:49.000Z</time>
      </trkpt>
      <trkpt lat="47.28415" lon="-2.51277">
        <ele>138.80000305176</ele>
        <time>2022-09-29T08:26:55.000Z</time>
      </trkpt>
      <trkpt lat="47.2842" lon="-2.51282">
        <ele>138.80000305176</ele>
        <time>2022-09-29T08:26:56.000Z</time>
      </trkpt>
      <trkpt lat="47.28433" lon="-2.51302">
        <ele>138.80000305176</ele>
        <time>2022-09-29T08:27:00.000Z</time>
      </trkpt>
      <trkpt lat="47.28446" lon="-2.513">
        <ele>138.80000305176</ele>
        <time>2022-09-29T08:27:03.000Z</time>
      </trkpt>
      <trkpt lat="47.2845" lon="-2.51296">
        <ele>138.80000305176</ele>
        <time>2022-09-29T08:27:04.000Z</time>
      </trkpt>
      <trkpt lat="47.28469" lon="-2.51276">
        <ele>138.80000305176</ele>
        <time>2022-09-29T08:27:09.000Z</time>
      </trkpt>
      <trkpt lat="47.28492" lon="-2.51258">
        <ele>138.80000305176</ele>
        <time>2022-09-29T08:27:14.000Z</time>
      </trkpt>
      <trkpt lat="47.28496" lon="-2.51259">
        <ele>138.80000305176</ele>
        <time>2022-09-29T08:27:15.000Z</time>
      </trkpt>
      <trkpt lat="47.28507" lon="-2.51274">
        <ele>138.80000305176</ele>
        <time>2022-09-29T08:27:18.000Z</time>
      </trkpt>
      <trkpt lat="47.28511" lon="-2.51288">
        <ele>138.80000305176</ele>
        <time>2022-09-29T08:27:20.000Z</time>
      </trkpt>
      <trkpt lat="47.28516" lon="-2.5131">
        <ele>138.80000305176</ele>
        <time>2022-09-29T08:27:23.000Z</time>
      </trkpt>
      <trkpt lat="47.28517" lon="-2.51316">
        <ele>138.80000305176</ele>
        <time>2022-09-29T08:27:24.000Z</time>
      </trkpt>
      <trkpt lat="47.28524" lon="-2.5134">
        <ele>138.80000305176</ele>
        <time>2022-09-29T08:27:27.000Z</time>
      </trkpt>
      <trkpt lat="47.2853" lon="-2.51363">
        <ele>138.80000305176</ele>
        <time>2022-09-29T08:27:30.000Z</time>
      </trkpt>
      <trkpt lat="47.28544" lon="-2.51418">
        <ele>138.80000305176</ele>
        <time>2022-09-29T08:27:37.000Z</time>
      </trkpt>
      <trkpt lat="47.28558" lon="-2.51472">
        <ele>138.80000305176</ele>
        <time>2022-09-29T08:27:44.000Z</time>
      </trkpt>
      <trkpt lat="47.28561" lon="-2.51487">
        <ele>138.80000305176</ele>
        <time>2022-09-29T08:27:46.000Z</time>
      </trkpt>
      <trkpt lat="47.28566" lon="-2.51492">
        <ele>138.80000305176</ele>
        <time>2022-09-29T08:27:48.000Z</time>
      </trkpt>
      <trkpt lat="47.28573" lon="-2.51488">
        <ele>138.80000305176</ele>
        <time>2022-09-29T08:27:50.000Z</time>
      </trkpt>
      <trkpt lat="47.28584" lon="-2.51484">
        <ele>138.80000305176</ele>
        <time>2022-09-29T08:27:53.000Z</time>
      </trkpt>
      <trkpt lat="47.28615" lon="-2.51475">
        <ele>138.80000305176</ele>
        <time>2022-09-29T08:28:00.000Z</time>
      </trkpt>
      <trkpt lat="47.28645" lon="-2.51466">
        <ele>138.80000305176</ele>
        <time>2022-09-29T08:28:06.000Z</time>
      </trkpt>
      <trkpt lat="47.28687" lon="-2.51454">
        <ele>138.80000305176</ele>
        <time>2022-09-29T08:28:14.000Z</time>
      </trkpt>
      <trkpt lat="47.28709" lon="-2.51448">
        <ele>139.19999694824</ele>
        <time>2022-09-29T08:28:18.000Z</time>
      </trkpt>
      <trkpt lat="47.28715" lon="-2.51447">
        <ele>139.60000610352</ele>
        <time>2022-09-29T08:28:19.000Z</time>
      </trkpt>
      <trkpt lat="47.2872" lon="-2.51445">
        <ele>140</ele>
        <time>2022-09-29T08:28:20.000Z</time>
      </trkpt>
      <trkpt lat="47.28726" lon="-2.51443">
        <ele>140.80000305176</ele>
        <time>2022-09-29T08:28:21.000Z</time>
      </trkpt>
      <trkpt lat="47.28759" lon="-2.51432">
        <ele>140.80000305176</ele>
        <time>2022-09-29T08:28:27.000Z</time>
      </trkpt>
      <trkpt lat="47.288" lon="-2.51419">
        <ele>140.80000305176</ele>
        <time>2022-09-29T08:28:34.000Z</time>
      </trkpt>
      <trkpt lat="47.28848" lon="-2.51407">
        <ele>140.80000305176</ele>
        <time>2022-09-29T08:28:42.000Z</time>
      </trkpt>
      <trkpt lat="47.2889" lon="-2.51399">
        <ele>140.80000305176</ele>
        <time>2022-09-29T08:28:49.000Z</time>
      </trkpt>
      <trkpt lat="47.28925" lon="-2.514">
        <ele>140.80000305176</ele>
        <time>2022-09-29T08:28:55.000Z</time>
      </trkpt>
      <trkpt lat="47.2893" lon="-2.51398">
        <ele>140.80000305176</ele>
        <time>2022-09-29T08:28:56.000Z</time>
      </trkpt>
      <trkpt lat="47.28939" lon="-2.51401">
        <ele>140.80000305176</ele>
        <time>2022-09-29T08:28:58.000Z</time>
      </trkpt>
      <trkpt lat="47.28942" lon="-2.51406">
        <ele>140.39999389648</ele>
        <time>2022-09-29T08:28:59.000Z</time>
      </trkpt>
      <trkpt lat="47.28944" lon="-2.51411">
        <ele>140</ele>
        <time>2022-09-29T08:29:00.000Z</time>
      </trkpt>
      <trkpt lat="47.28945" lon="-2.51418">
        <ele>139.60000610352</ele>
        <time>2022-09-29T08:29:01.000Z</time>
      </trkpt>
      <trkpt lat="47.28945" lon="-2.51425">
        <ele>139.19999694824</ele>
        <time>2022-09-29T08:29:02.000Z</time>
      </trkpt>
      <trkpt lat="47.28946" lon="-2.51432">
        <ele>138.80000305176</ele>
        <time>2022-09-29T08:29:03.000Z</time>
      </trkpt>
      <trkpt lat="47.28951" lon="-2.51468">
        <ele>138.80000305176</ele>
        <time>2022-09-29T08:29:08.000Z</time>
      </trkpt>
      <trkpt lat="47.28956" lon="-2.51501">
        <ele>138.80000305176</ele>
        <time>2022-09-29T08:29:14.000Z</time>
      </trkpt>
      <trkpt lat="47.28958" lon="-2.51526">
        <ele>138.80000305176</ele>
        <time>2022-09-29T08:29:19.000Z</time>
      </trkpt>
      <trkpt lat="47.28961" lon="-2.51555">
        <ele>139.19999694824</ele>
        <time>2022-09-29T08:29:23.000Z</time>
      </trkpt>
      <trkpt lat="47.28961" lon="-2.51561">
        <ele>139.60000610352</ele>
        <time>2022-09-29T08:29:24.000Z</time>
      </trkpt>
      <trkpt lat="47.28961" lon="-2.51567">
        <ele>140</ele>
        <time>2022-09-29T08:29:25.000Z</time>
      </trkpt>
      <trkpt lat="47.28962" lon="-2.51572">
        <ele>140.39999389648</ele>
        <time>2022-09-29T08:29:26.000Z</time>
      </trkpt>
      <trkpt lat="47.28964" lon="-2.51575">
        <ele>140.80000305176</ele>
        <time>2022-09-29T08:29:27.000Z</time>
      </trkpt>
      <trkpt lat="47.28967" lon="-2.51577">
        <ele>140.80000305176</ele>
        <time>2022-09-29T08:29:28.000Z</time>
      </trkpt>
      <trkpt lat="47.28984" lon="-2.51577">
        <ele>140.80000305176</ele>
        <time>2022-09-29T08:29:32.000Z</time>
      </trkpt>
      <trkpt lat="47.28988" lon="-2.51577">
        <ele>140.80000305176</ele>
        <time>2022-09-29T08:29:33.000Z</time>
      </trkpt>
      <trkpt lat="47.29007" lon="-2.51586">
        <ele>140.80000305176</ele>
        <time>2022-09-29T08:29:37.000Z</time>
      </trkpt>
      <trkpt lat="47.29011" lon="-2.51588">
        <ele>140.80000305176</ele>
        <time>2022-09-29T08:29:38.000Z</time>
      </trkpt>
      <trkpt lat="47.29025" lon="-2.51598">
        <ele>140.80000305176</ele>
        <time>2022-09-29T08:29:41.000Z</time>
      </trkpt>
      <trkpt lat="47.29039" lon="-2.51622">
        <ele>140.80000305176</ele>
        <time>2022-09-29T08:29:45.000Z</time>
      </trkpt>
      <trkpt lat="47.29043" lon="-2.51638">
        <ele>140.80000305176</ele>
        <time>2022-09-29T08:29:47.000Z</time>
      </trkpt>
      <trkpt lat="47.29048" lon="-2.5166">
        <ele>140.80000305176</ele>
        <time>2022-09-29T08:29:50.000Z</time>
      </trkpt>
      <trkpt lat="47.2905" lon="-2.51666">
        <ele>140.80000305176</ele>
        <time>2022-09-29T08:29:51.000Z</time>
      </trkpt>
      <trkpt lat="47.29054" lon="-2.51685">
        <ele>140.80000305176</ele>
        <time>2022-09-29T08:29:54.000Z</time>
      </trkpt>
      <trkpt lat="47.29054" lon="-2.51698">
        <ele>140.80000305176</ele>
        <time>2022-09-29T08:29:56.000Z</time>
      </trkpt>
      <trkpt lat="47.29046" lon="-2.51723">
        <ele>141.19999694824</ele>
        <time>2022-09-29T08:30:00.000Z</time>
      </trkpt>
      <trkpt lat="47.29045" lon="-2.5173">
        <ele>141.60000610352</ele>
        <time>2022-09-29T08:30:01.000Z</time>
      </trkpt>
      <trkpt lat="47.29045" lon="-2.51738">
        <ele>142</ele>
        <time>2022-09-29T08:30:02.000Z</time>
      </trkpt>
      <trkpt lat="47.29046" lon="-2.51746">
        <ele>142.39999389648</ele>
        <time>2022-09-29T08:30:03.000Z</time>
      </trkpt>
      <trkpt lat="47.29048" lon="-2.51753">
        <ele>142.80000305176</ele>
        <time>2022-09-29T08:30:04.000Z</time>
      </trkpt>
      <trkpt lat="47.29048" lon="-2.51768">
        <ele>142.80000305176</ele>
        <time>2022-09-29T08:30:06.000Z</time>
      </trkpt>
      <trkpt lat="47.29037" lon="-2.51784">
        <ele>142.80000305176</ele>
        <time>2022-09-29T08:30:09.000Z</time>
      </trkpt>
      <trkpt lat="47.29033" lon="-2.51788">
        <ele>142.80000305176</ele>
        <time>2022-09-29T08:30:10.000Z</time>
      </trkpt>
      <trkpt lat="47.29011" lon="-2.51812">
        <ele>142.80000305176</ele>
        <time>2022-09-29T08:30:15.000Z</time>
      </trkpt>
      <trkpt lat="47.28993" lon="-2.51828">
        <ele>142.80000305176</ele>
        <time>2022-09-29T08:30:19.000Z</time>
      </trkpt>
      <trkpt lat="47.28984" lon="-2.51834">
        <ele>142.80000305176</ele>
        <time>2022-09-29T08:30:21.000Z</time>
      </trkpt>
      <trkpt lat="47.28961" lon="-2.51851">
        <ele>142.80000305176</ele>
        <time>2022-09-29T08:30:26.000Z</time>
      </trkpt>
      <trkpt lat="47.28958" lon="-2.51858">
        <ele>142.80000305176</ele>
        <time>2022-09-29T08:30:27.000Z</time>
      </trkpt>
      <trkpt lat="47.28954" lon="-2.51872">
        <ele>142.80000305176</ele>
        <time>2022-09-29T08:30:29.000Z</time>
      </trkpt>
      <trkpt lat="47.2895" lon="-2.51894">
        <ele>142.80000305176</ele>
        <time>2022-09-29T08:30:32.000Z</time>
      </trkpt>
      <trkpt lat="47.2895" lon="-2.51902">
        <ele>142.80000305176</ele>
        <time>2022-09-29T08:30:33.000Z</time>
      </trkpt>
      <trkpt lat="47.28952" lon="-2.51918">
        <ele>142.80000305176</ele>
        <time>2022-09-29T08:30:35.000Z</time>
      </trkpt>
      <trkpt lat="47.28954" lon="-2.51934">
        <ele>143.19999694824</ele>
        <time>2022-09-29T08:30:37.000Z</time>
      </trkpt>
      <trkpt lat="47.28955" lon="-2.51942">
        <ele>143.80000305176</ele>
        <time>2022-09-29T08:30:38.000Z</time>
      </trkpt>
      <trkpt lat="47.28956" lon="-2.5195">
        <ele>144.19999694824</ele>
        <time>2022-09-29T08:30:39.000Z</time>
      </trkpt>
      <trkpt lat="47.28957" lon="-2.51958">
        <ele>144.60000610352</ele>
        <time>2022-09-29T08:30:40.000Z</time>
      </trkpt>
      <trkpt lat="47.28958" lon="-2.51966">
        <ele>145</ele>
        <time>2022-09-29T08:30:41.000Z</time>
      </trkpt>
      <trkpt lat="47.28966" lon="-2.52019">
        <ele>145</ele>
        <time>2022-09-29T08:30:48.000Z</time>
      </trkpt>
      <trkpt lat="47.28968" lon="-2.52026">
        <ele>145</ele>
        <time>2022-09-29T08:30:49.000Z</time>
      </trkpt>
      <trkpt lat="47.28975" lon="-2.52045">
        <ele>145</ele>
        <time>2022-09-29T08:30:52.000Z</time>
      </trkpt>
      <trkpt lat="47.2898" lon="-2.52065">
        <ele>145</ele>
        <time>2022-09-29T08:30:55.000Z</time>
      </trkpt>
      <trkpt lat="47.28981" lon="-2.52072">
        <ele>145</ele>
        <time>2022-09-29T08:30:56.000Z</time>
      </trkpt>
      <trkpt lat="47.28982" lon="-2.52087">
        <ele>145</ele>
        <time>2022-09-29T08:30:58.000Z</time>
      </trkpt>
      <trkpt lat="47.28979" lon="-2.52101">
        <ele>145</ele>
        <time>2022-09-29T08:31:00.000Z</time>
      </trkpt>
      <trkpt lat="47.28973" lon="-2.5212">
        <ele>145</ele>
        <time>2022-09-29T08:31:03.000Z</time>
      </trkpt>
      <trkpt lat="47.28963" lon="-2.52137">
        <ele>145</ele>
        <time>2022-09-29T08:31:06.000Z</time>
      </trkpt>
      <trkpt lat="47.28951" lon="-2.52154">
        <ele>145</ele>
        <time>2022-09-29T08:31:09.000Z</time>
      </trkpt>
      <trkpt lat="47.28944" lon="-2.52167">
        <ele>145</ele>
        <time>2022-09-29T08:31:11.000Z</time>
      </trkpt>
      <trkpt lat="47.28934" lon="-2.52188">
        <ele>145</ele>
        <time>2022-09-29T08:31:14.000Z</time>
      </trkpt>
      <trkpt lat="47.28925" lon="-2.52209">
        <ele>145</ele>
        <time>2022-09-29T08:31:17.000Z</time>
      </trkpt>
      <trkpt lat="47.28923" lon="-2.52225">
        <ele>145</ele>
        <time>2022-09-29T08:31:19.000Z</time>
      </trkpt>
      <trkpt lat="47.28917" lon="-2.5228">
        <ele>145</ele>
        <time>2022-09-29T08:31:26.000Z</time>
      </trkpt>
      <trkpt lat="47.28916" lon="-2.52288">
        <ele>145</ele>
        <time>2022-09-29T08:31:27.000Z</time>
      </trkpt>
      <trkpt lat="47.28914" lon="-2.52319">
        <ele>145</ele>
        <time>2022-09-29T08:31:31.000Z</time>
      </trkpt>
      <trkpt lat="47.28913" lon="-2.52326">
        <ele>145</ele>
        <time>2022-09-29T08:31:32.000Z</time>
      </trkpt>
      <trkpt lat="47.28914" lon="-2.52373">
        <ele>145</ele>
        <time>2022-09-29T08:31:38.000Z</time>
      </trkpt>
      <trkpt lat="47.28918" lon="-2.52418">
        <ele>145</ele>
        <time>2022-09-29T08:31:44.000Z</time>
      </trkpt>
      <trkpt lat="47.28923" lon="-2.52448">
        <ele>145</ele>
        <time>2022-09-29T08:31:48.000Z</time>
      </trkpt>
      <trkpt lat="47.28929" lon="-2.52487">
        <ele>145</ele>
        <time>2022-09-29T08:31:53.000Z</time>
      </trkpt>
      <trkpt lat="47.28932" lon="-2.52494">
        <ele>145</ele>
        <time>2022-09-29T08:31:54.000Z</time>
      </trkpt>
      <trkpt lat="47.28938" lon="-2.52505">
        <ele>145</ele>
        <time>2022-09-29T08:31:56.000Z</time>
      </trkpt>
      <trkpt lat="47.28944" lon="-2.52527">
        <ele>145</ele>
        <time>2022-09-29T08:31:59.000Z</time>
      </trkpt>
      <trkpt lat="47.28945" lon="-2.52552">
        <ele>145</ele>
        <time>2022-09-29T08:32:02.000Z</time>
      </trkpt>
      <trkpt lat="47.28946" lon="-2.52568">
        <ele>145</ele>
        <time>2022-09-29T08:32:04.000Z</time>
      </trkpt>
      <trkpt lat="47.28948" lon="-2.52616">
        <ele>145</ele>
        <time>2022-09-29T08:32:10.000Z</time>
      </trkpt>
      <trkpt lat="47.28948" lon="-2.52624">
        <ele>145</ele>
        <time>2022-09-29T08:32:11.000Z</time>
      </trkpt>
      <trkpt lat="47.28948" lon="-2.52654">
        <ele>145</ele>
        <time>2022-09-29T08:32:15.000Z</time>
      </trkpt>
      <trkpt lat="47.28948" lon="-2.52685">
        <ele>145</ele>
        <time>2022-09-29T08:32:19.000Z</time>
      </trkpt>
      <trkpt lat="47.28947" lon="-2.52701">
        <ele>145</ele>
        <time>2022-09-29T08:32:21.000Z</time>
      </trkpt>
      <trkpt lat="47.28951" lon="-2.52749">
        <ele>145</ele>
        <time>2022-09-29T08:32:27.000Z</time>
      </trkpt>
      <trkpt lat="47.28952" lon="-2.52757">
        <ele>145.39999389648</ele>
        <time>2022-09-29T08:32:28.000Z</time>
      </trkpt>
      <trkpt lat="47.28953" lon="-2.52765">
        <ele>146.19999694824</ele>
        <time>2022-09-29T08:32:29.000Z</time>
      </trkpt>
      <trkpt lat="47.28953" lon="-2.52773">
        <ele>146.60000610352</ele>
        <time>2022-09-29T08:32:30.000Z</time>
      </trkpt>
      <trkpt lat="47.28954" lon="-2.52781">
        <ele>147</ele>
        <time>2022-09-29T08:32:31.000Z</time>
      </trkpt>
      <trkpt lat="47.28957" lon="-2.52796">
        <ele>147</ele>
        <time>2022-09-29T08:32:33.000Z</time>
      </trkpt>
      <trkpt lat="47.28961" lon="-2.52811">
        <ele>147</ele>
        <time>2022-09-29T08:32:35.000Z</time>
      </trkpt>
      <trkpt lat="47.28969" lon="-2.5283">
        <ele>147</ele>
        <time>2022-09-29T08:32:38.000Z</time>
      </trkpt>
      <trkpt lat="47.28981" lon="-2.52866">
        <ele>147</ele>
        <time>2022-09-29T08:32:43.000Z</time>
      </trkpt>
      <trkpt lat="47.28983" lon="-2.52873">
        <ele>147</ele>
        <time>2022-09-29T08:32:44.000Z</time>
      </trkpt>
      <trkpt lat="47.28988" lon="-2.52888">
        <ele>147</ele>
        <time>2022-09-29T08:32:46.000Z</time>
      </trkpt>
      <trkpt lat="47.28992" lon="-2.52901">
        <ele>147</ele>
        <time>2022-09-29T08:32:48.000Z</time>
      </trkpt>
      <trkpt lat="47.29011" lon="-2.52961">
        <ele>147</ele>
        <time>2022-09-29T08:32:56.000Z</time>
      </trkpt>
      <trkpt lat="47.29033" lon="-2.53013">
        <ele>147</ele>
        <time>2022-09-29T08:33:03.000Z</time>
      </trkpt>
      <trkpt lat="47.29047" lon="-2.53041">
        <ele>147</ele>
        <time>2022-09-29T08:33:07.000Z</time>
      </trkpt>
      <trkpt lat="47.29056" lon="-2.53064">
        <ele>147</ele>
        <time>2022-09-29T08:33:10.000Z</time>
      </trkpt>
      <trkpt lat="47.29076" lon="-2.53111">
        <ele>146.60000610352</ele>
        <time>2022-09-29T08:33:16.000Z</time>
      </trkpt>
      <trkpt lat="47.29079" lon="-2.5312">
        <ele>146.19999694824</ele>
        <time>2022-09-29T08:33:17.000Z</time>
      </trkpt>
      <trkpt lat="47.29083" lon="-2.53127">
        <ele>145.39999389648</ele>
        <time>2022-09-29T08:33:18.000Z</time>
      </trkpt>
      <trkpt lat="47.29086" lon="-2.53135">
        <ele>144.80000305176</ele>
        <time>2022-09-29T08:33:19.000Z</time>
      </trkpt>
      <trkpt lat="47.29096" lon="-2.5316">
        <ele>144.80000305176</ele>
        <time>2022-09-29T08:33:22.000Z</time>
      </trkpt>
      <trkpt lat="47.29107" lon="-2.53205">
        <ele>144.80000305176</ele>
        <time>2022-09-29T08:33:27.000Z</time>
      </trkpt>
      <trkpt lat="47.29118" lon="-2.53255">
        <ele>144.80000305176</ele>
        <time>2022-09-29T08:33:33.000Z</time>
      </trkpt>
      <trkpt lat="47.29124" lon="-2.53285">
        <ele>144.80000305176</ele>
        <time>2022-09-29T08:33:37.000Z</time>
      </trkpt>
      <trkpt lat="47.29126" lon="-2.53292">
        <ele>144.80000305176</ele>
        <time>2022-09-29T08:33:38.000Z</time>
      </trkpt>
      <trkpt lat="47.29131" lon="-2.53323">
        <ele>144.80000305176</ele>
        <time>2022-09-29T08:33:42.000Z</time>
      </trkpt>
      <trkpt lat="47.29131" lon="-2.53339">
        <ele>144.80000305176</ele>
        <time>2022-09-29T08:33:44.000Z</time>
      </trkpt>
      <trkpt lat="47.29134" lon="-2.53374">
        <ele>144.80000305176</ele>
        <time>2022-09-29T08:33:48.000Z</time>
      </trkpt>
      <trkpt lat="47.29139" lon="-2.53429">
        <ele>144.80000305176</ele>
        <time>2022-09-29T08:33:54.000Z</time>
      </trkpt>
      <trkpt lat="47.2914" lon="-2.53447">
        <ele>144.39999389648</ele>
        <time>2022-09-29T08:33:56.000Z</time>
      </trkpt>
      <trkpt lat="47.29141" lon="-2.53456">
        <ele>144</ele>
        <time>2022-09-29T08:33:57.000Z</time>
      </trkpt>
      <trkpt lat="47.29141" lon="-2.53465">
        <ele>143.60000610352</ele>
        <time>2022-09-29T08:33:58.000Z</time>
      </trkpt>
      <trkpt lat="47.29142" lon="-2.53474">
        <ele>143.19999694824</ele>
        <time>2022-09-29T08:33:59.000Z</time>
      </trkpt>
      <trkpt lat="47.29143" lon="-2.53483">
        <ele>142.80000305176</ele>
        <time>2022-09-29T08:34:00.000Z</time>
      </trkpt>
      <trkpt lat="47.29144" lon="-2.53491">
        <ele>142.80000305176</ele>
        <time>2022-09-29T08:34:01.000Z</time>
      </trkpt>
      <trkpt lat="47.29144" lon="-2.53499">
        <ele>142.80000305176</ele>
        <time>2022-09-29T08:34:02.000Z</time>
      </trkpt>
      <trkpt lat="47.29141" lon="-2.53515">
        <ele>142.80000305176</ele>
        <time>2022-09-29T08:34:04.000Z</time>
      </trkpt>
      <trkpt lat="47.29127" lon="-2.53527">
        <ele>142.80000305176</ele>
        <time>2022-09-29T08:34:07.000Z</time>
      </trkpt>
      <trkpt lat="47.2911" lon="-2.53545">
        <ele>142.80000305176</ele>
        <time>2022-09-29T08:34:11.000Z</time>
      </trkpt>
      <trkpt lat="47.29108" lon="-2.53551">
        <ele>142.80000305176</ele>
        <time>2022-09-29T08:34:12.000Z</time>
      </trkpt>
      <trkpt lat="47.29105" lon="-2.53572">
        <ele>142.80000305176</ele>
        <time>2022-09-29T08:34:15.000Z</time>
      </trkpt>
      <trkpt lat="47.29101" lon="-2.53605">
        <ele>142.80000305176</ele>
        <time>2022-09-29T08:34:19.000Z</time>
      </trkpt>
      <trkpt lat="47.29101" lon="-2.53613">
        <ele>142.80000305176</ele>
        <time>2022-09-29T08:34:20.000Z</time>
      </trkpt>
      <trkpt lat="47.29096" lon="-2.53679">
        <ele>142.80000305176</ele>
        <time>2022-09-29T08:34:28.000Z</time>
      </trkpt>
      <trkpt lat="47.29094" lon="-2.53744">
        <ele>142.80000305176</ele>
        <time>2022-09-29T08:34:36.000Z</time>
      </trkpt>
      <trkpt lat="47.29093" lon="-2.53766">
        <ele>142.80000305176</ele>
        <time>2022-09-29T08:34:39.000Z</time>
      </trkpt>
      <trkpt lat="47.29093" lon="-2.53773">
        <ele>142.80000305176</ele>
        <time>2022-09-29T08:34:40.000Z</time>
      </trkpt>
      <trkpt lat="47.29094" lon="-2.53812">
        <ele>142.80000305176</ele>
        <time>2022-09-29T08:34:45.000Z</time>
      </trkpt>
      <trkpt lat="47.29096" lon="-2.5382">
        <ele>142.80000305176</ele>
        <time>2022-09-29T08:34:46.000Z</time>
      </trkpt>
      <trkpt lat="47.29101" lon="-2.53851">
        <ele>142.80000305176</ele>
        <time>2022-09-29T08:34:50.000Z</time>
      </trkpt>
      <trkpt lat="47.29104" lon="-2.53867">
        <ele>142.80000305176</ele>
        <time>2022-09-29T08:34:52.000Z</time>
      </trkpt>
      <trkpt lat="47.29106" lon="-2.53876">
        <ele>142.80000305176</ele>
        <time>2022-09-29T08:34:53.000Z</time>
      </trkpt>
      <trkpt lat="47.2911" lon="-2.53892">
        <ele>142.80000305176</ele>
        <time>2022-09-29T08:34:55.000Z</time>
      </trkpt>
      <trkpt lat="47.29118" lon="-2.53906">
        <ele>142.80000305176</ele>
        <time>2022-09-29T08:34:57.000Z</time>
      </trkpt>
      <trkpt lat="47.29138" lon="-2.53939">
        <ele>142.39999389648</ele>
        <time>2022-09-29T08:35:02.000Z</time>
      </trkpt>
      <trkpt lat="47.29143" lon="-2.53945">
        <ele>142</ele>
        <time>2022-09-29T08:35:03.000Z</time>
      </trkpt>
      <trkpt lat="47.29148" lon="-2.5395">
        <ele>141.60000610352</ele>
        <time>2022-09-29T08:35:04.000Z</time>
      </trkpt>
      <trkpt lat="47.29152" lon="-2.53955">
        <ele>141</ele>
        <time>2022-09-29T08:35:05.000Z</time>
      </trkpt>
      <trkpt lat="47.29157" lon="-2.53961">
        <ele>140.60000610352</ele>
        <time>2022-09-29T08:35:06.000Z</time>
      </trkpt>
      <trkpt lat="47.29166" lon="-2.53969">
        <ele>140.60000610352</ele>
        <time>2022-09-29T08:35:08.000Z</time>
      </trkpt>
      <trkpt lat="47.29171" lon="-2.53973">
        <ele>140.60000610352</ele>
        <time>2022-09-29T08:35:09.000Z</time>
      </trkpt>
      <trkpt lat="47.29191" lon="-2.53981">
        <ele>140.60000610352</ele>
        <time>2022-09-29T08:35:13.000Z</time>
      </trkpt>
      <trkpt lat="47.29196" lon="-2.53982">
        <ele>140.60000610352</ele>
        <time>2022-09-29T08:35:14.000Z</time>
      </trkpt>
      <trkpt lat="47.29225" lon="-2.53986">
        <ele>140.60000610352</ele>
        <time>2022-09-29T08:35:20.000Z</time>
      </trkpt>
      <trkpt lat="47.29253" lon="-2.53995">
        <ele>140.60000610352</ele>
        <time>2022-09-29T08:35:26.000Z</time>
      </trkpt>
      <trkpt lat="47.29272" lon="-2.53999">
        <ele>140.60000610352</ele>
        <time>2022-09-29T08:35:30.000Z</time>
      </trkpt>
      <trkpt lat="47.29282" lon="-2.54001">
        <ele>140.60000610352</ele>
        <time>2022-09-29T08:35:32.000Z</time>
      </trkpt>
      <trkpt lat="47.29298" lon="-2.54009">
        <ele>140.60000610352</ele>
        <time>2022-09-29T08:35:35.000Z</time>
      </trkpt>
      <trkpt lat="47.29307" lon="-2.54019">
        <ele>140.60000610352</ele>
        <time>2022-09-29T08:35:37.000Z</time>
      </trkpt>
      <trkpt lat="47.29311" lon="-2.54024">
        <ele>140.60000610352</ele>
        <time>2022-09-29T08:35:38.000Z</time>
      </trkpt>
      <trkpt lat="47.29329" lon="-2.54042">
        <ele>140.60000610352</ele>
        <time>2022-09-29T08:35:42.000Z</time>
      </trkpt>
      <trkpt lat="47.29356" lon="-2.5407">
        <ele>140.60000610352</ele>
        <time>2022-09-29T08:35:48.000Z</time>
      </trkpt>
      <trkpt lat="47.29382" lon="-2.54093">
        <ele>140.60000610352</ele>
        <time>2022-09-29T08:35:55.000Z</time>
      </trkpt>
      <trkpt lat="47.29399" lon="-2.54103">
        <ele>140.60000610352</ele>
        <time>2022-09-29T08:36:01.000Z</time>
      </trkpt>
      <trkpt lat="47.29403" lon="-2.54107">
        <ele>140.60000610352</ele>
        <time>2022-09-29T08:36:03.000Z</time>
      </trkpt>
      <trkpt lat="47.29404" lon="-2.54109">
        <ele>140.60000610352</ele>
        <time>2022-09-29T08:36:05.000Z</time>
      </trkpt>
      <trkpt lat="47.29404" lon="-2.54109">
        <ele>140.60000610352</ele>
        <time>2022-09-29T08:36:06.000Z</time>
      </trkpt>
      <trkpt lat="47.29404" lon="-2.54114">
        <ele>138.60000610352</ele>
        <time>2022-09-29T08:36:41.000Z</time>
      </trkpt>
      <trkpt lat="47.29403" lon="-2.54121">
        <ele>138.60000610352</ele>
        <time>2022-09-29T08:36:43.000Z</time>
      </trkpt>
      <trkpt lat="47.29395" lon="-2.54131">
        <ele>138.60000610352</ele>
        <time>2022-09-29T08:36:46.000Z</time>
      </trkpt>
      <trkpt lat="47.2937" lon="-2.54151">
        <ele>138.60000610352</ele>
        <time>2022-09-29T08:36:52.000Z</time>
      </trkpt>
      <trkpt lat="47.29337" lon="-2.54177">
        <ele>138.60000610352</ele>
        <time>2022-09-29T08:36:59.000Z</time>
      </trkpt>
      <trkpt lat="47.29328" lon="-2.54186">
        <ele>138.60000610352</ele>
        <time>2022-09-29T08:37:01.000Z</time>
      </trkpt>
      <trkpt lat="47.29313" lon="-2.54198">
        <ele>138.60000610352</ele>
        <time>2022-09-29T08:37:04.000Z</time>
      </trkpt>
      <trkpt lat="47.29282" lon="-2.54224">
        <ele>138.60000610352</ele>
        <time>2022-09-29T08:37:11.000Z</time>
      </trkpt>
      <trkpt lat="47.29274" lon="-2.5423">
        <ele>138.60000610352</ele>
        <time>2022-09-29T08:37:13.000Z</time>
      </trkpt>
      <trkpt lat="47.29261" lon="-2.5424">
        <ele>138.60000610352</ele>
        <time>2022-09-29T08:37:17.000Z</time>
      </trkpt>
      <trkpt lat="47.29248" lon="-2.54253">
        <ele>138.60000610352</ele>
        <time>2022-09-29T08:37:22.000Z</time>
      </trkpt>
      <trkpt lat="47.29246" lon="-2.54254">
        <ele>138.60000610352</ele>
        <time>2022-09-29T08:37:25.000Z</time>
      </trkpt>
      <trkpt lat="47.29254" lon="-2.54279">
        <ele>138.60000610352</ele>
        <time>2022-09-29T08:50:20.000Z</time>
      </trkpt>
      <trkpt lat="47.29255" lon="-2.54285">
        <ele>138.60000610352</ele>
        <time>2022-09-29T08:50:23.000Z</time>
      </trkpt>
      <trkpt lat="47.29257" lon="-2.54295">
        <ele>138.60000610352</ele>
        <time>2022-09-29T08:50:27.000Z</time>
      </trkpt>
      <trkpt lat="47.2926" lon="-2.54307">
        <ele>138.60000610352</ele>
        <time>2022-09-29T08:50:31.000Z</time>
      </trkpt>
      <trkpt lat="47.29265" lon="-2.54335">
        <ele>138.60000610352</ele>
        <time>2022-09-29T08:50:38.000Z</time>
      </trkpt>
      <trkpt lat="47.29271" lon="-2.54356">
        <ele>138.60000610352</ele>
        <time>2022-09-29T08:50:44.000Z</time>
      </trkpt>
      <trkpt lat="47.29277" lon="-2.54379">
        <ele>138.60000610352</ele>
        <time>2022-09-29T08:50:50.000Z</time>
      </trkpt>
      <trkpt lat="47.29286" lon="-2.54414">
        <ele>138.60000610352</ele>
        <time>2022-09-29T08:50:58.000Z</time>
      </trkpt>
      <trkpt lat="47.29295" lon="-2.54446">
        <ele>138.60000610352</ele>
        <time>2022-09-29T08:51:06.000Z</time>
      </trkpt>
      <trkpt lat="47.29304" lon="-2.54475">
        <ele>138.60000610352</ele>
        <time>2022-09-29T08:51:14.000Z</time>
      </trkpt>
      <trkpt lat="47.29309" lon="-2.54504">
        <ele>138.60000610352</ele>
        <time>2022-09-29T08:51:20.000Z</time>
      </trkpt>
      <trkpt lat="47.29314" lon="-2.54535">
        <ele>138.60000610352</ele>
        <time>2022-09-29T08:51:26.000Z</time>
      </trkpt>
      <trkpt lat="47.29323" lon="-2.54574">
        <ele>138.60000610352</ele>
        <time>2022-09-29T08:51:34.000Z</time>
      </trkpt>
      <trkpt lat="47.2933" lon="-2.54604">
        <ele>138.60000610352</ele>
        <time>2022-09-29T08:51:41.000Z</time>
      </trkpt>
      <trkpt lat="47.29336" lon="-2.54629">
        <ele>138.60000610352</ele>
        <time>2022-09-29T08:51:47.000Z</time>
      </trkpt>
      <trkpt lat="47.29344" lon="-2.5466">
        <ele>138.60000610352</ele>
        <time>2022-09-29T08:51:54.000Z</time>
      </trkpt>
      <trkpt lat="47.29349" lon="-2.54674">
        <ele>138.60000610352</ele>
        <time>2022-09-29T08:51:58.000Z</time>
      </trkpt>
      <trkpt lat="47.29351" lon="-2.54675">
        <ele>138.60000610352</ele>
        <time>2022-09-29T08:51:59.000Z</time>
      </trkpt>
      <trkpt lat="47.29364" lon="-2.54676">
        <ele>138.60000610352</ele>
        <time>2022-09-29T08:52:03.000Z</time>
      </trkpt>
      <trkpt lat="47.29369" lon="-2.54677">
        <ele>138.60000610352</ele>
        <time>2022-09-29T08:52:04.000Z</time>
      </trkpt>
      <trkpt lat="47.29382" lon="-2.54676">
        <ele>138.60000610352</ele>
        <time>2022-09-29T08:52:07.000Z</time>
      </trkpt>
      <trkpt lat="47.2942" lon="-2.54674">
        <ele>138.60000610352</ele>
        <time>2022-09-29T08:52:15.000Z</time>
      </trkpt>
      <trkpt lat="47.29442" lon="-2.54672">
        <ele>138.60000610352</ele>
        <time>2022-09-29T08:52:20.000Z</time>
      </trkpt>
      <trkpt lat="47.29447" lon="-2.54672">
        <ele>138.60000610352</ele>
        <time>2022-09-29T08:52:21.000Z</time>
      </trkpt>
      <trkpt lat="47.29469" lon="-2.54664">
        <ele>138.60000610352</ele>
        <time>2022-09-29T08:52:26.000Z</time>
      </trkpt>
      <trkpt lat="47.29474" lon="-2.54661">
        <ele>138.60000610352</ele>
        <time>2022-09-29T08:52:27.000Z</time>
      </trkpt>
      <trkpt lat="47.29486" lon="-2.5465">
        <ele>138.60000610352</ele>
        <time>2022-09-29T08:52:30.000Z</time>
      </trkpt>
      <trkpt lat="47.29494" lon="-2.54642">
        <ele>138.60000610352</ele>
        <time>2022-09-29T08:52:32.000Z</time>
      </trkpt>
      <trkpt lat="47.2952" lon="-2.54616">
        <ele>138.60000610352</ele>
        <time>2022-09-29T08:52:39.000Z</time>
      </trkpt>
      <trkpt lat="47.29547" lon="-2.54605">
        <ele>138.60000610352</ele>
        <time>2022-09-29T08:52:45.000Z</time>
      </trkpt>
      <trkpt lat="47.29577" lon="-2.54599">
        <ele>138.60000610352</ele>
        <time>2022-09-29T08:52:52.000Z</time>
      </trkpt>
      <trkpt lat="47.29582" lon="-2.54599">
        <ele>138.60000610352</ele>
        <time>2022-09-29T08:52:53.000Z</time>
      </trkpt>
      <trkpt lat="47.29588" lon="-2.54598">
        <ele>138.60000610352</ele>
        <time>2022-09-29T08:52:54.000Z</time>
      </trkpt>
      <trkpt lat="47.29603" lon="-2.54595">
        <ele>138.60000610352</ele>
        <time>2022-09-29T08:52:57.000Z</time>
      </trkpt>
      <trkpt lat="47.29608" lon="-2.54593">
        <ele>138.60000610352</ele>
        <time>2022-09-29T08:52:58.000Z</time>
      </trkpt>
      <trkpt lat="47.29638" lon="-2.54581">
        <ele>138.60000610352</ele>
        <time>2022-09-29T08:53:04.000Z</time>
      </trkpt>
      <trkpt lat="47.29661" lon="-2.54565">
        <ele>138.19999694824</ele>
        <time>2022-09-29T08:53:09.000Z</time>
      </trkpt>
      <trkpt lat="47.29665" lon="-2.54562">
        <ele>137.80000305176</ele>
        <time>2022-09-29T08:53:10.000Z</time>
      </trkpt>
      <trkpt lat="47.2967" lon="-2.54558">
        <ele>137.39999389648</ele>
        <time>2022-09-29T08:53:11.000Z</time>
      </trkpt>
      <trkpt lat="47.29674" lon="-2.54554">
        <ele>136.80000305176</ele>
        <time>2022-09-29T08:53:12.000Z</time>
      </trkpt>
      <trkpt lat="47.29678" lon="-2.54551">
        <ele>136.39999389648</ele>
        <time>2022-09-29T08:53:13.000Z</time>
      </trkpt>
      <trkpt lat="47.297" lon="-2.54531">
        <ele>136.39999389648</ele>
        <time>2022-09-29T08:53:18.000Z</time>
      </trkpt>
      <trkpt lat="47.29704" lon="-2.54528">
        <ele>136.39999389648</ele>
        <time>2022-09-29T08:53:19.000Z</time>
      </trkpt>
      <trkpt lat="47.29744" lon="-2.54492">
        <ele>136.39999389648</ele>
        <time>2022-09-29T08:53:28.000Z</time>
      </trkpt>
      <trkpt lat="47.29775" lon="-2.54463">
        <ele>136.39999389648</ele>
        <time>2022-09-29T08:53:35.000Z</time>
      </trkpt>
      <trkpt lat="47.29796" lon="-2.54433">
        <ele>136.39999389648</ele>
        <time>2022-09-29T08:53:40.000Z</time>
      </trkpt>
      <trkpt lat="47.29817" lon="-2.54392">
        <ele>136.39999389648</ele>
        <time>2022-09-29T08:53:46.000Z</time>
      </trkpt>
      <trkpt lat="47.29842" lon="-2.54343">
        <ele>136.39999389648</ele>
        <time>2022-09-29T08:53:54.000Z</time>
      </trkpt>
      <trkpt lat="47.29863" lon="-2.54298">
        <ele>136.39999389648</ele>
        <time>2022-09-29T08:54:01.000Z</time>
      </trkpt>
      <trkpt lat="47.29868" lon="-2.5426">
        <ele>136.39999389648</ele>
        <time>2022-09-29T08:54:06.000Z</time>
      </trkpt>
      <trkpt lat="47.29871" lon="-2.54206">
        <ele>136.39999389648</ele>
        <time>2022-09-29T08:54:13.000Z</time>
      </trkpt>
      <trkpt lat="47.29876" lon="-2.54156">
        <ele>136.39999389648</ele>
        <time>2022-09-29T08:54:19.000Z</time>
      </trkpt>
      <trkpt lat="47.29877" lon="-2.54147">
        <ele>136.39999389648</ele>
        <time>2022-09-29T08:54:20.000Z</time>
      </trkpt>
      <trkpt lat="47.29888" lon="-2.54106">
        <ele>136.39999389648</ele>
        <time>2022-09-29T08:54:25.000Z</time>
      </trkpt>
      <trkpt lat="47.29893" lon="-2.54091">
        <ele>136.39999389648</ele>
        <time>2022-09-29T08:54:27.000Z</time>
      </trkpt>
      <trkpt lat="47.29911" lon="-2.54036">
        <ele>136.39999389648</ele>
        <time>2022-09-29T08:54:34.000Z</time>
      </trkpt>
      <trkpt lat="47.29928" lon="-2.53972">
        <ele>136.39999389648</ele>
        <time>2022-09-29T08:54:42.000Z</time>
      </trkpt>
      <trkpt lat="47.29932" lon="-2.53912">
        <ele>136.39999389648</ele>
        <time>2022-09-29T08:54:49.000Z</time>
      </trkpt>
      <trkpt lat="47.29928" lon="-2.53852">
        <ele>136.39999389648</ele>
        <time>2022-09-29T08:54:56.000Z</time>
      </trkpt>
      <trkpt lat="47.29917" lon="-2.53775">
        <ele>136.39999389648</ele>
        <time>2022-09-29T08:55:04.000Z</time>
      </trkpt>
      <trkpt lat="47.29905" lon="-2.53701">
        <ele>136.39999389648</ele>
        <time>2022-09-29T08:55:12.000Z</time>
      </trkpt>
      <trkpt lat="47.29906" lon="-2.53664">
        <ele>136.39999389648</ele>
        <time>2022-09-29T08:55:16.000Z</time>
      </trkpt>
      <trkpt lat="47.29907" lon="-2.53655">
        <ele>136.39999389648</ele>
        <time>2022-09-29T08:55:17.000Z</time>
      </trkpt>
      <trkpt lat="47.29918" lon="-2.53594">
        <ele>136.39999389648</ele>
        <time>2022-09-29T08:55:24.000Z</time>
      </trkpt>
      <trkpt lat="47.2992" lon="-2.53586">
        <ele>136.39999389648</ele>
        <time>2022-09-29T08:55:25.000Z</time>
      </trkpt>
      <trkpt lat="47.29934" lon="-2.53559">
        <ele>136.39999389648</ele>
        <time>2022-09-29T08:55:29.000Z</time>
      </trkpt>
      <trkpt lat="47.29962" lon="-2.53517">
        <ele>136.39999389648</ele>
        <time>2022-09-29T08:55:36.000Z</time>
      </trkpt>
      <trkpt lat="47.29987" lon="-2.53477">
        <ele>136.39999389648</ele>
        <time>2022-09-29T08:55:42.000Z</time>
      </trkpt>
      <trkpt lat="47.29991" lon="-2.53469">
        <ele>136.39999389648</ele>
        <time>2022-09-29T08:55:43.000Z</time>
      </trkpt>
      <trkpt lat="47.30018" lon="-2.5342">
        <ele>136.39999389648</ele>
        <time>2022-09-29T08:55:50.000Z</time>
      </trkpt>
      <trkpt lat="47.30033" lon="-2.53384">
        <ele>136.39999389648</ele>
        <time>2022-09-29T08:55:55.000Z</time>
      </trkpt>
      <trkpt lat="47.30035" lon="-2.53375">
        <ele>136.39999389648</ele>
        <time>2022-09-29T08:55:56.000Z</time>
      </trkpt>
      <trkpt lat="47.30044" lon="-2.53311">
        <ele>136.39999389648</ele>
        <time>2022-09-29T08:56:03.000Z</time>
      </trkpt>
      <trkpt lat="47.30043" lon="-2.53241">
        <ele>136.39999389648</ele>
        <time>2022-09-29T08:56:10.000Z</time>
      </trkpt>
      <trkpt lat="47.30039" lon="-2.53168">
        <ele>136.39999389648</ele>
        <time>2022-09-29T08:56:17.000Z</time>
      </trkpt>
      <trkpt lat="47.30039" lon="-2.53159">
        <ele>136.39999389648</ele>
        <time>2022-09-29T08:56:18.000Z</time>
      </trkpt>
      <trkpt lat="47.30033" lon="-2.53071">
        <ele>136.39999389648</ele>
        <time>2022-09-29T08:56:27.000Z</time>
      </trkpt>
      <trkpt lat="47.30037" lon="-2.53008">
        <ele>136.39999389648</ele>
        <time>2022-09-29T08:56:34.000Z</time>
      </trkpt>
      <trkpt lat="47.3004" lon="-2.52992">
        <ele>136.39999389648</ele>
        <time>2022-09-29T08:56:36.000Z</time>
      </trkpt>
      <trkpt lat="47.30051" lon="-2.52949">
        <ele>136.39999389648</ele>
        <time>2022-09-29T08:56:41.000Z</time>
      </trkpt>
      <trkpt lat="47.30061" lon="-2.52905">
        <ele>136.39999389648</ele>
        <time>2022-09-29T08:56:46.000Z</time>
      </trkpt>
      <trkpt lat="47.30065" lon="-2.52886">
        <ele>136.39999389648</ele>
        <time>2022-09-29T08:56:48.000Z</time>
      </trkpt>
      <trkpt lat="47.30078" lon="-2.5281">
        <ele>136.39999389648</ele>
        <time>2022-09-29T08:56:56.000Z</time>
      </trkpt>
      <trkpt lat="47.30085" lon="-2.52753">
        <ele>136.39999389648</ele>
        <time>2022-09-29T08:57:02.000Z</time>
      </trkpt>
      <trkpt lat="47.30086" lon="-2.52733">
        <ele>136.39999389648</ele>
        <time>2022-09-29T08:57:04.000Z</time>
      </trkpt>
      <trkpt lat="47.30088" lon="-2.52692">
        <ele>136.39999389648</ele>
        <time>2022-09-29T08:57:08.000Z</time>
      </trkpt>
      <trkpt lat="47.30081" lon="-2.52608">
        <ele>136.39999389648</ele>
        <time>2022-09-29T08:57:16.000Z</time>
      </trkpt>
      <trkpt lat="47.30074" lon="-2.52539">
        <ele>136.39999389648</ele>
        <time>2022-09-29T08:57:23.000Z</time>
      </trkpt>
      <trkpt lat="47.30065" lon="-2.52457">
        <ele>136.39999389648</ele>
        <time>2022-09-29T08:57:32.000Z</time>
      </trkpt>
      <trkpt lat="47.30064" lon="-2.52448">
        <ele>136.39999389648</ele>
        <time>2022-09-29T08:57:33.000Z</time>
      </trkpt>
      <trkpt lat="47.30056" lon="-2.52376">
        <ele>136.39999389648</ele>
        <time>2022-09-29T08:57:41.000Z</time>
      </trkpt>
      <trkpt lat="47.30051" lon="-2.52342">
        <ele>136.39999389648</ele>
        <time>2022-09-29T08:57:45.000Z</time>
      </trkpt>
      <trkpt lat="47.30047" lon="-2.52326">
        <ele>136.39999389648</ele>
        <time>2022-09-29T08:57:47.000Z</time>
      </trkpt>
      <trkpt lat="47.30045" lon="-2.52318">
        <ele>136.39999389648</ele>
        <time>2022-09-29T08:57:48.000Z</time>
      </trkpt>
      <trkpt lat="47.30031" lon="-2.5229">
        <ele>136.39999389648</ele>
        <time>2022-09-29T08:57:52.000Z</time>
      </trkpt>
      <trkpt lat="47.30033" lon="-2.52265">
        <ele>136.39999389648</ele>
        <time>2022-09-29T08:57:55.000Z</time>
      </trkpt>
      <trkpt lat="47.30042" lon="-2.52232">
        <ele>136.39999389648</ele>
        <time>2022-09-29T08:57:59.000Z</time>
      </trkpt>
      <trkpt lat="47.30042" lon="-2.52222">
        <ele>136.39999389648</ele>
        <time>2022-09-29T08:58:00.000Z</time>
      </trkpt>
      <trkpt lat="47.3004" lon="-2.52204">
        <ele>136.39999389648</ele>
        <time>2022-09-29T08:58:02.000Z</time>
      </trkpt>
      <trkpt lat="47.30031" lon="-2.52123">
        <ele>136.39999389648</ele>
        <time>2022-09-29T08:58:11.000Z</time>
      </trkpt>
      <trkpt lat="47.3003" lon="-2.52114">
        <ele>136.39999389648</ele>
        <time>2022-09-29T08:58:12.000Z</time>
      </trkpt>
      <trkpt lat="47.30023" lon="-2.52052">
        <ele>136.39999389648</ele>
        <time>2022-09-29T08:58:19.000Z</time>
      </trkpt>
      <trkpt lat="47.30013" lon="-2.51981">
        <ele>136.39999389648</ele>
        <time>2022-09-29T08:58:27.000Z</time>
      </trkpt>
      <trkpt lat="47.30009" lon="-2.51965">
        <ele>136.39999389648</ele>
        <time>2022-09-29T08:58:29.000Z</time>
      </trkpt>
      <trkpt lat="47.30001" lon="-2.51948">
        <ele>136.39999389648</ele>
        <time>2022-09-29T08:58:31.000Z</time>
      </trkpt>
      <trkpt lat="47.29982" lon="-2.51916">
        <ele>136.39999389648</ele>
        <time>2022-09-29T08:58:36.000Z</time>
      </trkpt>
      <trkpt lat="47.29973" lon="-2.51897">
        <ele>136.39999389648</ele>
        <time>2022-09-29T08:58:39.000Z</time>
      </trkpt>
      <trkpt lat="47.29972" lon="-2.51892">
        <ele>136.39999389648</ele>
        <time>2022-09-29T08:58:40.000Z</time>
      </trkpt>
      <trkpt lat="47.29971" lon="-2.51886">
        <ele>136.39999389648</ele>
        <time>2022-09-29T08:58:42.000Z</time>
      </trkpt>
      <trkpt lat="47.29972" lon="-2.51884">
        <ele>136.39999389648</ele>
        <time>2022-09-29T08:58:43.000Z</time>
      </trkpt>
      <trkpt lat="47.29977" lon="-2.51879">
        <ele>136.39999389648</ele>
        <time>2022-09-29T08:58:46.000Z</time>
      </trkpt>
      <trkpt lat="47.2998" lon="-2.51877">
        <ele>136.39999389648</ele>
        <time>2022-09-29T08:58:48.000Z</time>
      </trkpt>
      <trkpt lat="47.29984" lon="-2.51875">
        <ele>136.39999389648</ele>
        <time>2022-09-29T08:58:51.000Z</time>
      </trkpt>
      <trkpt lat="47.29986" lon="-2.51873">
        <ele>136.39999389648</ele>
        <time>2022-09-29T08:59:20.000Z</time>
      </trkpt>
      <trkpt lat="47.29987" lon="-2.51871">
        <ele>136.39999389648</ele>
        <time>2022-09-29T08:59:21.000Z</time>
      </trkpt>
      <trkpt lat="47.2999" lon="-2.51853">
        <ele>136.39999389648</ele>
        <time>2022-09-29T08:59:26.000Z</time>
      </trkpt>
      <trkpt lat="47.29983" lon="-2.51834">
        <ele>136.39999389648</ele>
        <time>2022-09-29T08:59:30.000Z</time>
      </trkpt>
      <trkpt lat="47.29981" lon="-2.51829">
        <ele>136.39999389648</ele>
        <time>2022-09-29T08:59:31.000Z</time>
      </trkpt>
      <trkpt lat="47.29972" lon="-2.51809">
        <ele>136.39999389648</ele>
        <time>2022-09-29T08:59:35.000Z</time>
      </trkpt>
      <trkpt lat="47.29966" lon="-2.51799">
        <ele>136.39999389648</ele>
        <time>2022-09-29T08:59:37.000Z</time>
      </trkpt>
      <trkpt lat="47.29944" lon="-2.51751">
        <ele>136.39999389648</ele>
        <time>2022-09-29T08:59:45.000Z</time>
      </trkpt>
      <trkpt lat="47.29921" lon="-2.51691">
        <ele>136.39999389648</ele>
        <time>2022-09-29T08:59:54.000Z</time>
      </trkpt>
      <trkpt lat="47.29903" lon="-2.5164">
        <ele>136.39999389648</ele>
        <time>2022-09-29T09:00:01.000Z</time>
      </trkpt>
      <trkpt lat="47.29891" lon="-2.51595">
        <ele>136.39999389648</ele>
        <time>2022-09-29T09:00:07.000Z</time>
      </trkpt>
      <trkpt lat="47.29889" lon="-2.51587">
        <ele>136.39999389648</ele>
        <time>2022-09-29T09:00:08.000Z</time>
      </trkpt>
      <trkpt lat="47.29873" lon="-2.51529">
        <ele>136.39999389648</ele>
        <time>2022-09-29T09:00:16.000Z</time>
      </trkpt>
      <trkpt lat="47.29871" lon="-2.51523">
        <ele>136.39999389648</ele>
        <time>2022-09-29T09:00:17.000Z</time>
      </trkpt>
      <trkpt lat="47.29865" lon="-2.51522">
        <ele>136.39999389648</ele>
        <time>2022-09-29T09:00:19.000Z</time>
      </trkpt>
      <trkpt lat="47.29854" lon="-2.51529">
        <ele>136.39999389648</ele>
        <time>2022-09-29T09:00:22.000Z</time>
      </trkpt>
      <trkpt lat="47.2985" lon="-2.51531">
        <ele>136.39999389648</ele>
        <time>2022-09-29T09:00:23.000Z</time>
      </trkpt>
      <trkpt lat="47.29836" lon="-2.5154">
        <ele>136.39999389648</ele>
        <time>2022-09-29T09:00:28.000Z</time>
      </trkpt>
      <trkpt lat="47.29832" lon="-2.51543">
        <ele>136.39999389648</ele>
        <time>2022-09-29T09:00:31.000Z</time>
      </trkpt>
      <trkpt lat="47.29831" lon="-2.51544">
        <ele>136.39999389648</ele>
        <time>2022-09-29T09:00:32.000Z</time>
      </trkpt>
      <trkpt lat="47.29831" lon="-2.51545">
        <ele>136.39999389648</ele>
        <time>2022-09-29T09:00:33.000Z</time>
      </trkpt>
      <trkpt lat="47.2983" lon="-2.51543">
        <ele>136.39999389648</ele>
        <time>2022-09-29T09:00:41.000Z</time>
      </trkpt>
      <trkpt lat="47.29829" lon="-2.51542">
        <ele>136.39999389648</ele>
        <time>2022-09-29T09:00:42.000Z</time>
      </trkpt>
      <trkpt lat="47.29825" lon="-2.51531">
        <ele>136.39999389648</ele>
        <time>2022-09-29T09:00:47.000Z</time>
      </trkpt>
      <trkpt lat="47.29824" lon="-2.51529">
        <ele>136.39999389648</ele>
        <time>2022-09-29T09:00:49.000Z</time>
      </trkpt>
      <trkpt lat="47.29821" lon="-2.51526">
        <ele>136.39999389648</ele>
        <time>2022-09-29T09:01:24.000Z</time>
      </trkpt>
      <trkpt lat="47.2982" lon="-2.51526">
        <ele>136.39999389648</ele>
        <time>2022-09-29T09:01:25.000Z</time>
      </trkpt>
      <trkpt lat="47.29818" lon="-2.51532">
        <ele>136.39999389648</ele>
        <time>2022-09-29T09:01:28.000Z</time>
      </trkpt>
      <trkpt lat="47.29825" lon="-2.51549">
        <ele>136.39999389648</ele>
        <time>2022-09-29T09:01:32.000Z</time>
      </trkpt>
      <trkpt lat="47.29827" lon="-2.51553">
        <ele>136.39999389648</ele>
        <time>2022-09-29T09:01:33.000Z</time>
      </trkpt>
      <trkpt lat="47.29838" lon="-2.51584">
        <ele>136.39999389648</ele>
        <time>2022-09-29T09:01:39.000Z</time>
      </trkpt>
      <trkpt lat="47.29851" lon="-2.51629">
        <ele>136.39999389648</ele>
        <time>2022-09-29T09:01:46.000Z</time>
      </trkpt>
      <trkpt lat="47.29859" lon="-2.51667">
        <ele>136.39999389648</ele>
        <time>2022-09-29T09:01:52.000Z</time>
      </trkpt>
      <trkpt lat="47.29875" lon="-2.51713">
        <ele>136.39999389648</ele>
        <time>2022-09-29T09:01:59.000Z</time>
      </trkpt>
      <trkpt lat="47.2989" lon="-2.5176">
        <ele>136.39999389648</ele>
        <time>2022-09-29T09:02:06.000Z</time>
      </trkpt>
      <trkpt lat="47.29908" lon="-2.51808">
        <ele>136.80000305176</ele>
        <time>2022-09-29T09:02:13.000Z</time>
      </trkpt>
      <trkpt lat="47.29912" lon="-2.51814">
        <ele>137.39999389648</ele>
        <time>2022-09-29T09:02:14.000Z</time>
      </trkpt>
      <trkpt lat="47.29915" lon="-2.5182">
        <ele>137.80000305176</ele>
        <time>2022-09-29T09:02:15.000Z</time>
      </trkpt>
      <trkpt lat="47.29919" lon="-2.51825">
        <ele>138.19999694824</ele>
        <time>2022-09-29T09:02:16.000Z</time>
      </trkpt>
      <trkpt lat="47.29922" lon="-2.51831">
        <ele>138.60000610352</ele>
        <time>2022-09-29T09:02:17.000Z</time>
      </trkpt>
      <trkpt lat="47.29938" lon="-2.51852">
        <ele>138.60000610352</ele>
        <time>2022-09-29T09:02:21.000Z</time>
      </trkpt>
      <trkpt lat="47.29967" lon="-2.51892">
        <ele>138.60000610352</ele>
        <time>2022-09-29T09:02:28.000Z</time>
      </trkpt>
      <trkpt lat="47.29992" lon="-2.51927">
        <ele>138.60000610352</ele>
        <time>2022-09-29T09:02:34.000Z</time>
      </trkpt>
      <trkpt lat="47.30015" lon="-2.51968">
        <ele>138.60000610352</ele>
        <time>2022-09-29T09:02:41.000Z</time>
      </trkpt>
      <trkpt lat="47.30017" lon="-2.51975">
        <ele>138.60000610352</ele>
        <time>2022-09-29T09:02:42.000Z</time>
      </trkpt>
      <trkpt lat="47.30023" lon="-2.52005">
        <ele>138.60000610352</ele>
        <time>2022-09-29T09:02:46.000Z</time>
      </trkpt>
      <trkpt lat="47.30028" lon="-2.52062">
        <ele>138.60000610352</ele>
        <time>2022-09-29T09:02:53.000Z</time>
      </trkpt>
      <trkpt lat="47.30034" lon="-2.52111">
        <ele>138.60000610352</ele>
        <time>2022-09-29T09:02:59.000Z</time>
      </trkpt>
      <trkpt lat="47.30042" lon="-2.52189">
        <ele>138.60000610352</ele>
        <time>2022-09-29T09:03:08.000Z</time>
      </trkpt>
      <trkpt lat="47.30046" lon="-2.5225">
        <ele>138.60000610352</ele>
        <time>2022-09-29T09:03:15.000Z</time>
      </trkpt>
      <trkpt lat="47.30047" lon="-2.52259">
        <ele>138.60000610352</ele>
        <time>2022-09-29T09:03:16.000Z</time>
      </trkpt>
      <trkpt lat="47.30052" lon="-2.52292">
        <ele>138.60000610352</ele>
        <time>2022-09-29T09:03:20.000Z</time>
      </trkpt>
      <trkpt lat="47.30057" lon="-2.52337">
        <ele>138.60000610352</ele>
        <time>2022-09-29T09:03:25.000Z</time>
      </trkpt>
      <trkpt lat="47.30064" lon="-2.52391">
        <ele>138.19999694824</ele>
        <time>2022-09-29T09:03:31.000Z</time>
      </trkpt>
      <trkpt lat="47.30066" lon="-2.52401">
        <ele>137.80000305176</ele>
        <time>2022-09-29T09:03:32.000Z</time>
      </trkpt>
      <trkpt lat="47.30067" lon="-2.5241">
        <ele>137.39999389648</ele>
        <time>2022-09-29T09:03:33.000Z</time>
      </trkpt>
      <trkpt lat="47.30068" lon="-2.52419">
        <ele>137</ele>
        <time>2022-09-29T09:03:34.000Z</time>
      </trkpt>
      <trkpt lat="47.30069" lon="-2.52428">
        <ele>136.60000610352</ele>
        <time>2022-09-29T09:03:35.000Z</time>
      </trkpt>
      <trkpt lat="47.30076" lon="-2.52486">
        <ele>136.60000610352</ele>
        <time>2022-09-29T09:03:41.000Z</time>
      </trkpt>
      <trkpt lat="47.30084" lon="-2.52566">
        <ele>136.60000610352</ele>
        <time>2022-09-29T09:03:49.000Z</time>
      </trkpt>
      <trkpt lat="47.30085" lon="-2.52576">
        <ele>136.60000610352</ele>
        <time>2022-09-29T09:03:50.000Z</time>
      </trkpt>
      <trkpt lat="47.30093" lon="-2.52658">
        <ele>136.60000610352</ele>
        <time>2022-09-29T09:03:58.000Z</time>
      </trkpt>
      <trkpt lat="47.30095" lon="-2.52716">
        <ele>136.60000610352</ele>
        <time>2022-09-29T09:04:04.000Z</time>
      </trkpt>
      <trkpt lat="47.30089" lon="-2.5277">
        <ele>136.60000610352</ele>
        <time>2022-09-29T09:04:10.000Z</time>
      </trkpt>
      <trkpt lat="47.30081" lon="-2.52821">
        <ele>136.60000610352</ele>
        <time>2022-09-29T09:04:16.000Z</time>
      </trkpt>
      <trkpt lat="47.30072" lon="-2.52877">
        <ele>136.60000610352</ele>
        <time>2022-09-29T09:04:23.000Z</time>
      </trkpt>
      <trkpt lat="47.30059" lon="-2.52936">
        <ele>136.60000610352</ele>
        <time>2022-09-29T09:04:30.000Z</time>
      </trkpt>
      <trkpt lat="47.30055" lon="-2.52952">
        <ele>137</ele>
        <time>2022-09-29T09:04:32.000Z</time>
      </trkpt>
      <trkpt lat="47.30053" lon="-2.52959">
        <ele>137.39999389648</ele>
        <time>2022-09-29T09:04:33.000Z</time>
      </trkpt>
      <trkpt lat="47.30052" lon="-2.52967">
        <ele>137.80000305176</ele>
        <time>2022-09-29T09:04:34.000Z</time>
      </trkpt>
      <trkpt lat="47.3005" lon="-2.52974">
        <ele>138.19999694824</ele>
        <time>2022-09-29T09:04:35.000Z</time>
      </trkpt>
      <trkpt lat="47.30048" lon="-2.52981">
        <ele>138.60000610352</ele>
        <time>2022-09-29T09:04:36.000Z</time>
      </trkpt>
      <trkpt lat="47.30044" lon="-2.52996">
        <ele>138.60000610352</ele>
        <time>2022-09-29T09:04:38.000Z</time>
      </trkpt>
      <trkpt lat="47.30039" lon="-2.53017">
        <ele>138.60000610352</ele>
        <time>2022-09-29T09:04:41.000Z</time>
      </trkpt>
      <trkpt lat="47.30031" lon="-2.53022">
        <ele>138.60000610352</ele>
        <time>2022-09-29T09:04:43.000Z</time>
      </trkpt>
      <trkpt lat="47.30016" lon="-2.53011">
        <ele>138.60000610352</ele>
        <time>2022-09-29T09:04:46.000Z</time>
      </trkpt>
      <trkpt lat="47.30012" lon="-2.53005">
        <ele>138.60000610352</ele>
        <time>2022-09-29T09:04:47.000Z</time>
      </trkpt>
      <trkpt lat="47.29985" lon="-2.52974">
        <ele>138.60000610352</ele>
        <time>2022-09-29T09:04:52.000Z</time>
      </trkpt>
      <trkpt lat="47.29962" lon="-2.52954">
        <ele>138.60000610352</ele>
        <time>2022-09-29T09:04:56.000Z</time>
      </trkpt>
      <trkpt lat="47.29956" lon="-2.52956">
        <ele>138.60000610352</ele>
        <time>2022-09-29T09:04:57.000Z</time>
      </trkpt>
      <trkpt lat="47.29941" lon="-2.52971">
        <ele>138.60000610352</ele>
        <time>2022-09-29T09:05:00.000Z</time>
      </trkpt>
      <trkpt lat="47.29924" lon="-2.52986">
        <ele>138.60000610352</ele>
        <time>2022-09-29T09:05:03.000Z</time>
      </trkpt>
      <trkpt lat="47.29911" lon="-2.52989">
        <ele>138.60000610352</ele>
        <time>2022-09-29T09:05:05.000Z</time>
      </trkpt>
      <trkpt lat="47.29893" lon="-2.52978">
        <ele>138.60000610352</ele>
        <time>2022-09-29T09:05:09.000Z</time>
      </trkpt>
      <trkpt lat="47.29887" lon="-2.52973">
        <ele>138.60000610352</ele>
        <time>2022-09-29T09:05:10.000Z</time>
      </trkpt>
      <trkpt lat="47.29858" lon="-2.52945">
        <ele>138.60000610352</ele>
        <time>2022-09-29T09:05:15.000Z</time>
      </trkpt>
      <trkpt lat="47.29832" lon="-2.52906">
        <ele>138.60000610352</ele>
        <time>2022-09-29T09:05:20.000Z</time>
      </trkpt>
      <trkpt lat="47.29812" lon="-2.52861">
        <ele>138.60000610352</ele>
        <time>2022-09-29T09:05:25.000Z</time>
      </trkpt>
      <trkpt lat="47.29786" lon="-2.52802">
        <ele>138.60000610352</ele>
        <time>2022-09-29T09:05:32.000Z</time>
      </trkpt>
      <trkpt lat="47.29772" lon="-2.5278">
        <ele>138.60000610352</ele>
        <time>2022-09-29T09:05:35.000Z</time>
      </trkpt>
      <trkpt lat="47.29767" lon="-2.52774">
        <ele>138.60000610352</ele>
        <time>2022-09-29T09:05:36.000Z</time>
      </trkpt>
      <trkpt lat="47.29732" lon="-2.52733">
        <ele>138.60000610352</ele>
        <time>2022-09-29T09:05:43.000Z</time>
      </trkpt>
      <trkpt lat="47.29701" lon="-2.52698">
        <ele>138.60000610352</ele>
        <time>2022-09-29T09:05:49.000Z</time>
      </trkpt>
      <trkpt lat="47.29686" lon="-2.52683">
        <ele>138.60000610352</ele>
        <time>2022-09-29T09:05:52.000Z</time>
      </trkpt>
      <trkpt lat="47.29673" lon="-2.52676">
        <ele>138.60000610352</ele>
        <time>2022-09-29T09:05:54.000Z</time>
      </trkpt>
      <trkpt lat="47.29647" lon="-2.52674">
        <ele>138.60000610352</ele>
        <time>2022-09-29T09:05:58.000Z</time>
      </trkpt>
      <trkpt lat="47.29626" lon="-2.52681">
        <ele>138.60000610352</ele>
        <time>2022-09-29T09:06:01.000Z</time>
      </trkpt>
      <trkpt lat="47.29613" lon="-2.52686">
        <ele>138.60000610352</ele>
        <time>2022-09-29T09:06:03.000Z</time>
      </trkpt>
      <trkpt lat="47.29574" lon="-2.52704">
        <ele>138.60000610352</ele>
        <time>2022-09-29T09:06:09.000Z</time>
      </trkpt>
      <trkpt lat="47.29522" lon="-2.52729">
        <ele>138.60000610352</ele>
        <time>2022-09-29T09:06:18.000Z</time>
      </trkpt>
      <trkpt lat="47.29477" lon="-2.52748">
        <ele>138.60000610352</ele>
        <time>2022-09-29T09:06:26.000Z</time>
      </trkpt>
      <trkpt lat="47.2946" lon="-2.52754">
        <ele>139</ele>
        <time>2022-09-29T09:06:29.000Z</time>
      </trkpt>
      <trkpt lat="47.29455" lon="-2.52756">
        <ele>139.39999389648</ele>
        <time>2022-09-29T09:06:30.000Z</time>
      </trkpt>
      <trkpt lat="47.29449" lon="-2.52758">
        <ele>139.80000305176</ele>
        <time>2022-09-29T09:06:31.000Z</time>
      </trkpt>
      <trkpt lat="47.29444" lon="-2.5276">
        <ele>140.19999694824</ele>
        <time>2022-09-29T09:06:32.000Z</time>
      </trkpt>
      <trkpt lat="47.29438" lon="-2.52763">
        <ele>140.80000305176</ele>
        <time>2022-09-29T09:06:33.000Z</time>
      </trkpt>
      <trkpt lat="47.29433" lon="-2.52764">
        <ele>140.80000305176</ele>
        <time>2022-09-29T09:06:34.000Z</time>
      </trkpt>
      <trkpt lat="47.29399" lon="-2.52775">
        <ele>140.80000305176</ele>
        <time>2022-09-29T09:06:41.000Z</time>
      </trkpt>
      <trkpt lat="47.2939" lon="-2.52778">
        <ele>140.80000305176</ele>
        <time>2022-09-29T09:06:43.000Z</time>
      </trkpt>
      <trkpt lat="47.29382" lon="-2.52774">
        <ele>140.80000305176</ele>
        <time>2022-09-29T09:06:45.000Z</time>
      </trkpt>
      <trkpt lat="47.29378" lon="-2.52762">
        <ele>141.19999694824</ele>
        <time>2022-09-29T09:06:47.000Z</time>
      </trkpt>
      <trkpt lat="47.29377" lon="-2.52755">
        <ele>141.60000610352</ele>
        <time>2022-09-29T09:06:48.000Z</time>
      </trkpt>
      <trkpt lat="47.29375" lon="-2.52748">
        <ele>142</ele>
        <time>2022-09-29T09:06:49.000Z</time>
      </trkpt>
      <trkpt lat="47.29373" lon="-2.52741">
        <ele>142.39999389648</ele>
        <time>2022-09-29T09:06:50.000Z</time>
      </trkpt>
      <trkpt lat="47.29371" lon="-2.52734">
        <ele>142.80000305176</ele>
        <time>2022-09-29T09:06:51.000Z</time>
      </trkpt>
      <trkpt lat="47.29364" lon="-2.52705">
        <ele>142.80000305176</ele>
        <time>2022-09-29T09:06:55.000Z</time>
      </trkpt>
      <trkpt lat="47.29352" lon="-2.52653">
        <ele>142.80000305176</ele>
        <time>2022-09-29T09:07:02.000Z</time>
      </trkpt>
      <trkpt lat="47.29349" lon="-2.52637">
        <ele>142.80000305176</ele>
        <time>2022-09-29T09:07:04.000Z</time>
      </trkpt>
      <trkpt lat="47.29344" lon="-2.52613">
        <ele>142.80000305176</ele>
        <time>2022-09-29T09:07:07.000Z</time>
      </trkpt>
      <trkpt lat="47.29333" lon="-2.52553">
        <ele>142.80000305176</ele>
        <time>2022-09-29T09:07:14.000Z</time>
      </trkpt>
      <trkpt lat="47.29327" lon="-2.52529">
        <ele>142.80000305176</ele>
        <time>2022-09-29T09:07:17.000Z</time>
      </trkpt>
      <trkpt lat="47.29323" lon="-2.52524">
        <ele>142.80000305176</ele>
        <time>2022-09-29T09:07:18.000Z</time>
      </trkpt>
      <trkpt lat="47.29305" lon="-2.52508">
        <ele>142.80000305176</ele>
        <time>2022-09-29T09:07:23.000Z</time>
      </trkpt>
      <trkpt lat="47.2928" lon="-2.52493">
        <ele>142.80000305176</ele>
        <time>2022-09-29T09:07:29.000Z</time>
      </trkpt>
      <trkpt lat="47.29253" lon="-2.52474">
        <ele>143.19999694824</ele>
        <time>2022-09-29T09:07:35.000Z</time>
      </trkpt>
      <trkpt lat="47.29249" lon="-2.52473">
        <ele>143.60000610352</ele>
        <time>2022-09-29T09:07:36.000Z</time>
      </trkpt>
      <trkpt lat="47.29246" lon="-2.52469">
        <ele>144</ele>
        <time>2022-09-29T09:07:37.000Z</time>
      </trkpt>
      <trkpt lat="47.29243" lon="-2.52465">
        <ele>144.39999389648</ele>
        <time>2022-09-29T09:07:38.000Z</time>
      </trkpt>
      <trkpt lat="47.29241" lon="-2.52461">
        <ele>144.80000305176</ele>
        <time>2022-09-29T09:07:39.000Z</time>
      </trkpt>
      <trkpt lat="47.29238" lon="-2.52435">
        <ele>144.80000305176</ele>
        <time>2022-09-29T09:07:43.000Z</time>
      </trkpt>
      <trkpt lat="47.29238" lon="-2.52373">
        <ele>144.80000305176</ele>
        <time>2022-09-29T09:07:51.000Z</time>
      </trkpt>
      <trkpt lat="47.29238" lon="-2.52322">
        <ele>144.80000305176</ele>
        <time>2022-09-29T09:07:57.000Z</time>
      </trkpt>
      <trkpt lat="47.29237" lon="-2.52258">
        <ele>144.80000305176</ele>
        <time>2022-09-29T09:08:04.000Z</time>
      </trkpt>
      <trkpt lat="47.29234" lon="-2.52191">
        <ele>144.80000305176</ele>
        <time>2022-09-29T09:08:11.000Z</time>
      </trkpt>
      <trkpt lat="47.29231" lon="-2.52153">
        <ele>144.80000305176</ele>
        <time>2022-09-29T09:08:15.000Z</time>
      </trkpt>
      <trkpt lat="47.29231" lon="-2.52143">
        <ele>144.80000305176</ele>
        <time>2022-09-29T09:08:16.000Z</time>
      </trkpt>
      <trkpt lat="47.29226" lon="-2.52076">
        <ele>144.80000305176</ele>
        <time>2022-09-29T09:08:23.000Z</time>
      </trkpt>
      <trkpt lat="47.29221" lon="-2.52023">
        <ele>144.80000305176</ele>
        <time>2022-09-29T09:08:29.000Z</time>
      </trkpt>
      <trkpt lat="47.29209" lon="-2.51976">
        <ele>144.80000305176</ele>
        <time>2022-09-29T09:08:35.000Z</time>
      </trkpt>
      <trkpt lat="47.29188" lon="-2.5191">
        <ele>144.80000305176</ele>
        <time>2022-09-29T09:08:43.000Z</time>
      </trkpt>
      <trkpt lat="47.29187" lon="-2.519">
        <ele>144.80000305176</ele>
        <time>2022-09-29T09:08:44.000Z</time>
      </trkpt>
      <trkpt lat="47.29183" lon="-2.5186">
        <ele>144.80000305176</ele>
        <time>2022-09-29T09:08:48.000Z</time>
      </trkpt>
      <trkpt lat="47.29183" lon="-2.51849">
        <ele>144.80000305176</ele>
        <time>2022-09-29T09:08:49.000Z</time>
      </trkpt>
      <trkpt lat="47.29183" lon="-2.51809">
        <ele>144.80000305176</ele>
        <time>2022-09-29T09:08:53.000Z</time>
      </trkpt>
      <trkpt lat="47.29179" lon="-2.5175">
        <ele>144.80000305176</ele>
        <time>2022-09-29T09:08:59.000Z</time>
      </trkpt>
      <trkpt lat="47.29168" lon="-2.51695">
        <ele>144.80000305176</ele>
        <time>2022-09-29T09:09:05.000Z</time>
      </trkpt>
      <trkpt lat="47.29159" lon="-2.51662">
        <ele>144.80000305176</ele>
        <time>2022-09-29T09:09:09.000Z</time>
      </trkpt>
      <trkpt lat="47.29153" lon="-2.51647">
        <ele>144.80000305176</ele>
        <time>2022-09-29T09:09:11.000Z</time>
      </trkpt>
      <trkpt lat="47.29129" lon="-2.51598">
        <ele>144.80000305176</ele>
        <time>2022-09-29T09:09:17.000Z</time>
      </trkpt>
      <trkpt lat="47.29102" lon="-2.51547">
        <ele>144.80000305176</ele>
        <time>2022-09-29T09:09:23.000Z</time>
      </trkpt>
      <trkpt lat="47.2907" lon="-2.51485">
        <ele>144.80000305176</ele>
        <time>2022-09-29T09:09:30.000Z</time>
      </trkpt>
      <trkpt lat="47.29057" lon="-2.51461">
        <ele>144.39999389648</ele>
        <time>2022-09-29T09:09:33.000Z</time>
      </trkpt>
      <trkpt lat="47.29053" lon="-2.51452">
        <ele>144</ele>
        <time>2022-09-29T09:09:34.000Z</time>
      </trkpt>
      <trkpt lat="47.29049" lon="-2.51444">
        <ele>143.60000610352</ele>
        <time>2022-09-29T09:09:35.000Z</time>
      </trkpt>
      <trkpt lat="47.29045" lon="-2.51436">
        <ele>143.19999694824</ele>
        <time>2022-09-29T09:09:36.000Z</time>
      </trkpt>
      <trkpt lat="47.29041" lon="-2.51428">
        <ele>142.80000305176</ele>
        <time>2022-09-29T09:09:37.000Z</time>
      </trkpt>
      <trkpt lat="47.29017" lon="-2.5138">
        <ele>142.80000305176</ele>
        <time>2022-09-29T09:09:43.000Z</time>
      </trkpt>
      <trkpt lat="47.29007" lon="-2.51358">
        <ele>142.80000305176</ele>
        <time>2022-09-29T09:09:46.000Z</time>
      </trkpt>
      <trkpt lat="47.29002" lon="-2.51341">
        <ele>142.80000305176</ele>
        <time>2022-09-29T09:09:48.000Z</time>
      </trkpt>
      <trkpt lat="47.28982" lon="-2.51295">
        <ele>142.80000305176</ele>
        <time>2022-09-29T09:09:54.000Z</time>
      </trkpt>
      <trkpt lat="47.2895" lon="-2.51229">
        <ele>142.80000305176</ele>
        <time>2022-09-29T09:10:03.000Z</time>
      </trkpt>
      <trkpt lat="47.28921" lon="-2.51167">
        <ele>142.80000305176</ele>
        <time>2022-09-29T09:10:11.000Z</time>
      </trkpt>
      <trkpt lat="47.28893" lon="-2.51108">
        <ele>142.80000305176</ele>
        <time>2022-09-29T09:10:19.000Z</time>
      </trkpt>
      <trkpt lat="47.28866" lon="-2.51056">
        <ele>142.80000305176</ele>
        <time>2022-09-29T09:10:26.000Z</time>
      </trkpt>
      <trkpt lat="47.2884" lon="-2.51022">
        <ele>142.80000305176</ele>
        <time>2022-09-29T09:10:32.000Z</time>
      </trkpt>
      <trkpt lat="47.28804" lon="-2.50978">
        <ele>142.80000305176</ele>
        <time>2022-09-29T09:10:40.000Z</time>
      </trkpt>
      <trkpt lat="47.28789" lon="-2.50961">
        <ele>142.80000305176</ele>
        <time>2022-09-29T09:10:44.000Z</time>
      </trkpt>
      <trkpt lat="47.28786" lon="-2.50956">
        <ele>142.80000305176</ele>
        <time>2022-09-29T09:10:45.000Z</time>
      </trkpt>
      <trkpt lat="47.28781" lon="-2.50951">
        <ele>142.80000305176</ele>
        <time>2022-09-29T09:10:46.000Z</time>
      </trkpt>
      <trkpt lat="47.28766" lon="-2.50936">
        <ele>142.80000305176</ele>
        <time>2022-09-29T09:10:49.000Z</time>
      </trkpt>
      <trkpt lat="47.28752" lon="-2.5092">
        <ele>142.80000305176</ele>
        <time>2022-09-29T09:10:52.000Z</time>
      </trkpt>
      <trkpt lat="47.28742" lon="-2.50909">
        <ele>142.80000305176</ele>
        <time>2022-09-29T09:10:54.000Z</time>
      </trkpt>
      <trkpt lat="47.28714" lon="-2.50875">
        <ele>142.80000305176</ele>
        <time>2022-09-29T09:11:00.000Z</time>
      </trkpt>
      <trkpt lat="47.28685" lon="-2.50839">
        <ele>142.80000305176</ele>
        <time>2022-09-29T09:11:06.000Z</time>
      </trkpt>
      <trkpt lat="47.28646" lon="-2.50797">
        <ele>142.80000305176</ele>
        <time>2022-09-29T09:11:13.000Z</time>
      </trkpt>
      <trkpt lat="47.28616" lon="-2.50771">
        <ele>142.39999389648</ele>
        <time>2022-09-29T09:11:18.000Z</time>
      </trkpt>
      <trkpt lat="47.2861" lon="-2.50766">
        <ele>142</ele>
        <time>2022-09-29T09:11:19.000Z</time>
      </trkpt>
      <trkpt lat="47.28604" lon="-2.5076">
        <ele>141.60000610352</ele>
        <time>2022-09-29T09:11:20.000Z</time>
      </trkpt>
      <trkpt lat="47.28598" lon="-2.50753">
        <ele>141.19999694824</ele>
        <time>2022-09-29T09:11:21.000Z</time>
      </trkpt>
      <trkpt lat="47.28592" lon="-2.50746">
        <ele>140.80000305176</ele>
        <time>2022-09-29T09:11:22.000Z</time>
      </trkpt>
      <trkpt lat="47.28558" lon="-2.50708">
        <ele>140.80000305176</ele>
        <time>2022-09-29T09:11:28.000Z</time>
      </trkpt>
      <trkpt lat="47.28512" lon="-2.50655">
        <ele>140.80000305176</ele>
        <time>2022-09-29T09:11:36.000Z</time>
      </trkpt>
      <trkpt lat="47.28473" lon="-2.5061">
        <ele>140.80000305176</ele>
        <time>2022-09-29T09:11:43.000Z</time>
      </trkpt>
      <trkpt lat="47.28431" lon="-2.50558">
        <ele>140.80000305176</ele>
        <time>2022-09-29T09:11:51.000Z</time>
      </trkpt>
      <trkpt lat="47.28413" lon="-2.50527">
        <ele>140.80000305176</ele>
        <time>2022-09-29T09:11:55.000Z</time>
      </trkpt>
      <trkpt lat="47.28405" lon="-2.50508">
        <ele>140.80000305176</ele>
        <time>2022-09-29T09:11:57.000Z</time>
      </trkpt>
      <trkpt lat="47.28401" lon="-2.50498">
        <ele>140.39999389648</ele>
        <time>2022-09-29T09:11:58.000Z</time>
      </trkpt>
      <trkpt lat="47.28398" lon="-2.50488">
        <ele>140</ele>
        <time>2022-09-29T09:11:59.000Z</time>
      </trkpt>
      <trkpt lat="47.28394" lon="-2.50478">
        <ele>139.60000610352</ele>
        <time>2022-09-29T09:12:00.000Z</time>
      </trkpt>
      <trkpt lat="47.28391" lon="-2.50468">
        <ele>139.19999694824</ele>
        <time>2022-09-29T09:12:01.000Z</time>
      </trkpt>
      <trkpt lat="47.28387" lon="-2.50458">
        <ele>138.80000305176</ele>
        <time>2022-09-29T09:12:02.000Z</time>
      </trkpt>
      <trkpt lat="47.2838" lon="-2.50438">
        <ele>138.80000305176</ele>
        <time>2022-09-29T09:12:04.000Z</time>
      </trkpt>
      <trkpt lat="47.28357" lon="-2.50384">
        <ele>138.80000305176</ele>
        <time>2022-09-29T09:12:10.000Z</time>
      </trkpt>
      <trkpt lat="47.28333" lon="-2.50363">
        <ele>138.80000305176</ele>
        <time>2022-09-29T09:12:14.000Z</time>
      </trkpt>
      <trkpt lat="47.28318" lon="-2.50346">
        <ele>138.80000305176</ele>
        <time>2022-09-29T09:12:17.000Z</time>
      </trkpt>
      <trkpt lat="47.28308" lon="-2.50335">
        <ele>138.80000305176</ele>
        <time>2022-09-29T09:12:19.000Z</time>
      </trkpt>
      <trkpt lat="47.28292" lon="-2.50325">
        <ele>138.80000305176</ele>
        <time>2022-09-29T09:12:22.000Z</time>
      </trkpt>
      <trkpt lat="47.28288" lon="-2.50317">
        <ele>138.80000305176</ele>
        <time>2022-09-29T09:12:23.000Z</time>
      </trkpt>
      <trkpt lat="47.28274" lon="-2.50302">
        <ele>138.80000305176</ele>
        <time>2022-09-29T09:12:26.000Z</time>
      </trkpt>
      <trkpt lat="47.28261" lon="-2.50272">
        <ele>138.80000305176</ele>
        <time>2022-09-29T09:12:30.000Z</time>
      </trkpt>
      <trkpt lat="47.28252" lon="-2.50258">
        <ele>138.80000305176</ele>
        <time>2022-09-29T09:12:32.000Z</time>
      </trkpt>
      <trkpt lat="47.28248" lon="-2.50252">
        <ele>138.80000305176</ele>
        <time>2022-09-29T09:12:33.000Z</time>
      </trkpt>
      <trkpt lat="47.28242" lon="-2.50247">
        <ele>138.80000305176</ele>
        <time>2022-09-29T09:12:34.000Z</time>
      </trkpt>
      <trkpt lat="47.28222" lon="-2.50212">
        <ele>138.80000305176</ele>
        <time>2022-09-29T09:12:39.000Z</time>
      </trkpt>
      <trkpt lat="47.28204" lon="-2.50162">
        <ele>138.80000305176</ele>
        <time>2022-09-29T09:12:45.000Z</time>
      </trkpt>
      <trkpt lat="47.28201" lon="-2.50145">
        <ele>138.80000305176</ele>
        <time>2022-09-29T09:12:47.000Z</time>
      </trkpt>
      <trkpt lat="47.28196" lon="-2.50117">
        <ele>138.80000305176</ele>
        <time>2022-09-29T09:12:50.000Z</time>
      </trkpt>
      <trkpt lat="47.28183" lon="-2.50063">
        <ele>138.80000305176</ele>
        <time>2022-09-29T09:12:56.000Z</time>
      </trkpt>
      <trkpt lat="47.28182" lon="-2.50054">
        <ele>138.80000305176</ele>
        <time>2022-09-29T09:12:57.000Z</time>
      </trkpt>
      <trkpt lat="47.28175" lon="-2.50019">
        <ele>138.80000305176</ele>
        <time>2022-09-29T09:13:01.000Z</time>
      </trkpt>
      <trkpt lat="47.28168" lon="-2.49974">
        <ele>138.80000305176</ele>
        <time>2022-09-29T09:13:06.000Z</time>
      </trkpt>
      <trkpt lat="47.28159" lon="-2.49921">
        <ele>138.80000305176</ele>
        <time>2022-09-29T09:13:12.000Z</time>
      </trkpt>
      <trkpt lat="47.28157" lon="-2.49905">
        <ele>138.80000305176</ele>
        <time>2022-09-29T09:13:14.000Z</time>
      </trkpt>
      <trkpt lat="47.28154" lon="-2.49878">
        <ele>138.80000305176</ele>
        <time>2022-09-29T09:13:17.000Z</time>
      </trkpt>
      <trkpt lat="47.28146" lon="-2.49827">
        <ele>138.80000305176</ele>
        <time>2022-09-29T09:13:23.000Z</time>
      </trkpt>
      <trkpt lat="47.2814" lon="-2.49777">
        <ele>138.80000305176</ele>
        <time>2022-09-29T09:13:29.000Z</time>
      </trkpt>
      <trkpt lat="47.28137" lon="-2.49754">
        <ele>139.19999694824</ele>
        <time>2022-09-29T09:13:32.000Z</time>
      </trkpt>
      <trkpt lat="47.28137" lon="-2.49747">
        <ele>140</ele>
        <time>2022-09-29T09:13:33.000Z</time>
      </trkpt>
      <trkpt lat="47.28135" lon="-2.49739">
        <ele>140.39999389648</ele>
        <time>2022-09-29T09:13:34.000Z</time>
      </trkpt>
      <trkpt lat="47.28135" lon="-2.49732">
        <ele>141</ele>
        <time>2022-09-29T09:13:35.000Z</time>
      </trkpt>
      <trkpt lat="47.28132" lon="-2.49717">
        <ele>141</ele>
        <time>2022-09-29T09:13:37.000Z</time>
      </trkpt>
      <trkpt lat="47.28125" lon="-2.49669">
        <ele>141</ele>
        <time>2022-09-29T09:13:44.000Z</time>
      </trkpt>
      <trkpt lat="47.28122" lon="-2.49658">
        <ele>141</ele>
        <time>2022-09-29T09:13:46.000Z</time>
      </trkpt>
      <trkpt lat="47.28115" lon="-2.49642">
        <ele>141</ele>
        <time>2022-09-29T09:13:49.000Z</time>
      </trkpt>
      <trkpt lat="47.28104" lon="-2.49625">
        <ele>141</ele>
        <time>2022-09-29T09:13:53.000Z</time>
      </trkpt>
      <trkpt lat="47.28101" lon="-2.49621">
        <ele>141</ele>
        <time>2022-09-29T09:13:54.000Z</time>
      </trkpt>
      <trkpt lat="47.28089" lon="-2.49612">
        <ele>141</ele>
        <time>2022-09-29T09:13:58.000Z</time>
      </trkpt>
      <trkpt lat="47.28086" lon="-2.49613">
        <ele>141</ele>
        <time>2022-09-29T09:13:59.000Z</time>
      </trkpt>
      <trkpt lat="47.28068" lon="-2.49624">
        <ele>141</ele>
        <time>2022-09-29T09:14:04.000Z</time>
      </trkpt>
      <trkpt lat="47.28064" lon="-2.49627">
        <ele>141</ele>
        <time>2022-09-29T09:14:05.000Z</time>
      </trkpt>
      <trkpt lat="47.28041" lon="-2.49648">
        <ele>141</ele>
        <time>2022-09-29T09:14:12.000Z</time>
      </trkpt>
      <trkpt lat="47.28024" lon="-2.49661">
        <ele>141</ele>
        <time>2022-09-29T09:14:18.000Z</time>
      </trkpt>
      <trkpt lat="47.28008" lon="-2.49675">
        <ele>141</ele>
        <time>2022-09-29T09:14:25.000Z</time>
      </trkpt>
      <trkpt lat="47.27994" lon="-2.49679">
        <ele>141</ele>
        <time>2022-09-29T09:14:32.000Z</time>
      </trkpt>
      <trkpt lat="47.27984" lon="-2.49668">
        <ele>141</ele>
        <time>2022-09-29T09:14:37.000Z</time>
      </trkpt>
      <trkpt lat="47.27968" lon="-2.49638">
        <ele>141</ele>
        <time>2022-09-29T09:14:46.000Z</time>
      </trkpt>
      <trkpt lat="47.27957" lon="-2.49612">
        <ele>141</ele>
        <time>2022-09-29T09:14:52.000Z</time>
      </trkpt>
      <trkpt lat="47.27939" lon="-2.49585">
        <ele>141</ele>
        <time>2022-09-29T09:14:59.000Z</time>
      </trkpt>
      <trkpt lat="47.27919" lon="-2.49556">
        <ele>141</ele>
        <time>2022-09-29T09:15:07.000Z</time>
      </trkpt>
      <trkpt lat="47.27903" lon="-2.49528">
        <ele>141</ele>
        <time>2022-09-29T09:15:14.000Z</time>
      </trkpt>
      <trkpt lat="47.27887" lon="-2.49504">
        <ele>141</ele>
        <time>2022-09-29T09:15:21.000Z</time>
      </trkpt>
      <trkpt lat="47.27876" lon="-2.49497">
        <ele>141</ele>
        <time>2022-09-29T09:15:24.000Z</time>
      </trkpt>
      <trkpt lat="47.27868" lon="-2.49492">
        <ele>141</ele>
        <time>2022-09-29T09:15:26.000Z</time>
      </trkpt>
      <trkpt lat="47.27846" lon="-2.49472">
        <ele>141</ele>
        <time>2022-09-29T09:15:32.000Z</time>
      </trkpt>
      <trkpt lat="47.27827" lon="-2.49455">
        <ele>141</ele>
        <time>2022-09-29T09:15:38.000Z</time>
      </trkpt>
      <trkpt lat="47.27813" lon="-2.49444">
        <ele>141</ele>
        <time>2022-09-29T09:15:44.000Z</time>
      </trkpt>
      <trkpt lat="47.27807" lon="-2.49434">
        <ele>141</ele>
        <time>2022-09-29T09:15:48.000Z</time>
      </trkpt>
      <trkpt lat="47.27807" lon="-2.4943">
        <ele>141</ele>
        <time>2022-09-29T09:15:49.000Z</time>
      </trkpt>
      <trkpt lat="47.27811" lon="-2.49414">
        <ele>141</ele>
        <time>2022-09-29T09:15:53.000Z</time>
      </trkpt>
      <trkpt lat="47.27812" lon="-2.49409">
        <ele>141</ele>
        <time>2022-09-29T09:15:54.000Z</time>
      </trkpt>
      <trkpt lat="47.27812" lon="-2.49393">
        <ele>141</ele>
        <time>2022-09-29T09:15:57.000Z</time>
      </trkpt>
      <trkpt lat="47.27814" lon="-2.49387">
        <ele>141</ele>
        <time>2022-09-29T09:15:58.000Z</time>
      </trkpt>
      <trkpt lat="47.27817" lon="-2.49361">
        <ele>141</ele>
        <time>2022-09-29T09:16:02.000Z</time>
      </trkpt>
      <trkpt lat="47.27818" lon="-2.49355">
        <ele>141</ele>
        <time>2022-09-29T09:16:03.000Z</time>
      </trkpt>
      <trkpt lat="47.27826" lon="-2.49325">
        <ele>141.39999389648</ele>
        <time>2022-09-29T09:16:08.000Z</time>
      </trkpt>
      <trkpt lat="47.27828" lon="-2.4932">
        <ele>141.80000305176</ele>
        <time>2022-09-29T09:16:09.000Z</time>
      </trkpt>
      <trkpt lat="47.27829" lon="-2.49314">
        <ele>142.19999694824</ele>
        <time>2022-09-29T09:16:10.000Z</time>
      </trkpt>
      <trkpt lat="47.27831" lon="-2.49308">
        <ele>142.60000610352</ele>
        <time>2022-09-29T09:16:11.000Z</time>
      </trkpt>
      <trkpt lat="47.27833" lon="-2.49302">
        <ele>143</ele>
        <time>2022-09-29T09:16:12.000Z</time>
      </trkpt>
      <trkpt lat="47.27835" lon="-2.49277">
        <ele>143</ele>
        <time>2022-09-29T09:16:17.000Z</time>
      </trkpt>
      <trkpt lat="47.27825" lon="-2.4927">
        <ele>143</ele>
        <time>2022-09-29T09:16:20.000Z</time>
      </trkpt>
      <trkpt lat="47.27817" lon="-2.49268">
        <ele>143</ele>
        <time>2022-09-29T09:16:22.000Z</time>
      </trkpt>
      <trkpt lat="47.27802" lon="-2.49263">
        <ele>143</ele>
        <time>2022-09-29T09:16:25.000Z</time>
      </trkpt>
      <trkpt lat="47.27791" lon="-2.49262">
        <ele>143</ele>
        <time>2022-09-29T09:16:27.000Z</time>
      </trkpt>
      <trkpt lat="47.27768" lon="-2.49259">
        <ele>143</ele>
        <time>2022-09-29T09:16:31.000Z</time>
      </trkpt>
      <trkpt lat="47.27721" lon="-2.49258">
        <ele>143</ele>
        <time>2022-09-29T09:16:39.000Z</time>
      </trkpt>
      <trkpt lat="47.27689" lon="-2.49253">
        <ele>143</ele>
        <time>2022-09-29T09:16:45.000Z</time>
      </trkpt>
      <trkpt lat="47.27668" lon="-2.49246">
        <ele>143</ele>
        <time>2022-09-29T09:16:49.000Z</time>
      </trkpt>
      <trkpt lat="47.27657" lon="-2.49242">
        <ele>143</ele>
        <time>2022-09-29T09:16:51.000Z</time>
      </trkpt>
      <trkpt lat="47.27651" lon="-2.49241">
        <ele>143</ele>
        <time>2022-09-29T09:16:52.000Z</time>
      </trkpt>
      <trkpt lat="47.27634" lon="-2.49236">
        <ele>143</ele>
        <time>2022-09-29T09:16:55.000Z</time>
      </trkpt>
      <trkpt lat="47.27623" lon="-2.49212">
        <ele>143</ele>
        <time>2022-09-29T09:16:58.000Z</time>
      </trkpt>
      <trkpt lat="47.27606" lon="-2.49183">
        <ele>143</ele>
        <time>2022-09-29T09:17:02.000Z</time>
      </trkpt>
      <trkpt lat="47.27602" lon="-2.49175">
        <ele>143</ele>
        <time>2022-09-29T09:17:03.000Z</time>
      </trkpt>
      <trkpt lat="47.27596" lon="-2.49158">
        <ele>143</ele>
        <time>2022-09-29T09:17:05.000Z</time>
      </trkpt>
      <trkpt lat="47.2759" lon="-2.49131">
        <ele>143</ele>
        <time>2022-09-29T09:17:08.000Z</time>
      </trkpt>
      <trkpt lat="47.27588" lon="-2.49122">
        <ele>143</ele>
        <time>2022-09-29T09:17:09.000Z</time>
      </trkpt>
      <trkpt lat="47.27587" lon="-2.49084">
        <ele>143</ele>
        <time>2022-09-29T09:17:13.000Z</time>
      </trkpt>
      <trkpt lat="47.2759" lon="-2.4901">
        <ele>143</ele>
        <time>2022-09-29T09:17:21.000Z</time>
      </trkpt>
      <trkpt lat="47.27595" lon="-2.4894">
        <ele>143</ele>
        <time>2022-09-29T09:17:29.000Z</time>
      </trkpt>
      <trkpt lat="47.27597" lon="-2.48914">
        <ele>143.39999389648</ele>
        <time>2022-09-29T09:17:32.000Z</time>
      </trkpt>
      <trkpt lat="47.27597" lon="-2.48906">
        <ele>143.80000305176</ele>
        <time>2022-09-29T09:17:33.000Z</time>
      </trkpt>
      <trkpt lat="47.27598" lon="-2.48899">
        <ele>144.19999694824</ele>
        <time>2022-09-29T09:17:34.000Z</time>
      </trkpt>
      <trkpt lat="47.27599" lon="-2.48892">
        <ele>144.60000610352</ele>
        <time>2022-09-29T09:17:35.000Z</time>
      </trkpt>
      <trkpt lat="47.27599" lon="-2.48887">
        <ele>145</ele>
        <time>2022-09-29T09:17:36.000Z</time>
      </trkpt>
      <trkpt lat="47.27597" lon="-2.48883">
        <ele>145</ele>
        <time>2022-09-29T09:17:37.000Z</time>
      </trkpt>
      <trkpt lat="47.27589" lon="-2.48882">
        <ele>145</ele>
        <time>2022-09-29T09:17:39.000Z</time>
      </trkpt>
      <trkpt lat="47.27581" lon="-2.48884">
        <ele>145</ele>
        <time>2022-09-29T09:17:41.000Z</time>
      </trkpt>
      <trkpt lat="47.27572" lon="-2.48886">
        <ele>145</ele>
        <time>2022-09-29T09:17:43.000Z</time>
      </trkpt>
      <trkpt lat="47.27541" lon="-2.48895">
        <ele>145</ele>
        <time>2022-09-29T09:17:50.000Z</time>
      </trkpt>
      <trkpt lat="47.27519" lon="-2.489">
        <ele>144.60000610352</ele>
        <time>2022-09-29T09:17:55.000Z</time>
      </trkpt>
      <trkpt lat="47.27514" lon="-2.48901">
        <ele>144.19999694824</ele>
        <time>2022-09-29T09:17:56.000Z</time>
      </trkpt>
      <trkpt lat="47.27509" lon="-2.48901">
        <ele>143.80000305176</ele>
        <time>2022-09-29T09:17:57.000Z</time>
      </trkpt>
      <trkpt lat="47.27504" lon="-2.48903">
        <ele>143.19999694824</ele>
        <time>2022-09-29T09:17:58.000Z</time>
      </trkpt>
      <trkpt lat="47.275" lon="-2.48903">
        <ele>142.80000305176</ele>
        <time>2022-09-29T09:17:59.000Z</time>
      </trkpt>
      <trkpt lat="47.27493" lon="-2.489">
        <ele>142.80000305176</ele>
        <time>2022-09-29T09:18:01.000Z</time>
      </trkpt>
      <trkpt lat="47.27492" lon="-2.48885">
        <ele>142.80000305176</ele>
        <time>2022-09-29T09:18:04.000Z</time>
      </trkpt>
      <trkpt lat="47.2749" lon="-2.48874">
        <ele>142.80000305176</ele>
        <time>2022-09-29T09:18:06.000Z</time>
      </trkpt>
      <trkpt lat="47.27489" lon="-2.48854">
        <ele>142.80000305176</ele>
        <time>2022-09-29T09:18:09.000Z</time>
      </trkpt>
      <trkpt lat="47.27485" lon="-2.48803">
        <ele>142.80000305176</ele>
        <time>2022-09-29T09:18:16.000Z</time>
      </trkpt>
      <trkpt lat="47.27489" lon="-2.48779">
        <ele>142.80000305176</ele>
        <time>2022-09-29T09:18:21.000Z</time>
      </trkpt>
      <trkpt lat="47.275" lon="-2.48774">
        <ele>142.80000305176</ele>
        <time>2022-09-29T09:18:24.000Z</time>
      </trkpt>
      <trkpt lat="47.27512" lon="-2.48768">
        <ele>142.80000305176</ele>
        <time>2022-09-29T09:18:27.000Z</time>
      </trkpt>
      <trkpt lat="47.27518" lon="-2.48758">
        <ele>142.80000305176</ele>
        <time>2022-09-29T09:18:29.000Z</time>
      </trkpt>
      <trkpt lat="47.27532" lon="-2.4874">
        <ele>142.80000305176</ele>
        <time>2022-09-29T09:18:33.000Z</time>
      </trkpt>
      <trkpt lat="47.27535" lon="-2.48729">
        <ele>142.80000305176</ele>
        <time>2022-09-29T09:18:35.000Z</time>
      </trkpt>
      <trkpt lat="47.2753" lon="-2.48712">
        <ele>142.80000305176</ele>
        <time>2022-09-29T09:18:38.000Z</time>
      </trkpt>
      <trkpt lat="47.27528" lon="-2.48707">
        <ele>142.80000305176</ele>
        <time>2022-09-29T09:18:39.000Z</time>
      </trkpt>
      <trkpt lat="47.27523" lon="-2.48684">
        <ele>142.80000305176</ele>
        <time>2022-09-29T09:18:44.000Z</time>
      </trkpt>
      <trkpt lat="47.27517" lon="-2.48673">
        <ele>142.80000305176</ele>
        <time>2022-09-29T09:18:46.000Z</time>
      </trkpt>
      <trkpt lat="47.27511" lon="-2.48663">
        <ele>142.80000305176</ele>
        <time>2022-09-29T09:18:48.000Z</time>
      </trkpt>
      <trkpt lat="47.275" lon="-2.48642">
        <ele>142.80000305176</ele>
        <time>2022-09-29T09:18:52.000Z</time>
      </trkpt>
      <trkpt lat="47.27498" lon="-2.48637">
        <ele>142.80000305176</ele>
        <time>2022-09-29T09:18:53.000Z</time>
      </trkpt>
      <trkpt lat="47.27488" lon="-2.48612">
        <ele>142.80000305176</ele>
        <time>2022-09-29T09:18:57.000Z</time>
      </trkpt>
      <trkpt lat="47.27485" lon="-2.48605">
        <ele>142.80000305176</ele>
        <time>2022-09-29T09:18:58.000Z</time>
      </trkpt>
      <trkpt lat="47.27483" lon="-2.48598">
        <ele>142.80000305176</ele>
        <time>2022-09-29T09:18:59.000Z</time>
      </trkpt>
      <trkpt lat="47.27477" lon="-2.48572">
        <ele>142.80000305176</ele>
        <time>2022-09-29T09:19:03.000Z</time>
      </trkpt>
      <trkpt lat="47.2747" lon="-2.48556">
        <ele>142.80000305176</ele>
        <time>2022-09-29T09:19:06.000Z</time>
      </trkpt>
      <trkpt lat="47.27468" lon="-2.48541">
        <ele>142.80000305176</ele>
        <time>2022-09-29T09:19:08.000Z</time>
      </trkpt>
      <trkpt lat="47.27468" lon="-2.48525">
        <ele>142.80000305176</ele>
        <time>2022-09-29T09:19:10.000Z</time>
      </trkpt>
      <trkpt lat="47.27467" lon="-2.48493">
        <ele>142.80000305176</ele>
        <time>2022-09-29T09:19:14.000Z</time>
      </trkpt>
      <trkpt lat="47.27461" lon="-2.48442">
        <ele>142.80000305176</ele>
        <time>2022-09-29T09:19:21.000Z</time>
      </trkpt>
      <trkpt lat="47.27456" lon="-2.4842">
        <ele>142.80000305176</ele>
        <time>2022-09-29T09:19:24.000Z</time>
      </trkpt>
      <trkpt lat="47.27448" lon="-2.48393">
        <ele>142.80000305176</ele>
        <time>2022-09-29T09:19:28.000Z</time>
      </trkpt>
      <trkpt lat="47.27445" lon="-2.48387">
        <ele>142.80000305176</ele>
        <time>2022-09-29T09:19:29.000Z</time>
      </trkpt>
      <trkpt lat="47.27433" lon="-2.48346">
        <ele>142.80000305176</ele>
        <time>2022-09-29T09:19:35.000Z</time>
      </trkpt>
      <trkpt lat="47.27423" lon="-2.48289">
        <ele>142.80000305176</ele>
        <time>2022-09-29T09:19:42.000Z</time>
      </trkpt>
      <trkpt lat="47.27415" lon="-2.48229">
        <ele>142.80000305176</ele>
        <time>2022-09-29T09:19:49.000Z</time>
      </trkpt>
      <trkpt lat="47.27409" lon="-2.48197">
        <ele>143.19999694824</ele>
        <time>2022-09-29T09:19:53.000Z</time>
      </trkpt>
      <trkpt lat="47.27408" lon="-2.48189">
        <ele>143.60000610352</ele>
        <time>2022-09-29T09:19:54.000Z</time>
      </trkpt>
      <trkpt lat="47.27408" lon="-2.48182">
        <ele>144</ele>
        <time>2022-09-29T09:19:55.000Z</time>
      </trkpt>
      <trkpt lat="47.27408" lon="-2.48175">
        <ele>144.39999389648</ele>
        <time>2022-09-29T09:19:56.000Z</time>
      </trkpt>
      <trkpt lat="47.27407" lon="-2.48167">
        <ele>144.80000305176</ele>
        <time>2022-09-29T09:19:57.000Z</time>
      </trkpt>
      <trkpt lat="47.27408" lon="-2.48138">
        <ele>144.80000305176</ele>
        <time>2022-09-29T09:20:01.000Z</time>
      </trkpt>
      <trkpt lat="47.27411" lon="-2.48132">
        <ele>144.80000305176</ele>
        <time>2022-09-29T09:20:02.000Z</time>
      </trkpt>
      <trkpt lat="47.27424" lon="-2.48128">
        <ele>144.80000305176</ele>
        <time>2022-09-29T09:20:05.000Z</time>
      </trkpt>
      <trkpt lat="47.27433" lon="-2.4813">
        <ele>144.80000305176</ele>
        <time>2022-09-29T09:20:07.000Z</time>
      </trkpt>
      <trkpt lat="47.27445" lon="-2.48129">
        <ele>144.80000305176</ele>
        <time>2022-09-29T09:20:10.000Z</time>
      </trkpt>
      <trkpt lat="47.27449" lon="-2.48127">
        <ele>144.80000305176</ele>
        <time>2022-09-29T09:20:11.000Z</time>
      </trkpt>
      <trkpt lat="47.27453" lon="-2.48125">
        <ele>145.19999694824</ele>
        <time>2022-09-29T09:20:12.000Z</time>
      </trkpt>
      <trkpt lat="47.27456" lon="-2.48123">
        <ele>145.80000305176</ele>
        <time>2022-09-29T09:20:13.000Z</time>
      </trkpt>
      <trkpt lat="47.2746" lon="-2.48123">
        <ele>146.19999694824</ele>
        <time>2022-09-29T09:20:14.000Z</time>
      </trkpt>
      <trkpt lat="47.27464" lon="-2.48121">
        <ele>146.60000610352</ele>
        <time>2022-09-29T09:20:15.000Z</time>
      </trkpt>
      <trkpt lat="47.27468" lon="-2.4812">
        <ele>147</ele>
        <time>2022-09-29T09:20:16.000Z</time>
      </trkpt>
      <trkpt lat="47.27489" lon="-2.48115">
        <ele>147</ele>
        <time>2022-09-29T09:20:21.000Z</time>
      </trkpt>
      <trkpt lat="47.27493" lon="-2.48109">
        <ele>147</ele>
        <time>2022-09-29T09:20:23.000Z</time>
      </trkpt>
      <trkpt lat="47.27491" lon="-2.48104">
        <ele>147</ele>
        <time>2022-09-29T09:20:24.000Z</time>
      </trkpt>
      <trkpt lat="47.2748" lon="-2.48083">
        <ele>147</ele>
        <time>2022-09-29T09:20:28.000Z</time>
      </trkpt>
      <trkpt lat="47.27464" lon="-2.48047">
        <ele>147</ele>
        <time>2022-09-29T09:20:33.000Z</time>
      </trkpt>
      <trkpt lat="47.27444" lon="-2.47997">
        <ele>147</ele>
        <time>2022-09-29T09:20:39.000Z</time>
      </trkpt>
      <trkpt lat="47.2745" lon="-2.47968">
        <ele>147</ele>
        <time>2022-09-29T09:20:42.000Z</time>
      </trkpt>
      <trkpt lat="47.27445" lon="-2.47929">
        <ele>147</ele>
        <time>2022-09-29T09:20:46.000Z</time>
      </trkpt>
      <trkpt lat="47.27439" lon="-2.4791">
        <ele>147</ele>
        <time>2022-09-29T09:20:48.000Z</time>
      </trkpt>
      <trkpt lat="47.27436" lon="-2.47901">
        <ele>146.60000610352</ele>
        <time>2022-09-29T09:20:49.000Z</time>
      </trkpt>
      <trkpt lat="47.27435" lon="-2.47891">
        <ele>146.19999694824</ele>
        <time>2022-09-29T09:20:50.000Z</time>
      </trkpt>
      <trkpt lat="47.27436" lon="-2.4788">
        <ele>145.80000305176</ele>
        <time>2022-09-29T09:20:51.000Z</time>
      </trkpt>
      <trkpt lat="47.27439" lon="-2.4787">
        <ele>145.39999389648</ele>
        <time>2022-09-29T09:20:52.000Z</time>
      </trkpt>
      <trkpt lat="47.27443" lon="-2.47862">
        <ele>145</ele>
        <time>2022-09-29T09:20:53.000Z</time>
      </trkpt>
      <trkpt lat="47.27447" lon="-2.47854">
        <ele>145</ele>
        <time>2022-09-29T09:20:54.000Z</time>
      </trkpt>
      <trkpt lat="47.27451" lon="-2.47846">
        <ele>145</ele>
        <time>2022-09-29T09:20:55.000Z</time>
      </trkpt>
      <trkpt lat="47.27464" lon="-2.47816">
        <ele>145</ele>
        <time>2022-09-29T09:20:59.000Z</time>
      </trkpt>
      <trkpt lat="47.27465" lon="-2.47808">
        <ele>145</ele>
        <time>2022-09-29T09:21:00.000Z</time>
      </trkpt>
      <trkpt lat="47.27456" lon="-2.47786">
        <ele>145</ele>
        <time>2022-09-29T09:21:03.000Z</time>
      </trkpt>
      <trkpt lat="47.27449" lon="-2.47774">
        <ele>145</ele>
        <time>2022-09-29T09:21:05.000Z</time>
      </trkpt>
      <trkpt lat="47.27438" lon="-2.47751">
        <ele>145</ele>
        <time>2022-09-29T09:21:08.000Z</time>
      </trkpt>
      <trkpt lat="47.27417" lon="-2.4772">
        <ele>145</ele>
        <time>2022-09-29T09:21:13.000Z</time>
      </trkpt>
      <trkpt lat="47.27398" lon="-2.47692">
        <ele>145</ele>
        <time>2022-09-29T09:21:18.000Z</time>
      </trkpt>
      <trkpt lat="47.27394" lon="-2.47688">
        <ele>145</ele>
        <time>2022-09-29T09:21:19.000Z</time>
      </trkpt>
      <trkpt lat="47.27379" lon="-2.47675">
        <ele>145</ele>
        <time>2022-09-29T09:21:22.000Z</time>
      </trkpt>
      <trkpt lat="47.27375" lon="-2.47669">
        <ele>145</ele>
        <time>2022-09-29T09:21:23.000Z</time>
      </trkpt>
      <trkpt lat="47.27372" lon="-2.47663">
        <ele>145</ele>
        <time>2022-09-29T09:21:24.000Z</time>
      </trkpt>
      <trkpt lat="47.27352" lon="-2.4764">
        <ele>145</ele>
        <time>2022-09-29T09:21:29.000Z</time>
      </trkpt>
      <trkpt lat="47.27331" lon="-2.4762">
        <ele>145.39999389648</ele>
        <time>2022-09-29T09:21:35.000Z</time>
      </trkpt>
      <trkpt lat="47.27327" lon="-2.47618">
        <ele>145.80000305176</ele>
        <time>2022-09-29T09:21:36.000Z</time>
      </trkpt>
      <trkpt lat="47.27323" lon="-2.47615">
        <ele>146.39999389648</ele>
        <time>2022-09-29T09:21:37.000Z</time>
      </trkpt>
      <trkpt lat="47.2732" lon="-2.4761">
        <ele>146.80000305176</ele>
        <time>2022-09-29T09:21:38.000Z</time>
      </trkpt>
      <trkpt lat="47.27318" lon="-2.47605">
        <ele>147.19999694824</ele>
        <time>2022-09-29T09:21:39.000Z</time>
      </trkpt>
      <trkpt lat="47.27316" lon="-2.476">
        <ele>147.19999694824</ele>
        <time>2022-09-29T09:21:40.000Z</time>
      </trkpt>
      <trkpt lat="47.27313" lon="-2.47595">
        <ele>147.60000610352</ele>
        <time>2022-09-29T09:21:41.000Z</time>
      </trkpt>
      <trkpt lat="47.2731" lon="-2.47592">
        <ele>148</ele>
        <time>2022-09-29T09:21:42.000Z</time>
      </trkpt>
      <trkpt lat="47.27306" lon="-2.4759">
        <ele>148.60000610352</ele>
        <time>2022-09-29T09:21:43.000Z</time>
      </trkpt>
      <trkpt lat="47.27304" lon="-2.47587">
        <ele>149</ele>
        <time>2022-09-29T09:21:44.000Z</time>
      </trkpt>
      <trkpt lat="47.27304" lon="-2.47584">
        <ele>149.39999389648</ele>
        <time>2022-09-29T09:21:45.000Z</time>
      </trkpt>
      <trkpt lat="47.27306" lon="-2.47577">
        <ele>149.39999389648</ele>
        <time>2022-09-29T09:21:47.000Z</time>
      </trkpt>
      <trkpt lat="47.27308" lon="-2.47573">
        <ele>149.39999389648</ele>
        <time>2022-09-29T09:21:49.000Z</time>
      </trkpt>
      <trkpt lat="47.27307" lon="-2.47569">
        <ele>149.39999389648</ele>
        <time>2022-09-29T09:21:50.000Z</time>
      </trkpt>
      <trkpt lat="47.27298" lon="-2.47555">
        <ele>149.39999389648</ele>
        <time>2022-09-29T09:21:53.000Z</time>
      </trkpt>
      <trkpt lat="47.27291" lon="-2.47536">
        <ele>149.39999389648</ele>
        <time>2022-09-29T09:21:56.000Z</time>
      </trkpt>
      <trkpt lat="47.27286" lon="-2.47522">
        <ele>149.39999389648</ele>
        <time>2022-09-29T09:21:58.000Z</time>
      </trkpt>
      <trkpt lat="47.27284" lon="-2.47513">
        <ele>149.39999389648</ele>
        <time>2022-09-29T09:21:59.000Z</time>
      </trkpt>
      <trkpt lat="47.27276" lon="-2.47483">
        <ele>149.39999389648</ele>
        <time>2022-09-29T09:22:03.000Z</time>
      </trkpt>
      <trkpt lat="47.27272" lon="-2.47462">
        <ele>149.39999389648</ele>
        <time>2022-09-29T09:22:06.000Z</time>
      </trkpt>
      <trkpt lat="47.27269" lon="-2.47449">
        <ele>149.39999389648</ele>
        <time>2022-09-29T09:22:08.000Z</time>
      </trkpt>
      <trkpt lat="47.27268" lon="-2.47442">
        <ele>149.39999389648</ele>
        <time>2022-09-29T09:22:09.000Z</time>
      </trkpt>
      <trkpt lat="47.27267" lon="-2.47434">
        <ele>149.39999389648</ele>
        <time>2022-09-29T09:22:10.000Z</time>
      </trkpt>
      <trkpt lat="47.27268" lon="-2.4742">
        <ele>149.39999389648</ele>
        <time>2022-09-29T09:22:12.000Z</time>
      </trkpt>
      <trkpt lat="47.27269" lon="-2.47414">
        <ele>149.39999389648</ele>
        <time>2022-09-29T09:22:13.000Z</time>
      </trkpt>
      <trkpt lat="47.2728" lon="-2.47397">
        <ele>149.39999389648</ele>
        <time>2022-09-29T09:22:17.000Z</time>
      </trkpt>
      <trkpt lat="47.27284" lon="-2.47393">
        <ele>149.39999389648</ele>
        <time>2022-09-29T09:22:18.000Z</time>
      </trkpt>
      <trkpt lat="47.27287" lon="-2.47389">
        <ele>149.39999389648</ele>
        <time>2022-09-29T09:22:19.000Z</time>
      </trkpt>
      <trkpt lat="47.27291" lon="-2.47375">
        <ele>149.39999389648</ele>
        <time>2022-09-29T09:22:21.000Z</time>
      </trkpt>
      <trkpt lat="47.27292" lon="-2.47369">
        <ele>149.39999389648</ele>
        <time>2022-09-29T09:22:22.000Z</time>
      </trkpt>
      <trkpt lat="47.27294" lon="-2.47337">
        <ele>149.39999389648</ele>
        <time>2022-09-29T09:22:27.000Z</time>
      </trkpt>
      <trkpt lat="47.273" lon="-2.47329">
        <ele>149.39999389648</ele>
        <time>2022-09-29T09:22:29.000Z</time>
      </trkpt>
      <trkpt lat="47.27303" lon="-2.47326">
        <ele>149.39999389648</ele>
        <time>2022-09-29T09:22:30.000Z</time>
      </trkpt>
      <trkpt lat="47.27314" lon="-2.47317">
        <ele>149.39999389648</ele>
        <time>2022-09-29T09:22:34.000Z</time>
      </trkpt>
      <trkpt lat="47.27317" lon="-2.47313">
        <ele>149.39999389648</ele>
        <time>2022-09-29T09:22:35.000Z</time>
      </trkpt>
      <trkpt lat="47.2733" lon="-2.47306">
        <ele>149.39999389648</ele>
        <time>2022-09-29T09:22:37.000Z</time>
      </trkpt>
      <trkpt lat="47.27347" lon="-2.473">
        <ele>149.39999389648</ele>
        <time>2022-09-29T09:22:40.000Z</time>
      </trkpt>
      <trkpt lat="47.27353" lon="-2.47297">
        <ele>149.39999389648</ele>
        <time>2022-09-29T09:22:41.000Z</time>
      </trkpt>
      <trkpt lat="47.27369" lon="-2.47283">
        <ele>149</ele>
        <time>2022-09-29T09:22:44.000Z</time>
      </trkpt>
      <trkpt lat="47.27375" lon="-2.47278">
        <ele>148.60000610352</ele>
        <time>2022-09-29T09:22:45.000Z</time>
      </trkpt>
      <trkpt lat="47.2738" lon="-2.47273">
        <ele>148.19999694824</ele>
        <time>2022-09-29T09:22:46.000Z</time>
      </trkpt>
      <trkpt lat="47.27385" lon="-2.47269">
        <ele>147.80000305176</ele>
        <time>2022-09-29T09:22:47.000Z</time>
      </trkpt>
      <trkpt lat="47.2739" lon="-2.47265">
        <ele>147.39999389648</ele>
        <time>2022-09-29T09:22:48.000Z</time>
      </trkpt>
      <trkpt lat="47.27405" lon="-2.47253">
        <ele>147.39999389648</ele>
        <time>2022-09-29T09:22:51.000Z</time>
      </trkpt>
      <trkpt lat="47.27421" lon="-2.47244">
        <ele>147.39999389648</ele>
        <time>2022-09-29T09:22:54.000Z</time>
      </trkpt>
      <trkpt lat="47.27436" lon="-2.47235">
        <ele>147.39999389648</ele>
        <time>2022-09-29T09:22:57.000Z</time>
      </trkpt>
      <trkpt lat="47.27453" lon="-2.47223">
        <ele>147.39999389648</ele>
        <time>2022-09-29T09:23:00.000Z</time>
      </trkpt>
      <trkpt lat="47.27458" lon="-2.47219">
        <ele>147</ele>
        <time>2022-09-29T09:23:01.000Z</time>
      </trkpt>
      <trkpt lat="47.27463" lon="-2.47216">
        <ele>146.39999389648</ele>
        <time>2022-09-29T09:23:02.000Z</time>
      </trkpt>
      <trkpt lat="47.27468" lon="-2.47212">
        <ele>146</ele>
        <time>2022-09-29T09:23:03.000Z</time>
      </trkpt>
      <trkpt lat="47.27473" lon="-2.47209">
        <ele>145.60000610352</ele>
        <time>2022-09-29T09:23:04.000Z</time>
      </trkpt>
      <trkpt lat="47.27477" lon="-2.47206">
        <ele>145.19999694824</ele>
        <time>2022-09-29T09:23:05.000Z</time>
      </trkpt>
      <trkpt lat="47.27487" lon="-2.47201">
        <ele>145.19999694824</ele>
        <time>2022-09-29T09:23:07.000Z</time>
      </trkpt>
      <trkpt lat="47.27497" lon="-2.47195">
        <ele>145.19999694824</ele>
        <time>2022-09-29T09:23:09.000Z</time>
      </trkpt>
      <trkpt lat="47.27503" lon="-2.47186">
        <ele>145.19999694824</ele>
        <time>2022-09-29T09:23:11.000Z</time>
      </trkpt>
      <trkpt lat="47.27499" lon="-2.47169">
        <ele>145.19999694824</ele>
        <time>2022-09-29T09:23:14.000Z</time>
      </trkpt>
      <trkpt lat="47.27483" lon="-2.47122">
        <ele>145.19999694824</ele>
        <time>2022-09-29T09:23:21.000Z</time>
      </trkpt>
      <trkpt lat="47.27467" lon="-2.47069">
        <ele>145.19999694824</ele>
        <time>2022-09-29T09:23:28.000Z</time>
      </trkpt>
      <trkpt lat="47.27449" lon="-2.47015">
        <ele>145.19999694824</ele>
        <time>2022-09-29T09:23:35.000Z</time>
      </trkpt>
      <trkpt lat="47.2744" lon="-2.46984">
        <ele>145.19999694824</ele>
        <time>2022-09-29T09:23:39.000Z</time>
      </trkpt>
      <trkpt lat="47.27439" lon="-2.46976">
        <ele>145.19999694824</ele>
        <time>2022-09-29T09:23:40.000Z</time>
      </trkpt>
      <trkpt lat="47.27438" lon="-2.46961">
        <ele>145.60000610352</ele>
        <time>2022-09-29T09:23:42.000Z</time>
      </trkpt>
      <trkpt lat="47.27441" lon="-2.46955">
        <ele>146</ele>
        <time>2022-09-29T09:23:43.000Z</time>
      </trkpt>
      <trkpt lat="47.27444" lon="-2.4695">
        <ele>146.39999389648</ele>
        <time>2022-09-29T09:23:44.000Z</time>
      </trkpt>
      <trkpt lat="47.27449" lon="-2.46946">
        <ele>146.80000305176</ele>
        <time>2022-09-29T09:23:45.000Z</time>
      </trkpt>
      <trkpt lat="47.27454" lon="-2.46943">
        <ele>147.19999694824</ele>
        <time>2022-09-29T09:23:46.000Z</time>
      </trkpt>
      <trkpt lat="47.27481" lon="-2.4692">
        <ele>147.19999694824</ele>
        <time>2022-09-29T09:23:51.000Z</time>
      </trkpt>
      <trkpt lat="47.27492" lon="-2.46911">
        <ele>147.19999694824</ele>
        <time>2022-09-29T09:23:53.000Z</time>
      </trkpt>
      <trkpt lat="47.27511" lon="-2.469">
        <ele>146.80000305176</ele>
        <time>2022-09-29T09:23:56.000Z</time>
      </trkpt>
      <trkpt lat="47.27518" lon="-2.46896">
        <ele>146.39999389648</ele>
        <time>2022-09-29T09:23:57.000Z</time>
      </trkpt>
      <trkpt lat="47.27524" lon="-2.46893">
        <ele>146</ele>
        <time>2022-09-29T09:23:58.000Z</time>
      </trkpt>
      <trkpt lat="47.2753" lon="-2.4689">
        <ele>145.60000610352</ele>
        <time>2022-09-29T09:23:59.000Z</time>
      </trkpt>
      <trkpt lat="47.27536" lon="-2.46886">
        <ele>145.19999694824</ele>
        <time>2022-09-29T09:24:00.000Z</time>
      </trkpt>
      <trkpt lat="47.27547" lon="-2.46878">
        <ele>145.19999694824</ele>
        <time>2022-09-29T09:24:02.000Z</time>
      </trkpt>
      <trkpt lat="47.27557" lon="-2.4687">
        <ele>145.19999694824</ele>
        <time>2022-09-29T09:24:04.000Z</time>
      </trkpt>
      <trkpt lat="47.27572" lon="-2.46859">
        <ele>145.19999694824</ele>
        <time>2022-09-29T09:24:07.000Z</time>
      </trkpt>
      <trkpt lat="47.27576" lon="-2.46856">
        <ele>144.80000305176</ele>
        <time>2022-09-29T09:24:08.000Z</time>
      </trkpt>
      <trkpt lat="47.27578" lon="-2.46854">
        <ele>144.39999389648</ele>
        <time>2022-09-29T09:24:09.000Z</time>
      </trkpt>
      <trkpt lat="47.2758" lon="-2.46852">
        <ele>144</ele>
        <time>2022-09-29T09:24:10.000Z</time>
      </trkpt>
      <trkpt lat="47.27581" lon="-2.46851">
        <ele>143.39999389648</ele>
        <time>2022-09-29T09:24:11.000Z</time>
      </trkpt>
      <trkpt lat="47.27582" lon="-2.4685">
        <ele>143</ele>
        <time>2022-09-29T09:24:12.000Z</time>
      </trkpt>
      <trkpt lat="47.27584" lon="-2.46846">
        <ele>143</ele>
        <time>2022-09-29T09:24:15.000Z</time>
      </trkpt>
      <trkpt lat="47.27584" lon="-2.46845">
        <ele>143</ele>
        <time>2022-09-29T09:24:16.000Z</time>
      </trkpt>
      <trkpt lat="47.27584" lon="-2.4684">
        <ele>143</ele>
        <time>2022-09-29T09:24:52.000Z</time>
      </trkpt>
      <trkpt lat="47.27584" lon="-2.46839">
        <ele>143</ele>
        <time>2022-09-29T09:24:53.000Z</time>
      </trkpt>
      <trkpt lat="47.27602" lon="-2.46829">
        <ele>143</ele>
        <time>2022-09-29T09:25:59.000Z</time>
      </trkpt>
      <trkpt lat="47.27612" lon="-2.46821">
        <ele>143</ele>
        <time>2022-09-29T09:26:04.000Z</time>
      </trkpt>
      <trkpt lat="47.27614" lon="-2.4682">
        <ele>143</ele>
        <time>2022-09-29T09:26:05.000Z</time>
      </trkpt>
      <trkpt lat="47.27624" lon="-2.46813">
        <ele>143</ele>
        <time>2022-09-29T09:26:10.000Z</time>
      </trkpt>
      <trkpt lat="47.27637" lon="-2.46803">
        <ele>143</ele>
        <time>2022-09-29T09:26:15.000Z</time>
      </trkpt>
      <trkpt lat="47.2764" lon="-2.46802">
        <ele>143</ele>
        <time>2022-09-29T09:26:16.000Z</time>
      </trkpt>
      <trkpt lat="47.27648" lon="-2.46801">
        <ele>143</ele>
        <time>2022-09-29T09:26:18.000Z</time>
      </trkpt>
      <trkpt lat="47.27666" lon="-2.46792">
        <ele>143</ele>
        <time>2022-09-29T09:26:23.000Z</time>
      </trkpt>
      <trkpt lat="47.27674" lon="-2.46788">
        <ele>142.60000610352</ele>
        <time>2022-09-29T09:26:25.000Z</time>
      </trkpt>
      <trkpt lat="47.27677" lon="-2.46785">
        <ele>142.19999694824</ele>
        <time>2022-09-29T09:26:26.000Z</time>
      </trkpt>
      <trkpt lat="47.27681" lon="-2.46782">
        <ele>141.80000305176</ele>
        <time>2022-09-29T09:26:27.000Z</time>
      </trkpt>
      <trkpt lat="47.27683" lon="-2.46778">
        <ele>141.39999389648</ele>
        <time>2022-09-29T09:26:28.000Z</time>
      </trkpt>
      <trkpt lat="47.27686" lon="-2.46776">
        <ele>141</ele>
        <time>2022-09-29T09:26:29.000Z</time>
      </trkpt>
      <trkpt lat="47.27692" lon="-2.46775">
        <ele>141</ele>
        <time>2022-09-29T09:26:31.000Z</time>
      </trkpt>
      <trkpt lat="47.27712" lon="-2.46774">
        <ele>141</ele>
        <time>2022-09-29T09:26:36.000Z</time>
      </trkpt>
      <trkpt lat="47.27737" lon="-2.46767">
        <ele>141</ele>
        <time>2022-09-29T09:26:43.000Z</time>
      </trkpt>
      <trkpt lat="47.27759" lon="-2.46764">
        <ele>141</ele>
        <time>2022-09-29T09:26:49.000Z</time>
      </trkpt>
      <trkpt lat="47.2776" lon="-2.46764">
        <ele>141</ele>
        <time>2022-09-29T09:26:50.000Z</time>
      </trkpt>
      <trkpt lat="47.27761" lon="-2.46763">
        <ele>141</ele>
        <time>2022-09-29T09:26:53.000Z</time>
      </trkpt>
      <trkpt lat="47.27761" lon="-2.46761">
        <ele>141</ele>
        <time>2022-09-29T09:26:54.000Z</time>
      </trkpt>
      <trkpt lat="47.27759" lon="-2.46744">
        <ele>141</ele>
        <time>2022-09-29T09:26:59.000Z</time>
      </trkpt>
      <trkpt lat="47.27757" lon="-2.46728">
        <ele>141</ele>
        <time>2022-09-29T09:27:02.000Z</time>
      </trkpt>
      <trkpt lat="47.27757" lon="-2.46714">
        <ele>141</ele>
        <time>2022-09-29T09:27:04.000Z</time>
      </trkpt>
      <trkpt lat="47.2776" lon="-2.46689">
        <ele>141</ele>
        <time>2022-09-29T09:27:08.000Z</time>
      </trkpt>
      <trkpt lat="47.27761" lon="-2.46657">
        <ele>141</ele>
        <time>2022-09-29T09:27:14.000Z</time>
      </trkpt>
      <trkpt lat="47.27762" lon="-2.46642">
        <ele>141</ele>
        <time>2022-09-29T09:27:17.000Z</time>
      </trkpt>
      <trkpt lat="47.2776" lon="-2.46637">
        <ele>141</ele>
        <time>2022-09-29T09:27:18.000Z</time>
      </trkpt>
      <trkpt lat="47.27758" lon="-2.46622">
        <ele>141</ele>
        <time>2022-09-29T09:27:21.000Z</time>
      </trkpt>
      <trkpt lat="47.27759" lon="-2.46618">
        <ele>141</ele>
        <time>2022-09-29T09:27:22.000Z</time>
      </trkpt>
      <trkpt lat="47.27762" lon="-2.46602">
        <ele>141</ele>
        <time>2022-09-29T09:27:25.000Z</time>
      </trkpt>
      <trkpt lat="47.27756" lon="-2.46589">
        <ele>141</ele>
        <time>2022-09-29T09:27:28.000Z</time>
      </trkpt>
      <trkpt lat="47.27747" lon="-2.46569">
        <ele>141</ele>
        <time>2022-09-29T09:27:32.000Z</time>
      </trkpt>
      <trkpt lat="47.27743" lon="-2.46556">
        <ele>141</ele>
        <time>2022-09-29T09:27:34.000Z</time>
      </trkpt>
      <trkpt lat="47.27741" lon="-2.46541">
        <ele>141.39999389648</ele>
        <time>2022-09-29T09:27:36.000Z</time>
      </trkpt>
      <trkpt lat="47.27739" lon="-2.46534">
        <ele>141.80000305176</ele>
        <time>2022-09-29T09:27:37.000Z</time>
      </trkpt>
      <trkpt lat="47.27737" lon="-2.46526">
        <ele>142.19999694824</ele>
        <time>2022-09-29T09:27:38.000Z</time>
      </trkpt>
      <trkpt lat="47.27736" lon="-2.46519">
        <ele>142.60000610352</ele>
        <time>2022-09-29T09:27:39.000Z</time>
      </trkpt>
      <trkpt lat="47.27734" lon="-2.46511">
        <ele>143</ele>
        <time>2022-09-29T09:27:40.000Z</time>
      </trkpt>
      <trkpt lat="47.27732" lon="-2.46503">
        <ele>143</ele>
        <time>2022-09-29T09:27:41.000Z</time>
      </trkpt>
      <trkpt lat="47.27723" lon="-2.46463">
        <ele>143</ele>
        <time>2022-09-29T09:27:46.000Z</time>
      </trkpt>
      <trkpt lat="47.2772" lon="-2.46457">
        <ele>143</ele>
        <time>2022-09-29T09:27:47.000Z</time>
      </trkpt>
      <trkpt lat="47.27698" lon="-2.46409">
        <ele>143</ele>
        <time>2022-09-29T09:27:54.000Z</time>
      </trkpt>
      <trkpt lat="47.27684" lon="-2.46369">
        <ele>143</ele>
        <time>2022-09-29T09:28:00.000Z</time>
      </trkpt>
      <trkpt lat="47.27677" lon="-2.46344">
        <ele>143</ele>
        <time>2022-09-29T09:28:05.000Z</time>
      </trkpt>
      <trkpt lat="47.27677" lon="-2.46342">
        <ele>143</ele>
        <time>2022-09-29T09:28:07.000Z</time>
      </trkpt>
      <trkpt lat="47.27675" lon="-2.46337">
        <ele>143</ele>
        <time>2022-09-29T09:28:39.000Z</time>
      </trkpt>
      <trkpt lat="47.27674" lon="-2.46323">
        <ele>143</ele>
        <time>2022-09-29T09:28:44.000Z</time>
      </trkpt>
      <trkpt lat="47.2767" lon="-2.46308">
        <ele>143</ele>
        <time>2022-09-29T09:28:47.000Z</time>
      </trkpt>
      <trkpt lat="47.27667" lon="-2.46303">
        <ele>143</ele>
        <time>2022-09-29T09:28:48.000Z</time>
      </trkpt>
      <trkpt lat="47.2766" lon="-2.46283">
        <ele>143</ele>
        <time>2022-09-29T09:28:52.000Z</time>
      </trkpt>
      <trkpt lat="47.27668" lon="-2.46269">
        <ele>143</ele>
        <time>2022-09-29T09:28:55.000Z</time>
      </trkpt>
      <trkpt lat="47.2767" lon="-2.46264">
        <ele>143</ele>
        <time>2022-09-29T09:28:56.000Z</time>
      </trkpt>
      <trkpt lat="47.27673" lon="-2.46244">
        <ele>143</ele>
        <time>2022-09-29T09:28:59.000Z</time>
      </trkpt>
      <trkpt lat="47.27671" lon="-2.4623">
        <ele>143</ele>
        <time>2022-09-29T09:29:01.000Z</time>
      </trkpt>
      <trkpt lat="47.2767" lon="-2.46215">
        <ele>143</ele>
        <time>2022-09-29T09:29:03.000Z</time>
      </trkpt>
      <trkpt lat="47.27669" lon="-2.46208">
        <ele>143</ele>
        <time>2022-09-29T09:29:04.000Z</time>
      </trkpt>
      <trkpt lat="47.27668" lon="-2.4617">
        <ele>143</ele>
        <time>2022-09-29T09:29:09.000Z</time>
      </trkpt>
      <trkpt lat="47.27668" lon="-2.46164">
        <ele>143</ele>
        <time>2022-09-29T09:29:10.000Z</time>
      </trkpt>
      <trkpt lat="47.27668" lon="-2.46157">
        <ele>143</ele>
        <time>2022-09-29T09:29:11.000Z</time>
      </trkpt>
      <trkpt lat="47.27664" lon="-2.46133">
        <ele>143</ele>
        <time>2022-09-29T09:29:14.000Z</time>
      </trkpt>
      <trkpt lat="47.27662" lon="-2.46125">
        <ele>143</ele>
        <time>2022-09-29T09:29:15.000Z</time>
      </trkpt>
      <trkpt lat="47.27653" lon="-2.46081">
        <ele>143</ele>
        <time>2022-09-29T09:29:20.000Z</time>
      </trkpt>
      <trkpt lat="47.27652" lon="-2.46073">
        <ele>143</ele>
        <time>2022-09-29T09:29:21.000Z</time>
      </trkpt>
      <trkpt lat="47.27647" lon="-2.46041">
        <ele>143</ele>
        <time>2022-09-29T09:29:25.000Z</time>
      </trkpt>
      <trkpt lat="47.27639" lon="-2.45997">
        <ele>142.60000610352</ele>
        <time>2022-09-29T09:29:30.000Z</time>
      </trkpt>
      <trkpt lat="47.27638" lon="-2.45988">
        <ele>142.19999694824</ele>
        <time>2022-09-29T09:29:31.000Z</time>
      </trkpt>
      <trkpt lat="47.27638" lon="-2.45978">
        <ele>141.80000305176</ele>
        <time>2022-09-29T09:29:32.000Z</time>
      </trkpt>
      <trkpt lat="47.27637" lon="-2.45969">
        <ele>141.39999389648</ele>
        <time>2022-09-29T09:29:33.000Z</time>
      </trkpt>
      <trkpt lat="47.27637" lon="-2.45959">
        <ele>140.80000305176</ele>
        <time>2022-09-29T09:29:34.000Z</time>
      </trkpt>
      <trkpt lat="47.27637" lon="-2.45928">
        <ele>140.80000305176</ele>
        <time>2022-09-29T09:29:37.000Z</time>
      </trkpt>
      <trkpt lat="47.27639" lon="-2.45872">
        <ele>140.80000305176</ele>
        <time>2022-09-29T09:29:43.000Z</time>
      </trkpt>
      <trkpt lat="47.2764" lon="-2.45855">
        <ele>140.80000305176</ele>
        <time>2022-09-29T09:29:45.000Z</time>
      </trkpt>
      <trkpt lat="47.27641" lon="-2.45826">
        <ele>140.80000305176</ele>
        <time>2022-09-29T09:29:49.000Z</time>
      </trkpt>
      <trkpt lat="47.2764" lon="-2.45819">
        <ele>140.80000305176</ele>
        <time>2022-09-29T09:29:50.000Z</time>
      </trkpt>
      <trkpt lat="47.27639" lon="-2.45776">
        <ele>140.80000305176</ele>
        <time>2022-09-29T09:29:56.000Z</time>
      </trkpt>
      <trkpt lat="47.27639" lon="-2.45753">
        <ele>140.80000305176</ele>
        <time>2022-09-29T09:29:59.000Z</time>
      </trkpt>
      <trkpt lat="47.27638" lon="-2.45747">
        <ele>140.80000305176</ele>
        <time>2022-09-29T09:30:00.000Z</time>
      </trkpt>
      <trkpt lat="47.27636" lon="-2.45735">
        <ele>141.39999389648</ele>
        <time>2022-09-29T09:30:02.000Z</time>
      </trkpt>
      <trkpt lat="47.27635" lon="-2.45729">
        <ele>141.80000305176</ele>
        <time>2022-09-29T09:30:03.000Z</time>
      </trkpt>
      <trkpt lat="47.27634" lon="-2.45723">
        <ele>142.19999694824</ele>
        <time>2022-09-29T09:30:04.000Z</time>
      </trkpt>
      <trkpt lat="47.27633" lon="-2.45718">
        <ele>142.60000610352</ele>
        <time>2022-09-29T09:30:05.000Z</time>
      </trkpt>
      <trkpt lat="47.27631" lon="-2.45713">
        <ele>143</ele>
        <time>2022-09-29T09:30:06.000Z</time>
      </trkpt>
      <trkpt lat="47.27625" lon="-2.45707">
        <ele>143</ele>
        <time>2022-09-29T09:30:08.000Z</time>
      </trkpt>
      <trkpt lat="47.27612" lon="-2.4571">
        <ele>143</ele>
        <time>2022-09-29T09:30:11.000Z</time>
      </trkpt>
      <trkpt lat="47.27607" lon="-2.45712">
        <ele>143</ele>
        <time>2022-09-29T09:30:12.000Z</time>
      </trkpt>
      <trkpt lat="47.27587" lon="-2.45721">
        <ele>143</ele>
        <time>2022-09-29T09:30:16.000Z</time>
      </trkpt>
      <trkpt lat="47.27552" lon="-2.45734">
        <ele>143</ele>
        <time>2022-09-29T09:30:22.000Z</time>
      </trkpt>
      <trkpt lat="47.27518" lon="-2.45744">
        <ele>143</ele>
        <time>2022-09-29T09:30:28.000Z</time>
      </trkpt>
      <trkpt lat="47.27465" lon="-2.45762">
        <ele>143</ele>
        <time>2022-09-29T09:30:37.000Z</time>
      </trkpt>
      <trkpt lat="47.27415" lon="-2.45773">
        <ele>143</ele>
        <time>2022-09-29T09:30:45.000Z</time>
      </trkpt>
      <trkpt lat="47.27408" lon="-2.45773">
        <ele>143</ele>
        <time>2022-09-29T09:30:46.000Z</time>
      </trkpt>
      <trkpt lat="47.27396" lon="-2.45774">
        <ele>143</ele>
        <time>2022-09-29T09:30:48.000Z</time>
      </trkpt>
      <trkpt lat="47.27384" lon="-2.45777">
        <ele>143</ele>
        <time>2022-09-29T09:30:50.000Z</time>
      </trkpt>
      <trkpt lat="47.27379" lon="-2.45778">
        <ele>143</ele>
        <time>2022-09-29T09:30:51.000Z</time>
      </trkpt>
      <trkpt lat="47.2737" lon="-2.4577">
        <ele>143</ele>
        <time>2022-09-29T09:30:53.000Z</time>
      </trkpt>
      <trkpt lat="47.27364" lon="-2.45748">
        <ele>143</ele>
        <time>2022-09-29T09:30:56.000Z</time>
      </trkpt>
      <trkpt lat="47.27361" lon="-2.45741">
        <ele>143</ele>
        <time>2022-09-29T09:30:57.000Z</time>
      </trkpt>
      <trkpt lat="47.27356" lon="-2.45726">
        <ele>143</ele>
        <time>2022-09-29T09:30:59.000Z</time>
      </trkpt>
      <trkpt lat="47.27351" lon="-2.45711">
        <ele>143</ele>
        <time>2022-09-29T09:31:01.000Z</time>
      </trkpt>
      <trkpt lat="47.27331" lon="-2.45657">
        <ele>143</ele>
        <time>2022-09-29T09:31:08.000Z</time>
      </trkpt>
      <trkpt lat="47.27323" lon="-2.45615">
        <ele>143</ele>
        <time>2022-09-29T09:31:13.000Z</time>
      </trkpt>
      <trkpt lat="47.27324" lon="-2.45607">
        <ele>143</ele>
        <time>2022-09-29T09:31:14.000Z</time>
      </trkpt>
      <trkpt lat="47.27337" lon="-2.45593">
        <ele>143</ele>
        <time>2022-09-29T09:31:17.000Z</time>
      </trkpt>
      <trkpt lat="47.27343" lon="-2.45591">
        <ele>143</ele>
        <time>2022-09-29T09:31:18.000Z</time>
      </trkpt>
      <trkpt lat="47.27377" lon="-2.45574">
        <ele>143</ele>
        <time>2022-09-29T09:31:24.000Z</time>
      </trkpt>
      <trkpt lat="47.27412" lon="-2.45563">
        <ele>143</ele>
        <time>2022-09-29T09:31:30.000Z</time>
      </trkpt>
      <trkpt lat="47.27423" lon="-2.45557">
        <ele>143</ele>
        <time>2022-09-29T09:31:32.000Z</time>
      </trkpt>
      <trkpt lat="47.27432" lon="-2.45547">
        <ele>143</ele>
        <time>2022-09-29T09:31:34.000Z</time>
      </trkpt>
      <trkpt lat="47.27436" lon="-2.45522">
        <ele>143</ele>
        <time>2022-09-29T09:31:37.000Z</time>
      </trkpt>
      <trkpt lat="47.27447" lon="-2.45507">
        <ele>143</ele>
        <time>2022-09-29T09:31:40.000Z</time>
      </trkpt>
      <trkpt lat="47.27452" lon="-2.45505">
        <ele>143</ele>
        <time>2022-09-29T09:31:41.000Z</time>
      </trkpt>
      <trkpt lat="47.27478" lon="-2.45489">
        <ele>143</ele>
        <time>2022-09-29T09:31:46.000Z</time>
      </trkpt>
      <trkpt lat="47.27488" lon="-2.45481">
        <ele>143</ele>
        <time>2022-09-29T09:31:48.000Z</time>
      </trkpt>
      <trkpt lat="47.27498" lon="-2.45464">
        <ele>143</ele>
        <time>2022-09-29T09:31:51.000Z</time>
      </trkpt>
      <trkpt lat="47.27508" lon="-2.45438">
        <ele>143</ele>
        <time>2022-09-29T09:31:55.000Z</time>
      </trkpt>
      <trkpt lat="47.2751" lon="-2.4543">
        <ele>143</ele>
        <time>2022-09-29T09:31:56.000Z</time>
      </trkpt>
      <trkpt lat="47.27517" lon="-2.45402">
        <ele>143</ele>
        <time>2022-09-29T09:32:00.000Z</time>
      </trkpt>
      <trkpt lat="47.27525" lon="-2.45392">
        <ele>143</ele>
        <time>2022-09-29T09:32:02.000Z</time>
      </trkpt>
      <trkpt lat="47.27541" lon="-2.45384">
        <ele>143</ele>
        <time>2022-09-29T09:32:05.000Z</time>
      </trkpt>
      <trkpt lat="47.27547" lon="-2.45381">
        <ele>143</ele>
        <time>2022-09-29T09:32:06.000Z</time>
      </trkpt>
      <trkpt lat="47.2759" lon="-2.45364">
        <ele>143</ele>
        <time>2022-09-29T09:32:13.000Z</time>
      </trkpt>
      <trkpt lat="47.27612" lon="-2.4536">
        <ele>143</ele>
        <time>2022-09-29T09:32:17.000Z</time>
      </trkpt>
      <trkpt lat="47.27616" lon="-2.45355">
        <ele>143</ele>
        <time>2022-09-29T09:32:18.000Z</time>
      </trkpt>
      <trkpt lat="47.27617" lon="-2.45341">
        <ele>143</ele>
        <time>2022-09-29T09:32:20.000Z</time>
      </trkpt>
      <trkpt lat="47.27615" lon="-2.45324">
        <ele>143</ele>
        <time>2022-09-29T09:32:22.000Z</time>
      </trkpt>
      <trkpt lat="47.27612" lon="-2.45296">
        <ele>143</ele>
        <time>2022-09-29T09:32:25.000Z</time>
      </trkpt>
      <trkpt lat="47.27607" lon="-2.45234">
        <ele>142.60000610352</ele>
        <time>2022-09-29T09:32:31.000Z</time>
      </trkpt>
      <trkpt lat="47.27606" lon="-2.45223">
        <ele>142.19999694824</ele>
        <time>2022-09-29T09:32:32.000Z</time>
      </trkpt>
      <trkpt lat="47.27604" lon="-2.45212">
        <ele>141.80000305176</ele>
        <time>2022-09-29T09:32:33.000Z</time>
      </trkpt>
      <trkpt lat="47.27603" lon="-2.45201">
        <ele>141.39999389648</ele>
        <time>2022-09-29T09:32:34.000Z</time>
      </trkpt>
      <trkpt lat="47.27601" lon="-2.45191">
        <ele>141</ele>
        <time>2022-09-29T09:32:35.000Z</time>
      </trkpt>
      <trkpt lat="47.27597" lon="-2.45159">
        <ele>141</ele>
        <time>2022-09-29T09:32:38.000Z</time>
      </trkpt>
      <trkpt lat="47.2759" lon="-2.45115">
        <ele>141</ele>
        <time>2022-09-29T09:32:43.000Z</time>
      </trkpt>
      <trkpt lat="47.27587" lon="-2.45099">
        <ele>141</ele>
        <time>2022-09-29T09:32:47.000Z</time>
      </trkpt>
      <trkpt lat="47.27587" lon="-2.45099">
        <ele>141</ele>
        <time>2022-09-29T09:32:48.000Z</time>
      </trkpt>
      <trkpt lat="47.27581" lon="-2.45091">
        <ele>139</ele>
        <time>2022-09-29T09:38:30.000Z</time>
      </trkpt>
      <trkpt lat="47.27579" lon="-2.45087">
        <ele>139</ele>
        <time>2022-09-29T09:38:32.000Z</time>
      </trkpt>
      <trkpt lat="47.27576" lon="-2.45083">
        <ele>139</ele>
        <time>2022-09-29T09:38:34.000Z</time>
      </trkpt>
      <trkpt lat="47.2757" lon="-2.45072">
        <ele>139</ele>
        <time>2022-09-29T09:38:38.000Z</time>
      </trkpt>
      <trkpt lat="47.2756" lon="-2.45051">
        <ele>139</ele>
        <time>2022-09-29T09:38:45.000Z</time>
      </trkpt>
      <trkpt lat="47.27549" lon="-2.45026">
        <ele>139</ele>
        <time>2022-09-29T09:38:51.000Z</time>
      </trkpt>
      <trkpt lat="47.27538" lon="-2.44997">
        <ele>139</ele>
        <time>2022-09-29T09:38:58.000Z</time>
      </trkpt>
      <trkpt lat="47.27525" lon="-2.44959">
        <ele>139</ele>
        <time>2022-09-29T09:39:06.000Z</time>
      </trkpt>
      <trkpt lat="47.27518" lon="-2.44935">
        <ele>139</ele>
        <time>2022-09-29T09:39:10.000Z</time>
      </trkpt>
      <trkpt lat="47.27515" lon="-2.44922">
        <ele>139</ele>
        <time>2022-09-29T09:39:12.000Z</time>
      </trkpt>
      <trkpt lat="47.27509" lon="-2.44895">
        <ele>139.39999389648</ele>
        <time>2022-09-29T09:39:16.000Z</time>
      </trkpt>
      <trkpt lat="47.27508" lon="-2.44889">
        <ele>139.80000305176</ele>
        <time>2022-09-29T09:39:17.000Z</time>
      </trkpt>
      <trkpt lat="47.27507" lon="-2.44883">
        <ele>140.19999694824</ele>
        <time>2022-09-29T09:39:18.000Z</time>
      </trkpt>
      <trkpt lat="47.27506" lon="-2.44877">
        <ele>140.60000610352</ele>
        <time>2022-09-29T09:39:19.000Z</time>
      </trkpt>
      <trkpt lat="47.27505" lon="-2.44871">
        <ele>141</ele>
        <time>2022-09-29T09:39:20.000Z</time>
      </trkpt>
      <trkpt lat="47.27503" lon="-2.44852">
        <ele>141</ele>
        <time>2022-09-29T09:39:23.000Z</time>
      </trkpt>
      <trkpt lat="47.27504" lon="-2.44847">
        <ele>141</ele>
        <time>2022-09-29T09:39:24.000Z</time>
      </trkpt>
      <trkpt lat="47.27515" lon="-2.44836">
        <ele>141</ele>
        <time>2022-09-29T09:39:27.000Z</time>
      </trkpt>
      <trkpt lat="47.27519" lon="-2.44833">
        <ele>141</ele>
        <time>2022-09-29T09:39:28.000Z</time>
      </trkpt>
      <trkpt lat="47.2753" lon="-2.44823">
        <ele>141</ele>
        <time>2022-09-29T09:39:31.000Z</time>
      </trkpt>
      <trkpt lat="47.27535" lon="-2.44813">
        <ele>141</ele>
        <time>2022-09-29T09:39:33.000Z</time>
      </trkpt>
      <trkpt lat="47.27534" lon="-2.44795">
        <ele>141</ele>
        <time>2022-09-29T09:39:36.000Z</time>
      </trkpt>
      <trkpt lat="47.2753" lon="-2.44777">
        <ele>141</ele>
        <time>2022-09-29T09:39:39.000Z</time>
      </trkpt>
      <trkpt lat="47.27526" lon="-2.44755">
        <ele>141</ele>
        <time>2022-09-29T09:39:42.000Z</time>
      </trkpt>
      <trkpt lat="47.27507" lon="-2.44695">
        <ele>141</ele>
        <time>2022-09-29T09:39:50.000Z</time>
      </trkpt>
      <trkpt lat="47.27483" lon="-2.44657">
        <ele>141</ele>
        <time>2022-09-29T09:39:56.000Z</time>
      </trkpt>
      <trkpt lat="47.27476" lon="-2.44645">
        <ele>141</ele>
        <time>2022-09-29T09:39:58.000Z</time>
      </trkpt>
      <trkpt lat="47.27467" lon="-2.44624">
        <ele>141</ele>
        <time>2022-09-29T09:40:01.000Z</time>
      </trkpt>
      <trkpt lat="47.27454" lon="-2.44599">
        <ele>141</ele>
        <time>2022-09-29T09:40:05.000Z</time>
      </trkpt>
      <trkpt lat="47.27452" lon="-2.44592">
        <ele>141</ele>
        <time>2022-09-29T09:40:06.000Z</time>
      </trkpt>
      <trkpt lat="47.2745" lon="-2.44569">
        <ele>141</ele>
        <time>2022-09-29T09:40:09.000Z</time>
      </trkpt>
      <trkpt lat="47.27449" lon="-2.44554">
        <ele>141</ele>
        <time>2022-09-29T09:40:11.000Z</time>
      </trkpt>
      <trkpt lat="47.27446" lon="-2.44521">
        <ele>141</ele>
        <time>2022-09-29T09:40:15.000Z</time>
      </trkpt>
      <trkpt lat="47.27443" lon="-2.44514">
        <ele>141</ele>
        <time>2022-09-29T09:40:16.000Z</time>
      </trkpt>
      <trkpt lat="47.27439" lon="-2.44499">
        <ele>141</ele>
        <time>2022-09-29T09:40:18.000Z</time>
      </trkpt>
      <trkpt lat="47.27437" lon="-2.44483">
        <ele>141</ele>
        <time>2022-09-29T09:40:20.000Z</time>
      </trkpt>
      <trkpt lat="47.27435" lon="-2.44437">
        <ele>141</ele>
        <time>2022-09-29T09:40:26.000Z</time>
      </trkpt>
      <trkpt lat="47.27436" lon="-2.44411">
        <ele>141</ele>
        <time>2022-09-29T09:40:30.000Z</time>
      </trkpt>
      <trkpt lat="47.27437" lon="-2.44398">
        <ele>141</ele>
        <time>2022-09-29T09:40:32.000Z</time>
      </trkpt>
      <trkpt lat="47.27436" lon="-2.44392">
        <ele>141</ele>
        <time>2022-09-29T09:40:33.000Z</time>
      </trkpt>
      <trkpt lat="47.27431" lon="-2.44365">
        <ele>141</ele>
        <time>2022-09-29T09:40:37.000Z</time>
      </trkpt>
      <trkpt lat="47.27425" lon="-2.44307">
        <ele>141</ele>
        <time>2022-09-29T09:40:45.000Z</time>
      </trkpt>
      <trkpt lat="47.27424" lon="-2.44295">
        <ele>141</ele>
        <time>2022-09-29T09:40:47.000Z</time>
      </trkpt>
      <trkpt lat="47.27417" lon="-2.44288">
        <ele>141</ele>
        <time>2022-09-29T09:40:49.000Z</time>
      </trkpt>
      <trkpt lat="47.2741" lon="-2.44286">
        <ele>141</ele>
        <time>2022-09-29T09:40:51.000Z</time>
      </trkpt>
      <trkpt lat="47.274" lon="-2.4428">
        <ele>141</ele>
        <time>2022-09-29T09:40:54.000Z</time>
      </trkpt>
      <trkpt lat="47.27393" lon="-2.44272">
        <ele>141</ele>
        <time>2022-09-29T09:40:56.000Z</time>
      </trkpt>
      <trkpt lat="47.27387" lon="-2.44265">
        <ele>141</ele>
        <time>2022-09-29T09:40:58.000Z</time>
      </trkpt>
      <trkpt lat="47.2738" lon="-2.44257">
        <ele>141</ele>
        <time>2022-09-29T09:41:00.000Z</time>
      </trkpt>
      <trkpt lat="47.27368" lon="-2.44246">
        <ele>141</ele>
        <time>2022-09-29T09:41:03.000Z</time>
      </trkpt>
      <trkpt lat="47.27354" lon="-2.44231">
        <ele>141</ele>
        <time>2022-09-29T09:41:07.000Z</time>
      </trkpt>
      <trkpt lat="47.27336" lon="-2.44223">
        <ele>141</ele>
        <time>2022-09-29T09:41:12.000Z</time>
      </trkpt>
      <trkpt lat="47.27327" lon="-2.44213">
        <ele>141</ele>
        <time>2022-09-29T09:41:15.000Z</time>
      </trkpt>
      <trkpt lat="47.27327" lon="-2.44202">
        <ele>141</ele>
        <time>2022-09-29T09:41:17.000Z</time>
      </trkpt>
      <trkpt lat="47.27325" lon="-2.44189">
        <ele>141</ele>
        <time>2022-09-29T09:41:19.000Z</time>
      </trkpt>
      <trkpt lat="47.27319" lon="-2.44148">
        <ele>141</ele>
        <time>2022-09-29T09:41:24.000Z</time>
      </trkpt>
      <trkpt lat="47.27308" lon="-2.44081">
        <ele>141</ele>
        <time>2022-09-29T09:41:32.000Z</time>
      </trkpt>
      <trkpt lat="47.27299" lon="-2.44017">
        <ele>141</ele>
        <time>2022-09-29T09:41:40.000Z</time>
      </trkpt>
      <trkpt lat="47.27298" lon="-2.4401">
        <ele>141</ele>
        <time>2022-09-29T09:41:41.000Z</time>
      </trkpt>
      <trkpt lat="47.273" lon="-2.43992">
        <ele>141</ele>
        <time>2022-09-29T09:41:44.000Z</time>
      </trkpt>
      <trkpt lat="47.27314" lon="-2.4399">
        <ele>141</ele>
        <time>2022-09-29T09:41:47.000Z</time>
      </trkpt>
      <trkpt lat="47.27319" lon="-2.43989">
        <ele>141</ele>
        <time>2022-09-29T09:41:48.000Z</time>
      </trkpt>
      <trkpt lat="47.2734" lon="-2.43982">
        <ele>141</ele>
        <time>2022-09-29T09:41:52.000Z</time>
      </trkpt>
      <trkpt lat="47.2735" lon="-2.43978">
        <ele>141</ele>
        <time>2022-09-29T09:41:54.000Z</time>
      </trkpt>
      <trkpt lat="47.27381" lon="-2.43964">
        <ele>141</ele>
        <time>2022-09-29T09:42:00.000Z</time>
      </trkpt>
      <trkpt lat="47.27395" lon="-2.43948">
        <ele>141</ele>
        <time>2022-09-29T09:42:03.000Z</time>
      </trkpt>
      <trkpt lat="47.27405" lon="-2.43943">
        <ele>141</ele>
        <time>2022-09-29T09:42:05.000Z</time>
      </trkpt>
      <trkpt lat="47.27416" lon="-2.43939">
        <ele>141</ele>
        <time>2022-09-29T09:42:07.000Z</time>
      </trkpt>
      <trkpt lat="47.27426" lon="-2.43934">
        <ele>141</ele>
        <time>2022-09-29T09:42:09.000Z</time>
      </trkpt>
      <trkpt lat="47.27441" lon="-2.43928">
        <ele>141</ele>
        <time>2022-09-29T09:42:12.000Z</time>
      </trkpt>
      <trkpt lat="47.27468" lon="-2.43915">
        <ele>141</ele>
        <time>2022-09-29T09:42:17.000Z</time>
      </trkpt>
      <trkpt lat="47.27473" lon="-2.43913">
        <ele>141</ele>
        <time>2022-09-29T09:42:18.000Z</time>
      </trkpt>
      <trkpt lat="47.27493" lon="-2.43906">
        <ele>141</ele>
        <time>2022-09-29T09:42:22.000Z</time>
      </trkpt>
      <trkpt lat="47.27502" lon="-2.43903">
        <ele>141</ele>
        <time>2022-09-29T09:42:24.000Z</time>
      </trkpt>
      <trkpt lat="47.27511" lon="-2.439">
        <ele>141</ele>
        <time>2022-09-29T09:42:26.000Z</time>
      </trkpt>
      <trkpt lat="47.27516" lon="-2.43898">
        <ele>141</ele>
        <time>2022-09-29T09:42:27.000Z</time>
      </trkpt>
      <trkpt lat="47.27534" lon="-2.43888">
        <ele>141</ele>
        <time>2022-09-29T09:42:31.000Z</time>
      </trkpt>
      <trkpt lat="47.27539" lon="-2.43886">
        <ele>141</ele>
        <time>2022-09-29T09:42:32.000Z</time>
      </trkpt>
      <trkpt lat="47.27548" lon="-2.43884">
        <ele>141</ele>
        <time>2022-09-29T09:42:34.000Z</time>
      </trkpt>
      <trkpt lat="47.27561" lon="-2.43881">
        <ele>141</ele>
        <time>2022-09-29T09:42:37.000Z</time>
      </trkpt>
      <trkpt lat="47.27566" lon="-2.43878">
        <ele>141</ele>
        <time>2022-09-29T09:42:38.000Z</time>
      </trkpt>
      <trkpt lat="47.2758" lon="-2.4387">
        <ele>141</ele>
        <time>2022-09-29T09:42:41.000Z</time>
      </trkpt>
      <trkpt lat="47.27615" lon="-2.43855">
        <ele>141</ele>
        <time>2022-09-29T09:42:48.000Z</time>
      </trkpt>
      <trkpt lat="47.27646" lon="-2.43842">
        <ele>141</ele>
        <time>2022-09-29T09:42:54.000Z</time>
      </trkpt>
      <trkpt lat="47.27682" lon="-2.4383">
        <ele>141</ele>
        <time>2022-09-29T09:43:01.000Z</time>
      </trkpt>
      <trkpt lat="47.27697" lon="-2.43827">
        <ele>141</ele>
        <time>2022-09-29T09:43:04.000Z</time>
      </trkpt>
      <trkpt lat="47.27713" lon="-2.43825">
        <ele>141</ele>
        <time>2022-09-29T09:43:07.000Z</time>
      </trkpt>
      <trkpt lat="47.27742" lon="-2.43821">
        <ele>141</ele>
        <time>2022-09-29T09:43:13.000Z</time>
      </trkpt>
      <trkpt lat="47.27747" lon="-2.43819">
        <ele>141</ele>
        <time>2022-09-29T09:43:14.000Z</time>
      </trkpt>
      <trkpt lat="47.27754" lon="-2.4381">
        <ele>141</ele>
        <time>2022-09-29T09:43:16.000Z</time>
      </trkpt>
      <trkpt lat="47.27769" lon="-2.43792">
        <ele>141</ele>
        <time>2022-09-29T09:43:20.000Z</time>
      </trkpt>
      <trkpt lat="47.27773" lon="-2.43789">
        <ele>140.60000610352</ele>
        <time>2022-09-29T09:43:21.000Z</time>
      </trkpt>
      <trkpt lat="47.27777" lon="-2.43787">
        <ele>140.19999694824</ele>
        <time>2022-09-29T09:43:22.000Z</time>
      </trkpt>
      <trkpt lat="47.27781" lon="-2.43782">
        <ele>139.80000305176</ele>
        <time>2022-09-29T09:43:23.000Z</time>
      </trkpt>
      <trkpt lat="47.27784" lon="-2.43777">
        <ele>139.39999389648</ele>
        <time>2022-09-29T09:43:24.000Z</time>
      </trkpt>
      <trkpt lat="47.27786" lon="-2.43771">
        <ele>139</ele>
        <time>2022-09-29T09:43:25.000Z</time>
      </trkpt>
      <trkpt lat="47.2779" lon="-2.43758">
        <ele>139</ele>
        <time>2022-09-29T09:43:27.000Z</time>
      </trkpt>
      <trkpt lat="47.27798" lon="-2.4373">
        <ele>139</ele>
        <time>2022-09-29T09:43:31.000Z</time>
      </trkpt>
      <trkpt lat="47.27812" lon="-2.43674">
        <ele>139</ele>
        <time>2022-09-29T09:43:39.000Z</time>
      </trkpt>
      <trkpt lat="47.27827" lon="-2.43608">
        <ele>139</ele>
        <time>2022-09-29T09:43:48.000Z</time>
      </trkpt>
      <trkpt lat="47.2783" lon="-2.436">
        <ele>139</ele>
        <time>2022-09-29T09:43:49.000Z</time>
      </trkpt>
      <trkpt lat="47.27835" lon="-2.43578">
        <ele>139</ele>
        <time>2022-09-29T09:43:52.000Z</time>
      </trkpt>
      <trkpt lat="47.27837" lon="-2.4357">
        <ele>139</ele>
        <time>2022-09-29T09:43:53.000Z</time>
      </trkpt>
      <trkpt lat="47.27846" lon="-2.43525">
        <ele>139</ele>
        <time>2022-09-29T09:43:59.000Z</time>
      </trkpt>
      <trkpt lat="47.27854" lon="-2.43458">
        <ele>139</ele>
        <time>2022-09-29T09:44:07.000Z</time>
      </trkpt>
      <trkpt lat="47.27859" lon="-2.43408">
        <ele>139</ele>
        <time>2022-09-29T09:44:13.000Z</time>
      </trkpt>
      <trkpt lat="47.27858" lon="-2.434">
        <ele>139</ele>
        <time>2022-09-29T09:44:14.000Z</time>
      </trkpt>
      <trkpt lat="47.27856" lon="-2.43377">
        <ele>139</ele>
        <time>2022-09-29T09:44:17.000Z</time>
      </trkpt>
      <trkpt lat="47.27855" lon="-2.4337">
        <ele>139</ele>
        <time>2022-09-29T09:44:18.000Z</time>
      </trkpt>
      <trkpt lat="47.27862" lon="-2.4335">
        <ele>139</ele>
        <time>2022-09-29T09:44:21.000Z</time>
      </trkpt>
      <trkpt lat="47.27867" lon="-2.43335">
        <ele>139</ele>
        <time>2022-09-29T09:44:23.000Z</time>
      </trkpt>
      <trkpt lat="47.27868" lon="-2.43327">
        <ele>139</ele>
        <time>2022-09-29T09:44:24.000Z</time>
      </trkpt>
      <trkpt lat="47.27869" lon="-2.4332">
        <ele>139</ele>
        <time>2022-09-29T09:44:25.000Z</time>
      </trkpt>
      <trkpt lat="47.27868" lon="-2.43297">
        <ele>139</ele>
        <time>2022-09-29T09:44:28.000Z</time>
      </trkpt>
      <trkpt lat="47.27868" lon="-2.43289">
        <ele>139</ele>
        <time>2022-09-29T09:44:29.000Z</time>
      </trkpt>
      <trkpt lat="47.27868" lon="-2.43281">
        <ele>139</ele>
        <time>2022-09-29T09:44:30.000Z</time>
      </trkpt>
      <trkpt lat="47.27867" lon="-2.43249">
        <ele>139</ele>
        <time>2022-09-29T09:44:34.000Z</time>
      </trkpt>
      <trkpt lat="47.2786" lon="-2.43183">
        <ele>139</ele>
        <time>2022-09-29T09:44:42.000Z</time>
      </trkpt>
      <trkpt lat="47.2786" lon="-2.43175">
        <ele>139</ele>
        <time>2022-09-29T09:44:43.000Z</time>
      </trkpt>
      <trkpt lat="47.27858" lon="-2.4314">
        <ele>139</ele>
        <time>2022-09-29T09:44:48.000Z</time>
      </trkpt>
      <trkpt lat="47.27852" lon="-2.4308">
        <ele>139</ele>
        <time>2022-09-29T09:44:56.000Z</time>
      </trkpt>
      <trkpt lat="47.27849" lon="-2.43048">
        <ele>139</ele>
        <time>2022-09-29T09:45:01.000Z</time>
      </trkpt>
      <trkpt lat="47.27846" lon="-2.43043">
        <ele>139</ele>
        <time>2022-09-29T09:45:02.000Z</time>
      </trkpt>
      <trkpt lat="47.27834" lon="-2.43034">
        <ele>139</ele>
        <time>2022-09-29T09:45:05.000Z</time>
      </trkpt>
      <trkpt lat="47.27822" lon="-2.43025">
        <ele>139</ele>
        <time>2022-09-29T09:45:08.000Z</time>
      </trkpt>
      <trkpt lat="47.27815" lon="-2.4302">
        <ele>139</ele>
        <time>2022-09-29T09:45:10.000Z</time>
      </trkpt>
      <trkpt lat="47.27811" lon="-2.43011">
        <ele>139</ele>
        <time>2022-09-29T09:45:12.000Z</time>
      </trkpt>
      <trkpt lat="47.27811" lon="-2.43006">
        <ele>139</ele>
        <time>2022-09-29T09:45:13.000Z</time>
      </trkpt>
      <trkpt lat="47.2781" lon="-2.42971">
        <ele>139</ele>
        <time>2022-09-29T09:45:19.000Z</time>
      </trkpt>
      <trkpt lat="47.27806" lon="-2.42943">
        <ele>139</ele>
        <time>2022-09-29T09:45:23.000Z</time>
      </trkpt>
      <trkpt lat="47.27805" lon="-2.42936">
        <ele>139</ele>
        <time>2022-09-29T09:45:24.000Z</time>
      </trkpt>
      <trkpt lat="47.27797" lon="-2.42883">
        <ele>139</ele>
        <time>2022-09-29T09:45:32.000Z</time>
      </trkpt>
      <trkpt lat="47.27796" lon="-2.42863">
        <ele>139</ele>
        <time>2022-09-29T09:45:35.000Z</time>
      </trkpt>
      <trkpt lat="47.27797" lon="-2.42852">
        <ele>139</ele>
        <time>2022-09-29T09:45:37.000Z</time>
      </trkpt>
      <trkpt lat="47.27797" lon="-2.42841">
        <ele>139</ele>
        <time>2022-09-29T09:45:39.000Z</time>
      </trkpt>
      <trkpt lat="47.27798" lon="-2.42827">
        <ele>139</ele>
        <time>2022-09-29T09:45:42.000Z</time>
      </trkpt>
      <trkpt lat="47.27799" lon="-2.42825">
        <ele>139</ele>
        <time>2022-09-29T09:45:45.000Z</time>
      </trkpt>
      <trkpt lat="47.278" lon="-2.42823">
        <ele>139</ele>
        <time>2022-09-29T09:45:50.000Z</time>
      </trkpt>
      <trkpt lat="47.27811" lon="-2.42819">
        <ele>139</ele>
        <time>2022-09-29T09:45:54.000Z</time>
      </trkpt>
      <trkpt lat="47.27818" lon="-2.4282">
        <ele>139.39999389648</ele>
        <time>2022-09-29T09:45:56.000Z</time>
      </trkpt>
      <trkpt lat="47.27822" lon="-2.42818">
        <ele>139.80000305176</ele>
        <time>2022-09-29T09:45:57.000Z</time>
      </trkpt>
      <trkpt lat="47.27825" lon="-2.42814">
        <ele>140.39999389648</ele>
        <time>2022-09-29T09:45:58.000Z</time>
      </trkpt>
      <trkpt lat="47.27826" lon="-2.42809">
        <ele>140.80000305176</ele>
        <time>2022-09-29T09:45:59.000Z</time>
      </trkpt>
      <trkpt lat="47.27827" lon="-2.42803">
        <ele>141.19999694824</ele>
        <time>2022-09-29T09:46:00.000Z</time>
      </trkpt>
      <trkpt lat="47.27828" lon="-2.42797">
        <ele>141.19999694824</ele>
        <time>2022-09-29T09:46:01.000Z</time>
      </trkpt>
      <trkpt lat="47.27828" lon="-2.4279">
        <ele>141.19999694824</ele>
        <time>2022-09-29T09:46:02.000Z</time>
      </trkpt>
      <trkpt lat="47.27828" lon="-2.42763">
        <ele>141.19999694824</ele>
        <time>2022-09-29T09:46:06.000Z</time>
      </trkpt>
      <trkpt lat="47.27828" lon="-2.42725">
        <ele>141.19999694824</ele>
        <time>2022-09-29T09:46:11.000Z</time>
      </trkpt>
      <trkpt lat="47.27831" lon="-2.4272">
        <ele>141.19999694824</ele>
        <time>2022-09-29T09:46:12.000Z</time>
      </trkpt>
      <trkpt lat="47.27841" lon="-2.42717">
        <ele>141.19999694824</ele>
        <time>2022-09-29T09:46:14.000Z</time>
      </trkpt>
      <trkpt lat="47.27846" lon="-2.42717">
        <ele>141.19999694824</ele>
        <time>2022-09-29T09:46:15.000Z</time>
      </trkpt>
      <trkpt lat="47.27852" lon="-2.42713">
        <ele>141.19999694824</ele>
        <time>2022-09-29T09:46:16.000Z</time>
      </trkpt>
      <trkpt lat="47.27863" lon="-2.42708">
        <ele>141.19999694824</ele>
        <time>2022-09-29T09:46:18.000Z</time>
      </trkpt>
      <trkpt lat="47.27889" lon="-2.42696">
        <ele>141.19999694824</ele>
        <time>2022-09-29T09:46:23.000Z</time>
      </trkpt>
      <trkpt lat="47.27893" lon="-2.42693">
        <ele>141.19999694824</ele>
        <time>2022-09-29T09:46:24.000Z</time>
      </trkpt>
      <trkpt lat="47.27912" lon="-2.42678">
        <ele>141.19999694824</ele>
        <time>2022-09-29T09:46:29.000Z</time>
      </trkpt>
      <trkpt lat="47.27916" lon="-2.42679">
        <ele>141.19999694824</ele>
        <time>2022-09-29T09:46:30.000Z</time>
      </trkpt>
      <trkpt lat="47.27931" lon="-2.42668">
        <ele>141.19999694824</ele>
        <time>2022-09-29T09:46:34.000Z</time>
      </trkpt>
      <trkpt lat="47.2794" lon="-2.42662">
        <ele>141.19999694824</ele>
        <time>2022-09-29T09:46:36.000Z</time>
      </trkpt>
      <trkpt lat="47.27953" lon="-2.42654">
        <ele>141.19999694824</ele>
        <time>2022-09-29T09:46:39.000Z</time>
      </trkpt>
      <trkpt lat="47.27972" lon="-2.42647">
        <ele>141.19999694824</ele>
        <time>2022-09-29T09:46:43.000Z</time>
      </trkpt>
      <trkpt lat="47.27977" lon="-2.42647">
        <ele>141.19999694824</ele>
        <time>2022-09-29T09:46:44.000Z</time>
      </trkpt>
      <trkpt lat="47.28007" lon="-2.42634">
        <ele>141.19999694824</ele>
        <time>2022-09-29T09:46:50.000Z</time>
      </trkpt>
      <trkpt lat="47.28025" lon="-2.42616">
        <ele>141.19999694824</ele>
        <time>2022-09-29T09:46:54.000Z</time>
      </trkpt>
      <trkpt lat="47.28029" lon="-2.4261">
        <ele>141.19999694824</ele>
        <time>2022-09-29T09:46:55.000Z</time>
      </trkpt>
      <trkpt lat="47.28037" lon="-2.42601">
        <ele>141.19999694824</ele>
        <time>2022-09-29T09:46:57.000Z</time>
      </trkpt>
      <trkpt lat="47.28046" lon="-2.42595">
        <ele>141.19999694824</ele>
        <time>2022-09-29T09:46:59.000Z</time>
      </trkpt>
      <trkpt lat="47.2805" lon="-2.42593">
        <ele>141.19999694824</ele>
        <time>2022-09-29T09:47:00.000Z</time>
      </trkpt>
      <trkpt lat="47.28064" lon="-2.42585">
        <ele>141.19999694824</ele>
        <time>2022-09-29T09:47:03.000Z</time>
      </trkpt>
      <trkpt lat="47.28068" lon="-2.42582">
        <ele>141.19999694824</ele>
        <time>2022-09-29T09:47:04.000Z</time>
      </trkpt>
      <trkpt lat="47.28072" lon="-2.42577">
        <ele>141.19999694824</ele>
        <time>2022-09-29T09:47:05.000Z</time>
      </trkpt>
      <trkpt lat="47.2808" lon="-2.42563">
        <ele>141.19999694824</ele>
        <time>2022-09-29T09:47:08.000Z</time>
      </trkpt>
      <trkpt lat="47.28085" lon="-2.42561">
        <ele>141.19999694824</ele>
        <time>2022-09-29T09:47:10.000Z</time>
      </trkpt>
      <trkpt lat="47.28088" lon="-2.42559">
        <ele>141.19999694824</ele>
        <time>2022-09-29T09:47:11.000Z</time>
      </trkpt>
      <trkpt lat="47.28098" lon="-2.42546">
        <ele>141.19999694824</ele>
        <time>2022-09-29T09:47:15.000Z</time>
      </trkpt>
      <trkpt lat="47.28102" lon="-2.42544">
        <ele>141.19999694824</ele>
        <time>2022-09-29T09:47:16.000Z</time>
      </trkpt>
      <trkpt lat="47.28122" lon="-2.42537">
        <ele>141.19999694824</ele>
        <time>2022-09-29T09:47:20.000Z</time>
      </trkpt>
      <trkpt lat="47.28155" lon="-2.42529">
        <ele>141.19999694824</ele>
        <time>2022-09-29T09:47:27.000Z</time>
      </trkpt>
      <trkpt lat="47.28159" lon="-2.42528">
        <ele>141.19999694824</ele>
        <time>2022-09-29T09:47:28.000Z</time>
      </trkpt>
      <trkpt lat="47.28168" lon="-2.42528">
        <ele>141.19999694824</ele>
        <time>2022-09-29T09:47:30.000Z</time>
      </trkpt>
      <trkpt lat="47.28188" lon="-2.4253">
        <ele>141.19999694824</ele>
        <time>2022-09-29T09:47:34.000Z</time>
      </trkpt>
      <trkpt lat="47.28193" lon="-2.42528">
        <ele>141.19999694824</ele>
        <time>2022-09-29T09:47:35.000Z</time>
      </trkpt>
      <trkpt lat="47.282" lon="-2.42521">
        <ele>141.19999694824</ele>
        <time>2022-09-29T09:47:37.000Z</time>
      </trkpt>
      <trkpt lat="47.28207" lon="-2.4251">
        <ele>141.19999694824</ele>
        <time>2022-09-29T09:47:39.000Z</time>
      </trkpt>
      <trkpt lat="47.28219" lon="-2.42492">
        <ele>141.19999694824</ele>
        <time>2022-09-29T09:47:42.000Z</time>
      </trkpt>
      <trkpt lat="47.28246" lon="-2.4244">
        <ele>141.19999694824</ele>
        <time>2022-09-29T09:47:50.000Z</time>
      </trkpt>
      <trkpt lat="47.2826" lon="-2.42387">
        <ele>141.19999694824</ele>
        <time>2022-09-29T09:47:57.000Z</time>
      </trkpt>
      <trkpt lat="47.28268" lon="-2.42322">
        <ele>141.19999694824</ele>
        <time>2022-09-29T09:48:05.000Z</time>
      </trkpt>
      <trkpt lat="47.28269" lon="-2.42314">
        <ele>141.19999694824</ele>
        <time>2022-09-29T09:48:06.000Z</time>
      </trkpt>
      <trkpt lat="47.28276" lon="-2.42264">
        <ele>141.19999694824</ele>
        <time>2022-09-29T09:48:12.000Z</time>
      </trkpt>
      <trkpt lat="47.28283" lon="-2.42213">
        <ele>141.19999694824</ele>
        <time>2022-09-29T09:48:18.000Z</time>
      </trkpt>
      <trkpt lat="47.28294" lon="-2.42136">
        <ele>141.19999694824</ele>
        <time>2022-09-29T09:48:27.000Z</time>
      </trkpt>
      <trkpt lat="47.28304" lon="-2.42066">
        <ele>141.19999694824</ele>
        <time>2022-09-29T09:48:35.000Z</time>
      </trkpt>
      <trkpt lat="47.28317" lon="-2.4199">
        <ele>141.19999694824</ele>
        <time>2022-09-29T09:48:44.000Z</time>
      </trkpt>
      <trkpt lat="47.2833" lon="-2.4194">
        <ele>141.19999694824</ele>
        <time>2022-09-29T09:48:50.000Z</time>
      </trkpt>
      <trkpt lat="47.28346" lon="-2.41873">
        <ele>141.19999694824</ele>
        <time>2022-09-29T09:48:58.000Z</time>
      </trkpt>
      <trkpt lat="47.28365" lon="-2.41798">
        <ele>141.19999694824</ele>
        <time>2022-09-29T09:49:07.000Z</time>
      </trkpt>
      <trkpt lat="47.28379" lon="-2.4174">
        <ele>141.19999694824</ele>
        <time>2022-09-29T09:49:14.000Z</time>
      </trkpt>
      <trkpt lat="47.28392" lon="-2.41686">
        <ele>141.19999694824</ele>
        <time>2022-09-29T09:49:21.000Z</time>
      </trkpt>
      <trkpt lat="47.28402" lon="-2.41619">
        <ele>141.19999694824</ele>
        <time>2022-09-29T09:49:29.000Z</time>
      </trkpt>
      <trkpt lat="47.28408" lon="-2.41553">
        <ele>141.19999694824</ele>
        <time>2022-09-29T09:49:37.000Z</time>
      </trkpt>
      <trkpt lat="47.28413" lon="-2.41504">
        <ele>141.19999694824</ele>
        <time>2022-09-29T09:49:44.000Z</time>
      </trkpt>
      <trkpt lat="47.28417" lon="-2.41455">
        <ele>141.19999694824</ele>
        <time>2022-09-29T09:49:51.000Z</time>
      </trkpt>
      <trkpt lat="47.28428" lon="-2.41398">
        <ele>141.19999694824</ele>
        <time>2022-09-29T09:49:59.000Z</time>
      </trkpt>
      <trkpt lat="47.28443" lon="-2.41343">
        <ele>141.19999694824</ele>
        <time>2022-09-29T09:50:07.000Z</time>
      </trkpt>
      <trkpt lat="47.28454" lon="-2.41285">
        <ele>141.19999694824</ele>
        <time>2022-09-29T09:50:15.000Z</time>
      </trkpt>
      <trkpt lat="47.28454" lon="-2.41279">
        <ele>141.19999694824</ele>
        <time>2022-09-29T09:50:16.000Z</time>
      </trkpt>
      <trkpt lat="47.28452" lon="-2.41272">
        <ele>141.19999694824</ele>
        <time>2022-09-29T09:50:18.000Z</time>
      </trkpt>
      <trkpt lat="47.28444" lon="-2.41261">
        <ele>141.19999694824</ele>
        <time>2022-09-29T09:50:23.000Z</time>
      </trkpt>
      <trkpt lat="47.28429" lon="-2.41255">
        <ele>141.19999694824</ele>
        <time>2022-09-29T09:50:28.000Z</time>
      </trkpt>
      <trkpt lat="47.28421" lon="-2.41253">
        <ele>140.80000305176</ele>
        <time>2022-09-29T09:50:30.000Z</time>
      </trkpt>
      <trkpt lat="47.28417" lon="-2.41251">
        <ele>140.39999389648</ele>
        <time>2022-09-29T09:50:31.000Z</time>
      </trkpt>
      <trkpt lat="47.28413" lon="-2.41248">
        <ele>139.80000305176</ele>
        <time>2022-09-29T09:50:32.000Z</time>
      </trkpt>
      <trkpt lat="47.28409" lon="-2.41246">
        <ele>139.39999389648</ele>
        <time>2022-09-29T09:50:33.000Z</time>
      </trkpt>
      <trkpt lat="47.28405" lon="-2.41243">
        <ele>139</ele>
        <time>2022-09-29T09:50:34.000Z</time>
      </trkpt>
      <trkpt lat="47.28393" lon="-2.41239">
        <ele>139</ele>
        <time>2022-09-29T09:50:37.000Z</time>
      </trkpt>
      <trkpt lat="47.28389" lon="-2.41238">
        <ele>139</ele>
        <time>2022-09-29T09:50:38.000Z</time>
      </trkpt>
      <trkpt lat="47.28375" lon="-2.41234">
        <ele>139</ele>
        <time>2022-09-29T09:50:41.000Z</time>
      </trkpt>
      <trkpt lat="47.28363" lon="-2.41228">
        <ele>139</ele>
        <time>2022-09-29T09:50:44.000Z</time>
      </trkpt>
      <trkpt lat="47.2836" lon="-2.41222">
        <ele>139</ele>
        <time>2022-09-29T09:50:46.000Z</time>
      </trkpt>
      <trkpt lat="47.2836" lon="-2.41219">
        <ele>139</ele>
        <time>2022-09-29T09:50:47.000Z</time>
      </trkpt>
      <trkpt lat="47.2836" lon="-2.41193">
        <ele>139</ele>
        <time>2022-09-29T09:50:52.000Z</time>
      </trkpt>
      <trkpt lat="47.28366" lon="-2.41163">
        <ele>139</ele>
        <time>2022-09-29T09:50:56.000Z</time>
      </trkpt>
      <trkpt lat="47.2837" lon="-2.41147">
        <ele>139</ele>
        <time>2022-09-29T09:50:58.000Z</time>
      </trkpt>
      <trkpt lat="47.28377" lon="-2.41117">
        <ele>139</ele>
        <time>2022-09-29T09:51:02.000Z</time>
      </trkpt>
      <trkpt lat="47.28381" lon="-2.41103">
        <ele>139</ele>
        <time>2022-09-29T09:51:04.000Z</time>
      </trkpt>
      <trkpt lat="47.28381" lon="-2.41092">
        <ele>139</ele>
        <time>2022-09-29T09:51:06.000Z</time>
      </trkpt>
      <trkpt lat="47.28372" lon="-2.41084">
        <ele>139</ele>
        <time>2022-09-29T09:51:09.000Z</time>
      </trkpt>
      <trkpt lat="47.28359" lon="-2.4108">
        <ele>139</ele>
        <time>2022-09-29T09:51:12.000Z</time>
      </trkpt>
      <trkpt lat="47.2835" lon="-2.41076">
        <ele>139</ele>
        <time>2022-09-29T09:51:14.000Z</time>
      </trkpt>
      <trkpt lat="47.28322" lon="-2.4106">
        <ele>139</ele>
        <time>2022-09-29T09:51:20.000Z</time>
      </trkpt>
      <trkpt lat="47.28318" lon="-2.41058">
        <ele>139</ele>
        <time>2022-09-29T09:51:21.000Z</time>
      </trkpt>
      <trkpt lat="47.28298" lon="-2.41052">
        <ele>139</ele>
        <time>2022-09-29T09:51:25.000Z</time>
      </trkpt>
      <trkpt lat="47.28294" lon="-2.4105">
        <ele>139</ele>
        <time>2022-09-29T09:51:26.000Z</time>
      </trkpt>
      <trkpt lat="47.28273" lon="-2.41037">
        <ele>139</ele>
        <time>2022-09-29T09:51:31.000Z</time>
      </trkpt>
      <trkpt lat="47.28256" lon="-2.41016">
        <ele>139</ele>
        <time>2022-09-29T09:51:37.000Z</time>
      </trkpt>
      <trkpt lat="47.28258" lon="-2.41005">
        <ele>139.39999389648</ele>
        <time>2022-09-29T09:51:39.000Z</time>
      </trkpt>
      <trkpt lat="47.28256" lon="-2.41">
        <ele>139.80000305176</ele>
        <time>2022-09-29T09:51:40.000Z</time>
      </trkpt>
      <trkpt lat="47.28254" lon="-2.40997">
        <ele>140.19999694824</ele>
        <time>2022-09-29T09:51:41.000Z</time>
      </trkpt>
      <trkpt lat="47.28251" lon="-2.40996">
        <ele>140.60000610352</ele>
        <time>2022-09-29T09:51:42.000Z</time>
      </trkpt>
      <trkpt lat="47.28248" lon="-2.40994">
        <ele>141</ele>
        <time>2022-09-29T09:51:43.000Z</time>
      </trkpt>
      <trkpt lat="47.2824" lon="-2.40974">
        <ele>141</ele>
        <time>2022-09-29T09:51:47.000Z</time>
      </trkpt>
      <trkpt lat="47.28244" lon="-2.40944">
        <ele>141</ele>
        <time>2022-09-29T09:51:51.000Z</time>
      </trkpt>
      <trkpt lat="47.28246" lon="-2.40937">
        <ele>141</ele>
        <time>2022-09-29T09:51:52.000Z</time>
      </trkpt>
      <trkpt lat="47.28249" lon="-2.4093">
        <ele>141</ele>
        <time>2022-09-29T09:51:53.000Z</time>
      </trkpt>
      <trkpt lat="47.2826" lon="-2.40905">
        <ele>141</ele>
        <time>2022-09-29T09:51:57.000Z</time>
      </trkpt>
      <trkpt lat="47.28262" lon="-2.40899">
        <ele>141</ele>
        <time>2022-09-29T09:51:58.000Z</time>
      </trkpt>
      <trkpt lat="47.2826" lon="-2.40885">
        <ele>141</ele>
        <time>2022-09-29T09:52:00.000Z</time>
      </trkpt>
      <trkpt lat="47.28249" lon="-2.40873">
        <ele>141</ele>
        <time>2022-09-29T09:52:03.000Z</time>
      </trkpt>
      <trkpt lat="47.2823" lon="-2.4086">
        <ele>141</ele>
        <time>2022-09-29T09:52:07.000Z</time>
      </trkpt>
      <trkpt lat="47.28225" lon="-2.40856">
        <ele>141</ele>
        <time>2022-09-29T09:52:08.000Z</time>
      </trkpt>
      <trkpt lat="47.28221" lon="-2.40852">
        <ele>141</ele>
        <time>2022-09-29T09:52:09.000Z</time>
      </trkpt>
      <trkpt lat="47.28203" lon="-2.40836">
        <ele>141</ele>
        <time>2022-09-29T09:52:13.000Z</time>
      </trkpt>
      <trkpt lat="47.28182" lon="-2.40817">
        <ele>141</ele>
        <time>2022-09-29T09:52:18.000Z</time>
      </trkpt>
      <trkpt lat="47.28178" lon="-2.40814">
        <ele>141</ele>
        <time>2022-09-29T09:52:19.000Z</time>
      </trkpt>
      <trkpt lat="47.28155" lon="-2.40794">
        <ele>141</ele>
        <time>2022-09-29T09:52:24.000Z</time>
      </trkpt>
      <trkpt lat="47.28151" lon="-2.40791">
        <ele>141</ele>
        <time>2022-09-29T09:52:25.000Z</time>
      </trkpt>
      <trkpt lat="47.28136" lon="-2.40782">
        <ele>141</ele>
        <time>2022-09-29T09:52:29.000Z</time>
      </trkpt>
      <trkpt lat="47.28132" lon="-2.40775">
        <ele>141</ele>
        <time>2022-09-29T09:52:31.000Z</time>
      </trkpt>
      <trkpt lat="47.28132" lon="-2.4077">
        <ele>141</ele>
        <time>2022-09-29T09:52:32.000Z</time>
      </trkpt>
      <trkpt lat="47.28134" lon="-2.40753">
        <ele>141</ele>
        <time>2022-09-29T09:52:35.000Z</time>
      </trkpt>
      <trkpt lat="47.28133" lon="-2.40743">
        <ele>141</ele>
        <time>2022-09-29T09:52:37.000Z</time>
      </trkpt>
      <trkpt lat="47.2813" lon="-2.40737">
        <ele>141</ele>
        <time>2022-09-29T09:52:40.000Z</time>
      </trkpt>
      <trkpt lat="47.28121" lon="-2.40737">
        <ele>141</ele>
        <time>2022-09-29T09:52:43.000Z</time>
      </trkpt>
      <trkpt lat="47.28108" lon="-2.40729">
        <ele>141</ele>
        <time>2022-09-29T09:52:47.000Z</time>
      </trkpt>
      <trkpt lat="47.28097" lon="-2.40721">
        <ele>141</ele>
        <time>2022-09-29T09:52:51.000Z</time>
      </trkpt>
      <trkpt lat="47.2808" lon="-2.40713">
        <ele>141</ele>
        <time>2022-09-29T09:52:56.000Z</time>
      </trkpt>
      <trkpt lat="47.28075" lon="-2.40709">
        <ele>141</ele>
        <time>2022-09-29T09:53:00.000Z</time>
      </trkpt>
      <trkpt lat="47.2807" lon="-2.40705">
        <ele>141.39999389648</ele>
        <time>2022-09-29T09:53:11.000Z</time>
      </trkpt>
      <trkpt lat="47.28068" lon="-2.40704">
        <ele>141.80000305176</ele>
        <time>2022-09-29T09:53:12.000Z</time>
      </trkpt>
      <trkpt lat="47.28067" lon="-2.40703">
        <ele>142.19999694824</ele>
        <time>2022-09-29T09:53:13.000Z</time>
      </trkpt>
      <trkpt lat="47.28066" lon="-2.40702">
        <ele>142.60000610352</ele>
        <time>2022-09-29T09:53:14.000Z</time>
      </trkpt>
      <trkpt lat="47.28066" lon="-2.40702">
        <ele>143</ele>
        <time>2022-09-29T09:53:15.000Z</time>
      </trkpt>
      <trkpt lat="47.28065" lon="-2.40702">
        <ele>143</ele>
        <time>2022-09-29T09:53:19.000Z</time>
      </trkpt>
      <trkpt lat="47.28064" lon="-2.40703">
        <ele>143</ele>
        <time>2022-09-29T09:53:20.000Z</time>
      </trkpt>
      <trkpt lat="47.28062" lon="-2.40703">
        <ele>143</ele>
        <time>2022-09-29T09:53:23.000Z</time>
      </trkpt>
      <trkpt lat="47.28058" lon="-2.407">
        <ele>143</ele>
        <time>2022-09-29T09:53:25.000Z</time>
      </trkpt>
      <trkpt lat="47.28058" lon="-2.40695">
        <ele>143</ele>
        <time>2022-09-29T09:53:26.000Z</time>
      </trkpt>
      <trkpt lat="47.28057" lon="-2.40686">
        <ele>143</ele>
        <time>2022-09-29T09:53:28.000Z</time>
      </trkpt>
      <trkpt lat="47.28053" lon="-2.40654">
        <ele>143</ele>
        <time>2022-09-29T09:53:34.000Z</time>
      </trkpt>
      <trkpt lat="47.28047" lon="-2.4063">
        <ele>143</ele>
        <time>2022-09-29T09:53:38.000Z</time>
      </trkpt>
      <trkpt lat="47.28046" lon="-2.40618">
        <ele>143</ele>
        <time>2022-09-29T09:53:40.000Z</time>
      </trkpt>
      <trkpt lat="47.28048" lon="-2.40604">
        <ele>143</ele>
        <time>2022-09-29T09:53:42.000Z</time>
      </trkpt>
      <trkpt lat="47.28052" lon="-2.40583">
        <ele>143</ele>
        <time>2022-09-29T09:53:45.000Z</time>
      </trkpt>
      <trkpt lat="47.2806" lon="-2.40541">
        <ele>143</ele>
        <time>2022-09-29T09:53:51.000Z</time>
      </trkpt>
      <trkpt lat="47.28067" lon="-2.405">
        <ele>143</ele>
        <time>2022-09-29T09:53:57.000Z</time>
      </trkpt>
      <trkpt lat="47.28069" lon="-2.40494">
        <ele>143</ele>
        <time>2022-09-29T09:53:58.000Z</time>
      </trkpt>
      <trkpt lat="47.28081" lon="-2.40469">
        <ele>143</ele>
        <time>2022-09-29T09:54:02.000Z</time>
      </trkpt>
      <trkpt lat="47.281" lon="-2.40432">
        <ele>143</ele>
        <time>2022-09-29T09:54:08.000Z</time>
      </trkpt>
      <trkpt lat="47.28103" lon="-2.40426">
        <ele>143</ele>
        <time>2022-09-29T09:54:09.000Z</time>
      </trkpt>
      <trkpt lat="47.28112" lon="-2.4038">
        <ele>143</ele>
        <time>2022-09-29T09:54:15.000Z</time>
      </trkpt>
      <trkpt lat="47.28117" lon="-2.40331">
        <ele>143</ele>
        <time>2022-09-29T09:54:21.000Z</time>
      </trkpt>
      <trkpt lat="47.28118" lon="-2.40323">
        <ele>143</ele>
        <time>2022-09-29T09:54:22.000Z</time>
      </trkpt>
      <trkpt lat="47.28128" lon="-2.40246">
        <ele>143</ele>
        <time>2022-09-29T09:54:31.000Z</time>
      </trkpt>
      <trkpt lat="47.28135" lon="-2.40175">
        <ele>143</ele>
        <time>2022-09-29T09:54:39.000Z</time>
      </trkpt>
      <trkpt lat="47.28142" lon="-2.40107">
        <ele>143</ele>
        <time>2022-09-29T09:54:47.000Z</time>
      </trkpt>
      <trkpt lat="47.28146" lon="-2.40049">
        <ele>143</ele>
        <time>2022-09-29T09:54:54.000Z</time>
      </trkpt>
      <trkpt lat="47.28149" lon="-2.40016">
        <ele>143</ele>
        <time>2022-09-29T09:54:58.000Z</time>
      </trkpt>
      <trkpt lat="47.28149" lon="-2.40007">
        <ele>143</ele>
        <time>2022-09-29T09:54:59.000Z</time>
      </trkpt>
      <trkpt lat="47.2815" lon="-2.3999">
        <ele>143</ele>
        <time>2022-09-29T09:55:01.000Z</time>
      </trkpt>
      <trkpt lat="47.28153" lon="-2.39965">
        <ele>143</ele>
        <time>2022-09-29T09:55:04.000Z</time>
      </trkpt>
      <trkpt lat="47.28153" lon="-2.39957">
        <ele>143</ele>
        <time>2022-09-29T09:55:05.000Z</time>
      </trkpt>
      <trkpt lat="47.28155" lon="-2.39911">
        <ele>143</ele>
        <time>2022-09-29T09:55:10.000Z</time>
      </trkpt>
      <trkpt lat="47.28162" lon="-2.39841">
        <ele>143</ele>
        <time>2022-09-29T09:55:18.000Z</time>
      </trkpt>
      <trkpt lat="47.28165" lon="-2.39781">
        <ele>143</ele>
        <time>2022-09-29T09:55:25.000Z</time>
      </trkpt>
      <trkpt lat="47.28169" lon="-2.39707">
        <ele>143</ele>
        <time>2022-09-29T09:55:33.000Z</time>
      </trkpt>
      <trkpt lat="47.28173" lon="-2.39621">
        <ele>143</ele>
        <time>2022-09-29T09:55:42.000Z</time>
      </trkpt>
      <trkpt lat="47.28175" lon="-2.39574">
        <ele>143.39999389648</ele>
        <time>2022-09-29T09:55:47.000Z</time>
      </trkpt>
      <trkpt lat="47.28175" lon="-2.39564">
        <ele>143.80000305176</ele>
        <time>2022-09-29T09:55:48.000Z</time>
      </trkpt>
      <trkpt lat="47.28175" lon="-2.39554">
        <ele>144.19999694824</ele>
        <time>2022-09-29T09:55:49.000Z</time>
      </trkpt>
      <trkpt lat="47.28176" lon="-2.39544">
        <ele>145</ele>
        <time>2022-09-29T09:55:50.000Z</time>
      </trkpt>
      <trkpt lat="47.28176" lon="-2.39535">
        <ele>145</ele>
        <time>2022-09-29T09:55:51.000Z</time>
      </trkpt>
      <trkpt lat="47.28177" lon="-2.39462">
        <ele>145</ele>
        <time>2022-09-29T09:55:59.000Z</time>
      </trkpt>
      <trkpt lat="47.28177" lon="-2.39407">
        <ele>145</ele>
        <time>2022-09-29T09:56:05.000Z</time>
      </trkpt>
      <trkpt lat="47.28176" lon="-2.39332">
        <ele>145</ele>
        <time>2022-09-29T09:56:13.000Z</time>
      </trkpt>
      <trkpt lat="47.28174" lon="-2.39276">
        <ele>145</ele>
        <time>2022-09-29T09:56:20.000Z</time>
      </trkpt>
      <trkpt lat="47.28173" lon="-2.39256">
        <ele>145</ele>
        <time>2022-09-29T09:56:24.000Z</time>
      </trkpt>
      <trkpt lat="47.28173" lon="-2.39248">
        <ele>145</ele>
        <time>2022-09-29T09:56:28.000Z</time>
      </trkpt>
      <trkpt lat="47.28173" lon="-2.39245">
        <ele>145</ele>
        <time>2022-09-29T09:56:33.000Z</time>
      </trkpt>
      <trkpt lat="47.28173" lon="-2.39238">
        <ele>145</ele>
        <time>2022-09-29T09:56:35.000Z</time>
      </trkpt>
      <trkpt lat="47.28172" lon="-2.39211">
        <ele>145</ele>
        <time>2022-09-29T09:56:40.000Z</time>
      </trkpt>
      <trkpt lat="47.28169" lon="-2.39159">
        <ele>145</ele>
        <time>2022-09-29T09:56:47.000Z</time>
      </trkpt>
      <trkpt lat="47.28169" lon="-2.39143">
        <ele>145</ele>
        <time>2022-09-29T09:56:49.000Z</time>
      </trkpt>
      <trkpt lat="47.28167" lon="-2.39119">
        <ele>145</ele>
        <time>2022-09-29T09:56:52.000Z</time>
      </trkpt>
      <trkpt lat="47.28162" lon="-2.39052">
        <ele>145</ele>
        <time>2022-09-29T09:57:00.000Z</time>
      </trkpt>
      <trkpt lat="47.28155" lon="-2.38979">
        <ele>145</ele>
        <time>2022-09-29T09:57:08.000Z</time>
      </trkpt>
      <trkpt lat="47.28151" lon="-2.38952">
        <ele>145</ele>
        <time>2022-09-29T09:57:11.000Z</time>
      </trkpt>
      <trkpt lat="47.28143" lon="-2.38926">
        <ele>145</ele>
        <time>2022-09-29T09:57:14.000Z</time>
      </trkpt>
      <trkpt lat="47.28133" lon="-2.38871">
        <ele>145</ele>
        <time>2022-09-29T09:57:20.000Z</time>
      </trkpt>
      <trkpt lat="47.28126" lon="-2.38793">
        <ele>145</ele>
        <time>2022-09-29T09:57:28.000Z</time>
      </trkpt>
      <trkpt lat="47.28121" lon="-2.38735">
        <ele>145</ele>
        <time>2022-09-29T09:57:34.000Z</time>
      </trkpt>
      <trkpt lat="47.28115" lon="-2.38678">
        <ele>145</ele>
        <time>2022-09-29T09:57:41.000Z</time>
      </trkpt>
      <trkpt lat="47.28112" lon="-2.38643">
        <ele>145</ele>
        <time>2022-09-29T09:57:47.000Z</time>
      </trkpt>
      <trkpt lat="47.28111" lon="-2.38627">
        <ele>145</ele>
        <time>2022-09-29T09:57:53.000Z</time>
      </trkpt>
      <trkpt lat="47.2811" lon="-2.3862">
        <ele>145</ele>
        <time>2022-09-29T09:58:00.000Z</time>
      </trkpt>
      <trkpt lat="47.2811" lon="-2.3862">
        <ele>145</ele>
        <time>2022-09-29T09:58:01.000Z</time>
      </trkpt>
      <trkpt lat="47.2811" lon="-2.38618">
        <ele>145</ele>
        <time>2022-09-29T09:58:08.000Z</time>
      </trkpt>
      <trkpt lat="47.28109" lon="-2.3861">
        <ele>145</ele>
        <time>2022-09-29T09:58:10.000Z</time>
      </trkpt>
      <trkpt lat="47.28106" lon="-2.38587">
        <ele>145</ele>
        <time>2022-09-29T09:58:14.000Z</time>
      </trkpt>
      <trkpt lat="47.281" lon="-2.38535">
        <ele>145</ele>
        <time>2022-09-29T09:58:21.000Z</time>
      </trkpt>
      <trkpt lat="47.28092" lon="-2.3848">
        <ele>145</ele>
        <time>2022-09-29T09:58:28.000Z</time>
      </trkpt>
      <trkpt lat="47.28081" lon="-2.38423">
        <ele>145</ele>
        <time>2022-09-29T09:58:35.000Z</time>
      </trkpt>
      <trkpt lat="47.28069" lon="-2.38354">
        <ele>145</ele>
        <time>2022-09-29T09:58:43.000Z</time>
      </trkpt>
      <trkpt lat="47.28055" lon="-2.38285">
        <ele>145</ele>
        <time>2022-09-29T09:58:51.000Z</time>
      </trkpt>
      <trkpt lat="47.28042" lon="-2.38207">
        <ele>145</ele>
        <time>2022-09-29T09:59:00.000Z</time>
      </trkpt>
      <trkpt lat="47.28026" lon="-2.38127">
        <ele>145</ele>
        <time>2022-09-29T09:59:09.000Z</time>
      </trkpt>
      <trkpt lat="47.28024" lon="-2.38118">
        <ele>145</ele>
        <time>2022-09-29T09:59:10.000Z</time>
      </trkpt>
      <trkpt lat="47.28011" lon="-2.38039">
        <ele>145</ele>
        <time>2022-09-29T09:59:19.000Z</time>
      </trkpt>
      <trkpt lat="47.2801" lon="-2.3803">
        <ele>145</ele>
        <time>2022-09-29T09:59:20.000Z</time>
      </trkpt>
      <trkpt lat="47.28002" lon="-2.37995">
        <ele>145</ele>
        <time>2022-09-29T09:59:24.000Z</time>
      </trkpt>
      <trkpt lat="47.27989" lon="-2.37925">
        <ele>145</ele>
        <time>2022-09-29T09:59:32.000Z</time>
      </trkpt>
      <trkpt lat="47.27974" lon="-2.37846">
        <ele>145</ele>
        <time>2022-09-29T09:59:41.000Z</time>
      </trkpt>
      <trkpt lat="47.27973" lon="-2.37837">
        <ele>145</ele>
        <time>2022-09-29T09:59:42.000Z</time>
      </trkpt>
      <trkpt lat="47.27964" lon="-2.37793">
        <ele>145</ele>
        <time>2022-09-29T09:59:47.000Z</time>
      </trkpt>
      <trkpt lat="47.27961" lon="-2.37776">
        <ele>145</ele>
        <time>2022-09-29T09:59:49.000Z</time>
      </trkpt>
      <trkpt lat="47.27954" lon="-2.37749">
        <ele>145</ele>
        <time>2022-09-29T09:59:52.000Z</time>
      </trkpt>
      <trkpt lat="47.27938" lon="-2.37687">
        <ele>145</ele>
        <time>2022-09-29T09:59:59.000Z</time>
      </trkpt>
      <trkpt lat="47.27921" lon="-2.37616">
        <ele>145</ele>
        <time>2022-09-29T10:00:07.000Z</time>
      </trkpt>
      <trkpt lat="47.27902" lon="-2.37534">
        <ele>145</ele>
        <time>2022-09-29T10:00:16.000Z</time>
      </trkpt>
      <trkpt lat="47.279" lon="-2.37524">
        <ele>145</ele>
        <time>2022-09-29T10:00:17.000Z</time>
      </trkpt>
      <trkpt lat="47.2788" lon="-2.37442">
        <ele>145</ele>
        <time>2022-09-29T10:00:26.000Z</time>
      </trkpt>
      <trkpt lat="47.27863" lon="-2.37371">
        <ele>145</ele>
        <time>2022-09-29T10:00:34.000Z</time>
      </trkpt>
      <trkpt lat="47.27842" lon="-2.37293">
        <ele>145</ele>
        <time>2022-09-29T10:00:43.000Z</time>
      </trkpt>
      <trkpt lat="47.2784" lon="-2.37285">
        <ele>145</ele>
        <time>2022-09-29T10:00:44.000Z</time>
      </trkpt>
      <trkpt lat="47.27825" lon="-2.37227">
        <ele>145</ele>
        <time>2022-09-29T10:00:51.000Z</time>
      </trkpt>
      <trkpt lat="47.27824" lon="-2.37219">
        <ele>145</ele>
        <time>2022-09-29T10:00:52.000Z</time>
      </trkpt>
      <trkpt lat="47.27817" lon="-2.37196">
        <ele>145</ele>
        <time>2022-09-29T10:00:55.000Z</time>
      </trkpt>
      <trkpt lat="47.27815" lon="-2.37189">
        <ele>145</ele>
        <time>2022-09-29T10:00:56.000Z</time>
      </trkpt>
      <trkpt lat="47.27811" lon="-2.37163">
        <ele>145</ele>
        <time>2022-09-29T10:00:59.000Z</time>
      </trkpt>
      <trkpt lat="47.27802" lon="-2.3714">
        <ele>145</ele>
        <time>2022-09-29T10:01:02.000Z</time>
      </trkpt>
      <trkpt lat="47.278" lon="-2.37132">
        <ele>145</ele>
        <time>2022-09-29T10:01:03.000Z</time>
      </trkpt>
      <trkpt lat="47.27782" lon="-2.37065">
        <ele>145</ele>
        <time>2022-09-29T10:01:11.000Z</time>
      </trkpt>
      <trkpt lat="47.27761" lon="-2.36988">
        <ele>145</ele>
        <time>2022-09-29T10:01:20.000Z</time>
      </trkpt>
      <trkpt lat="47.27739" lon="-2.36913">
        <ele>145</ele>
        <time>2022-09-29T10:01:29.000Z</time>
      </trkpt>
      <trkpt lat="47.2772" lon="-2.36848">
        <ele>145</ele>
        <time>2022-09-29T10:01:37.000Z</time>
      </trkpt>
      <trkpt lat="47.27697" lon="-2.36772">
        <ele>145</ele>
        <time>2022-09-29T10:01:47.000Z</time>
      </trkpt>
      <trkpt lat="47.27695" lon="-2.36763">
        <ele>145</ele>
        <time>2022-09-29T10:01:48.000Z</time>
      </trkpt>
      <trkpt lat="47.27672" lon="-2.36695">
        <ele>145</ele>
        <time>2022-09-29T10:01:56.000Z</time>
      </trkpt>
      <trkpt lat="47.27646" lon="-2.3662">
        <ele>145</ele>
        <time>2022-09-29T10:02:05.000Z</time>
      </trkpt>
      <trkpt lat="47.27622" lon="-2.36553">
        <ele>145</ele>
        <time>2022-09-29T10:02:13.000Z</time>
      </trkpt>
      <trkpt lat="47.27603" lon="-2.36497">
        <ele>145</ele>
        <time>2022-09-29T10:02:20.000Z</time>
      </trkpt>
      <trkpt lat="47.27576" lon="-2.36424">
        <ele>145</ele>
        <time>2022-09-29T10:02:29.000Z</time>
      </trkpt>
      <trkpt lat="47.27549" lon="-2.36352">
        <ele>145</ele>
        <time>2022-09-29T10:02:38.000Z</time>
      </trkpt>
      <trkpt lat="47.27521" lon="-2.36281">
        <ele>145</ele>
        <time>2022-09-29T10:02:47.000Z</time>
      </trkpt>
      <trkpt lat="47.27497" lon="-2.36218">
        <ele>145</ele>
        <time>2022-09-29T10:02:55.000Z</time>
      </trkpt>
      <trkpt lat="47.27474" lon="-2.36158">
        <ele>145</ele>
        <time>2022-09-29T10:03:03.000Z</time>
      </trkpt>
      <trkpt lat="47.27468" lon="-2.36144">
        <ele>145</ele>
        <time>2022-09-29T10:03:05.000Z</time>
      </trkpt>
      <trkpt lat="47.27461" lon="-2.36115">
        <ele>145</ele>
        <time>2022-09-29T10:03:09.000Z</time>
      </trkpt>
      <trkpt lat="47.27459" lon="-2.36109">
        <ele>145</ele>
        <time>2022-09-29T10:03:10.000Z</time>
      </trkpt>
      <trkpt lat="47.2745" lon="-2.36091">
        <ele>145</ele>
        <time>2022-09-29T10:03:13.000Z</time>
      </trkpt>
      <trkpt lat="47.27448" lon="-2.36084">
        <ele>145</ele>
        <time>2022-09-29T10:03:14.000Z</time>
      </trkpt>
      <trkpt lat="47.27452" lon="-2.36073">
        <ele>145</ele>
        <time>2022-09-29T10:03:16.000Z</time>
      </trkpt>
      <trkpt lat="47.27465" lon="-2.36072">
        <ele>145</ele>
        <time>2022-09-29T10:03:19.000Z</time>
      </trkpt>
      <trkpt lat="47.27469" lon="-2.36073">
        <ele>145</ele>
        <time>2022-09-29T10:03:20.000Z</time>
      </trkpt>
      <trkpt lat="47.27487" lon="-2.36083">
        <ele>145</ele>
        <time>2022-09-29T10:03:24.000Z</time>
      </trkpt>
      <trkpt lat="47.27496" lon="-2.3609">
        <ele>145</ele>
        <time>2022-09-29T10:03:26.000Z</time>
      </trkpt>
      <trkpt lat="47.27512" lon="-2.36105">
        <ele>145</ele>
        <time>2022-09-29T10:03:30.000Z</time>
      </trkpt>
      <trkpt lat="47.27522" lon="-2.36113">
        <ele>145</ele>
        <time>2022-09-29T10:03:33.000Z</time>
      </trkpt>
      <trkpt lat="47.27525" lon="-2.3611">
        <ele>145</ele>
        <time>2022-09-29T10:03:34.000Z</time>
      </trkpt>
      <trkpt lat="47.27523" lon="-2.36101">
        <ele>145</ele>
        <time>2022-09-29T10:03:36.000Z</time>
      </trkpt>
      <trkpt lat="47.2752" lon="-2.36091">
        <ele>145</ele>
        <time>2022-09-29T10:03:38.000Z</time>
      </trkpt>
      <trkpt lat="47.27514" lon="-2.36072">
        <ele>145</ele>
        <time>2022-09-29T10:03:41.000Z</time>
      </trkpt>
      <trkpt lat="47.27513" lon="-2.36065">
        <ele>145</ele>
        <time>2022-09-29T10:03:42.000Z</time>
      </trkpt>
      <trkpt lat="47.27513" lon="-2.36041">
        <ele>145</ele>
        <time>2022-09-29T10:03:46.000Z</time>
      </trkpt>
      <trkpt lat="47.27515" lon="-2.36032">
        <ele>145</ele>
        <time>2022-09-29T10:03:48.000Z</time>
      </trkpt>
      <trkpt lat="47.27522" lon="-2.36009">
        <ele>145</ele>
        <time>2022-09-29T10:03:53.000Z</time>
      </trkpt>
      <trkpt lat="47.27525" lon="-2.35999">
        <ele>145.60000610352</ele>
        <time>2022-09-29T10:03:55.000Z</time>
      </trkpt>
      <trkpt lat="47.27526" lon="-2.35994">
        <ele>146</ele>
        <time>2022-09-29T10:03:56.000Z</time>
      </trkpt>
      <trkpt lat="47.27527" lon="-2.35989">
        <ele>146.39999389648</ele>
        <time>2022-09-29T10:03:57.000Z</time>
      </trkpt>
      <trkpt lat="47.27529" lon="-2.35984">
        <ele>146.80000305176</ele>
        <time>2022-09-29T10:03:58.000Z</time>
      </trkpt>
      <trkpt lat="47.27531" lon="-2.35978">
        <ele>147.19999694824</ele>
        <time>2022-09-29T10:03:59.000Z</time>
      </trkpt>
      <trkpt lat="47.27533" lon="-2.35973">
        <ele>147.19999694824</ele>
        <time>2022-09-29T10:04:00.000Z</time>
      </trkpt>
      <trkpt lat="47.27551" lon="-2.35938">
        <ele>147.19999694824</ele>
        <time>2022-09-29T10:04:07.000Z</time>
      </trkpt>
      <trkpt lat="47.27569" lon="-2.35899">
        <ele>147.19999694824</ele>
        <time>2022-09-29T10:04:14.000Z</time>
      </trkpt>
      <trkpt lat="47.27588" lon="-2.35863">
        <ele>147.19999694824</ele>
        <time>2022-09-29T10:04:21.000Z</time>
      </trkpt>
      <trkpt lat="47.27591" lon="-2.35857">
        <ele>147.19999694824</ele>
        <time>2022-09-29T10:04:22.000Z</time>
      </trkpt>
      <trkpt lat="47.27613" lon="-2.35826">
        <ele>147.19999694824</ele>
        <time>2022-09-29T10:04:28.000Z</time>
      </trkpt>
      <trkpt lat="47.27638" lon="-2.35797">
        <ele>147.19999694824</ele>
        <time>2022-09-29T10:04:34.000Z</time>
      </trkpt>
      <trkpt lat="47.27641" lon="-2.35791">
        <ele>147.19999694824</ele>
        <time>2022-09-29T10:04:35.000Z</time>
      </trkpt>
      <trkpt lat="47.27655" lon="-2.35771">
        <ele>147.19999694824</ele>
        <time>2022-09-29T10:04:39.000Z</time>
      </trkpt>
      <trkpt lat="47.27669" lon="-2.35758">
        <ele>147.19999694824</ele>
        <time>2022-09-29T10:04:43.000Z</time>
      </trkpt>
      <trkpt lat="47.2767" lon="-2.3574">
        <ele>147.19999694824</ele>
        <time>2022-09-29T10:04:46.000Z</time>
      </trkpt>
      <trkpt lat="47.27671" lon="-2.35733">
        <ele>147.19999694824</ele>
        <time>2022-09-29T10:04:47.000Z</time>
      </trkpt>
      <trkpt lat="47.27678" lon="-2.35724">
        <ele>147.19999694824</ele>
        <time>2022-09-29T10:04:49.000Z</time>
      </trkpt>
      <trkpt lat="47.27691" lon="-2.35717">
        <ele>147.19999694824</ele>
        <time>2022-09-29T10:04:52.000Z</time>
      </trkpt>
      <trkpt lat="47.27696" lon="-2.35714">
        <ele>147.19999694824</ele>
        <time>2022-09-29T10:04:53.000Z</time>
      </trkpt>
      <trkpt lat="47.277" lon="-2.35712">
        <ele>147.19999694824</ele>
        <time>2022-09-29T10:04:54.000Z</time>
      </trkpt>
      <trkpt lat="47.27713" lon="-2.35699">
        <ele>147.60000610352</ele>
        <time>2022-09-29T10:04:58.000Z</time>
      </trkpt>
      <trkpt lat="47.27716" lon="-2.35695">
        <ele>148</ele>
        <time>2022-09-29T10:04:59.000Z</time>
      </trkpt>
      <trkpt lat="47.27719" lon="-2.35692">
        <ele>148.39999389648</ele>
        <time>2022-09-29T10:05:00.000Z</time>
      </trkpt>
      <trkpt lat="47.27722" lon="-2.35689">
        <ele>148.80000305176</ele>
        <time>2022-09-29T10:05:01.000Z</time>
      </trkpt>
      <trkpt lat="47.27725" lon="-2.35685">
        <ele>149.19999694824</ele>
        <time>2022-09-29T10:05:02.000Z</time>
      </trkpt>
      <trkpt lat="47.27743" lon="-2.35656">
        <ele>149.19999694824</ele>
        <time>2022-09-29T10:05:08.000Z</time>
      </trkpt>
      <trkpt lat="47.27753" lon="-2.35642">
        <ele>149.60000610352</ele>
        <time>2022-09-29T10:05:11.000Z</time>
      </trkpt>
      <trkpt lat="47.27756" lon="-2.35638">
        <ele>150.19999694824</ele>
        <time>2022-09-29T10:05:12.000Z</time>
      </trkpt>
      <trkpt lat="47.27759" lon="-2.35633">
        <ele>150.60000610352</ele>
        <time>2022-09-29T10:05:13.000Z</time>
      </trkpt>
      <trkpt lat="47.27762" lon="-2.35629">
        <ele>151</ele>
        <time>2022-09-29T10:05:14.000Z</time>
      </trkpt>
      <trkpt lat="47.27766" lon="-2.35625">
        <ele>151.39999389648</ele>
        <time>2022-09-29T10:05:15.000Z</time>
      </trkpt>
      <trkpt lat="47.27775" lon="-2.35619">
        <ele>151.39999389648</ele>
        <time>2022-09-29T10:05:17.000Z</time>
      </trkpt>
      <trkpt lat="47.27779" lon="-2.35616">
        <ele>151.39999389648</ele>
        <time>2022-09-29T10:05:18.000Z</time>
      </trkpt>
      <trkpt lat="47.27783" lon="-2.35614">
        <ele>151.39999389648</ele>
        <time>2022-09-29T10:05:19.000Z</time>
      </trkpt>
      <trkpt lat="47.27792" lon="-2.3561">
        <ele>151.39999389648</ele>
        <time>2022-09-29T10:05:21.000Z</time>
      </trkpt>
      <trkpt lat="47.27796" lon="-2.35608">
        <ele>151.39999389648</ele>
        <time>2022-09-29T10:05:22.000Z</time>
      </trkpt>
      <trkpt lat="47.27825" lon="-2.35598">
        <ele>151.39999389648</ele>
        <time>2022-09-29T10:05:29.000Z</time>
      </trkpt>
      <trkpt lat="47.2783" lon="-2.35598">
        <ele>151.39999389648</ele>
        <time>2022-09-29T10:05:30.000Z</time>
      </trkpt>
      <trkpt lat="47.27848" lon="-2.35596">
        <ele>151.80000305176</ele>
        <time>2022-09-29T10:05:34.000Z</time>
      </trkpt>
      <trkpt lat="47.27852" lon="-2.35595">
        <ele>152.19999694824</ele>
        <time>2022-09-29T10:05:35.000Z</time>
      </trkpt>
      <trkpt lat="47.27857" lon="-2.35594">
        <ele>152.60000610352</ele>
        <time>2022-09-29T10:05:36.000Z</time>
      </trkpt>
      <trkpt lat="47.27862" lon="-2.35592">
        <ele>153.19999694824</ele>
        <time>2022-09-29T10:05:37.000Z</time>
      </trkpt>
      <trkpt lat="47.27866" lon="-2.35591">
        <ele>153.60000610352</ele>
        <time>2022-09-29T10:05:38.000Z</time>
      </trkpt>
      <trkpt lat="47.2788" lon="-2.35588">
        <ele>153.60000610352</ele>
        <time>2022-09-29T10:05:41.000Z</time>
      </trkpt>
      <trkpt lat="47.27889" lon="-2.35586">
        <ele>153.60000610352</ele>
        <time>2022-09-29T10:05:43.000Z</time>
      </trkpt>
      <trkpt lat="47.27901" lon="-2.35585">
        <ele>153.60000610352</ele>
        <time>2022-09-29T10:05:46.000Z</time>
      </trkpt>
      <trkpt lat="47.27909" lon="-2.35584">
        <ele>154</ele>
        <time>2022-09-29T10:05:48.000Z</time>
      </trkpt>
      <trkpt lat="47.27914" lon="-2.35584">
        <ele>154.39999389648</ele>
        <time>2022-09-29T10:05:49.000Z</time>
      </trkpt>
      <trkpt lat="47.27918" lon="-2.35583">
        <ele>154.80000305176</ele>
        <time>2022-09-29T10:05:50.000Z</time>
      </trkpt>
      <trkpt lat="47.27922" lon="-2.35582">
        <ele>155.19999694824</ele>
        <time>2022-09-29T10:05:51.000Z</time>
      </trkpt>
      <trkpt lat="47.27927" lon="-2.35582">
        <ele>155.60000610352</ele>
        <time>2022-09-29T10:05:52.000Z</time>
      </trkpt>
      <trkpt lat="47.27945" lon="-2.35583">
        <ele>155.60000610352</ele>
        <time>2022-09-29T10:05:56.000Z</time>
      </trkpt>
      <trkpt lat="47.27949" lon="-2.35583">
        <ele>155.60000610352</ele>
        <time>2022-09-29T10:05:57.000Z</time>
      </trkpt>
      <trkpt lat="47.27965" lon="-2.35583">
        <ele>155.60000610352</ele>
        <time>2022-09-29T10:06:01.000Z</time>
      </trkpt>
      <trkpt lat="47.27988" lon="-2.35585">
        <ele>155.60000610352</ele>
        <time>2022-09-29T10:06:07.000Z</time>
      </trkpt>
      <trkpt lat="47.27992" lon="-2.35584">
        <ele>156.39999389648</ele>
        <time>2022-09-29T10:06:08.000Z</time>
      </trkpt>
      <trkpt lat="47.27996" lon="-2.35584">
        <ele>156.80000305176</ele>
        <time>2022-09-29T10:06:09.000Z</time>
      </trkpt>
      <trkpt lat="47.28" lon="-2.35582">
        <ele>157.19999694824</ele>
        <time>2022-09-29T10:06:10.000Z</time>
      </trkpt>
      <trkpt lat="47.28004" lon="-2.3558">
        <ele>157.80000305176</ele>
        <time>2022-09-29T10:06:11.000Z</time>
      </trkpt>
      <trkpt lat="47.28008" lon="-2.35579">
        <ele>157.80000305176</ele>
        <time>2022-09-29T10:06:12.000Z</time>
      </trkpt>
      <trkpt lat="47.28036" lon="-2.35575">
        <ele>157.80000305176</ele>
        <time>2022-09-29T10:06:19.000Z</time>
      </trkpt>
      <trkpt lat="47.2806" lon="-2.3558">
        <ele>157.80000305176</ele>
        <time>2022-09-29T10:06:26.000Z</time>
      </trkpt>
      <trkpt lat="47.28067" lon="-2.35591">
        <ele>157.80000305176</ele>
        <time>2022-09-29T10:06:30.000Z</time>
      </trkpt>
      <trkpt lat="47.28069" lon="-2.35594">
        <ele>157.80000305176</ele>
        <time>2022-09-29T10:06:31.000Z</time>
      </trkpt>
      <trkpt lat="47.28075" lon="-2.35604">
        <ele>158.19999694824</ele>
        <time>2022-09-29T10:06:34.000Z</time>
      </trkpt>
      <trkpt lat="47.28077" lon="-2.35608">
        <ele>158.60000610352</ele>
        <time>2022-09-29T10:06:35.000Z</time>
      </trkpt>
      <trkpt lat="47.28078" lon="-2.35612">
        <ele>159</ele>
        <time>2022-09-29T10:06:36.000Z</time>
      </trkpt>
      <trkpt lat="47.28079" lon="-2.35614">
        <ele>159.39999389648</ele>
        <time>2022-09-29T10:06:37.000Z</time>
      </trkpt>
      <trkpt lat="47.2808" lon="-2.35616">
        <ele>159.80000305176</ele>
        <time>2022-09-29T10:06:38.000Z</time>
      </trkpt>
      <trkpt lat="47.28083" lon="-2.3562">
        <ele>159.80000305176</ele>
        <time>2022-09-29T10:06:42.000Z</time>
      </trkpt>
      <trkpt lat="47.28078" lon="-2.35609">
        <ele>159.80000305176</ele>
        <time>2022-09-29T10:16:01.000Z</time>
      </trkpt>
      <trkpt lat="47.28075" lon="-2.35606">
        <ele>159.80000305176</ele>
        <time>2022-09-29T10:16:04.000Z</time>
      </trkpt>
      <trkpt lat="47.28068" lon="-2.35591">
        <ele>159.80000305176</ele>
        <time>2022-09-29T10:16:11.000Z</time>
      </trkpt>
      <trkpt lat="47.28065" lon="-2.35586">
        <ele>159.80000305176</ele>
        <time>2022-09-29T10:16:13.000Z</time>
      </trkpt>
      <trkpt lat="47.28058" lon="-2.35579">
        <ele>159.80000305176</ele>
        <time>2022-09-29T10:16:16.000Z</time>
      </trkpt>
      <trkpt lat="47.28042" lon="-2.35577">
        <ele>159.80000305176</ele>
        <time>2022-09-29T10:16:21.000Z</time>
      </trkpt>
      <trkpt lat="47.28022" lon="-2.35575">
        <ele>159.80000305176</ele>
        <time>2022-09-29T10:16:26.000Z</time>
      </trkpt>
      <trkpt lat="47.28007" lon="-2.35579">
        <ele>159.80000305176</ele>
        <time>2022-09-29T10:16:30.000Z</time>
      </trkpt>
      <trkpt lat="47.28003" lon="-2.3558">
        <ele>159.80000305176</ele>
        <time>2022-09-29T10:16:31.000Z</time>
      </trkpt>
      <trkpt lat="47.27975" lon="-2.35586">
        <ele>159.80000305176</ele>
        <time>2022-09-29T10:16:38.000Z</time>
      </trkpt>
      <trkpt lat="47.27963" lon="-2.35582">
        <ele>159.80000305176</ele>
        <time>2022-09-29T10:16:41.000Z</time>
      </trkpt>
      <trkpt lat="47.27954" lon="-2.35581">
        <ele>159.80000305176</ele>
        <time>2022-09-29T10:16:43.000Z</time>
      </trkpt>
      <trkpt lat="47.27939" lon="-2.35584">
        <ele>159.39999389648</ele>
        <time>2022-09-29T10:16:46.000Z</time>
      </trkpt>
      <trkpt lat="47.27934" lon="-2.35585">
        <ele>159</ele>
        <time>2022-09-29T10:16:47.000Z</time>
      </trkpt>
      <trkpt lat="47.27929" lon="-2.35586">
        <ele>158.60000610352</ele>
        <time>2022-09-29T10:16:48.000Z</time>
      </trkpt>
      <trkpt lat="47.27924" lon="-2.35588">
        <ele>158.19999694824</ele>
        <time>2022-09-29T10:16:49.000Z</time>
      </trkpt>
      <trkpt lat="47.2792" lon="-2.35589">
        <ele>157.80000305176</ele>
        <time>2022-09-29T10:16:50.000Z</time>
      </trkpt>
      <trkpt lat="47.27882" lon="-2.356">
        <ele>157.80000305176</ele>
        <time>2022-09-29T10:16:57.000Z</time>
      </trkpt>
      <trkpt lat="47.27846" lon="-2.35608">
        <ele>157.19999694824</ele>
        <time>2022-09-29T10:17:03.000Z</time>
      </trkpt>
      <trkpt lat="47.2784" lon="-2.3561">
        <ele>156.80000305176</ele>
        <time>2022-09-29T10:17:04.000Z</time>
      </trkpt>
      <trkpt lat="47.27834" lon="-2.35612">
        <ele>156.39999389648</ele>
        <time>2022-09-29T10:17:05.000Z</time>
      </trkpt>
      <trkpt lat="47.27827" lon="-2.35613">
        <ele>155.80000305176</ele>
        <time>2022-09-29T10:17:06.000Z</time>
      </trkpt>
      <trkpt lat="47.27821" lon="-2.35615">
        <ele>155.39999389648</ele>
        <time>2022-09-29T10:17:07.000Z</time>
      </trkpt>
      <trkpt lat="47.27795" lon="-2.35623">
        <ele>155.39999389648</ele>
        <time>2022-09-29T10:17:11.000Z</time>
      </trkpt>
      <trkpt lat="47.27782" lon="-2.3563">
        <ele>155.39999389648</ele>
        <time>2022-09-29T10:17:13.000Z</time>
      </trkpt>
      <trkpt lat="47.27771" lon="-2.35639">
        <ele>154.60000610352</ele>
        <time>2022-09-29T10:17:15.000Z</time>
      </trkpt>
      <trkpt lat="47.27765" lon="-2.35645">
        <ele>154.19999694824</ele>
        <time>2022-09-29T10:17:16.000Z</time>
      </trkpt>
      <trkpt lat="47.2776" lon="-2.3565">
        <ele>153.80000305176</ele>
        <time>2022-09-29T10:17:17.000Z</time>
      </trkpt>
      <trkpt lat="47.27755" lon="-2.35657">
        <ele>153.19999694824</ele>
        <time>2022-09-29T10:17:18.000Z</time>
      </trkpt>
      <trkpt lat="47.27743" lon="-2.35676">
        <ele>153.19999694824</ele>
        <time>2022-09-29T10:17:21.000Z</time>
      </trkpt>
      <trkpt lat="47.27721" lon="-2.35707">
        <ele>153.19999694824</ele>
        <time>2022-09-29T10:17:26.000Z</time>
      </trkpt>
      <trkpt lat="47.27712" lon="-2.35717">
        <ele>152.80000305176</ele>
        <time>2022-09-29T10:17:28.000Z</time>
      </trkpt>
      <trkpt lat="47.27707" lon="-2.35722">
        <ele>152.39999389648</ele>
        <time>2022-09-29T10:17:29.000Z</time>
      </trkpt>
      <trkpt lat="47.27701" lon="-2.35727">
        <ele>152</ele>
        <time>2022-09-29T10:17:30.000Z</time>
      </trkpt>
      <trkpt lat="47.27696" lon="-2.35731">
        <ele>151.60000610352</ele>
        <time>2022-09-29T10:17:31.000Z</time>
      </trkpt>
      <trkpt lat="47.2769" lon="-2.35736">
        <ele>151</ele>
        <time>2022-09-29T10:17:32.000Z</time>
      </trkpt>
      <trkpt lat="47.27686" lon="-2.35743">
        <ele>151</ele>
        <time>2022-09-29T10:17:33.000Z</time>
      </trkpt>
      <trkpt lat="47.27681" lon="-2.35748">
        <ele>151</ele>
        <time>2022-09-29T10:17:34.000Z</time>
      </trkpt>
      <trkpt lat="47.27676" lon="-2.35749">
        <ele>151</ele>
        <time>2022-09-29T10:17:35.000Z</time>
      </trkpt>
      <trkpt lat="47.27666" lon="-2.3574">
        <ele>151</ele>
        <time>2022-09-29T10:17:37.000Z</time>
      </trkpt>
      <trkpt lat="47.27654" lon="-2.35725">
        <ele>150.60000610352</ele>
        <time>2022-09-29T10:17:40.000Z</time>
      </trkpt>
      <trkpt lat="47.27648" lon="-2.35722">
        <ele>150.19999694824</ele>
        <time>2022-09-29T10:17:41.000Z</time>
      </trkpt>
      <trkpt lat="47.27642" lon="-2.35721">
        <ele>149.80000305176</ele>
        <time>2022-09-29T10:17:42.000Z</time>
      </trkpt>
      <trkpt lat="47.27636" lon="-2.3572">
        <ele>149.39999389648</ele>
        <time>2022-09-29T10:17:43.000Z</time>
      </trkpt>
      <trkpt lat="47.2763" lon="-2.35718">
        <ele>149</ele>
        <time>2022-09-29T10:17:44.000Z</time>
      </trkpt>
      <trkpt lat="47.2758" lon="-2.35707">
        <ele>149</ele>
        <time>2022-09-29T10:17:52.000Z</time>
      </trkpt>
      <trkpt lat="47.27535" lon="-2.35695">
        <ele>148.60000610352</ele>
        <time>2022-09-29T10:17:59.000Z</time>
      </trkpt>
      <trkpt lat="47.27529" lon="-2.35694">
        <ele>148.19999694824</ele>
        <time>2022-09-29T10:18:00.000Z</time>
      </trkpt>
      <trkpt lat="47.27522" lon="-2.35692">
        <ele>147.80000305176</ele>
        <time>2022-09-29T10:18:01.000Z</time>
      </trkpt>
      <trkpt lat="47.27515" lon="-2.35691">
        <ele>147.39999389648</ele>
        <time>2022-09-29T10:18:02.000Z</time>
      </trkpt>
      <trkpt lat="47.27509" lon="-2.35689">
        <ele>147</ele>
        <time>2022-09-29T10:18:03.000Z</time>
      </trkpt>
      <trkpt lat="47.27483" lon="-2.35683">
        <ele>147</ele>
        <time>2022-09-29T10:18:07.000Z</time>
      </trkpt>
      <trkpt lat="47.27444" lon="-2.35676">
        <ele>147</ele>
        <time>2022-09-29T10:18:13.000Z</time>
      </trkpt>
      <trkpt lat="47.27426" lon="-2.35671">
        <ele>146.60000610352</ele>
        <time>2022-09-29T10:18:16.000Z</time>
      </trkpt>
      <trkpt lat="47.2742" lon="-2.3567">
        <ele>146.19999694824</ele>
        <time>2022-09-29T10:18:17.000Z</time>
      </trkpt>
      <trkpt lat="47.27414" lon="-2.3567">
        <ele>145.80000305176</ele>
        <time>2022-09-29T10:18:18.000Z</time>
      </trkpt>
      <trkpt lat="47.27408" lon="-2.35671">
        <ele>145.39999389648</ele>
        <time>2022-09-29T10:18:19.000Z</time>
      </trkpt>
      <trkpt lat="47.27402" lon="-2.35672">
        <ele>145</ele>
        <time>2022-09-29T10:18:20.000Z</time>
      </trkpt>
      <trkpt lat="47.27391" lon="-2.35679">
        <ele>145</ele>
        <time>2022-09-29T10:18:22.000Z</time>
      </trkpt>
      <trkpt lat="47.27379" lon="-2.35687">
        <ele>145</ele>
        <time>2022-09-29T10:18:24.000Z</time>
      </trkpt>
      <trkpt lat="47.27331" lon="-2.35723">
        <ele>145</ele>
        <time>2022-09-29T10:18:33.000Z</time>
      </trkpt>
      <trkpt lat="47.27319" lon="-2.3574">
        <ele>145</ele>
        <time>2022-09-29T10:18:37.000Z</time>
      </trkpt>
      <trkpt lat="47.27315" lon="-2.35743">
        <ele>145</ele>
        <time>2022-09-29T10:18:38.000Z</time>
      </trkpt>
      <trkpt lat="47.27307" lon="-2.35737">
        <ele>145</ele>
        <time>2022-09-29T10:18:40.000Z</time>
      </trkpt>
      <trkpt lat="47.27298" lon="-2.35715">
        <ele>145</ele>
        <time>2022-09-29T10:18:44.000Z</time>
      </trkpt>
      <trkpt lat="47.2728" lon="-2.3567">
        <ele>145</ele>
        <time>2022-09-29T10:18:51.000Z</time>
      </trkpt>
      <trkpt lat="47.27251" lon="-2.35605">
        <ele>145</ele>
        <time>2022-09-29T10:19:02.000Z</time>
      </trkpt>
      <trkpt lat="47.27238" lon="-2.35575">
        <ele>145.39999389648</ele>
        <time>2022-09-29T10:19:07.000Z</time>
      </trkpt>
      <trkpt lat="47.27235" lon="-2.35569">
        <ele>145.80000305176</ele>
        <time>2022-09-29T10:19:08.000Z</time>
      </trkpt>
      <trkpt lat="47.27232" lon="-2.35563">
        <ele>146.19999694824</ele>
        <time>2022-09-29T10:19:09.000Z</time>
      </trkpt>
      <trkpt lat="47.27229" lon="-2.35557">
        <ele>146.60000610352</ele>
        <time>2022-09-29T10:19:10.000Z</time>
      </trkpt>
      <trkpt lat="47.27227" lon="-2.35551">
        <ele>147</ele>
        <time>2022-09-29T10:19:11.000Z</time>
      </trkpt>
      <trkpt lat="47.27204" lon="-2.35499">
        <ele>147</ele>
        <time>2022-09-29T10:19:20.000Z</time>
      </trkpt>
      <trkpt lat="47.2718" lon="-2.35453">
        <ele>147</ele>
        <time>2022-09-29T10:19:29.000Z</time>
      </trkpt>
      <trkpt lat="47.27154" lon="-2.35403">
        <ele>147</ele>
        <time>2022-09-29T10:19:38.000Z</time>
      </trkpt>
      <trkpt lat="47.27125" lon="-2.35351">
        <ele>147</ele>
        <time>2022-09-29T10:19:47.000Z</time>
      </trkpt>
      <trkpt lat="47.27102" lon="-2.35316">
        <ele>147</ele>
        <time>2022-09-29T10:19:53.000Z</time>
      </trkpt>
      <trkpt lat="47.27071" lon="-2.35269">
        <ele>147</ele>
        <time>2022-09-29T10:20:01.000Z</time>
      </trkpt>
      <trkpt lat="47.2704" lon="-2.3522">
        <ele>147</ele>
        <time>2022-09-29T10:20:09.000Z</time>
      </trkpt>
      <trkpt lat="47.27006" lon="-2.35167">
        <ele>147</ele>
        <time>2022-09-29T10:20:18.000Z</time>
      </trkpt>
      <trkpt lat="47.26974" lon="-2.35116">
        <ele>147</ele>
        <time>2022-09-29T10:20:27.000Z</time>
      </trkpt>
      <trkpt lat="47.26946" lon="-2.35077">
        <ele>147</ele>
        <time>2022-09-29T10:20:34.000Z</time>
      </trkpt>
      <trkpt lat="47.26938" lon="-2.35068">
        <ele>147</ele>
        <time>2022-09-29T10:20:36.000Z</time>
      </trkpt>
      <trkpt lat="47.26922" lon="-2.35043">
        <ele>147</ele>
        <time>2022-09-29T10:20:40.000Z</time>
      </trkpt>
      <trkpt lat="47.26887" lon="-2.34991">
        <ele>147</ele>
        <time>2022-09-29T10:20:49.000Z</time>
      </trkpt>
      <trkpt lat="47.2685" lon="-2.34932">
        <ele>147</ele>
        <time>2022-09-29T10:20:59.000Z</time>
      </trkpt>
      <trkpt lat="47.26823" lon="-2.34894">
        <ele>147</ele>
        <time>2022-09-29T10:21:06.000Z</time>
      </trkpt>
      <trkpt lat="47.26797" lon="-2.34856">
        <ele>147</ele>
        <time>2022-09-29T10:21:13.000Z</time>
      </trkpt>
      <trkpt lat="47.26766" lon="-2.34812">
        <ele>147</ele>
        <time>2022-09-29T10:21:21.000Z</time>
      </trkpt>
      <trkpt lat="47.26733" lon="-2.34771">
        <ele>147</ele>
        <time>2022-09-29T10:21:29.000Z</time>
      </trkpt>
      <trkpt lat="47.26695" lon="-2.34725">
        <ele>147</ele>
        <time>2022-09-29T10:21:38.000Z</time>
      </trkpt>
      <trkpt lat="47.26659" lon="-2.3468">
        <ele>147</ele>
        <time>2022-09-29T10:21:47.000Z</time>
      </trkpt>
      <trkpt lat="47.26627" lon="-2.3464">
        <ele>147</ele>
        <time>2022-09-29T10:21:55.000Z</time>
      </trkpt>
      <trkpt lat="47.26589" lon="-2.34595">
        <ele>147</ele>
        <time>2022-09-29T10:22:04.000Z</time>
      </trkpt>
      <trkpt lat="47.26558" lon="-2.34562">
        <ele>147</ele>
        <time>2022-09-29T10:22:11.000Z</time>
      </trkpt>
      <trkpt lat="47.26528" lon="-2.34532">
        <ele>147</ele>
        <time>2022-09-29T10:22:18.000Z</time>
      </trkpt>
      <trkpt lat="47.26496" lon="-2.34507">
        <ele>147</ele>
        <time>2022-09-29T10:22:25.000Z</time>
      </trkpt>
      <trkpt lat="47.26445" lon="-2.34471">
        <ele>147</ele>
        <time>2022-09-29T10:22:35.000Z</time>
      </trkpt>
      <trkpt lat="47.26401" lon="-2.34438">
        <ele>146.60000610352</ele>
        <time>2022-09-29T10:22:44.000Z</time>
      </trkpt>
      <trkpt lat="47.26397" lon="-2.34434">
        <ele>146.19999694824</ele>
        <time>2022-09-29T10:22:45.000Z</time>
      </trkpt>
      <trkpt lat="47.26392" lon="-2.3443">
        <ele>145.80000305176</ele>
        <time>2022-09-29T10:22:46.000Z</time>
      </trkpt>
      <trkpt lat="47.26387" lon="-2.34426">
        <ele>145.39999389648</ele>
        <time>2022-09-29T10:22:47.000Z</time>
      </trkpt>
      <trkpt lat="47.26383" lon="-2.34422">
        <ele>145</ele>
        <time>2022-09-29T10:22:48.000Z</time>
      </trkpt>
      <trkpt lat="47.2636" lon="-2.34401">
        <ele>145</ele>
        <time>2022-09-29T10:22:53.000Z</time>
      </trkpt>
      <trkpt lat="47.26342" lon="-2.34385">
        <ele>145</ele>
        <time>2022-09-29T10:22:57.000Z</time>
      </trkpt>
      <trkpt lat="47.26331" lon="-2.34382">
        <ele>145</ele>
        <time>2022-09-29T10:22:59.000Z</time>
      </trkpt>
      <trkpt lat="47.26326" lon="-2.34379">
        <ele>145</ele>
        <time>2022-09-29T10:23:00.000Z</time>
      </trkpt>
      <trkpt lat="47.26318" lon="-2.34371">
        <ele>145</ele>
        <time>2022-09-29T10:23:02.000Z</time>
      </trkpt>
      <trkpt lat="47.26303" lon="-2.34349">
        <ele>145</ele>
        <time>2022-09-29T10:23:06.000Z</time>
      </trkpt>
      <trkpt lat="47.26298" lon="-2.34344">
        <ele>145</ele>
        <time>2022-09-29T10:23:07.000Z</time>
      </trkpt>
      <trkpt lat="47.26267" lon="-2.34312">
        <ele>145</ele>
        <time>2022-09-29T10:23:14.000Z</time>
      </trkpt>
      <trkpt lat="47.26227" lon="-2.3427">
        <ele>145</ele>
        <time>2022-09-29T10:23:23.000Z</time>
      </trkpt>
      <trkpt lat="47.26192" lon="-2.34233">
        <ele>145</ele>
        <time>2022-09-29T10:23:31.000Z</time>
      </trkpt>
      <trkpt lat="47.26158" lon="-2.34198">
        <ele>145</ele>
        <time>2022-09-29T10:23:39.000Z</time>
      </trkpt>
      <trkpt lat="47.26149" lon="-2.3419">
        <ele>145</ele>
        <time>2022-09-29T10:23:41.000Z</time>
      </trkpt>
      <trkpt lat="47.26134" lon="-2.34183">
        <ele>145</ele>
        <time>2022-09-29T10:23:44.000Z</time>
      </trkpt>
      <trkpt lat="47.26121" lon="-2.3417">
        <ele>145</ele>
        <time>2022-09-29T10:23:47.000Z</time>
      </trkpt>
      <trkpt lat="47.26117" lon="-2.34166">
        <ele>145</ele>
        <time>2022-09-29T10:23:48.000Z</time>
      </trkpt>
      <trkpt lat="47.26102" lon="-2.34157">
        <ele>145</ele>
        <time>2022-09-29T10:23:51.000Z</time>
      </trkpt>
      <trkpt lat="47.26076" lon="-2.34144">
        <ele>145</ele>
        <time>2022-09-29T10:23:56.000Z</time>
      </trkpt>
      <trkpt lat="47.26066" lon="-2.3414">
        <ele>145</ele>
        <time>2022-09-29T10:23:58.000Z</time>
      </trkpt>
      <trkpt lat="47.26019" lon="-2.34116">
        <ele>145</ele>
        <time>2022-09-29T10:24:07.000Z</time>
      </trkpt>
      <trkpt lat="47.25972" lon="-2.34093">
        <ele>145</ele>
        <time>2022-09-29T10:24:16.000Z</time>
      </trkpt>
      <trkpt lat="47.25937" lon="-2.34078">
        <ele>145</ele>
        <time>2022-09-29T10:24:23.000Z</time>
      </trkpt>
      <trkpt lat="47.25927" lon="-2.34075">
        <ele>145</ele>
        <time>2022-09-29T10:24:25.000Z</time>
      </trkpt>
      <trkpt lat="47.25911" lon="-2.34075">
        <ele>145</ele>
        <time>2022-09-29T10:24:28.000Z</time>
      </trkpt>
      <trkpt lat="47.25906" lon="-2.34074">
        <ele>145</ele>
        <time>2022-09-29T10:24:29.000Z</time>
      </trkpt>
      <trkpt lat="47.25902" lon="-2.3407">
        <ele>144.60000610352</ele>
        <time>2022-09-29T10:24:30.000Z</time>
      </trkpt>
      <trkpt lat="47.25899" lon="-2.34064">
        <ele>144.19999694824</ele>
        <time>2022-09-29T10:24:31.000Z</time>
      </trkpt>
      <trkpt lat="47.25898" lon="-2.34058">
        <ele>143.80000305176</ele>
        <time>2022-09-29T10:24:32.000Z</time>
      </trkpt>
      <trkpt lat="47.25897" lon="-2.3405">
        <ele>143.39999389648</ele>
        <time>2022-09-29T10:24:33.000Z</time>
      </trkpt>
      <trkpt lat="47.25898" lon="-2.34043">
        <ele>143</ele>
        <time>2022-09-29T10:24:34.000Z</time>
      </trkpt>
      <trkpt lat="47.25906" lon="-2.34016">
        <ele>143</ele>
        <time>2022-09-29T10:24:38.000Z</time>
      </trkpt>
      <trkpt lat="47.25916" lon="-2.33981">
        <ele>143</ele>
        <time>2022-09-29T10:24:43.000Z</time>
      </trkpt>
      <trkpt lat="47.25935" lon="-2.33936">
        <ele>143</ele>
        <time>2022-09-29T10:24:50.000Z</time>
      </trkpt>
      <trkpt lat="47.25938" lon="-2.33931">
        <ele>143</ele>
        <time>2022-09-29T10:24:51.000Z</time>
      </trkpt>
      <trkpt lat="47.25944" lon="-2.3392">
        <ele>143</ele>
        <time>2022-09-29T10:24:53.000Z</time>
      </trkpt>
      <trkpt lat="47.25946" lon="-2.33914">
        <ele>143</ele>
        <time>2022-09-29T10:24:54.000Z</time>
      </trkpt>
      <trkpt lat="47.25956" lon="-2.33903">
        <ele>143</ele>
        <time>2022-09-29T10:24:57.000Z</time>
      </trkpt>
      <trkpt lat="47.25968" lon="-2.33904">
        <ele>143</ele>
        <time>2022-09-29T10:25:00.000Z</time>
      </trkpt>
      <trkpt lat="47.25974" lon="-2.3389">
        <ele>143</ele>
        <time>2022-09-29T10:25:03.000Z</time>
      </trkpt>
      <trkpt lat="47.25988" lon="-2.33847">
        <ele>143</ele>
        <time>2022-09-29T10:25:10.000Z</time>
      </trkpt>
      <trkpt lat="47.26002" lon="-2.33808">
        <ele>143</ele>
        <time>2022-09-29T10:25:16.000Z</time>
      </trkpt>
      <trkpt lat="47.26019" lon="-2.33762">
        <ele>143</ele>
        <time>2022-09-29T10:25:23.000Z</time>
      </trkpt>
      <trkpt lat="47.2603" lon="-2.33728">
        <ele>143</ele>
        <time>2022-09-29T10:25:28.000Z</time>
      </trkpt>
      <trkpt lat="47.26032" lon="-2.33722">
        <ele>143</ele>
        <time>2022-09-29T10:25:29.000Z</time>
      </trkpt>
      <trkpt lat="47.2604" lon="-2.33704">
        <ele>143</ele>
        <time>2022-09-29T10:25:32.000Z</time>
      </trkpt>
      <trkpt lat="47.26045" lon="-2.33693">
        <ele>143</ele>
        <time>2022-09-29T10:25:34.000Z</time>
      </trkpt>
      <trkpt lat="47.26058" lon="-2.33655">
        <ele>143</ele>
        <time>2022-09-29T10:25:40.000Z</time>
      </trkpt>
      <trkpt lat="47.26067" lon="-2.33622">
        <ele>143</ele>
        <time>2022-09-29T10:25:45.000Z</time>
      </trkpt>
      <trkpt lat="47.2607" lon="-2.33615">
        <ele>143</ele>
        <time>2022-09-29T10:25:46.000Z</time>
      </trkpt>
      <trkpt lat="47.26088" lon="-2.33564">
        <ele>143</ele>
        <time>2022-09-29T10:25:54.000Z</time>
      </trkpt>
      <trkpt lat="47.26101" lon="-2.3353">
        <ele>143</ele>
        <time>2022-09-29T10:25:59.000Z</time>
      </trkpt>
      <trkpt lat="47.26107" lon="-2.33509">
        <ele>143</ele>
        <time>2022-09-29T10:26:02.000Z</time>
      </trkpt>
      <trkpt lat="47.26123" lon="-2.33468">
        <ele>143</ele>
        <time>2022-09-29T10:26:09.000Z</time>
      </trkpt>
      <trkpt lat="47.26134" lon="-2.33443">
        <ele>143</ele>
        <time>2022-09-29T10:26:14.000Z</time>
      </trkpt>
      <trkpt lat="47.26133" lon="-2.33426">
        <ele>143</ele>
        <time>2022-09-29T10:26:17.000Z</time>
      </trkpt>
      <trkpt lat="47.26128" lon="-2.33417">
        <ele>143</ele>
        <time>2022-09-29T10:26:19.000Z</time>
      </trkpt>
      <trkpt lat="47.26125" lon="-2.33414">
        <ele>143</ele>
        <time>2022-09-29T10:26:20.000Z</time>
      </trkpt>
      <trkpt lat="47.26121" lon="-2.3341">
        <ele>143</ele>
        <time>2022-09-29T10:26:21.000Z</time>
      </trkpt>
      <trkpt lat="47.26095" lon="-2.33379">
        <ele>143</ele>
        <time>2022-09-29T10:26:28.000Z</time>
      </trkpt>
      <trkpt lat="47.26079" lon="-2.33356">
        <ele>143</ele>
        <time>2022-09-29T10:26:33.000Z</time>
      </trkpt>
      <trkpt lat="47.26075" lon="-2.3335">
        <ele>143</ele>
        <time>2022-09-29T10:26:34.000Z</time>
      </trkpt>
      <trkpt lat="47.26073" lon="-2.33344">
        <ele>143</ele>
        <time>2022-09-29T10:26:35.000Z</time>
      </trkpt>
      <trkpt lat="47.26061" lon="-2.33311">
        <ele>143</ele>
        <time>2022-09-29T10:26:40.000Z</time>
      </trkpt>
      <trkpt lat="47.26043" lon="-2.3326">
        <ele>143</ele>
        <time>2022-09-29T10:26:47.000Z</time>
      </trkpt>
      <trkpt lat="47.26021" lon="-2.33198">
        <ele>143</ele>
        <time>2022-09-29T10:26:56.000Z</time>
      </trkpt>
      <trkpt lat="47.26009" lon="-2.33164">
        <ele>143</ele>
        <time>2022-09-29T10:27:01.000Z</time>
      </trkpt>
      <trkpt lat="47.25999" lon="-2.33136">
        <ele>143</ele>
        <time>2022-09-29T10:27:05.000Z</time>
      </trkpt>
      <trkpt lat="47.25989" lon="-2.3311">
        <ele>143</ele>
        <time>2022-09-29T10:27:09.000Z</time>
      </trkpt>
      <trkpt lat="47.25986" lon="-2.33094">
        <ele>143</ele>
        <time>2022-09-29T10:27:11.000Z</time>
      </trkpt>
      <trkpt lat="47.25978" lon="-2.33071">
        <ele>143</ele>
        <time>2022-09-29T10:27:14.000Z</time>
      </trkpt>
      <trkpt lat="47.25973" lon="-2.33057">
        <ele>143</ele>
        <time>2022-09-29T10:27:16.000Z</time>
      </trkpt>
      <trkpt lat="47.25956" lon="-2.33009">
        <ele>143</ele>
        <time>2022-09-29T10:27:23.000Z</time>
      </trkpt>
      <trkpt lat="47.25935" lon="-2.32956">
        <ele>143</ele>
        <time>2022-09-29T10:27:31.000Z</time>
      </trkpt>
      <trkpt lat="47.25921" lon="-2.32912">
        <ele>143</ele>
        <time>2022-09-29T10:27:37.000Z</time>
      </trkpt>
      <trkpt lat="47.25918" lon="-2.32906">
        <ele>143</ele>
        <time>2022-09-29T10:27:38.000Z</time>
      </trkpt>
      <trkpt lat="47.259" lon="-2.32856">
        <ele>143</ele>
        <time>2022-09-29T10:27:45.000Z</time>
      </trkpt>
      <trkpt lat="47.25881" lon="-2.32798">
        <ele>143</ele>
        <time>2022-09-29T10:27:53.000Z</time>
      </trkpt>
      <trkpt lat="47.25863" lon="-2.32742">
        <ele>143</ele>
        <time>2022-09-29T10:28:01.000Z</time>
      </trkpt>
      <trkpt lat="47.25862" lon="-2.32735">
        <ele>143</ele>
        <time>2022-09-29T10:28:02.000Z</time>
      </trkpt>
      <trkpt lat="47.25862" lon="-2.32727">
        <ele>143</ele>
        <time>2022-09-29T10:28:03.000Z</time>
      </trkpt>
      <trkpt lat="47.25861" lon="-2.32712">
        <ele>143</ele>
        <time>2022-09-29T10:28:05.000Z</time>
      </trkpt>
      <trkpt lat="47.25859" lon="-2.32704">
        <ele>143</ele>
        <time>2022-09-29T10:28:06.000Z</time>
      </trkpt>
      <trkpt lat="47.25851" lon="-2.3268">
        <ele>143</ele>
        <time>2022-09-29T10:28:10.000Z</time>
      </trkpt>
      <trkpt lat="47.25836" lon="-2.32621">
        <ele>143</ele>
        <time>2022-09-29T10:28:18.000Z</time>
      </trkpt>
      <trkpt lat="47.25819" lon="-2.32555">
        <ele>143</ele>
        <time>2022-09-29T10:28:27.000Z</time>
      </trkpt>
      <trkpt lat="47.25811" lon="-2.3252">
        <ele>143</ele>
        <time>2022-09-29T10:28:32.000Z</time>
      </trkpt>
      <trkpt lat="47.25809" lon="-2.32507">
        <ele>143</ele>
        <time>2022-09-29T10:28:34.000Z</time>
      </trkpt>
      <trkpt lat="47.25811" lon="-2.32494">
        <ele>143</ele>
        <time>2022-09-29T10:28:36.000Z</time>
      </trkpt>
      <trkpt lat="47.2582" lon="-2.32483">
        <ele>143</ele>
        <time>2022-09-29T10:28:39.000Z</time>
      </trkpt>
      <trkpt lat="47.25834" lon="-2.32483">
        <ele>143</ele>
        <time>2022-09-29T10:28:42.000Z</time>
      </trkpt>
      <trkpt lat="47.25839" lon="-2.32483">
        <ele>143</ele>
        <time>2022-09-29T10:28:43.000Z</time>
      </trkpt>
      <trkpt lat="47.25876" lon="-2.32486">
        <ele>143</ele>
        <time>2022-09-29T10:28:51.000Z</time>
      </trkpt>
      <trkpt lat="47.25887" lon="-2.32479">
        <ele>143</ele>
        <time>2022-09-29T10:28:54.000Z</time>
      </trkpt>
      <trkpt lat="47.25889" lon="-2.32469">
        <ele>143</ele>
        <time>2022-09-29T10:28:56.000Z</time>
      </trkpt>
      <trkpt lat="47.25891" lon="-2.32465">
        <ele>143</ele>
        <time>2022-09-29T10:28:57.000Z</time>
      </trkpt>
      <trkpt lat="47.25894" lon="-2.32461">
        <ele>143</ele>
        <time>2022-09-29T10:28:58.000Z</time>
      </trkpt>
      <trkpt lat="47.25917" lon="-2.32435">
        <ele>143</ele>
        <time>2022-09-29T10:29:04.000Z</time>
      </trkpt>
      <trkpt lat="47.25942" lon="-2.32402">
        <ele>143</ele>
        <time>2022-09-29T10:29:11.000Z</time>
      </trkpt>
      <trkpt lat="47.25966" lon="-2.3237">
        <ele>143</ele>
        <time>2022-09-29T10:29:18.000Z</time>
      </trkpt>
      <trkpt lat="47.25993" lon="-2.32337">
        <ele>143</ele>
        <time>2022-09-29T10:29:25.000Z</time>
      </trkpt>
      <trkpt lat="47.26011" lon="-2.32312">
        <ele>143</ele>
        <time>2022-09-29T10:29:30.000Z</time>
      </trkpt>
      <trkpt lat="47.26019" lon="-2.32304">
        <ele>143</ele>
        <time>2022-09-29T10:29:32.000Z</time>
      </trkpt>
      <trkpt lat="47.26048" lon="-2.3227">
        <ele>143</ele>
        <time>2022-09-29T10:29:40.000Z</time>
      </trkpt>
      <trkpt lat="47.26062" lon="-2.32253">
        <ele>143</ele>
        <time>2022-09-29T10:29:44.000Z</time>
      </trkpt>
      <trkpt lat="47.26069" lon="-2.32245">
        <ele>143</ele>
        <time>2022-09-29T10:29:46.000Z</time>
      </trkpt>
      <trkpt lat="47.26072" lon="-2.3224">
        <ele>143</ele>
        <time>2022-09-29T10:29:47.000Z</time>
      </trkpt>
      <trkpt lat="47.2609" lon="-2.32217">
        <ele>143</ele>
        <time>2022-09-29T10:29:52.000Z</time>
      </trkpt>
      <trkpt lat="47.26093" lon="-2.32212">
        <ele>143</ele>
        <time>2022-09-29T10:29:53.000Z</time>
      </trkpt>
      <trkpt lat="47.26095" lon="-2.32207">
        <ele>143</ele>
        <time>2022-09-29T10:29:54.000Z</time>
      </trkpt>
      <trkpt lat="47.26105" lon="-2.32183">
        <ele>143</ele>
        <time>2022-09-29T10:29:58.000Z</time>
      </trkpt>
      <trkpt lat="47.26108" lon="-2.32178">
        <ele>143</ele>
        <time>2022-09-29T10:29:59.000Z</time>
      </trkpt>
      <trkpt lat="47.26115" lon="-2.32159">
        <ele>143</ele>
        <time>2022-09-29T10:30:02.000Z</time>
      </trkpt>
      <trkpt lat="47.26121" lon="-2.32142">
        <ele>143</ele>
        <time>2022-09-29T10:30:05.000Z</time>
      </trkpt>
      <trkpt lat="47.26131" lon="-2.3211">
        <ele>143</ele>
        <time>2022-09-29T10:30:10.000Z</time>
      </trkpt>
      <trkpt lat="47.26132" lon="-2.32104">
        <ele>143</ele>
        <time>2022-09-29T10:30:11.000Z</time>
      </trkpt>
      <trkpt lat="47.26139" lon="-2.3208">
        <ele>143</ele>
        <time>2022-09-29T10:30:15.000Z</time>
      </trkpt>
      <trkpt lat="47.26143" lon="-2.32068">
        <ele>143</ele>
        <time>2022-09-29T10:30:17.000Z</time>
      </trkpt>
      <trkpt lat="47.26147" lon="-2.32055">
        <ele>143</ele>
        <time>2022-09-29T10:30:19.000Z</time>
      </trkpt>
      <trkpt lat="47.26151" lon="-2.32043">
        <ele>143</ele>
        <time>2022-09-29T10:30:21.000Z</time>
      </trkpt>
      <trkpt lat="47.26156" lon="-2.32032">
        <ele>143</ele>
        <time>2022-09-29T10:30:23.000Z</time>
      </trkpt>
      <trkpt lat="47.26169" lon="-2.3202">
        <ele>143</ele>
        <time>2022-09-29T10:30:27.000Z</time>
      </trkpt>
      <trkpt lat="47.26186" lon="-2.32023">
        <ele>143</ele>
        <time>2022-09-29T10:30:32.000Z</time>
      </trkpt>
      <trkpt lat="47.26195" lon="-2.32022">
        <ele>143</ele>
        <time>2022-09-29T10:30:36.000Z</time>
      </trkpt>
      <trkpt lat="47.26196" lon="-2.32019">
        <ele>143</ele>
        <time>2022-09-29T10:30:37.000Z</time>
      </trkpt>
      <trkpt lat="47.26201" lon="-2.32004">
        <ele>143</ele>
        <time>2022-09-29T10:30:41.000Z</time>
      </trkpt>
      <trkpt lat="47.26207" lon="-2.31997">
        <ele>143</ele>
        <time>2022-09-29T10:30:44.000Z</time>
      </trkpt>
      <trkpt lat="47.2621" lon="-2.31994">
        <ele>143</ele>
        <time>2022-09-29T10:30:45.000Z</time>
      </trkpt>
      <trkpt lat="47.26229" lon="-2.31973">
        <ele>143</ele>
        <time>2022-09-29T10:30:51.000Z</time>
      </trkpt>
      <trkpt lat="47.2625" lon="-2.31952">
        <ele>143</ele>
        <time>2022-09-29T10:30:57.000Z</time>
      </trkpt>
      <trkpt lat="47.26266" lon="-2.31926">
        <ele>143</ele>
        <time>2022-09-29T10:31:03.000Z</time>
      </trkpt>
      <trkpt lat="47.26283" lon="-2.31902">
        <ele>143</ele>
        <time>2022-09-29T10:31:09.000Z</time>
      </trkpt>
      <trkpt lat="47.26299" lon="-2.31881">
        <ele>143</ele>
        <time>2022-09-29T10:31:15.000Z</time>
      </trkpt>
      <trkpt lat="47.26301" lon="-2.31852">
        <ele>143</ele>
        <time>2022-09-29T10:31:20.000Z</time>
      </trkpt>
      <trkpt lat="47.26303" lon="-2.31809">
        <ele>143</ele>
        <time>2022-09-29T10:31:27.000Z</time>
      </trkpt>
      <trkpt lat="47.26304" lon="-2.31781">
        <ele>143</ele>
        <time>2022-09-29T10:31:32.000Z</time>
      </trkpt>
      <trkpt lat="47.263" lon="-2.31738">
        <ele>143</ele>
        <time>2022-09-29T10:31:39.000Z</time>
      </trkpt>
      <trkpt lat="47.26303" lon="-2.3172">
        <ele>143</ele>
        <time>2022-09-29T10:31:42.000Z</time>
      </trkpt>
      <trkpt lat="47.26305" lon="-2.31715">
        <ele>143</ele>
        <time>2022-09-29T10:31:43.000Z</time>
      </trkpt>
      <trkpt lat="47.26315" lon="-2.31709">
        <ele>143</ele>
        <time>2022-09-29T10:31:46.000Z</time>
      </trkpt>
      <trkpt lat="47.2633" lon="-2.31699">
        <ele>143</ele>
        <time>2022-09-29T10:31:51.000Z</time>
      </trkpt>
      <trkpt lat="47.26332" lon="-2.31695">
        <ele>143</ele>
        <time>2022-09-29T10:31:52.000Z</time>
      </trkpt>
      <trkpt lat="47.26339" lon="-2.31688">
        <ele>143</ele>
        <time>2022-09-29T10:31:55.000Z</time>
      </trkpt>
      <trkpt lat="47.26342" lon="-2.31687">
        <ele>143</ele>
        <time>2022-09-29T10:31:56.000Z</time>
      </trkpt>
      <trkpt lat="47.26345" lon="-2.31685">
        <ele>143.39999389648</ele>
        <time>2022-09-29T10:31:57.000Z</time>
      </trkpt>
      <trkpt lat="47.26347" lon="-2.31684">
        <ele>143.80000305176</ele>
        <time>2022-09-29T10:31:58.000Z</time>
      </trkpt>
      <trkpt lat="47.26349" lon="-2.31682">
        <ele>144.19999694824</ele>
        <time>2022-09-29T10:31:59.000Z</time>
      </trkpt>
      <trkpt lat="47.26352" lon="-2.31681">
        <ele>144.60000610352</ele>
        <time>2022-09-29T10:32:00.000Z</time>
      </trkpt>
      <trkpt lat="47.26355" lon="-2.31679">
        <ele>145</ele>
        <time>2022-09-29T10:32:01.000Z</time>
      </trkpt>
      <trkpt lat="47.26375" lon="-2.31671">
        <ele>145</ele>
        <time>2022-09-29T10:32:08.000Z</time>
      </trkpt>
      <trkpt lat="47.26378" lon="-2.31669">
        <ele>145</ele>
        <time>2022-09-29T10:32:09.000Z</time>
      </trkpt>
      <trkpt lat="47.26385" lon="-2.31663">
        <ele>145</ele>
        <time>2022-09-29T10:32:12.000Z</time>
      </trkpt>
      <trkpt lat="47.26396" lon="-2.31657">
        <ele>145</ele>
        <time>2022-09-29T10:32:16.000Z</time>
      </trkpt>
      <trkpt lat="47.26398" lon="-2.31656">
        <ele>145</ele>
        <time>2022-09-29T10:32:17.000Z</time>
      </trkpt>
      <trkpt lat="47.26408" lon="-2.31645">
        <ele>145</ele>
        <time>2022-09-29T10:32:21.000Z</time>
      </trkpt>
      <trkpt lat="47.26409" lon="-2.31635">
        <ele>145.39999389648</ele>
        <time>2022-09-29T10:32:23.000Z</time>
      </trkpt>
      <trkpt lat="47.26409" lon="-2.3163">
        <ele>145.80000305176</ele>
        <time>2022-09-29T10:32:24.000Z</time>
      </trkpt>
      <trkpt lat="47.26409" lon="-2.31626">
        <ele>146.19999694824</ele>
        <time>2022-09-29T10:32:25.000Z</time>
      </trkpt>
      <trkpt lat="47.26409" lon="-2.31621">
        <ele>146.80000305176</ele>
        <time>2022-09-29T10:32:26.000Z</time>
      </trkpt>
      <trkpt lat="47.26409" lon="-2.31616">
        <ele>147.19999694824</ele>
        <time>2022-09-29T10:32:27.000Z</time>
      </trkpt>
      <trkpt lat="47.26409" lon="-2.31593">
        <ele>147.19999694824</ele>
        <time>2022-09-29T10:32:32.000Z</time>
      </trkpt>
      <trkpt lat="47.26409" lon="-2.3157">
        <ele>147.19999694824</ele>
        <time>2022-09-29T10:32:37.000Z</time>
      </trkpt>
      <trkpt lat="47.26411" lon="-2.31553">
        <ele>147.19999694824</ele>
        <time>2022-09-29T10:32:42.000Z</time>
      </trkpt>
      <trkpt lat="47.26413" lon="-2.31552">
        <ele>147.19999694824</ele>
        <time>2022-09-29T10:32:43.000Z</time>
      </trkpt>
      <trkpt lat="47.26417" lon="-2.31553">
        <ele>147.19999694824</ele>
        <time>2022-09-29T10:32:48.000Z</time>
      </trkpt>
    </trkseg>
  </trk>
</gpx>